Wetterdaten: Donnerstag, 13.07.2017
Datum Zeit Temp. A. Temp. A. max Feuchte A. Luftdruck Regen Wind Richtung Richtung Sonnenschein ET UV Solar Taupunkt Windchill Windböen
13.07.2017 00:00 15,1 °C 15,1 °C 91 % 1015,9 hPa 0,0 mm 4,0 km/h (1 Bft) W-SW 244 ° 0 min 0,000 mm 0,0 UV-I 0 W/m² 13,6 °C 15,1 °C 6,4 km/h (2 Bft)
13.07.2017 00:01 15,1 °C 15,1 °C 91 % 1015,9 hPa 0,0 mm 3,7 km/h (1 Bft) S-SW 213 ° 0 min 0,000 mm 0,0 UV-I 0 W/m² 13,6 °C 15,1 °C 6,4 km/h (2 Bft)
13.07.2017 00:02 15,1 °C 15,1 °C 91 % 1015,9 hPa 0,0 mm 6,0 km/h (2 Bft) S 186 ° 0 min 0,000 mm 0,0 UV-I 0 W/m² 13,6 °C 15,1 °C 11,3 km/h (2 Bft)
13.07.2017 00:03 15,1 °C 15,1 °C 91 % 1015,9 hPa 0,0 mm 4,2 km/h (1 Bft) W 281 ° 0 min 0,000 mm 0,0 UV-I 0 W/m² 13,6 °C 15,1 °C 9,7 km/h (2 Bft)
13.07.2017 00:04 15,1 °C 15,1 °C 91 % 1015,9 hPa 0,0 mm 5,0 km/h (1 Bft) S-SW 211 ° 0 min 0,000 mm 0,0 UV-I 0 W/m² 13,6 °C 15,1 °C 11,3 km/h (2 Bft)
13.07.2017 00:05 15,1 °C 15,1 °C 91 % 1015,9 hPa 0,0 mm 4,3 km/h (1 Bft) W-SW 249 ° 0 min 0,000 mm 0,0 UV-I 0 W/m² 13,6 °C 15,1 °C 9,7 km/h (2 Bft)
13.07.2017 00:06 15,1 °C 15,1 °C 91 % 1015,9 hPa 0,0 mm 0,6 km/h (0 Bft) W-SW 249 ° 0 min 0,000 mm 0,0 UV-I 0 W/m² 13,6 °C 15,1 °C 4,8 km/h (1 Bft)
13.07.2017 00:07 15,1 °C 15,1 °C 91 % 1015,9 hPa 0,0 mm 3,2 km/h (1 Bft) SW 220 ° 0 min 0,000 mm 0,0 UV-I 0 W/m² 13,6 °C 15,1 °C 6,4 km/h (2 Bft)
13.07.2017 00:08 15,1 °C 15,1 °C 91 % 1015,9 hPa 0,0 mm 3,5 km/h (1 Bft) S-SW 194 ° 0 min 0,000 mm 0,0 UV-I 0 W/m² 13,6 °C 15,1 °C 8,0 km/h (2 Bft)
13.07.2017 00:09 15,1 °C 15,1 °C 92 % 1015,9 hPa 0,0 mm 0,8 km/h (0 Bft) S-SW 205 ° 0 min 0,000 mm 0,0 UV-I 0 W/m² 13,8 °C 15,1 °C 3,2 km/h (1 Bft)
13.07.2017 00:10 15,1 °C 15,1 °C 92 % 1015,9 hPa 0,0 mm 0,4 km/h (0 Bft) S-SW 205 ° 0 min 0,000 mm 0,0 UV-I 0 W/m² 13,8 °C 15,1 °C 3,2 km/h (1 Bft)
13.07.2017 00:11 15,1 °C 15,1 °C 92 % 1015,9 hPa 0,0 mm 3,2 km/h (1 Bft) S-SW 213 ° 0 min 0,000 mm 0,0 UV-I 0 W/m² 13,8 °C 15,1 °C 6,4 km/h (2 Bft)
13.07.2017 00:12 15,0 °C 15,1 °C 92 % 1016,0 hPa 0,0 mm 3,6 km/h (1 Bft) W-SW 242 ° 0 min 0,000 mm 0,0 UV-I 0 W/m² 13,7 °C 15,0 °C 4,8 km/h (1 Bft)
13.07.2017 00:13 15,0 °C 15,1 °C 92 % 1016,0 hPa 0,0 mm 5,1 km/h (1 Bft) W 271 ° 0 min 0,000 mm 0,0 UV-I 0 W/m² 13,7 °C 15,0 °C 8,0 km/h (2 Bft)
13.07.2017 00:14 15,1 °C 15,1 °C 92 % 1015,9 hPa 0,0 mm 3,4 km/h (1 Bft) SW 217 ° 0 min 0,000 mm 0,0 UV-I 0 W/m² 13,8 °C 15,1 °C 9,7 km/h (2 Bft)
13.07.2017 00:15 15,0 °C 15,1 °C 92 % 1015,9 hPa 0,0 mm 1,1 km/h (1 Bft) W 265 ° 0 min 0,000 mm 0,0 UV-I 0 W/m² 13,7 °C 15,0 °C 4,8 km/h (1 Bft)
13.07.2017 00:16 15,0 °C 15,1 °C 92 % 1015,9 hPa 0,0 mm 3,0 km/h (1 Bft) SW 232 ° 0 min 0,000 mm 0,0 UV-I 0 W/m² 13,7 °C 15,0 °C 6,4 km/h (2 Bft)
13.07.2017 00:17 15,1 °C 15,1 °C 92 % 1015,9 hPa 0,0 mm 5,5 km/h (1 Bft) SW 230 ° 0 min 0,000 mm 0,0 UV-I 0 W/m² 13,8 °C 15,1 °C 11,3 km/h (2 Bft)
13.07.2017 00:18 15,1 °C 15,1 °C 92 % 1016,0 hPa 0,0 mm 2,4 km/h (1 Bft) W-SW 244 ° 0 min 0,000 mm 0,0 UV-I 0 W/m² 13,8 °C 15,1 °C 8,0 km/h (2 Bft)
13.07.2017 00:19 15,0 °C 15,1 °C 92 % 1016,0 hPa 0,0 mm 1,6 km/h (1 Bft) W-SW 252 ° 0 min 0,000 mm 0,0 UV-I 0 W/m² 13,7 °C 15,0 °C 3,2 km/h (1 Bft)
13.07.2017 00:20 15,0 °C 15,1 °C 92 % 1016,0 hPa 0,0 mm 2,7 km/h (1 Bft) SW 221 ° 0 min 0,000 mm 0,0 UV-I 0 W/m² 13,7 °C 15,0 °C 4,8 km/h (1 Bft)
13.07.2017 00:21 15,1 °C 15,1 °C 92 % 1016,0 hPa 0,0 mm 5,2 km/h (1 Bft) SW 227 ° 0 min 0,000 mm 0,0 UV-I 0 W/m² 13,8 °C 15,1 °C 8,0 km/h (2 Bft)
13.07.2017 00:22 15,1 °C 15,1 °C 92 % 1016,1 hPa 0,0 mm 3,4 km/h (1 Bft) SW 232 ° 0 min 0,000 mm 0,0 UV-I 0 W/m² 13,8 °C 15,1 °C 11,3 km/h (2 Bft)
13.07.2017 00:23 15,1 °C 15,1 °C 92 % 1016,1 hPa 0,0 mm 0,0 km/h (0 Bft) SW 232 ° 0 min 0,000 mm 0,0 UV-I 0 W/m² 13,8 °C 15,1 °C 0,0 km/h (0 Bft)
13.07.2017 00:24 15,1 °C 15,1 °C 92 % 1016,1 hPa 0,0 mm 1,1 km/h (1 Bft) W-SW 247 ° 0 min 0,000 mm 0,0 UV-I 0 W/m² 13,8 °C 15,1 °C 4,8 km/h (1 Bft)
13.07.2017 00:25 15,1 °C 15,1 °C 92 % 1016,1 hPa 0,0 mm 3,0 km/h (1 Bft) W-SW 257 ° 0 min 0,000 mm 0,0 UV-I 0 W/m² 13,8 °C 15,1 °C 4,8 km/h (1 Bft)
13.07.2017 00:26 15,1 °C 15,1 °C 92 % 1016,1 hPa 0,0 mm 4,5 km/h (1 Bft) W 271 ° 0 min 0,000 mm 0,0 UV-I 0 W/m² 13,8 °C 15,1 °C 6,4 km/h (2 Bft)
13.07.2017 00:27 15,1 °C 15,1 °C 92 % 1016,1 hPa 0,0 mm 7,1 km/h (2 Bft) W-SW 242 ° 0 min 0,000 mm 0,0 UV-I 0 W/m² 13,8 °C 15,1 °C 11,3 km/h (2 Bft)
13.07.2017 00:28 15,1 °C 15,1 °C 92 % 1016,2 hPa 0,0 mm 6,0 km/h (2 Bft) S 189 ° 0 min 0,000 mm 0,0 UV-I 0 W/m² 13,8 °C 15,1 °C 11,3 km/h (2 Bft)
13.07.2017 00:29 15,1 °C 15,1 °C 92 % 1016,2 hPa 0,2 mm 3,2 km/h (1 Bft) SW 224 ° 0 min 0,000 mm 0,0 UV-I 0 W/m² 13,8 °C 15,1 °C 6,4 km/h (2 Bft)
13.07.2017 00:30 15,1 °C 15,1 °C 92 % 1016,2 hPa 0,0 mm 4,0 km/h (1 Bft) W 267 ° 0 min 0,000 mm 0,0 UV-I 0 W/m² 13,8 °C 15,1 °C 9,7 km/h (2 Bft)
13.07.2017 00:31 15,0 °C 15,1 °C 92 % 1016,3 hPa 0,0 mm 8,1 km/h (2 Bft) W-NW 300 ° 0 min 0,000 mm 0,0 UV-I 0 W/m² 13,7 °C 15,0 °C 12,9 km/h (3 Bft)
13.07.2017 00:32 15,1 °C 15,1 °C 92 % 1016,3 hPa 0,0 mm 9,4 km/h (2 Bft) W 268 ° 0 min 0,000 mm 0,0 UV-I 0 W/m² 13,8 °C 15,1 °C 12,9 km/h (3 Bft)
13.07.2017 00:33 15,1 °C 15,1 °C 92 % 1016,3 hPa 0,2 mm 7,8 km/h (2 Bft) S-SW 199 ° 0 min 0,000 mm 0,0 UV-I 0 W/m² 13,8 °C 15,1 °C 12,9 km/h (3 Bft)
13.07.2017 00:34 15,0 °C 15,1 °C 92 % 1016,3 hPa 0,0 mm 11,2 km/h (2 Bft) W-SW 255 ° 0 min 0,000 mm 0,0 UV-I 0 W/m² 13,7 °C 15,0 °C 17,7 km/h (3 Bft)
13.07.2017 00:35 14,9 °C 15,0 °C 92 % 1016,3 hPa 0,0 mm 8,2 km/h (2 Bft) W-SW 254 ° 0 min 0,000 mm 0,0 UV-I 0 W/m² 13,6 °C 14,9 °C 14,5 km/h (3 Bft)
13.07.2017 00:36 14,9 °C 15,0 °C 92 % 1016,3 hPa 0,0 mm 7,8 km/h (2 Bft) W-SW 239 ° 0 min 0,000 mm 0,0 UV-I 0 W/m² 13,6 °C 14,9 °C 12,9 km/h (3 Bft)
13.07.2017 00:37 14,9 °C 15,0 °C 92 % 1016,3 hPa 0,2 mm 4,9 km/h (1 Bft) W 260 ° 0 min 0,000 mm 0,0 UV-I 0 W/m² 13,6 °C 14,9 °C 11,3 km/h (2 Bft)
13.07.2017 00:38 14,9 °C 14,9 °C 92 % 1016,4 hPa 0,0 mm 8,2 km/h (2 Bft) SW 232 ° 0 min 0,000 mm 0,0 UV-I 0 W/m² 13,6 °C 14,9 °C 11,3 km/h (2 Bft)
13.07.2017 00:39 14,9 °C 14,9 °C 92 % 1016,4 hPa 0,0 mm 9,3 km/h (2 Bft) W 266 ° 0 min 0,000 mm 0,0 UV-I 0 W/m² 13,6 °C 14,9 °C 17,7 km/h (3 Bft)
13.07.2017 00:40 14,9 °C 14,9 °C 92 % 1016,4 hPa 0,0 mm 12,4 km/h (3 Bft) W 269 ° 0 min 0,000 mm 0,0 UV-I 0 W/m² 13,6 °C 14,9 °C 24,1 km/h (4 Bft)
13.07.2017 00:41 14,9 °C 14,9 °C 92 % 1016,4 hPa 0,2 mm 6,7 km/h (2 Bft) SW 232 ° 0 min 0,000 mm 0,0 UV-I 0 W/m² 13,6 °C 14,9 °C 12,9 km/h (3 Bft)
13.07.2017 00:42 14,8 °C 14,9 °C 92 % 1016,4 hPa 0,0 mm 9,3 km/h (2 Bft) W-SW 244 ° 0 min 0,000 mm 0,0 UV-I 0 W/m² 13,5 °C 14,8 °C 14,5 km/h (3 Bft)
13.07.2017 00:43 14,8 °C 14,8 °C 92 % 1016,4 hPa 0,0 mm 6,0 km/h (2 Bft) W 278 ° 0 min 0,000 mm 0,0 UV-I 0 W/m² 13,5 °C 14,8 °C 9,7 km/h (2 Bft)
13.07.2017 00:44 14,8 °C 14,8 °C 92 % 1016,3 hPa 0,0 mm 5,0 km/h (1 Bft) W 277 ° 0 min 0,000 mm 0,0 UV-I 0 W/m² 13,5 °C 14,8 °C 11,3 km/h (2 Bft)
13.07.2017 00:45 14,8 °C 14,8 °C 93 % 1016,4 hPa 0,2 mm 5,8 km/h (2 Bft) W-SW 247 ° 0 min 0,000 mm 0,0 UV-I 0 W/m² 13,7 °C 14,8 °C 11,3 km/h (2 Bft)
13.07.2017 00:46 14,8 °C 14,8 °C 93 % 1016,4 hPa 0,0 mm 2,7 km/h (1 Bft) S-SW 201 ° 0 min 0,000 mm 0,0 UV-I 0 W/m² 13,7 °C 14,8 °C 4,8 km/h (1 Bft)
13.07.2017 00:47 14,7 °C 14,8 °C 92 % 1016,4 hPa 0,0 mm 3,1 km/h (1 Bft) W 273 ° 0 min 0,000 mm 0,0 UV-I 0 W/m² 13,4 °C 14,7 °C 6,4 km/h (2 Bft)
13.07.2017 00:48 14,7 °C 14,7 °C 93 % 1016,4 hPa 0,0 mm 7,5 km/h (2 Bft) W 276 ° 0 min 0,000 mm 0,0 UV-I 0 W/m² 13,6 °C 14,7 °C 20,9 km/h (4 Bft)
13.07.2017 00:49 14,7 °C 14,7 °C 93 % 1016,4 hPa 0,0 mm 6,6 km/h (2 Bft) S 177 ° 0 min 0,000 mm 0,0 UV-I 0 W/m² 13,6 °C 14,7 °C 14,5 km/h (3 Bft)
13.07.2017 00:50 14,7 °C 14,7 °C 93 % 1016,4 hPa 0,0 mm 3,2 km/h (1 Bft) W-NW 283 ° 0 min 0,000 mm 0,0 UV-I 0 W/m² 13,6 °C 14,7 °C 9,7 km/h (2 Bft)
13.07.2017 00:51 14,7 °C 14,7 °C 93 % 1016,4 hPa 0,0 mm 4,0 km/h (1 Bft) W 270 ° 0 min 0,000 mm 0,0 UV-I 0 W/m² 13,6 °C 14,7 °C 6,4 km/h (2 Bft)
13.07.2017 00:52 14,7 °C 14,7 °C 93 % 1016,4 hPa 0,0 mm 2,9 km/h (1 Bft) W-SW 247 ° 0 min 0,000 mm 0,0 UV-I 0 W/m² 13,6 °C 14,7 °C 4,8 km/h (1 Bft)
13.07.2017 00:53 14,7 °C 14,7 °C 93 % 1016,4 hPa 0,0 mm 5,5 km/h (1 Bft) W-NW 296 ° 0 min 0,000 mm 0,0 UV-I 0 W/m² 13,6 °C 14,7 °C 11,3 km/h (2 Bft)
13.07.2017 00:54 14,7 °C 14,7 °C 93 % 1016,5 hPa 0,2 mm 7,1 km/h (2 Bft) W-SW 258 ° 0 min 0,000 mm 0,0 UV-I 0 W/m² 13,6 °C 14,7 °C 12,9 km/h (3 Bft)
13.07.2017 00:55 14,7 °C 14,7 °C 93 % 1016,5 hPa 0,0 mm 4,6 km/h (1 Bft) W 276 ° 0 min 0,000 mm 0,0 UV-I 0 W/m² 13,6 °C 14,7 °C 9,7 km/h (2 Bft)
13.07.2017 00:56 14,7 °C 14,7 °C 93 % 1016,5 hPa 0,0 mm 4,2 km/h (1 Bft) NW 325 ° 0 min 0,000 mm 0,0 UV-I 0 W/m² 13,6 °C 14,7 °C 8,0 km/h (2 Bft)
13.07.2017 00:57 14,7 °C 14,7 °C 93 % 1016,8 hPa 0,0 mm 8,9 km/h (2 Bft) NO 40 ° 0 min 0,000 mm 0,0 UV-I 0 W/m² 13,6 °C 14,7 °C 16,1 km/h (3 Bft)
13.07.2017 00:58 14,6 °C 14,7 °C 93 % 1017,0 hPa 0,0 mm 13,9 km/h (3 Bft) NW 321 ° 0 min 0,000 mm 0,0 UV-I 0 W/m² 13,5 °C 14,6 °C 22,5 km/h (4 Bft)
13.07.2017 00:59 14,3 °C 14,6 °C 92 % 1017,0 hPa 0,2 mm 10,8 km/h (2 Bft) NW 319 ° 0 min 0,000 mm 0,0 UV-I 0 W/m² 13,0 °C 14,3 °C 16,1 km/h (3 Bft)
13.07.2017 01:00 14,2 °C 14,3 °C 91 % 1017,0 hPa 0,0 mm 11,3 km/h (2 Bft) N-NW 338 ° 0 min 0,000 mm 0,0 UV-I 0 W/m² 12,8 °C 14,2 °C 14,5 km/h (3 Bft)
13.07.2017 01:01 14,0 °C 14,2 °C 90 % 1017,0 hPa 0,2 mm 10,0 km/h (2 Bft) NW 321 ° 0 min 0,000 mm 0,0 UV-I 0 W/m² 12,4 °C 14,0 °C 14,5 km/h (3 Bft)
13.07.2017 01:02 13,8 °C 14,0 °C 90 % 1017,1 hPa 0,0 mm 6,0 km/h (2 Bft) W 268 ° 0 min 0,000 mm 0,0 UV-I 0 W/m² 12,2 °C 13,8 °C 12,9 km/h (3 Bft)
13.07.2017 01:03 13,7 °C 13,8 °C 90 % 1017,1 hPa 0,2 mm 5,5 km/h (1 Bft) W-NW 300 ° 0 min 0,000 mm 0,0 UV-I 0 W/m² 12,1 °C 13,7 °C 8,0 km/h (2 Bft)
13.07.2017 01:04 13,6 °C 13,7 °C 90 % 1017,1 hPa 0,2 mm 4,8 km/h (1 Bft) NW 312 ° 0 min 0,000 mm 0,0 UV-I 0 W/m² 12,0 °C 13,6 °C 6,4 km/h (2 Bft)
13.07.2017 01:05 13,4 °C 13,6 °C 90 % 1017,1 hPa 0,2 mm 5,0 km/h (1 Bft) N-NW 327 ° 0 min 0,000 mm 0,0 UV-I 0 W/m² 11,8 °C 13,4 °C 8,0 km/h (2 Bft)
13.07.2017 01:06 13,3 °C 13,4 °C 90 % 1017,0 hPa 0,0 mm 3,6 km/h (1 Bft) N-NO 26 ° 0 min 0,000 mm 0,0 UV-I 0 W/m² 11,7 °C 13,3 °C 8,0 km/h (2 Bft)
13.07.2017 01:07 13,2 °C 13,3 °C 91 % 1016,9 hPa 0,0 mm 8,3 km/h (2 Bft) NW 320 ° 0 min 0,000 mm 0,0 UV-I 0 W/m² 11,8 °C 13,2 °C 14,5 km/h (3 Bft)
13.07.2017 01:08 13,2 °C 13,2 °C 91 % 1017,1 hPa 0,2 mm 7,6 km/h (2 Bft) NW 314 ° 0 min 0,000 mm 0,0 UV-I 0 W/m² 11,8 °C 13,2 °C 11,3 km/h (2 Bft)
13.07.2017 01:09 13,1 °C 13,2 °C 91 % 1017,1 hPa 0,0 mm 5,0 km/h (1 Bft) W-NW 303 ° 0 min 0,000 mm 0,0 UV-I 0 W/m² 11,7 °C 13,1 °C 8,0 km/h (2 Bft)
13.07.2017 01:10 13,1 °C 13,1 °C 91 % 1017,1 hPa 0,2 mm 6,1 km/h (2 Bft) NW 321 ° 0 min 0,000 mm 0,0 UV-I 0 W/m² 11,7 °C 13,1 °C 9,7 km/h (2 Bft)
13.07.2017 01:11 12,9 °C 13,1 °C 91 % 1017,1 hPa 0,0 mm 3,6 km/h (1 Bft) NW 319 ° 0 min 0,000 mm 0,0 UV-I 0 W/m² 11,5 °C 12,9 °C 4,8 km/h (1 Bft)
13.07.2017 01:12 12,9 °C 12,9 °C 91 % 1017,1 hPa 0,0 mm 2,6 km/h (1 Bft) W-NW 300 ° 0 min 0,000 mm 0,0 UV-I 0 W/m² 11,5 °C 12,9 °C 3,2 km/h (1 Bft)
13.07.2017 01:13 12,9 °C 12,9 °C 92 % 1017,2 hPa 0,0 mm 4,8 km/h (1 Bft) W 268 ° 0 min 0,000 mm 0,0 UV-I 0 W/m² 11,6 °C 12,9 °C 9,7 km/h (2 Bft)
13.07.2017 01:14 12,8 °C 12,9 °C 92 % 1017,2 hPa 0,0 mm 4,3 km/h (1 Bft) NW 311 ° 0 min 0,000 mm 0,0 UV-I 0 W/m² 11,5 °C 12,8 °C 6,4 km/h (2 Bft)
13.07.2017 01:15 12,8 °C 12,8 °C 92 % 1017,3 hPa 0,2 mm 1,5 km/h (1 Bft) NW 311 ° 0 min 0,000 mm 0,0 UV-I 0 W/m² 11,5 °C 12,8 °C 3,2 km/h (1 Bft)
13.07.2017 01:16 12,8 °C 12,8 °C 92 % 1017,2 hPa 0,2 mm 0,8 km/h (0 Bft) NW 311 ° 0 min 0,000 mm 0,0 UV-I 0 W/m² 11,5 °C 12,8 °C 4,8 km/h (1 Bft)
13.07.2017 01:17 12,7 °C 12,8 °C 92 % 1017,2 hPa 0,0 mm 1,0 km/h (0 Bft) NW 311 ° 0 min 0,000 mm 0,0 UV-I 0 W/m² 11,4 °C 12,7 °C 3,2 km/h (1 Bft)
13.07.2017 01:18 12,7 °C 12,7 °C 92 % 1017,2 hPa 0,0 mm 0,2 km/h (0 Bft) NW 311 ° 0 min 0,000 mm 0,0 UV-I 0 W/m² 11,4 °C 12,7 °C 1,6 km/h (1 Bft)
13.07.2017 01:19 12,7 °C 12,7 °C 92 % 1017,2 hPa 0,0 mm 0,0 km/h (0 Bft) NW 311 ° 0 min 0,000 mm 0,0 UV-I 0 W/m² 11,4 °C 12,7 °C 0,0 km/h (0 Bft)
13.07.2017 01:20 12,7 °C 12,7 °C 92 % 1017,3 hPa 0,0 mm 1,7 km/h (1 Bft) W 281 ° 0 min 0,000 mm 0,0 UV-I 0 W/m² 11,4 °C 12,7 °C 4,8 km/h (1 Bft)
13.07.2017 01:21 12,6 °C 12,7 °C 92 % 1017,3 hPa 0,0 mm 2,0 km/h (1 Bft) SW 226 ° 0 min 0,000 mm 0,0 UV-I 0 W/m² 11,3 °C 12,6 °C 4,8 km/h (1 Bft)
13.07.2017 01:22 12,6 °C 12,7 °C 92 % 1017,4 hPa 0,0 mm 0,0 km/h (0 Bft) SW 226 ° 0 min 0,000 mm 0,0 UV-I 0 W/m² 11,3 °C 12,6 °C 0,0 km/h (0 Bft)
13.07.2017 01:23 12,6 °C 12,6 °C 92 % 1017,4 hPa 0,0 mm 0,0 km/h (0 Bft) SW 226 ° 0 min 0,000 mm 0,0 UV-I 0 W/m² 11,3 °C 12,6 °C 0,0 km/h (0 Bft)
13.07.2017 01:24 12,6 °C 12,6 °C 92 % 1017,3 hPa 0,2 mm 0,0 km/h (0 Bft) SW 226 ° 0 min 0,000 mm 0,0 UV-I 0 W/m² 11,3 °C 12,6 °C 0,0 km/h (0 Bft)
13.07.2017 01:25 12,6 °C 12,6 °C 92 % 1017,3 hPa 0,0 mm 0,0 km/h (0 Bft) SW 226 ° 0 min 0,000 mm 0,0 UV-I 0 W/m² 11,3 °C 12,6 °C 0,0 km/h (0 Bft)
13.07.2017 01:26 12,6 °C 12,6 °C 92 % 1017,3 hPa 0,0 mm 0,0 km/h (0 Bft) SW 226 ° 0 min 0,000 mm 0,0 UV-I 0 W/m² 11,3 °C 12,6 °C 0,0 km/h (0 Bft)
13.07.2017 01:27 12,6 °C 12,6 °C 92 % 1017,3 hPa 0,0 mm 0,0 km/h (0 Bft) SW 226 ° 0 min 0,000 mm 0,0 UV-I 0 W/m² 11,3 °C 12,6 °C 0,0 km/h (0 Bft)
13.07.2017 01:28 12,6 °C 12,6 °C 92 % 1017,3 hPa 0,0 mm 0,0 km/h (0 Bft) SW 226 ° 0 min 0,000 mm 0,0 UV-I 0 W/m² 11,3 °C 12,6 °C 0,0 km/h (0 Bft)
13.07.2017 01:29 12,6 °C 12,6 °C 93 % 1017,3 hPa 0,0 mm 0,7 km/h (0 Bft) SW 226 ° 0 min 0,000 mm 0,0 UV-I 0 W/m² 11,5 °C 12,6 °C 3,2 km/h (1 Bft)
13.07.2017 01:30 12,5 °C 12,6 °C 93 % 1017,3 hPa 0,0 mm 0,6 km/h (0 Bft) SW 226 ° 0 min 0,000 mm 0,0 UV-I 0 W/m² 11,4 °C 12,5 °C 1,6 km/h (1 Bft)
13.07.2017 01:31 12,6 °C 12,6 °C 93 % 1017,3 hPa 0,0 mm 1,3 km/h (1 Bft) SW 226 ° 0 min 0,000 mm 0,0 UV-I 0 W/m² 11,5 °C 12,6 °C 3,2 km/h (1 Bft)
13.07.2017 01:32 12,5 °C 12,6 °C 93 % 1017,3 hPa 0,0 mm 0,1 km/h (0 Bft) SW 226 ° 0 min 0,000 mm 0,0 UV-I 0 W/m² 11,4 °C 12,5 °C 1,6 km/h (1 Bft)
13.07.2017 01:33 12,5 °C 12,5 °C 93 % 1017,3 hPa 0,0 mm 1,1 km/h (1 Bft) SW 226 ° 0 min 0,000 mm 0,0 UV-I 0 W/m² 11,4 °C 12,5 °C 3,2 km/h (1 Bft)
13.07.2017 01:34 12,5 °C 12,5 °C 93 % 1017,3 hPa 0,0 mm 3,0 km/h (1 Bft) SW 226 ° 0 min 0,000 mm 0,0 UV-I 0 W/m² 11,4 °C 12,5 °C 4,8 km/h (1 Bft)
13.07.2017 01:35 12,4 °C 12,5 °C 93 % 1017,3 hPa 0,0 mm 0,6 km/h (0 Bft) W 270 ° 0 min 0,000 mm 0,0 UV-I 0 W/m² 11,3 °C 12,4 °C 1,6 km/h (1 Bft)
13.07.2017 01:36 12,4 °C 12,4 °C 93 % 1017,3 hPa 0,0 mm 0,0 km/h (0 Bft) W 270 ° 0 min 0,000 mm 0,0 UV-I 0 W/m² 11,3 °C 12,4 °C 0,0 km/h (0 Bft)
13.07.2017 01:37 12,4 °C 12,4 °C 93 % 1017,3 hPa 0,0 mm 1,0 km/h (0 Bft) W-SW 242 ° 0 min 0,000 mm 0,0 UV-I 0 W/m² 11,3 °C 12,4 °C 4,8 km/h (1 Bft)
13.07.2017 01:38 12,4 °C 12,4 °C 93 % 1017,3 hPa 0,0 mm 2,5 km/h (1 Bft) W-SW 238 ° 0 min 0,000 mm 0,0 UV-I 0 W/m² 11,3 °C 12,4 °C 4,8 km/h (1 Bft)
13.07.2017 01:39 12,4 °C 12,4 °C 93 % 1017,3 hPa 0,0 mm 3,8 km/h (1 Bft) SW 230 ° 0 min 0,000 mm 0,0 UV-I 0 W/m² 11,3 °C 12,4 °C 4,8 km/h (1 Bft)
13.07.2017 01:40 12,4 °C 12,4 °C 93 % 1017,3 hPa 0,0 mm 4,0 km/h (1 Bft) S-SW 208 ° 0 min 0,000 mm 0,0 UV-I 0 W/m² 11,3 °C 12,4 °C 4,8 km/h (1 Bft)
13.07.2017 01:41 12,4 °C 12,4 °C 93 % 1017,3 hPa 0,0 mm 2,9 km/h (1 Bft) S-SW 194 ° 0 min 0,000 mm 0,0 UV-I 0 W/m² 11,3 °C 12,4 °C 4,8 km/h (1 Bft)
13.07.2017 01:42 12,4 °C 12,4 °C 93 % 1017,3 hPa 0,0 mm 3,4 km/h (1 Bft) S-SW 200 ° 0 min 0,000 mm 0,0 UV-I 0 W/m² 11,3 °C 12,4 °C 6,4 km/h (2 Bft)
13.07.2017 01:43 12,3 °C 12,4 °C 93 % 1017,3 hPa 0,0 mm 4,3 km/h (1 Bft) S-SW 197 ° 0 min 0,000 mm 0,0 UV-I 0 W/m² 11,2 °C 12,3 °C 6,4 km/h (2 Bft)
13.07.2017 01:44 12,3 °C 12,3 °C 93 % 1017,3 hPa 0,2 mm 2,2 km/h (1 Bft) S-SW 197 ° 0 min 0,000 mm 0,0 UV-I 0 W/m² 11,2 °C 12,3 °C 4,8 km/h (1 Bft)
13.07.2017 01:45 12,3 °C 12,3 °C 93 % 1017,3 hPa 0,0 mm 0,9 km/h (0 Bft) S-SW 198 ° 0 min 0,000 mm 0,0 UV-I 0 W/m² 11,2 °C 12,3 °C 3,2 km/h (1 Bft)
13.07.2017 01:46 12,3 °C 12,3 °C 93 % 1017,3 hPa 0,0 mm 1,1 km/h (1 Bft) S-SW 197 ° 0 min 0,000 mm 0,0 UV-I 0 W/m² 11,2 °C 12,3 °C 3,2 km/h (1 Bft)
13.07.2017 01:47 12,3 °C 12,3 °C 93 % 1017,3 hPa 0,0 mm 0,0 km/h (0 Bft) S-SW 197 ° 0 min 0,000 mm 0,0 UV-I 0 W/m² 11,2 °C 12,3 °C 0,0 km/h (0 Bft)
13.07.2017 01:48 12,3 °C 12,3 °C 93 % 1017,3 hPa 0,0 mm 0,0 km/h (0 Bft) S-SW 198 ° 0 min 0,000 mm 0,0 UV-I 0 W/m² 11,2 °C 12,3 °C 0,0 km/h (0 Bft)
13.07.2017 01:49 12,3 °C 12,3 °C 93 % 1017,3 hPa 0,0 mm 0,3 km/h (0 Bft) S-SW 197 ° 0 min 0,000 mm 0,0 UV-I 0 W/m² 11,2 °C 12,3 °C 1,6 km/h (1 Bft)
13.07.2017 01:50 12,3 °C 12,3 °C 93 % 1017,3 hPa 0,0 mm 1,0 km/h (0 Bft) S-SW 197 ° 0 min 0,000 mm 0,0 UV-I 0 W/m² 11,2 °C 12,3 °C 3,2 km/h (1 Bft)
13.07.2017 01:51 12,3 °C 12,3 °C 93 % 1017,4 hPa 0,0 mm 0,0 km/h (0 Bft) S-SW 197 ° 0 min 0,000 mm 0,0 UV-I 0 W/m² 11,2 °C 12,3 °C 0,0 km/h (0 Bft)
13.07.2017 01:52 12,3 °C 12,3 °C 93 % 1017,3 hPa 0,0 mm 0,1 km/h (0 Bft) S 169 ° 0 min 0,000 mm 0,0 UV-I 0 W/m² 11,2 °C 12,3 °C 1,6 km/h (1 Bft)
13.07.2017 01:53 12,3 °C 12,3 °C 93 % 1017,3 hPa 0,0 mm 0,2 km/h (0 Bft) S 169 ° 0 min 0,000 mm 0,0 UV-I 0 W/m² 11,2 °C 12,3 °C 1,6 km/h (1 Bft)
13.07.2017 01:54 12,3 °C 12,3 °C 93 % 1017,2 hPa 0,0 mm 1,1 km/h (1 Bft) S 169 ° 0 min 0,000 mm 0,0 UV-I 0 W/m² 11,2 °C 12,3 °C 1,6 km/h (1 Bft)
13.07.2017 01:55 12,3 °C 12,3 °C 94 % 1017,2 hPa 0,0 mm 1,5 km/h (1 Bft) S 169 ° 0 min 0,000 mm 0,0 UV-I 0 W/m² 11,4 °C 12,3 °C 3,2 km/h (1 Bft)
13.07.2017 01:56 12,3 °C 12,3 °C 93 % 1017,2 hPa 0,0 mm 0,4 km/h (0 Bft) S 169 ° 0 min 0,000 mm 0,0 UV-I 0 W/m² 11,2 °C 12,3 °C 1,6 km/h (1 Bft)
13.07.2017 01:57 12,3 °C 12,3 °C 94 % 1017,2 hPa 0,0 mm 0,0 km/h (0 Bft) S 169 ° 0 min 0,000 mm 0,0 UV-I 0 W/m² 11,4 °C 12,3 °C 0,0 km/h (0 Bft)
13.07.2017 01:58 12,3 °C 12,3 °C 94 % 1017,2 hPa 0,0 mm 0,0 km/h (0 Bft) S 169 ° 0 min 0,000 mm 0,0 UV-I 0 W/m² 11,4 °C 12,3 °C 0,0 km/h (0 Bft)
13.07.2017 01:59 12,3 °C 12,3 °C 94 % 1017,2 hPa 0,0 mm 0,0 km/h (0 Bft) S 169 ° 0 min 0,000 mm 0,0 UV-I 0 W/m² 11,4 °C 12,3 °C 0,0 km/h (0 Bft)
13.07.2017 02:00 12,3 °C 12,3 °C 94 % 1017,2 hPa 0,0 mm 0,2 km/h (0 Bft) S 169 ° 0 min 0,000 mm 0,0 UV-I 0 W/m² 11,4 °C 12,3 °C 1,6 km/h (1 Bft)
13.07.2017 02:01 12,3 °C 12,3 °C 94 % 1017,2 hPa 0,0 mm 0,1 km/h (0 Bft) S 169 ° 0 min 0,000 mm 0,0 UV-I 0 W/m² 11,4 °C 12,3 °C 1,6 km/h (1 Bft)
13.07.2017 02:02 12,3 °C 12,4 °C 94 % 1017,3 hPa 0,0 mm 0,0 km/h (0 Bft) S 169 ° 0 min 0,000 mm 0,0 UV-I 0 W/m² 11,4 °C 12,3 °C 0,0 km/h (0 Bft)
13.07.2017 02:03 12,3 °C 12,4 °C 94 % 1017,3 hPa 0,0 mm 0,0 km/h (0 Bft) S 169 ° 0 min 0,000 mm 0,0 UV-I 0 W/m² 11,4 °C 12,3 °C 0,0 km/h (0 Bft)
13.07.2017 02:04 12,3 °C 12,4 °C 94 % 1017,2 hPa 0,0 mm 0,0 km/h (0 Bft) S 169 ° 0 min 0,000 mm 0,0 UV-I 0 W/m² 11,4 °C 12,3 °C 0,0 km/h (0 Bft)
13.07.2017 02:05 12,3 °C 12,3 °C 94 % 1017,2 hPa 0,0 mm 0,0 km/h (0 Bft) S 169 ° 0 min 0,000 mm 0,0 UV-I 0 W/m² 11,4 °C 12,3 °C 0,0 km/h (0 Bft)
13.07.2017 02:06 12,3 °C 12,3 °C 94 % 1017,3 hPa 0,0 mm 0,0 km/h (0 Bft) S 169 ° 0 min 0,000 mm 0,0 UV-I 0 W/m² 11,4 °C 12,3 °C 0,0 km/h (0 Bft)
13.07.2017 02:07 12,3 °C 12,3 °C 94 % 1017,2 hPa 0,0 mm 0,0 km/h (0 Bft) S 169 ° 0 min 0,000 mm 0,0 UV-I 0 W/m² 11,4 °C 12,3 °C 0,0 km/h (0 Bft)
13.07.2017 02:08 12,3 °C 12,3 °C 94 % 1017,3 hPa 0,0 mm 0,0 km/h (0 Bft) S 169 ° 0 min 0,000 mm 0,0 UV-I 0 W/m² 11,4 °C 12,3 °C 0,0 km/h (0 Bft)
13.07.2017 02:09 12,3 °C 12,3 °C 94 % 1017,3 hPa 0,0 mm 0,0 km/h (0 Bft) S 169 ° 0 min 0,000 mm 0,0 UV-I 0 W/m² 11,4 °C 12,3 °C 0,0 km/h (0 Bft)
13.07.2017 02:10 12,3 °C 12,4 °C 94 % 1017,3 hPa 0,0 mm 0,0 km/h (0 Bft) S 169 ° 0 min 0,000 mm 0,0 UV-I 0 W/m² 11,4 °C 12,3 °C 0,0 km/h (0 Bft)
13.07.2017 02:11 12,4 °C 12,4 °C 94 % 1017,3 hPa 0,0 mm 0,0 km/h (0 Bft) S 169 ° 0 min 0,000 mm 0,0 UV-I 0 W/m² 11,5 °C 12,4 °C 0,0 km/h (0 Bft)
13.07.2017 02:12 12,4 °C 12,4 °C 94 % 1017,3 hPa 0,0 mm 0,0 km/h (0 Bft) S 169 ° 0 min 0,000 mm 0,0 UV-I 0 W/m² 11,5 °C 12,4 °C 0,0 km/h (0 Bft)
13.07.2017 02:13 12,3 °C 12,4 °C 94 % 1017,3 hPa 0,0 mm 0,0 km/h (0 Bft) S 169 ° 0 min 0,000 mm 0,0 UV-I 0 W/m² 11,4 °C 12,3 °C 0,0 km/h (0 Bft)
13.07.2017 02:14 12,4 °C 12,4 °C 94 % 1017,3 hPa 0,0 mm 0,5 km/h (0 Bft) S 169 ° 0 min 0,000 mm 0,0 UV-I 0 W/m² 11,5 °C 12,4 °C 3,2 km/h (1 Bft)
13.07.2017 02:15 12,3 °C 12,4 °C 94 % 1017,3 hPa 0,0 mm 2,1 km/h (1 Bft) S 169 ° 0 min 0,000 mm 0,0 UV-I 0 W/m² 11,4 °C 12,3 °C 3,2 km/h (1 Bft)
13.07.2017 02:16 12,3 °C 12,4 °C 94 % 1017,3 hPa 0,0 mm 0,0 km/h (0 Bft) S 169 ° 0 min 0,000 mm 0,0 UV-I 0 W/m² 11,4 °C 12,3 °C 0,0 km/h (0 Bft)
13.07.2017 02:17 12,4 °C 12,4 °C 94 % 1017,3 hPa 0,0 mm 2,8 km/h (1 Bft) S 173 ° 0 min 0,000 mm 0,0 UV-I 0 W/m² 11,5 °C 12,4 °C 8,0 km/h (2 Bft)
13.07.2017 02:18 12,3 °C 12,4 °C 94 % 1017,3 hPa 0,0 mm 7,8 km/h (2 Bft) S 191 ° 0 min 0,000 mm 0,0 UV-I 0 W/m² 11,4 °C 12,3 °C 11,3 km/h (2 Bft)
13.07.2017 02:19 12,3 °C 12,3 °C 94 % 1017,3 hPa 0,0 mm 4,3 km/h (1 Bft) W-SW 240 ° 0 min 0,000 mm 0,0 UV-I 0 W/m² 11,4 °C 12,3 °C 6,4 km/h (2 Bft)
13.07.2017 02:20 12,3 °C 12,3 °C 94 % 1017,3 hPa 0,0 mm 0,4 km/h (0 Bft) SW 228 ° 0 min 0,000 mm 0,0 UV-I 0 W/m² 11,4 °C 12,3 °C 3,2 km/h (1 Bft)
13.07.2017 02:21 12,3 °C 12,3 °C 94 % 1017,3 hPa 0,0 mm 1,7 km/h (1 Bft) SW 228 ° 0 min 0,000 mm 0,0 UV-I 0 W/m² 11,4 °C 12,3 °C 3,2 km/h (1 Bft)
13.07.2017 02:22 12,3 °C 12,3 °C 94 % 1017,3 hPa 0,0 mm 1,2 km/h (1 Bft) S 184 ° 0 min 0,000 mm 0,0 UV-I 0 W/m² 11,4 °C 12,3 °C 3,2 km/h (1 Bft)
13.07.2017 02:23 12,3 °C 12,3 °C 94 % 1017,3 hPa 0,0 mm 2,5 km/h (1 Bft) S 181 ° 0 min 0,000 mm 0,0 UV-I 0 W/m² 11,4 °C 12,3 °C 3,2 km/h (1 Bft)
13.07.2017 02:24 12,4 °C 12,4 °C 93 % 1017,3 hPa 0,0 mm 2,4 km/h (1 Bft) O-SO 120 ° 0 min 0,000 mm 0,0 UV-I 0 W/m² 11,3 °C 12,4 °C 3,2 km/h (1 Bft)
13.07.2017 02:25 12,4 °C 12,4 °C 93 % 1017,3 hPa 0,0 mm 0,7 km/h (0 Bft) O-SO 120 ° 0 min 0,000 mm 0,0 UV-I 0 W/m² 11,3 °C 12,4 °C 1,6 km/h (1 Bft)
13.07.2017 02:26 12,4 °C 12,4 °C 93 % 1017,3 hPa 0,0 mm 0,1 km/h (0 Bft) O-SO 120 ° 0 min 0,000 mm 0,0 UV-I 0 W/m² 11,3 °C 12,4 °C 1,6 km/h (1 Bft)
13.07.2017 02:27 12,4 °C 12,5 °C 93 % 1017,4 hPa 0,0 mm 0,0 km/h (0 Bft) O-SO 121 ° 0 min 0,000 mm 0,0 UV-I 0 W/m² 11,3 °C 12,4 °C 0,0 km/h (0 Bft)
13.07.2017 02:28 12,5 °C 12,5 °C 93 % 1017,4 hPa 0,0 mm 0,0 km/h (0 Bft) O-SO 121 ° 0 min 0,000 mm 0,0 UV-I 0 W/m² 11,4 °C 12,5 °C 0,0 km/h (0 Bft)
13.07.2017 02:29 12,5 °C 12,5 °C 93 % 1017,4 hPa 0,0 mm 0,5 km/h (0 Bft) O-SO 121 ° 0 min 0,000 mm 0,0 UV-I 0 W/m² 11,4 °C 12,5 °C 1,6 km/h (1 Bft)
13.07.2017 02:30 12,5 °C 12,6 °C 93 % 1017,3 hPa 0,0 mm 0,7 km/h (0 Bft) O-SO 121 ° 0 min 0,000 mm 0,0 UV-I 0 W/m² 11,4 °C 12,5 °C 1,6 km/h (1 Bft)
13.07.2017 02:31 12,6 °C 12,6 °C 93 % 1017,3 hPa 0,0 mm 0,0 km/h (0 Bft) O-SO 121 ° 0 min 0,000 mm 0,0 UV-I 0 W/m² 11,5 °C 12,6 °C 0,0 km/h (0 Bft)
13.07.2017 02:32 12,5 °C 12,6 °C 93 % 1017,3 hPa 0,0 mm 0,0 km/h (0 Bft) O-SO 121 ° 0 min 0,000 mm 0,0 UV-I 0 W/m² 11,4 °C 12,5 °C 0,0 km/h (0 Bft)
13.07.2017 02:33 12,5 °C 12,5 °C 93 % 1017,3 hPa 0,0 mm 0,0 km/h (0 Bft) O-SO 121 ° 0 min 0,000 mm 0,0 UV-I 0 W/m² 11,4 °C 12,5 °C 0,0 km/h (0 Bft)
13.07.2017 02:34 12,4 °C 12,5 °C 93 % 1017,3 hPa 0,0 mm 1,8 km/h (1 Bft) O-SO 121 ° 0 min 0,000 mm 0,0 UV-I 0 W/m² 11,3 °C 12,4 °C 3,2 km/h (1 Bft)
13.07.2017 02:35 12,4 °C 12,4 °C 93 % 1017,3 hPa 0,0 mm 0,7 km/h (0 Bft) O-SO 121 ° 0 min 0,000 mm 0,0 UV-I 0 W/m² 11,3 °C 12,4 °C 3,2 km/h (1 Bft)
13.07.2017 02:36 12,4 °C 12,4 °C 93 % 1017,3 hPa 0,0 mm 0,7 km/h (0 Bft) O-SO 121 ° 0 min 0,000 mm 0,0 UV-I 0 W/m² 11,3 °C 12,4 °C 3,2 km/h (1 Bft)
13.07.2017 02:37 12,3 °C 12,4 °C 93 % 1017,3 hPa 0,0 mm 1,3 km/h (1 Bft) O-SO 121 ° 0 min 0,000 mm 0,0 UV-I 0 W/m² 11,2 °C 12,3 °C 3,2 km/h (1 Bft)
13.07.2017 02:38 12,4 °C 12,4 °C 94 % 1017,3 hPa 0,0 mm 1,0 km/h (0 Bft) O-SO 121 ° 0 min 0,000 mm 0,0 UV-I 0 W/m² 11,5 °C 12,4 °C 1,6 km/h (1 Bft)
13.07.2017 02:39 12,4 °C 12,4 °C 94 % 1017,4 hPa 0,0 mm 1,0 km/h (0 Bft) SW 227 ° 0 min 0,000 mm 0,0 UV-I 0 W/m² 11,5 °C 12,4 °C 3,2 km/h (1 Bft)
13.07.2017 02:40 12,4 °C 12,4 °C 94 % 1017,3 hPa 0,0 mm 2,4 km/h (1 Bft) SW 232 ° 0 min 0,000 mm 0,0 UV-I 0 W/m² 11,5 °C 12,4 °C 3,2 km/h (1 Bft)
13.07.2017 02:41 12,3 °C 12,4 °C 94 % 1017,4 hPa 0,0 mm 0,1 km/h (0 Bft) SW 232 ° 0 min 0,000 mm 0,0 UV-I 0 W/m² 11,4 °C 12,3 °C 1,6 km/h (1 Bft)
13.07.2017 02:42 12,4 °C 12,4 °C 94 % 1017,4 hPa 0,0 mm 0,3 km/h (0 Bft) SW 232 ° 0 min 0,000 mm 0,0 UV-I 0 W/m² 11,5 °C 12,4 °C 1,6 km/h (1 Bft)
13.07.2017 02:43 12,3 °C 12,4 °C 94 % 1017,4 hPa 0,0 mm 1,5 km/h (1 Bft) SW 231 ° 0 min 0,000 mm 0,0 UV-I 0 W/m² 11,4 °C 12,3 °C 3,2 km/h (1 Bft)
13.07.2017 02:44 12,3 °C 12,3 °C 94 % 1017,4 hPa 0,0 mm 0,4 km/h (0 Bft) SW 231 ° 0 min 0,000 mm 0,0 UV-I 0 W/m² 11,4 °C 12,3 °C 1,6 km/h (1 Bft)
13.07.2017 02:45 12,3 °C 12,3 °C 94 % 1017,4 hPa 0,0 mm 0,0 km/h (0 Bft) SW 231 ° 0 min 0,000 mm 0,0 UV-I 0 W/m² 11,4 °C 12,3 °C 0,0 km/h (0 Bft)
13.07.2017 02:46 12,3 °C 12,3 °C 94 % 1017,3 hPa 0,0 mm 0,0 km/h (0 Bft) SW 231 ° 0 min 0,000 mm 0,0 UV-I 0 W/m² 11,4 °C 12,3 °C 0,0 km/h (0 Bft)
13.07.2017 02:47 12,3 °C 12,3 °C 94 % 1017,4 hPa 0,0 mm 0,0 km/h (0 Bft) SW 231 ° 0 min 0,000 mm 0,0 UV-I 0 W/m² 11,4 °C 12,3 °C 0,0 km/h (0 Bft)
13.07.2017 02:48 12,3 °C 12,3 °C 94 % 1017,3 hPa 0,0 mm 0,0 km/h (0 Bft) SW 231 ° 0 min 0,000 mm 0,0 UV-I 0 W/m² 11,4 °C 12,3 °C 0,0 km/h (0 Bft)
13.07.2017 02:49 12,3 °C 12,3 °C 94 % 1017,3 hPa 0,0 mm 0,0 km/h (0 Bft) SW 231 ° 0 min 0,000 mm 0,0 UV-I 0 W/m² 11,4 °C 12,3 °C 0,0 km/h (0 Bft)
13.07.2017 02:50 12,3 °C 12,3 °C 94 % 1017,3 hPa 0,0 mm 0,0 km/h (0 Bft) SW 231 ° 0 min 0,000 mm 0,0 UV-I 0 W/m² 11,4 °C 12,3 °C 0,0 km/h (0 Bft)
13.07.2017 02:51 12,3 °C 12,3 °C 94 % 1017,3 hPa 0,0 mm 0,0 km/h (0 Bft) SW 231 ° 0 min 0,000 mm 0,0 UV-I 0 W/m² 11,4 °C 12,3 °C 0,0 km/h (0 Bft)
13.07.2017 02:52 12,3 °C 12,3 °C 94 % 1017,3 hPa 0,0 mm 0,1 km/h (0 Bft) S-SW 202 ° 0 min 0,000 mm 0,0 UV-I 0 W/m² 11,4 °C 12,3 °C 1,6 km/h (1 Bft)
13.07.2017 02:53 12,2 °C 12,3 °C 94 % 1017,3 hPa 0,0 mm 0,0 km/h (0 Bft) S-SW 202 ° 0 min 0,000 mm 0,0 UV-I 0 W/m² 11,3 °C 12,2 °C 0,0 km/h (0 Bft)
13.07.2017 02:54 12,3 °C 12,3 °C 94 % 1017,3 hPa 0,0 mm 0,0 km/h (0 Bft) S-SW 202 ° 0 min 0,000 mm 0,0 UV-I 0 W/m² 11,4 °C 12,3 °C 0,0 km/h (0 Bft)
13.07.2017 02:55 12,3 °C 12,3 °C 94 % 1017,3 hPa 0,0 mm 0,0 km/h (0 Bft) S-SW 202 ° 0 min 0,000 mm 0,0 UV-I 0 W/m² 11,4 °C 12,3 °C 0,0 km/h (0 Bft)
13.07.2017 02:56 12,3 °C 12,3 °C 94 % 1017,4 hPa 0,0 mm 0,0 km/h (0 Bft) S-SW 202 ° 0 min 0,000 mm 0,0 UV-I 0 W/m² 11,4 °C 12,3 °C 0,0 km/h (0 Bft)
13.07.2017 02:57 12,3 °C 12,3 °C 94 % 1017,4 hPa 0,0 mm 0,0 km/h (0 Bft) S-SW 202 ° 0 min 0,000 mm 0,0 UV-I 0 W/m² 11,4 °C 12,3 °C 0,0 km/h (0 Bft)
13.07.2017 02:58 12,3 °C 12,3 °C 94 % 1017,4 hPa 0,0 mm 0,0 km/h (0 Bft) S-SW 202 ° 0 min 0,000 mm 0,0 UV-I 0 W/m² 11,4 °C 12,3 °C 0,0 km/h (0 Bft)
13.07.2017 02:59 12,4 °C 12,4 °C 94 % 1017,4 hPa 0,0 mm 0,0 km/h (0 Bft) S-SW 202 ° 0 min 0,000 mm 0,0 UV-I 0 W/m² 11,5 °C 12,4 °C 0,0 km/h (0 Bft)
13.07.2017 03:00 12,3 °C 12,4 °C 94 % 1017,4 hPa 0,0 mm 0,0 km/h (0 Bft) S-SW 202 ° 0 min 0,000 mm 0,0 UV-I 0 W/m² 11,4 °C 12,3 °C 0,0 km/h (0 Bft)
13.07.2017 03:01 12,3 °C 12,3 °C 94 % 1017,4 hPa 0,0 mm 0,0 km/h (0 Bft) S-SW 202 ° 0 min 0,000 mm 0,0 UV-I 0 W/m² 11,4 °C 12,3 °C 0,0 km/h (0 Bft)
13.07.2017 03:02 12,3 °C 12,3 °C 94 % 1017,4 hPa 0,0 mm 1,3 km/h (1 Bft) S-SW 202 ° 0 min 0,000 mm 0,0 UV-I 0 W/m² 11,4 °C 12,3 °C 3,2 km/h (1 Bft)
13.07.2017 03:03 12,3 °C 12,3 °C 94 % 1017,3 hPa 0,0 mm 0,4 km/h (0 Bft) S-SW 202 ° 0 min 0,000 mm 0,0 UV-I 0 W/m² 11,4 °C 12,3 °C 1,6 km/h (1 Bft)
13.07.2017 03:04 12,3 °C 12,3 °C 94 % 1017,3 hPa 0,0 mm 0,1 km/h (0 Bft) S-SW 202 ° 0 min 0,000 mm 0,0 UV-I 0 W/m² 11,4 °C 12,3 °C 1,6 km/h (1 Bft)
13.07.2017 03:05 12,3 °C 12,3 °C 94 % 1017,3 hPa 0,0 mm 0,0 km/h (0 Bft) S-SW 202 ° 0 min 0,000 mm 0,0 UV-I 0 W/m² 11,4 °C 12,3 °C 0,0 km/h (0 Bft)
13.07.2017 03:06 12,3 °C 12,3 °C 94 % 1017,4 hPa 0,0 mm 0,0 km/h (0 Bft) S-SW 202 ° 0 min 0,000 mm 0,0 UV-I 0 W/m² 11,4 °C 12,3 °C 0,0 km/h (0 Bft)
13.07.2017 03:07 12,3 °C 12,3 °C 94 % 1017,4 hPa 0,0 mm 0,0 km/h (0 Bft) S-SW 202 ° 0 min 0,000 mm 0,0 UV-I 0 W/m² 11,4 °C 12,3 °C 0,0 km/h (0 Bft)
13.07.2017 03:08 12,3 °C 12,3 °C 94 % 1017,4 hPa 0,0 mm 0,2 km/h (0 Bft) S-SW 202 ° 0 min 0,000 mm 0,0 UV-I 0 W/m² 11,4 °C 12,3 °C 1,6 km/h (1 Bft)
13.07.2017 03:09 12,3 °C 12,3 °C 94 % 1017,4 hPa 0,0 mm 0,2 km/h (0 Bft) S-SW 202 ° 0 min 0,000 mm 0,0 UV-I 0 W/m² 11,4 °C 12,3 °C 1,6 km/h (1 Bft)
13.07.2017 03:10 12,3 °C 12,3 °C 94 % 1017,4 hPa 0,0 mm 0,0 km/h (0 Bft) S-SW 202 ° 0 min 0,000 mm 0,0 UV-I 0 W/m² 11,4 °C 12,3 °C 0,0 km/h (0 Bft)
13.07.2017 03:11 12,3 °C 12,3 °C 94 % 1017,4 hPa 0,0 mm 0,0 km/h (0 Bft) S-SW 202 ° 0 min 0,000 mm 0,0 UV-I 0 W/m² 11,4 °C 12,3 °C 0,0 km/h (0 Bft)
13.07.2017 03:12 12,3 °C 12,3 °C 94 % 1017,5 hPa 0,0 mm 0,0 km/h (0 Bft) S-SW 202 ° 0 min 0,000 mm 0,0 UV-I 0 W/m² 11,4 °C 12,3 °C 0,0 km/h (0 Bft)
13.07.2017 03:13 12,3 °C 12,4 °C 94 % 1017,5 hPa 0,0 mm 0,0 km/h (0 Bft) S-SW 202 ° 0 min 0,000 mm 0,0 UV-I 0 W/m² 11,4 °C 12,3 °C 0,0 km/h (0 Bft)
13.07.2017 03:14 12,4 °C 12,4 °C 94 % 1017,5 hPa 0,0 mm 0,0 km/h (0 Bft) S-SW 202 ° 0 min 0,000 mm 0,0 UV-I 0 W/m² 11,5 °C 12,4 °C 0,0 km/h (0 Bft)
13.07.2017 03:15 12,4 °C 12,4 °C 95 % 1017,6 hPa 0,0 mm 0,0 km/h (0 Bft) S-SW 202 ° 0 min 0,000 mm 0,0 UV-I 0 W/m² 11,6 °C 12,4 °C 0,0 km/h (0 Bft)
13.07.2017 03:16 12,4 °C 12,4 °C 95 % 1017,5 hPa 0,0 mm 0,0 km/h (0 Bft) S-SW 202 ° 0 min 0,000 mm 0,0 UV-I 0 W/m² 11,6 °C 12,4 °C 0,0 km/h (0 Bft)
13.07.2017 03:17 12,4 °C 12,4 °C 95 % 1017,6 hPa 0,0 mm 0,0 km/h (0 Bft) S-SW 202 ° 0 min 0,000 mm 0,0 UV-I 0 W/m² 11,6 °C 12,4 °C 0,0 km/h (0 Bft)
13.07.2017 03:18 12,3 °C 12,4 °C 94 % 1017,5 hPa 0,0 mm 0,0 km/h (0 Bft) S-SW 202 ° 0 min 0,000 mm 0,0 UV-I 0 W/m² 11,4 °C 12,3 °C 0,0 km/h (0 Bft)
13.07.2017 03:19 12,4 °C 12,4 °C 94 % 1017,6 hPa 0,0 mm 0,0 km/h (0 Bft) S-SW 202 ° 0 min 0,000 mm 0,0 UV-I 0 W/m² 11,5 °C 12,4 °C 0,0 km/h (0 Bft)
13.07.2017 03:20 12,4 °C 12,4 °C 95 % 1017,6 hPa 0,0 mm 0,0 km/h (0 Bft) S-SW 202 ° 0 min 0,000 mm 0,0 UV-I 0 W/m² 11,6 °C 12,4 °C 0,0 km/h (0 Bft)
13.07.2017 03:21 12,3 °C 12,4 °C 95 % 1017,6 hPa 0,0 mm 0,0 km/h (0 Bft) S-SW 202 ° 0 min 0,000 mm 0,0 UV-I 0 W/m² 11,5 °C 12,3 °C 0,0 km/h (0 Bft)
13.07.2017 03:22 12,4 °C 12,4 °C 94 % 1017,6 hPa 0,0 mm 0,0 km/h (0 Bft) S-SW 202 ° 0 min 0,000 mm 0,0 UV-I 0 W/m² 11,5 °C 12,4 °C 0,0 km/h (0 Bft)
13.07.2017 03:23 12,4 °C 12,4 °C 95 % 1017,5 hPa 0,0 mm 0,0 km/h (0 Bft) S-SW 202 ° 0 min 0,000 mm 0,0 UV-I 0 W/m² 11,6 °C 12,4 °C 0,0 km/h (0 Bft)
13.07.2017 03:24 12,3 °C 12,4 °C 95 % 1017,5 hPa 0,0 mm 0,0 km/h (0 Bft) S-SW 202 ° 0 min 0,000 mm 0,0 UV-I 0 W/m² 11,5 °C 12,3 °C 0,0 km/h (0 Bft)
13.07.2017 03:25 12,3 °C 12,3 °C 94 % 1017,5 hPa 0,0 mm 0,0 km/h (0 Bft) S-SW 202 ° 0 min 0,000 mm 0,0 UV-I 0 W/m² 11,4 °C 12,3 °C 0,0 km/h (0 Bft)
13.07.2017 03:26 12,3 °C 12,3 °C 94 % 1017,5 hPa 0,0 mm 0,0 km/h (0 Bft) S-SW 202 ° 0 min 0,000 mm 0,0 UV-I 0 W/m² 11,4 °C 12,3 °C 0,0 km/h (0 Bft)
13.07.2017 03:27 12,3 °C 12,3 °C 94 % 1017,5 hPa 0,0 mm 0,2 km/h (0 Bft) S-SW 202 ° 0 min 0,000 mm 0,0 UV-I 0 W/m² 11,4 °C 12,3 °C 1,6 km/h (1 Bft)
13.07.2017 03:28 12,3 °C 12,3 °C 94 % 1017,5 hPa 0,0 mm 4,1 km/h (1 Bft) S-SW 206 ° 0 min 0,000 mm 0,0 UV-I 0 W/m² 11,4 °C 12,3 °C 6,4 km/h (2 Bft)
13.07.2017 03:29 12,3 °C 12,3 °C 94 % 1017,5 hPa 0,0 mm 1,9 km/h (1 Bft) S-SW 211 ° 0 min 0,000 mm 0,0 UV-I 0 W/m² 11,4 °C 12,3 °C 4,8 km/h (1 Bft)
13.07.2017 03:30 12,3 °C 12,3 °C 94 % 1017,5 hPa 0,0 mm 0,4 km/h (0 Bft) S-SW 211 ° 0 min 0,000 mm 0,0 UV-I 0 W/m² 11,4 °C 12,3 °C 1,6 km/h (1 Bft)
13.07.2017 03:31 12,3 °C 12,3 °C 94 % 1017,5 hPa 0,0 mm 0,2 km/h (0 Bft) S-SW 211 ° 0 min 0,000 mm 0,0 UV-I 0 W/m² 11,4 °C 12,3 °C 1,6 km/h (1 Bft)
13.07.2017 03:32 12,3 °C 12,3 °C 94 % 1017,5 hPa 0,0 mm 2,0 km/h (1 Bft) S-SW 196 ° 0 min 0,000 mm 0,0 UV-I 0 W/m² 11,4 °C 12,3 °C 4,8 km/h (1 Bft)
13.07.2017 03:33 12,3 °C 12,3 °C 94 % 1017,5 hPa 0,0 mm 3,8 km/h (1 Bft) W 278 ° 0 min 0,000 mm 0,0 UV-I 0 W/m² 11,4 °C 12,3 °C 6,4 km/h (2 Bft)
13.07.2017 03:34 12,3 °C 12,3 °C 94 % 1017,4 hPa 0,0 mm 3,2 km/h (1 Bft) SW 234 ° 0 min 0,000 mm 0,0 UV-I 0 W/m² 11,4 °C 12,3 °C 4,8 km/h (1 Bft)
13.07.2017 03:35 12,3 °C 12,3 °C 94 % 1017,5 hPa 0,0 mm 0,3 km/h (0 Bft) SW 234 ° 0 min 0,000 mm 0,0 UV-I 0 W/m² 11,4 °C 12,3 °C 1,6 km/h (1 Bft)
13.07.2017 03:36 12,3 °C 12,3 °C 94 % 1017,5 hPa 0,0 mm 0,0 km/h (0 Bft) SW 234 ° 0 min 0,000 mm 0,0 UV-I 0 W/m² 11,4 °C 12,3 °C 0,0 km/h (0 Bft)
13.07.2017 03:37 12,3 °C 12,4 °C 94 % 1017,5 hPa 0,0 mm 0,0 km/h (0 Bft) SW 234 ° 0 min 0,000 mm 0,0 UV-I 0 W/m² 11,4 °C 12,3 °C 0,0 km/h (0 Bft)
13.07.2017 03:38 12,3 °C 12,4 °C 94 % 1017,5 hPa 0,0 mm 0,0 km/h (0 Bft) SW 234 ° 0 min 0,000 mm 0,0 UV-I 0 W/m² 11,4 °C 12,3 °C 0,0 km/h (0 Bft)
13.07.2017 03:39 12,4 °C 12,4 °C 94 % 1017,5 hPa 0,0 mm 0,0 km/h (0 Bft) SW 234 ° 0 min 0,000 mm 0,0 UV-I 0 W/m² 11,5 °C 12,4 °C 0,0 km/h (0 Bft)
13.07.2017 03:40 12,3 °C 12,4 °C 94 % 1017,5 hPa 0,0 mm 0,1 km/h (0 Bft) SW 234 ° 0 min 0,000 mm 0,0 UV-I 0 W/m² 11,4 °C 12,3 °C 1,6 km/h (1 Bft)
13.07.2017 03:41 12,3 °C 12,3 °C 94 % 1017,6 hPa 0,0 mm 0,5 km/h (0 Bft) NW 322 ° 0 min 0,000 mm 0,0 UV-I 0 W/m² 11,4 °C 12,3 °C 1,6 km/h (1 Bft)
13.07.2017 03:42 12,3 °C 12,3 °C 94 % 1017,5 hPa 0,0 mm 0,7 km/h (0 Bft) NW 323 ° 0 min 0,000 mm 0,0 UV-I 0 W/m² 11,4 °C 12,3 °C 3,2 km/h (1 Bft)
13.07.2017 03:43 12,3 °C 12,3 °C 94 % 1017,6 hPa 0,0 mm 1,9 km/h (1 Bft) S-SW 202 ° 0 min 0,000 mm 0,0 UV-I 0 W/m² 11,4 °C 12,3 °C 4,8 km/h (1 Bft)
13.07.2017 03:44 12,3 °C 12,3 °C 94 % 1017,6 hPa 0,0 mm 0,1 km/h (0 Bft) S-SW 202 ° 0 min 0,000 mm 0,0 UV-I 0 W/m² 11,4 °C 12,3 °C 1,6 km/h (1 Bft)
13.07.2017 03:45 12,3 °C 12,3 °C 94 % 1017,6 hPa 0,0 mm 0,9 km/h (0 Bft) S 188 ° 0 min 0,000 mm 0,0 UV-I 0 W/m² 11,4 °C 12,3 °C 1,6 km/h (1 Bft)
13.07.2017 03:46 12,3 °C 12,3 °C 94 % 1017,5 hPa 0,0 mm 0,6 km/h (0 Bft) S 188 ° 0 min 0,000 mm 0,0 UV-I 0 W/m² 11,4 °C 12,3 °C 1,6 km/h (1 Bft)
13.07.2017 03:47 12,3 °C 12,3 °C 94 % 1017,6 hPa 0,0 mm 1,7 km/h (1 Bft) O-SO 104 ° 0 min 0,000 mm 0,0 UV-I 0 W/m² 11,4 °C 12,3 °C 3,2 km/h (1 Bft)
13.07.2017 03:48 12,3 °C 12,3 °C 94 % 1017,5 hPa 0,0 mm 2,9 km/h (1 Bft) O-SO 110 ° 0 min 0,000 mm 0,0 UV-I 0 W/m² 11,4 °C 12,3 °C 6,4 km/h (2 Bft)
13.07.2017 03:49 12,2 °C 12,3 °C 94 % 1017,5 hPa 0,0 mm 0,5 km/h (0 Bft) O 91 ° 0 min 0,000 mm 0,0 UV-I 0 W/m² 11,3 °C 12,2 °C 3,2 km/h (1 Bft)
13.07.2017 03:50 12,3 °C 12,3 °C 94 % 1017,5 hPa 0,0 mm 1,6 km/h (1 Bft) S-SO 156 ° 0 min 0,000 mm 0,0 UV-I 0 W/m² 11,4 °C 12,3 °C 3,2 km/h (1 Bft)
13.07.2017 03:51 12,3 °C 12,3 °C 94 % 1017,6 hPa 0,0 mm 1,2 km/h (1 Bft) S-SO 156 ° 0 min 0,000 mm 0,0 UV-I 0 W/m² 11,4 °C 12,3 °C 3,2 km/h (1 Bft)
13.07.2017 03:52 12,3 °C 12,3 °C 94 % 1017,6 hPa 0,0 mm 0,0 km/h (0 Bft) S-SO 156 ° 0 min 0,000 mm 0,0 UV-I 0 W/m² 11,4 °C 12,3 °C 0,0 km/h (0 Bft)
13.07.2017 03:53 12,3 °C 12,3 °C 94 % 1017,6 hPa 0,0 mm 0,8 km/h (0 Bft) S-SW 208 ° 0 min 0,000 mm 0,0 UV-I 0 W/m² 11,4 °C 12,3 °C 6,4 km/h (2 Bft)
13.07.2017 03:54 12,3 °C 12,3 °C 94 % 1017,6 hPa 0,0 mm 4,7 km/h (1 Bft) SW 235 ° 0 min 0,000 mm 0,0 UV-I 0 W/m² 11,4 °C 12,3 °C 8,0 km/h (2 Bft)
13.07.2017 03:55 12,3 °C 12,3 °C 94 % 1017,6 hPa 0,0 mm 1,8 km/h (1 Bft) SW 235 ° 0 min 0,000 mm 0,0 UV-I 0 W/m² 11,4 °C 12,3 °C 3,2 km/h (1 Bft)
13.07.2017 03:56 12,3 °C 12,3 °C 94 % 1017,5 hPa 0,0 mm 2,0 km/h (1 Bft) S-SW 198 ° 0 min 0,000 mm 0,0 UV-I 0 W/m² 11,4 °C 12,3 °C 3,2 km/h (1 Bft)
13.07.2017 03:57 12,3 °C 12,3 °C 94 % 1017,5 hPa 0,0 mm 0,4 km/h (0 Bft) S-SW 198 ° 0 min 0,000 mm 0,0 UV-I 0 W/m² 11,4 °C 12,3 °C 1,6 km/h (1 Bft)
13.07.2017 03:58 12,3 °C 12,3 °C 94 % 1017,5 hPa 0,0 mm 1,3 km/h (1 Bft) S-SW 196 ° 0 min 0,000 mm 0,0 UV-I 0 W/m² 11,4 °C 12,3 °C 3,2 km/h (1 Bft)
13.07.2017 03:59 12,2 °C 12,3 °C 94 % 1017,5 hPa 0,0 mm 0,1 km/h (0 Bft) S-SW 196 ° 0 min 0,000 mm 0,0 UV-I 0 W/m² 11,3 °C 12,2 °C 1,6 km/h (1 Bft)
13.07.2017 04:00 12,2 °C 12,3 °C 94 % 1017,4 hPa 0,0 mm 0,1 km/h (0 Bft) S-SW 196 ° 0 min 0,000 mm 0,0 UV-I 0 W/m² 11,3 °C 12,2 °C 1,6 km/h (1 Bft)
13.07.2017 04:01 12,2 °C 12,2 °C 94 % 1017,5 hPa 0,0 mm 0,4 km/h (0 Bft) S-SW 196 ° 0 min 0,000 mm 0,0 UV-I 0 W/m² 11,3 °C 12,2 °C 1,6 km/h (1 Bft)
13.07.2017 04:02 12,2 °C 12,2 °C 94 % 1017,5 hPa 0,0 mm 0,0 km/h (0 Bft) S-SW 196 ° 0 min 0,000 mm 0,0 UV-I 0 W/m² 11,3 °C 12,2 °C 0,0 km/h (0 Bft)
13.07.2017 04:03 12,2 °C 12,2 °C 94 % 1017,5 hPa 0,0 mm 1,1 km/h (1 Bft) S-SW 196 ° 0 min 0,000 mm 0,0 UV-I 0 W/m² 11,3 °C 12,2 °C 1,6 km/h (1 Bft)
13.07.2017 04:04 12,2 °C 12,2 °C 94 % 1017,5 hPa 0,0 mm 0,5 km/h (0 Bft) NW 304 ° 0 min 0,000 mm 0,0 UV-I 0 W/m² 11,3 °C 12,2 °C 3,2 km/h (1 Bft)
13.07.2017 04:05 12,2 °C 12,2 °C 94 % 1017,5 hPa 0,0 mm 2,3 km/h (1 Bft) W-NW 282 ° 0 min 0,000 mm 0,0 UV-I 0 W/m² 11,3 °C 12,2 °C 4,8 km/h (1 Bft)
13.07.2017 04:06 12,2 °C 12,2 °C 94 % 1017,5 hPa 0,0 mm 0,3 km/h (0 Bft) W-NW 282 ° 0 min 0,000 mm 0,0 UV-I 0 W/m² 11,3 °C 12,2 °C 1,6 km/h (1 Bft)
13.07.2017 04:07 12,2 °C 12,3 °C 94 % 1017,5 hPa 0,0 mm 0,0 km/h (0 Bft) W-NW 282 ° 0 min 0,000 mm 0,0 UV-I 0 W/m² 11,3 °C 12,2 °C 0,0 km/h (0 Bft)
13.07.2017 04:08 12,2 °C 12,2 °C 94 % 1017,5 hPa 0,0 mm 0,0 km/h (0 Bft) W-NW 282 ° 0 min 0,000 mm 0,0 UV-I 0 W/m² 11,3 °C 12,2 °C 0,0 km/h (0 Bft)
13.07.2017 04:09 12,2 °C 12,2 °C 94 % 1017,5 hPa 0,0 mm 0,0 km/h (0 Bft) W-NW 282 ° 0 min 0,000 mm 0,0 UV-I 0 W/m² 11,3 °C 12,2 °C 0,0 km/h (0 Bft)
13.07.2017 04:10 12,3 °C 12,3 °C 94 % 1017,6 hPa 0,0 mm 0,0 km/h (0 Bft) W-NW 282 ° 0 min 0,000 mm 0,0 UV-I 0 W/m² 11,4 °C 12,3 °C 0,0 km/h (0 Bft)
13.07.2017 04:11 12,3 °C 12,3 °C 94 % 1017,6 hPa 0,0 mm 0,0 km/h (0 Bft) W-NW 282 ° 0 min 0,000 mm 0,0 UV-I 0 W/m² 11,4 °C 12,3 °C 0,0 km/h (0 Bft)
13.07.2017 04:12 12,3 °C 12,3 °C 94 % 1017,5 hPa 0,0 mm 0,0 km/h (0 Bft) W-NW 282 ° 0 min 0,000 mm 0,0 UV-I 0 W/m² 11,4 °C 12,3 °C 0,0 km/h (0 Bft)
13.07.2017 04:13 12,3 °C 12,3 °C 94 % 1017,5 hPa 0,0 mm 0,0 km/h (0 Bft) W-NW 282 ° 0 min 0,000 mm 0,0 UV-I 0 W/m² 11,4 °C 12,3 °C 0,0 km/h (0 Bft)
13.07.2017 04:14 12,3 °C 12,3 °C 94 % 1017,6 hPa 0,0 mm 0,0 km/h (0 Bft) W-NW 282 ° 0 min 0,000 mm 0,0 UV-I 0 W/m² 11,4 °C 12,3 °C 0,0 km/h (0 Bft)
13.07.2017 04:15 12,3 °C 12,3 °C 94 % 1017,6 hPa 0,0 mm 0,0 km/h (0 Bft) W-NW 282 ° 0 min 0,000 mm 0,0 UV-I 0 W/m² 11,4 °C 12,3 °C 0,0 km/h (0 Bft)
13.07.2017 04:16 12,2 °C 12,3 °C 94 % 1017,6 hPa 0,0 mm 0,0 km/h (0 Bft) W-NW 282 ° 0 min 0,000 mm 0,0 UV-I 0 W/m² 11,3 °C 12,2 °C 0,0 km/h (0 Bft)
13.07.2017 04:17 12,2 °C 12,3 °C 94 % 1017,5 hPa 0,0 mm 0,0 km/h (0 Bft) W-NW 282 ° 0 min 0,000 mm 0,0 UV-I 0 W/m² 11,3 °C 12,2 °C 0,0 km/h (0 Bft)
13.07.2017 04:18 12,2 °C 12,3 °C 94 % 1017,6 hPa 0,0 mm 0,0 km/h (0 Bft) W-NW 282 ° 0 min 0,000 mm 0,0 UV-I 0 W/m² 11,3 °C 12,2 °C 0,0 km/h (0 Bft)
13.07.2017 04:19 12,2 °C 12,3 °C 94 % 1017,6 hPa 0,0 mm 0,0 km/h (0 Bft) W-NW 282 ° 0 min 0,000 mm 0,0 UV-I 0 W/m² 11,3 °C 12,2 °C 0,0 km/h (0 Bft)
13.07.2017 04:20 12,2 °C 12,2 °C 94 % 1017,6 hPa 0,0 mm 0,1 km/h (0 Bft) W-NW 299 ° 0 min 0,000 mm 0,0 UV-I 0 W/m² 11,3 °C 12,2 °C 1,6 km/h (1 Bft)
13.07.2017 04:21 12,2 °C 12,2 °C 94 % 1017,6 hPa 0,0 mm 0,0 km/h (0 Bft) W-NW 299 ° 0 min 0,000 mm 0,0 UV-I 0 W/m² 11,3 °C 12,2 °C 0,0 km/h (0 Bft)
13.07.2017 04:22 12,2 °C 12,2 °C 94 % 1017,7 hPa 0,0 mm 0,0 km/h (0 Bft) W-NW 299 ° 0 min 0,000 mm 0,0 UV-I 0 W/m² 11,3 °C 12,2 °C 0,0 km/h (0 Bft)
13.07.2017 04:23 12,2 °C 12,2 °C 94 % 1017,7 hPa 0,0 mm 0,0 km/h (0 Bft) W-NW 299 ° 0 min 0,000 mm 0,0 UV-I 0 W/m² 11,3 °C 12,2 °C 0,0 km/h (0 Bft)
13.07.2017 04:24 12,2 °C 12,2 °C 94 % 1017,7 hPa 0,0 mm 0,0 km/h (0 Bft) W-NW 299 ° 0 min 0,000 mm 0,0 UV-I 0 W/m² 11,3 °C 12,2 °C 0,0 km/h (0 Bft)
13.07.2017 04:25 12,2 °C 12,3 °C 94 % 1017,7 hPa 0,0 mm 0,0 km/h (0 Bft) W-NW 299 ° 0 min 0,000 mm 0,0 UV-I 0 W/m² 11,3 °C 12,2 °C 0,0 km/h (0 Bft)
13.07.2017 04:26 12,2 °C 12,3 °C 94 % 1017,7 hPa 0,0 mm 0,0 km/h (0 Bft) W-NW 299 ° 0 min 0,000 mm 0,0 UV-I 0 W/m² 11,3 °C 12,2 °C 0,0 km/h (0 Bft)
13.07.2017 04:27 12,3 °C 12,3 °C 94 % 1017,7 hPa 0,0 mm 0,0 km/h (0 Bft) W-NW 299 ° 0 min 0,000 mm 0,0 UV-I 0 W/m² 11,4 °C 12,3 °C 0,0 km/h (0 Bft)
13.07.2017 04:28 12,3 °C 12,3 °C 94 % 1017,7 hPa 0,0 mm 0,0 km/h (0 Bft) W-NW 299 ° 0 min 0,000 mm 0,0 UV-I 0 W/m² 11,4 °C 12,3 °C 0,0 km/h (0 Bft)
13.07.2017 04:29 12,3 °C 12,3 °C 94 % 1017,7 hPa 0,0 mm 0,0 km/h (0 Bft) W-NW 299 ° 0 min 0,000 mm 0,0 UV-I 0 W/m² 11,4 °C 12,3 °C 0,0 km/h (0 Bft)
13.07.2017 04:30 12,3 °C 12,3 °C 94 % 1017,7 hPa 0,0 mm 0,0 km/h (0 Bft) W-NW 299 ° 0 min 0,000 mm 0,0 UV-I 0 W/m² 11,4 °C 12,3 °C 0,0 km/h (0 Bft)
13.07.2017 04:31 12,2 °C 12,3 °C 94 % 1017,7 hPa 0,0 mm 0,0 km/h (0 Bft) W-NW 299 ° 0 min 0,000 mm 0,0 UV-I 0 W/m² 11,3 °C 12,2 °C 0,0 km/h (0 Bft)
13.07.2017 04:32 12,2 °C 12,2 °C 94 % 1017,8 hPa 0,0 mm 0,1 km/h (0 Bft) W-NW 299 ° 0 min 0,000 mm 0,0 UV-I 0 W/m² 11,3 °C 12,2 °C 1,6 km/h (1 Bft)
13.07.2017 04:33 12,3 °C 12,3 °C 94 % 1017,8 hPa 0,0 mm 0,9 km/h (0 Bft) W-NW 299 ° 0 min 0,000 mm 0,0 UV-I 0 W/m² 11,4 °C 12,3 °C 1,6 km/h (1 Bft)
13.07.2017 04:34 12,3 °C 12,3 °C 94 % 1017,8 hPa 0,0 mm 0,0 km/h (0 Bft) W-NW 299 ° 0 min 0,000 mm 0,0 UV-I 0 W/m² 11,4 °C 12,3 °C 0,0 km/h (0 Bft)
13.07.2017 04:35 12,3 °C 12,3 °C 94 % 1017,8 hPa 0,0 mm 0,0 km/h (0 Bft) W-NW 299 ° 0 min 0,000 mm 0,0 UV-I 0 W/m² 11,4 °C 12,3 °C 0,0 km/h (0 Bft)
13.07.2017 04:36 12,3 °C 12,3 °C 95 % 1017,8 hPa 0,0 mm 0,0 km/h (0 Bft) W-NW 299 ° 0 min 0,000 mm 0,0 UV-I 0 W/m² 11,5 °C 12,3 °C 0,0 km/h (0 Bft)
13.07.2017 04:37 12,3 °C 12,3 °C 94 % 1017,8 hPa 0,0 mm 0,0 km/h (0 Bft) W-NW 299 ° 0 min 0,000 mm 0,0 UV-I 0 W/m² 11,4 °C 12,3 °C 0,0 km/h (0 Bft)
13.07.2017 04:38 12,3 °C 12,3 °C 94 % 1017,8 hPa 0,0 mm 0,0 km/h (0 Bft) W-NW 299 ° 0 min 0,000 mm 0,0 UV-I 0 W/m² 11,4 °C 12,3 °C 0,0 km/h (0 Bft)
13.07.2017 04:39 12,3 °C 12,3 °C 94 % 1017,8 hPa 0,0 mm 0,0 km/h (0 Bft) W-NW 299 ° 0 min 0,000 mm 0,0 UV-I 0 W/m² 11,4 °C 12,3 °C 0,0 km/h (0 Bft)
13.07.2017 04:40 12,3 °C 12,3 °C 94 % 1017,8 hPa 0,0 mm 0,0 km/h (0 Bft) W-NW 299 ° 0 min 0,000 mm 0,0 UV-I 0 W/m² 11,4 °C 12,3 °C 0,0 km/h (0 Bft)
13.07.2017 04:41 12,3 °C 12,3 °C 94 % 1017,9 hPa 0,0 mm 0,0 km/h (0 Bft) W-NW 299 ° 0 min 0,000 mm 0,0 UV-I 0 W/m² 11,4 °C 12,3 °C 0,0 km/h (0 Bft)
13.07.2017 04:42 12,4 °C 12,4 °C 94 % 1017,9 hPa 0,0 mm 0,0 km/h (0 Bft) W-NW 299 ° 0 min 0,000 mm 0,0 UV-I 0 W/m² 11,5 °C 12,4 °C 0,0 km/h (0 Bft)
13.07.2017 04:43 12,4 °C 12,4 °C 95 % 1017,9 hPa 0,0 mm 0,0 km/h (0 Bft) W-NW 299 ° 0 min 0,000 mm 0,0 UV-I 0 W/m² 11,6 °C 12,4 °C 0,0 km/h (0 Bft)
13.07.2017 04:44 12,4 °C 12,4 °C 94 % 1017,9 hPa 0,0 mm 0,0 km/h (0 Bft) W-NW 299 ° 0 min 0,000 mm 0,0 UV-I 0 W/m² 11,5 °C 12,4 °C 0,0 km/h (0 Bft)
13.07.2017 04:45 12,3 °C 12,4 °C 94 % 1017,9 hPa 0,0 mm 0,0 km/h (0 Bft) W-NW 299 ° 0 min 0,000 mm 0,0 UV-I 0 W/m² 11,4 °C 12,3 °C 0,0 km/h (0 Bft)
13.07.2017 04:46 12,4 °C 12,4 °C 94 % 1017,9 hPa 0,0 mm 0,0 km/h (0 Bft) W-NW 299 ° 0 min 0,000 mm 0,0 UV-I 0 W/m² 11,5 °C 12,4 °C 0,0 km/h (0 Bft)
13.07.2017 04:47 12,3 °C 12,4 °C 94 % 1017,9 hPa 0,0 mm 0,0 km/h (0 Bft) W-NW 299 ° 0 min 0,000 mm 0,0 UV-I 0 W/m² 11,4 °C 12,3 °C 0,0 km/h (0 Bft)
13.07.2017 04:48 12,3 °C 12,4 °C 94 % 1017,9 hPa 0,0 mm 0,0 km/h (0 Bft) W-NW 299 ° 0 min 0,000 mm 0,0 UV-I 0 W/m² 11,4 °C 12,3 °C 0,0 km/h (0 Bft)
13.07.2017 04:49 12,4 °C 12,4 °C 94 % 1017,9 hPa 0,2 mm 0,0 km/h (0 Bft) W-NW 299 ° 0 min 0,000 mm 0,0 UV-I 0 W/m² 11,5 °C 12,4 °C 0,0 km/h (0 Bft)
13.07.2017 04:50 12,4 °C 12,4 °C 95 % 1017,9 hPa 0,0 mm 0,0 km/h (0 Bft) W-NW 299 ° 0 min 0,000 mm 0,0 UV-I 0 W/m² 11,6 °C 12,4 °C 0,0 km/h (0 Bft)
13.07.2017 04:51 12,4 °C 12,4 °C 95 % 1017,9 hPa 0,0 mm 0,0 km/h (0 Bft) W-NW 299 ° 0 min 0,000 mm 0,0 UV-I 0 W/m² 11,6 °C 12,4 °C 0,0 km/h (0 Bft)
13.07.2017 04:52 12,4 °C 12,4 °C 94 % 1017,9 hPa 0,0 mm 0,0 km/h (0 Bft) W-NW 299 ° 0 min 0,000 mm 0,0 UV-I 0 W/m² 11,5 °C 12,4 °C 0,0 km/h (0 Bft)
13.07.2017 04:53 12,3 °C 12,4 °C 94 % 1017,9 hPa 0,0 mm 1,1 km/h (1 Bft) W-NW 299 ° 0 min 0,000 mm 0,0 UV-I 0 W/m² 11,4 °C 12,3 °C 3,2 km/h (1 Bft)
13.07.2017 04:54 12,4 °C 12,4 °C 95 % 1017,9 hPa 0,0 mm 1,1 km/h (1 Bft) W-NW 299 ° 0 min 0,000 mm 0,0 UV-I 0 W/m² 11,6 °C 12,4 °C 1,6 km/h (1 Bft)
13.07.2017 04:55 12,4 °C 12,4 °C 95 % 1017,9 hPa 0,0 mm 1,7 km/h (1 Bft) W-NW 299 ° 0 min 0,000 mm 0,0 UV-I 0 W/m² 11,6 °C 12,4 °C 3,2 km/h (1 Bft)
13.07.2017 04:56 12,4 °C 12,4 °C 95 % 1018,0 hPa 0,0 mm 0,3 km/h (0 Bft) W-NW 299 ° 0 min 0,000 mm 0,0 UV-I 0 W/m² 11,6 °C 12,4 °C 1,6 km/h (1 Bft)
13.07.2017 04:57 12,4 °C 12,4 °C 95 % 1017,9 hPa 0,0 mm 1,4 km/h (1 Bft) W-NW 299 ° 0 min 0,000 mm 0,0 UV-I 0 W/m² 11,6 °C 12,4 °C 3,2 km/h (1 Bft)
13.07.2017 04:58 12,4 °C 12,4 °C 95 % 1017,9 hPa 0,0 mm 0,2 km/h (0 Bft) W-NW 299 ° 0 min 0,000 mm 0,0 UV-I 0 W/m² 11,6 °C 12,4 °C 1,6 km/h (1 Bft)
13.07.2017 04:59 12,4 °C 12,4 °C 95 % 1017,9 hPa 0,0 mm 0,0 km/h (0 Bft) W-NW 299 ° 0 min 0,000 mm 0,0 UV-I 0 W/m² 11,6 °C 12,4 °C 0,0 km/h (0 Bft)
13.07.2017 05:00 12,4 °C 12,4 °C 95 % 1017,9 hPa 0,0 mm 0,0 km/h (0 Bft) W-NW 299 ° 0 min 0,000 mm 0,0 UV-I 0 W/m² 11,6 °C 12,4 °C 0,0 km/h (0 Bft)
13.07.2017 05:01 12,4 °C 12,4 °C 95 % 1018,0 hPa 0,0 mm 0,0 km/h (0 Bft) W-NW 299 ° 0 min 0,000 mm 0,0 UV-I 0 W/m² 11,6 °C 12,4 °C 0,0 km/h (0 Bft)
13.07.2017 05:02 12,4 °C 12,4 °C 95 % 1018,0 hPa 0,0 mm 1,1 km/h (1 Bft) W-NW 299 ° 0 min 0,000 mm 0,0 UV-I 0 W/m² 11,6 °C 12,4 °C 1,6 km/h (1 Bft)
13.07.2017 05:03 12,4 °C 12,4 °C 95 % 1018,0 hPa 0,0 mm 1,6 km/h (1 Bft) W-NW 299 ° 0 min 0,000 mm 0,0 UV-I 0 W/m² 11,6 °C 12,4 °C 1,6 km/h (1 Bft)
13.07.2017 05:04 12,4 °C 12,4 °C 95 % 1018,0 hPa 0,0 mm 2,3 km/h (1 Bft) W-NW 299 ° 0 min 0,000 mm 0,0 UV-I 0 W/m² 11,6 °C 12,4 °C 3,2 km/h (1 Bft)
13.07.2017 05:05 12,4 °C 12,4 °C 95 % 1018,0 hPa 0,0 mm 0,5 km/h (0 Bft) W-NW 299 ° 0 min 0,000 mm 0,0 UV-I 0 W/m² 11,6 °C 12,4 °C 1,6 km/h (1 Bft)
13.07.2017 05:06 12,4 °C 12,4 °C 95 % 1018,0 hPa 0,2 mm 0,3 km/h (0 Bft) W-NW 299 ° 0 min 0,000 mm 0,0 UV-I 0 W/m² 11,6 °C 12,4 °C 1,6 km/h (1 Bft)
13.07.2017 05:07 12,4 °C 12,4 °C 95 % 1018,0 hPa 0,0 mm 0,0 km/h (0 Bft) W-NW 299 ° 0 min 0,000 mm 0,0 UV-I 0 W/m² 11,6 °C 12,4 °C 0,0 km/h (0 Bft)
13.07.2017 05:08 12,4 °C 12,4 °C 95 % 1018,0 hPa 0,0 mm 0,0 km/h (0 Bft) W-NW 299 ° 0 min 0,000 mm 0,0 UV-I 0 W/m² 11,6 °C 12,4 °C 0,0 km/h (0 Bft)
13.07.2017 05:09 12,4 °C 12,4 °C 95 % 1018,0 hPa 0,0 mm 0,0 km/h (0 Bft) W-NW 299 ° 0 min 0,000 mm 0,0 UV-I 0 W/m² 11,6 °C 12,4 °C 0,0 km/h (0 Bft)
13.07.2017 05:10 12,3 °C 12,4 °C 95 % 1018,0 hPa 0,0 mm 1,0 km/h (0 Bft) W 271 ° 0 min 0,000 mm 0,0 UV-I 0 W/m² 11,5 °C 12,3 °C 4,8 km/h (1 Bft)
13.07.2017 05:11 12,3 °C 12,3 °C 95 % 1018,1 hPa 0,0 mm 2,5 km/h (1 Bft) W 270 ° 0 min 0,000 mm 0,0 UV-I 0 W/m² 11,5 °C 12,3 °C 4,8 km/h (1 Bft)
13.07.2017 05:12 12,3 °C 12,3 °C 95 % 1018,1 hPa 0,0 mm 0,9 km/h (0 Bft) W 270 ° 0 min 0,000 mm 0,0 UV-I 0 W/m² 11,5 °C 12,3 °C 3,2 km/h (1 Bft)
13.07.2017 05:13 12,3 °C 12,3 °C 95 % 1018,1 hPa 0,0 mm 0,6 km/h (0 Bft) W 271 ° 0 min 0,000 mm 0,0 UV-I 0 W/m² 11,5 °C 12,3 °C 3,2 km/h (1 Bft)
13.07.2017 05:14 12,3 °C 12,3 °C 95 % 1018,1 hPa 0,0 mm 0,0 km/h (0 Bft) W 270 ° 0 min 0,000 mm 0,0 UV-I 0 W/m² 11,5 °C 12,3 °C 0,0 km/h (0 Bft)
13.07.2017 05:15 12,3 °C 12,3 °C 95 % 1018,1 hPa 0,0 mm 1,9 km/h (1 Bft) W 270 ° 0 min 0,000 mm 0,0 UV-I 0 W/m² 11,5 °C 12,3 °C 4,8 km/h (1 Bft)
13.07.2017 05:16 12,3 °C 12,3 °C 95 % 1018,1 hPa 0,0 mm 0,1 km/h (0 Bft) W 270 ° 0 min 0,000 mm 0,0 UV-I 0 W/m² 11,5 °C 12,3 °C 1,6 km/h (1 Bft)
13.07.2017 05:17 12,3 °C 12,3 °C 95 % 1018,1 hPa 0,0 mm 2,5 km/h (1 Bft) W 270 ° 0 min 0,000 mm 0,0 UV-I 0 W/m² 11,5 °C 12,3 °C 4,8 km/h (1 Bft)
13.07.2017 05:18 12,3 °C 12,4 °C 95 % 1018,1 hPa 0,0 mm 1,9 km/h (1 Bft) W 270 ° 0 min 0,000 mm 0,0 UV-I 0 W/m² 11,5 °C 12,3 °C 4,8 km/h (1 Bft)
13.07.2017 05:19 12,3 °C 12,3 °C 94 % 1018,1 hPa 0,2 mm 2,6 km/h (1 Bft) W 268 ° 0 min 0,000 mm 0,0 UV-I 0 W/m² 11,4 °C 12,3 °C 4,8 km/h (1 Bft)
13.07.2017 05:20 12,2 °C 12,3 °C 94 % 1018,1 hPa 0,0 mm 3,6 km/h (1 Bft) W-NW 291 ° 0 min 0,000 mm 0,0 UV-I 0 W/m² 11,3 °C 12,2 °C 4,8 km/h (1 Bft)
13.07.2017 05:21 12,2 °C 12,2 °C 94 % 1018,1 hPa 0,0 mm 2,3 km/h (1 Bft) W-NW 291 ° 0 min 0,000 mm 0,0 UV-I 0 W/m² 11,3 °C 12,2 °C 4,8 km/h (1 Bft)
13.07.2017 05:22 12,1 °C 12,2 °C 94 % 1018,1 hPa 0,0 mm 3,0 km/h (1 Bft) W 280 ° 0 min 0,000 mm 0,0 UV-I 0 W/m² 11,2 °C 12,1 °C 6,4 km/h (2 Bft)
13.07.2017 05:23 12,1 °C 12,2 °C 94 % 1018,0 hPa 0,0 mm 3,0 km/h (1 Bft) W 280 ° 0 min 0,000 mm 0,0 UV-I 0 W/m² 11,2 °C 12,1 °C 3,2 km/h (1 Bft)
13.07.2017 05:24 12,1 °C 12,1 °C 94 % 1018,1 hPa 0,0 mm 2,7 km/h (1 Bft) W 279 ° 0 min 0,000 mm 0,0 UV-I 0 W/m² 11,2 °C 12,1 °C 3,2 km/h (1 Bft)
13.07.2017 05:25 12,1 °C 12,1 °C 94 % 1018,1 hPa 0,0 mm 0,1 km/h (0 Bft) W 279 ° 0 min 0,000 mm 0,0 UV-I 0 W/m² 11,2 °C 12,1 °C 1,6 km/h (1 Bft)
13.07.2017 05:26 12,1 °C 12,1 °C 94 % 1018,1 hPa 0,0 mm 0,0 km/h (0 Bft) W 279 ° 0 min 0,000 mm 0,0 UV-I 0 W/m² 11,2 °C 12,1 °C 0,0 km/h (0 Bft)
13.07.2017 05:27 12,1 °C 12,1 °C 94 % 1018,2 hPa 0,0 mm 0,1 km/h (0 Bft) W 279 ° 0 min 0,000 mm 0,0 UV-I 0 W/m² 11,2 °C 12,1 °C 1,6 km/h (1 Bft)
13.07.2017 05:28 12,1 °C 12,1 °C 94 % 1018,2 hPa 0,0 mm 3,5 km/h (1 Bft) W-SW 250 ° 0 min 0,000 mm 0,0 UV-I 0 W/m² 11,2 °C 12,1 °C 4,8 km/h (1 Bft)
13.07.2017 05:29 12,1 °C 12,1 °C 94 % 1018,2 hPa 0,0 mm 0,7 km/h (0 Bft) W-SW 250 ° 0 min 0,000 mm 0,0 UV-I 0 W/m² 11,2 °C 12,1 °C 3,2 km/h (1 Bft)
13.07.2017 05:30 12,1 °C 12,1 °C 94 % 1018,2 hPa 0,0 mm 0,0 km/h (0 Bft) SW 232 ° 0 min 0,000 mm 0,0 UV-I 0 W/m² 11,2 °C 12,1 °C 0,0 km/h (0 Bft)
13.07.2017 05:31 12,0 °C 12,1 °C 94 % 1018,2 hPa 0,0 mm 0,3 km/h (0 Bft) S-SW 204 ° 0 min 0,000 mm 0,0 UV-I 0 W/m² 11,1 °C 12,0 °C 1,6 km/h (1 Bft)
13.07.2017 05:32 12,1 °C 12,1 °C 94 % 1018,2 hPa 0,0 mm 0,0 km/h (0 Bft) S-SW 204 ° 0 min 0,000 mm 0,0 UV-I 0 W/m² 11,2 °C 12,1 °C 0,0 km/h (0 Bft)
13.07.2017 05:33 12,1 °C 12,1 °C 94 % 1018,2 hPa 0,0 mm 0,1 km/h (0 Bft) S-SW 204 ° 0 min 0,000 mm 0,0 UV-I 0 W/m² 11,2 °C 12,1 °C 1,6 km/h (1 Bft)
13.07.2017 05:34 12,0 °C 12,1 °C 94 % 1018,2 hPa 0,0 mm 0,5 km/h (0 Bft) S-SW 204 ° 0 min 0,000 mm 0,0 UV-I 0 W/m² 11,1 °C 12,0 °C 1,6 km/h (1 Bft)
13.07.2017 05:35 12,1 °C 12,1 °C 94 % 1018,2 hPa 0,2 mm 0,0 km/h (0 Bft) S-SW 204 ° 0 min 0,000 mm 0,0 UV-I 0 W/m² 11,2 °C 12,1 °C 0,0 km/h (0 Bft)
13.07.2017 05:36 12,0 °C 12,1 °C 94 % 1018,2 hPa 0,0 mm 0,0 km/h (0 Bft) S-SW 204 ° 0 min 0,000 mm 0,0 UV-I 0 W/m² 11,1 °C 12,0 °C 0,0 km/h (0 Bft)
13.07.2017 05:37 11,9 °C 12,0 °C 94 % 1018,2 hPa 0,0 mm 0,0 km/h (0 Bft) S-SW 204 ° 0 min 0,000 mm 0,0 UV-I 0 W/m² 11,0 °C 11,9 °C 0,0 km/h (0 Bft)
13.07.2017 05:38 12,0 °C 12,0 °C 94 % 1018,2 hPa 0,0 mm 0,1 km/h (0 Bft) W-SW 252 ° 0 min 0,000 mm 0,0 UV-I 0 W/m² 11,1 °C 12,0 °C 3,2 km/h (1 Bft)
13.07.2017 05:39 11,9 °C 12,0 °C 94 % 1018,1 hPa 0,0 mm 2,7 km/h (1 Bft) W-SW 253 ° 0 min 0,000 mm 0,0 UV-I 0 W/m² 11,0 °C 11,9 °C 6,4 km/h (2 Bft)
13.07.2017 05:40 11,9 °C 12,0 °C 94 % 1018,1 hPa 0,2 mm 0,0 km/h (0 Bft) W-SW 253 ° 0 min 0,000 mm 0,0 UV-I 0 W/m² 11,0 °C 11,9 °C 0,0 km/h (0 Bft)
13.07.2017 05:41 11,9 °C 11,9 °C 94 % 1018,1 hPa 0,0 mm 1,7 km/h (1 Bft) W-SW 246 ° 0 min 0,000 mm 0,0 UV-I 0 W/m² 11,0 °C 11,9 °C 3,2 km/h (1 Bft)
13.07.2017 05:42 11,9 °C 11,9 °C 94 % 1018,1 hPa 0,0 mm 0,2 km/h (0 Bft) W-SW 245 ° 0 min 0,000 mm 0,0 UV-I 0 W/m² 11,0 °C 11,9 °C 1,6 km/h (1 Bft)
13.07.2017 05:43 11,9 °C 11,9 °C 94 % 1018,1 hPa 0,0 mm 0,3 km/h (0 Bft) W-SW 238 ° 0 min 0,000 mm 0,0 UV-I 0 W/m² 11,0 °C 11,9 °C 1,6 km/h (1 Bft)
13.07.2017 05:44 11,8 °C 11,9 °C 94 % 1018,0 hPa 0,0 mm 1,2 km/h (1 Bft) W-SW 237 ° 0 min 0,000 mm 0,0 UV-I 0 W/m² 10,9 °C 11,8 °C 3,2 km/h (1 Bft)
13.07.2017 05:45 11,8 °C 11,8 °C 94 % 1018,0 hPa 0,0 mm 0,1 km/h (0 Bft) W-SW 237 ° 0 min 0,000 mm 0,0 UV-I 0 W/m² 10,9 °C 11,8 °C 1,6 km/h (1 Bft)
13.07.2017 05:46 11,8 °C 11,8 °C 94 % 1018,0 hPa 0,2 mm 0,0 km/h (0 Bft) W-SW 237 ° 0 min 0,000 mm 0,0 UV-I 0 W/m² 10,9 °C 11,8 °C 0,0 km/h (0 Bft)
13.07.2017 05:47 11,8 °C 11,8 °C 94 % 1018,0 hPa 0,0 mm 0,0 km/h (0 Bft) W-SW 237 ° 0 min 0,000 mm 0,0 UV-I 0 W/m² 10,9 °C 11,8 °C 0,0 km/h (0 Bft)
13.07.2017 05:48 11,8 °C 11,8 °C 94 % 1018,1 hPa 0,0 mm 0,0 km/h (0 Bft) W-SW 237 ° 0 min 0,000 mm 0,0 UV-I 0 W/m² 10,9 °C 11,8 °C 0,0 km/h (0 Bft)
13.07.2017 05:49 11,8 °C 11,8 °C 94 % 1018,1 hPa 0,0 mm 0,0 km/h (0 Bft) W-SW 237 ° 0 min 0,000 mm 0,0 UV-I 0 W/m² 10,9 °C 11,8 °C 0,0 km/h (0 Bft)
13.07.2017 05:50 11,8 °C 11,8 °C 94 % 1018,1 hPa 0,0 mm 0,5 km/h (0 Bft) W-SW 237 ° 0 min 0,000 mm 0,0 UV-I 0 W/m² 10,9 °C 11,8 °C 1,6 km/h (1 Bft)
13.07.2017 05:51 11,8 °C 11,8 °C 94 % 1018,1 hPa 0,0 mm 0,0 km/h (0 Bft) W-SW 237 ° 0 min 0,000 mm 0,0 UV-I 0 W/m² 10,9 °C 11,8 °C 0,0 km/h (0 Bft)
13.07.2017 05:52 11,8 °C 11,8 °C 94 % 1018,1 hPa 0,0 mm 0,1 km/h (0 Bft) W-SW 237 ° 0 min 0,000 mm 0,0 UV-I 0 W/m² 10,9 °C 11,8 °C 1,6 km/h (1 Bft)
13.07.2017 05:53 11,8 °C 11,8 °C 94 % 1018,1 hPa 0,0 mm 0,3 km/h (0 Bft) W-SW 237 ° 0 min 0,000 mm 0,0 UV-I 0 W/m² 10,9 °C 11,8 °C 1,6 km/h (1 Bft)
13.07.2017 05:54 11,8 °C 11,8 °C 94 % 1018,1 hPa 0,2 mm 0,7 km/h (0 Bft) W-SW 237 ° 0 min 0,000 mm 0,0 UV-I 0 W/m² 10,9 °C 11,8 °C 1,6 km/h (1 Bft)
13.07.2017 05:55 11,8 °C 11,8 °C 94 % 1018,1 hPa 0,0 mm 0,0 km/h (0 Bft) W-SW 237 ° 0 min 0,000 mm 0,0 UV-I 0 W/m² 10,9 °C 11,8 °C 0,0 km/h (0 Bft)
13.07.2017 05:56 11,8 °C 11,8 °C 94 % 1018,1 hPa 0,0 mm 0,0 km/h (0 Bft) W-SW 237 ° 0 min 0,000 mm 0,0 UV-I 0 W/m² 10,9 °C 11,8 °C 0,0 km/h (0 Bft)
13.07.2017 05:57 11,8 °C 11,8 °C 94 % 1018,0 hPa 0,0 mm 0,0 km/h (0 Bft) W-SW 237 ° 0 min 0,000 mm 0,0 UV-I 0 W/m² 10,9 °C 11,8 °C 0,0 km/h (0 Bft)
13.07.2017 05:58 11,8 °C 11,8 °C 94 % 1018,1 hPa 0,0 mm 0,0 km/h (0 Bft) W-SW 237 ° 0 min 0,000 mm 0,0 UV-I 0 W/m² 10,9 °C 11,8 °C 0,0 km/h (0 Bft)
13.07.2017 05:59 11,8 °C 11,8 °C 94 % 1018,2 hPa 0,0 mm 0,3 km/h (0 Bft) W-SW 237 ° 0 min 0,000 mm 0,0 UV-I 0 W/m² 10,9 °C 11,8 °C 3,2 km/h (1 Bft)
13.07.2017 06:00 11,8 °C 11,8 °C 95 % 1018,2 hPa 0,0 mm 1,0 km/h (0 Bft) W-SW 237 ° 0 min 0,000 mm 0,0 UV-I 0 W/m² 11,0 °C 11,8 °C 1,6 km/h (1 Bft)
13.07.2017 06:01 11,8 °C 11,8 °C 95 % 1018,2 hPa 0,0 mm 0,0 km/h (0 Bft) W-SW 237 ° 0 min 0,000 mm 0,0 UV-I 0 W/m² 11,0 °C 11,8 °C 0,0 km/h (0 Bft)
13.07.2017 06:02 11,8 °C 11,8 °C 95 % 1018,2 hPa 0,0 mm 0,0 km/h (0 Bft) W-SW 237 ° 0 min 0,000 mm 0,0 UV-I 0 W/m² 11,0 °C 11,8 °C 0,0 km/h (0 Bft)
13.07.2017 06:03 11,9 °C 11,9 °C 95 % 1018,2 hPa 0,0 mm 0,0 km/h (0 Bft) W-SW 237 ° 0 min 0,000 mm 0,0 UV-I 0 W/m² 11,1 °C 11,9 °C 0,0 km/h (0 Bft)
13.07.2017 06:04 11,8 °C 11,9 °C 95 % 1018,2 hPa 0,0 mm 0,0 km/h (0 Bft) W-SW 237 ° 0 min 0,000 mm 0,0 UV-I 0 W/m² 11,0 °C 11,8 °C 0,0 km/h (0 Bft)
13.07.2017 06:05 11,8 °C 11,8 °C 94 % 1018,3 hPa 0,2 mm 0,0 km/h (0 Bft) W-SW 237 ° 0 min 0,000 mm 0,0 UV-I 0 W/m² 10,9 °C 11,8 °C 0,0 km/h (0 Bft)
13.07.2017 06:06 11,8 °C 11,9 °C 95 % 1018,3 hPa 0,0 mm 0,0 km/h (0 Bft) W-SW 237 ° 0 min 0,000 mm 0,0 UV-I 0 W/m² 11,0 °C 11,8 °C 0,0 km/h (0 Bft)
13.07.2017 06:07 11,8 °C 11,8 °C 95 % 1018,2 hPa 0,0 mm 0,0 km/h (0 Bft) W-SW 237 ° 0 min 0,000 mm 0,0 UV-I 0 W/m² 11,0 °C 11,8 °C 0,0 km/h (0 Bft)
13.07.2017 06:08 11,8 °C 11,8 °C 95 % 1018,2 hPa 0,0 mm 0,0 km/h (0 Bft) W-SW 237 ° 0 min 0,000 mm 0,0 UV-I 0 W/m² 11,0 °C 11,8 °C 0,0 km/h (0 Bft)
13.07.2017 06:09 11,8 °C 11,8 °C 95 % 1018,2 hPa 0,0 mm 0,0 km/h (0 Bft) W-SW 237 ° 0 min 0,000 mm 0,0 UV-I 0 W/m² 11,0 °C 11,8 °C 0,0 km/h (0 Bft)
13.07.2017 06:10 11,8 °C 11,8 °C 95 % 1018,2 hPa 0,0 mm 0,0 km/h (0 Bft) W-SW 237 ° 0 min 0,000 mm 0,0 UV-I 0 W/m² 11,0 °C 11,8 °C 0,0 km/h (0 Bft)
13.07.2017 06:11 11,8 °C 11,8 °C 95 % 1018,2 hPa 0,0 mm 0,0 km/h (0 Bft) W-SW 237 ° 0 min 0,000 mm 0,0 UV-I 0 W/m² 11,0 °C 11,8 °C 0,0 km/h (0 Bft)
13.07.2017 06:12 11,8 °C 11,8 °C 95 % 1018,2 hPa 0,0 mm 0,0 km/h (0 Bft) W-SW 237 ° 0 min 0,000 mm 0,0 UV-I 5 W/m² 11,0 °C 11,8 °C 0,0 km/h (0 Bft)
13.07.2017 06:13 11,8 °C 11,8 °C 95 % 1018,2 hPa 0,0 mm 0,0 km/h (0 Bft) W-SW 237 ° 0 min 0,000 mm 0,0 UV-I 5 W/m² 11,0 °C 11,8 °C 0,0 km/h (0 Bft)
13.07.2017 06:14 11,8 °C 11,8 °C 95 % 1018,2 hPa 0,0 mm 0,0 km/h (0 Bft) W-SW 237 ° 0 min 0,000 mm 0,0 UV-I 5 W/m² 11,0 °C 11,8 °C 0,0 km/h (0 Bft)
13.07.2017 06:15 11,7 °C 11,8 °C 95 % 1018,2 hPa 0,0 mm 0,0 km/h (0 Bft) W-SW 237 ° 0 min 0,000 mm 0,0 UV-I 5 W/m² 10,9 °C 11,7 °C 0,0 km/h (0 Bft)
13.07.2017 06:16 11,8 °C 11,8 °C 95 % 1018,2 hPa 0,0 mm 0,0 km/h (0 Bft) W-SW 237 ° 0 min 0,000 mm 0,0 UV-I 5 W/m² 11,0 °C 11,8 °C 0,0 km/h (0 Bft)
13.07.2017 06:17 11,7 °C 11,8 °C 95 % 1018,3 hPa 0,0 mm 0,0 km/h (0 Bft) W-SW 237 ° 0 min 0,000 mm 0,0 UV-I 5 W/m² 10,9 °C 11,7 °C 0,0 km/h (0 Bft)
13.07.2017 06:18 11,7 °C 11,8 °C 95 % 1018,3 hPa 0,0 mm 0,0 km/h (0 Bft) W-SW 237 ° 0 min 0,000 mm 0,0 UV-I 5 W/m² 10,9 °C 11,7 °C 0,0 km/h (0 Bft)
13.07.2017 06:19 11,7 °C 11,8 °C 95 % 1018,2 hPa 0,0 mm 0,0 km/h (0 Bft) W-SW 237 ° 0 min 0,000 mm 0,0 UV-I 5 W/m² 10,9 °C 11,7 °C 0,0 km/h (0 Bft)
13.07.2017 06:20 11,7 °C 11,7 °C 95 % 1018,2 hPa 0,2 mm 0,0 km/h (0 Bft) W-SW 237 ° 0 min 0,000 mm 0,0 UV-I 5 W/m² 10,9 °C 11,7 °C 0,0 km/h (0 Bft)
13.07.2017 06:21 11,7 °C 11,7 °C 95 % 1018,2 hPa 0,0 mm 0,0 km/h (0 Bft) W-SW 237 ° 0 min 0,000 mm 0,0 UV-I 5 W/m² 10,9 °C 11,7 °C 0,0 km/h (0 Bft)
13.07.2017 06:22 11,7 °C 11,7 °C 95 % 1018,2 hPa 0,0 mm 0,0 km/h (0 Bft) W-SW 237 ° 0 min 0,000 mm 0,0 UV-I 5 W/m² 10,9 °C 11,7 °C 0,0 km/h (0 Bft)
13.07.2017 06:23 11,7 °C 11,7 °C 95 % 1018,3 hPa 0,0 mm 0,0 km/h (0 Bft) W-SW 237 ° 0 min 0,000 mm 0,0 UV-I 5 W/m² 10,9 °C 11,7 °C 0,0 km/h (0 Bft)
13.07.2017 06:24 11,7 °C 11,7 °C 94 % 1018,3 hPa 0,0 mm 0,0 km/h (0 Bft) W-SW 237 ° 0 min 0,000 mm 0,0 UV-I 5 W/m² 10,8 °C 11,7 °C 0,0 km/h (0 Bft)
13.07.2017 06:25 11,7 °C 11,7 °C 95 % 1018,3 hPa 0,0 mm 0,0 km/h (0 Bft) W-SW 237 ° 0 min 0,000 mm 0,0 UV-I 5 W/m² 10,9 °C 11,7 °C 0,0 km/h (0 Bft)
13.07.2017 06:26 11,7 °C 11,7 °C 95 % 1018,3 hPa 0,0 mm 0,0 km/h (0 Bft) W-SW 237 ° 0 min 0,000 mm 0,0 UV-I 5 W/m² 10,9 °C 11,7 °C 0,0 km/h (0 Bft)
13.07.2017 06:27 11,7 °C 11,7 °C 95 % 1018,3 hPa 0,0 mm 0,0 km/h (0 Bft) W-SW 237 ° 0 min 0,000 mm 0,0 UV-I 5 W/m² 10,9 °C 11,7 °C 0,0 km/h (0 Bft)
13.07.2017 06:28 11,7 °C 11,7 °C 95 % 1018,3 hPa 0,0 mm 0,0 km/h (0 Bft) W-SW 237 ° 0 min 0,000 mm 0,0 UV-I 5 W/m² 10,9 °C 11,7 °C 0,0 km/h (0 Bft)
13.07.2017 06:29 11,8 °C 11,8 °C 95 % 1018,3 hPa 0,0 mm 0,0 km/h (0 Bft) W-SW 237 ° 0 min 0,000 mm 0,0 UV-I 5 W/m² 11,0 °C 11,8 °C 0,0 km/h (0 Bft)
13.07.2017 06:30 11,8 °C 11,8 °C 95 % 1018,4 hPa 0,0 mm 0,0 km/h (0 Bft) W-SW 237 ° 0 min 0,000 mm 0,0 UV-I 5 W/m² 11,0 °C 11,8 °C 0,0 km/h (0 Bft)
13.07.2017 06:31 11,8 °C 11,8 °C 95 % 1018,4 hPa 0,0 mm 0,0 km/h (0 Bft) W-SW 237 ° 0 min 0,000 mm 0,0 UV-I 5 W/m² 11,0 °C 11,8 °C 0,0 km/h (0 Bft)
13.07.2017 06:32 11,8 °C 11,8 °C 95 % 1018,3 hPa 0,0 mm 0,0 km/h (0 Bft) W-SW 237 ° 0 min 0,000 mm 0,0 UV-I 5 W/m² 11,0 °C 11,8 °C 0,0 km/h (0 Bft)
13.07.2017 06:33 11,8 °C 11,8 °C 95 % 1018,3 hPa 0,0 mm 0,0 km/h (0 Bft) W-SW 237 ° 0 min 0,000 mm 0,0 UV-I 5 W/m² 11,0 °C 11,8 °C 0,0 km/h (0 Bft)
13.07.2017 06:34 11,8 °C 11,8 °C 95 % 1018,4 hPa 0,0 mm 0,0 km/h (0 Bft) W-SW 237 ° 0 min 0,000 mm 0,0 UV-I 5 W/m² 11,0 °C 11,8 °C 0,0 km/h (0 Bft)
13.07.2017 06:35 11,8 °C 11,8 °C 95 % 1018,3 hPa 0,0 mm 0,0 km/h (0 Bft) W-SW 237 ° 0 min 0,000 mm 0,0 UV-I 5 W/m² 11,0 °C 11,8 °C 0,0 km/h (0 Bft)
13.07.2017 06:36 11,8 °C 11,8 °C 95 % 1018,4 hPa 0,0 mm 0,0 km/h (0 Bft) W-SW 237 ° 0 min 0,000 mm 0,0 UV-I 5 W/m² 11,0 °C 11,8 °C 0,0 km/h (0 Bft)
13.07.2017 06:37 11,8 °C 11,9 °C 95 % 1018,4 hPa 0,0 mm 0,0 km/h (0 Bft) W-SW 237 ° 0 min 0,000 mm 0,0 UV-I 5 W/m² 11,0 °C 11,8 °C 0,0 km/h (0 Bft)
13.07.2017 06:38 11,8 °C 11,9 °C 95 % 1018,5 hPa 0,0 mm 0,0 km/h (0 Bft) W-SW 237 ° 0 min 0,000 mm 0,0 UV-I 5 W/m² 11,0 °C 11,8 °C 0,0 km/h (0 Bft)
13.07.2017 06:39 11,9 °C 11,9 °C 95 % 1018,5 hPa 0,0 mm 0,0 km/h (0 Bft) W-SW 237 ° 0 min 0,000 mm 0,0 UV-I 5 W/m² 11,1 °C 11,9 °C 0,0 km/h (0 Bft)
13.07.2017 06:40 11,9 °C 11,9 °C 95 % 1018,5 hPa 0,0 mm 0,0 km/h (0 Bft) W-SW 237 ° 0 min 0,000 mm 0,0 UV-I 5 W/m² 11,1 °C 11,9 °C 0,0 km/h (0 Bft)
13.07.2017 06:41 11,9 °C 11,9 °C 95 % 1018,5 hPa 0,0 mm 0,0 km/h (0 Bft) W-SW 237 ° 0 min 0,000 mm 0,0 UV-I 5 W/m² 11,1 °C 11,9 °C 0,0 km/h (0 Bft)
13.07.2017 06:42 11,8 °C 11,9 °C 95 % 1018,5 hPa 0,0 mm 0,0 km/h (0 Bft) W-SW 237 ° 0 min 0,000 mm 0,0 UV-I 5 W/m² 11,0 °C 11,8 °C 0,0 km/h (0 Bft)
13.07.2017 06:43 11,8 °C 11,9 °C 95 % 1018,5 hPa 0,0 mm 0,0 km/h (0 Bft) W-SW 237 ° 0 min 0,000 mm 0,0 UV-I 7 W/m² 11,0 °C 11,8 °C 0,0 km/h (0 Bft)
13.07.2017 06:44 11,8 °C 11,8 °C 95 % 1018,5 hPa 0,0 mm 0,0 km/h (0 Bft) W-SW 237 ° 0 min 0,000 mm 0,0 UV-I 9 W/m² 11,0 °C 11,8 °C 0,0 km/h (0 Bft)
13.07.2017 06:45 11,8 °C 11,8 °C 95 % 1018,5 hPa 0,0 mm 0,0 km/h (0 Bft) W-SW 237 ° 0 min 0,000 mm 0,0 UV-I 9 W/m² 11,0 °C 11,8 °C 0,0 km/h (0 Bft)
13.07.2017 06:46 11,8 °C 11,8 °C 95 % 1018,5 hPa 0,0 mm 0,0 km/h (0 Bft) W-SW 237 ° 0 min 0,000 mm 0,0 UV-I 9 W/m² 11,0 °C 11,8 °C 0,0 km/h (0 Bft)
13.07.2017 06:47 11,8 °C 11,9 °C 95 % 1018,5 hPa 0,0 mm 0,0 km/h (0 Bft) W-SW 237 ° 0 min 0,000 mm 0,0 UV-I 9 W/m² 11,0 °C 11,8 °C 0,0 km/h (0 Bft)
13.07.2017 06:48 11,9 °C 11,9 °C 95 % 1018,5 hPa 0,0 mm 0,0 km/h (0 Bft) W-SW 237 ° 0 min 0,000 mm 0,0 UV-I 11 W/m² 11,1 °C 11,9 °C 0,0 km/h (0 Bft)
13.07.2017 06:49 11,9 °C 11,9 °C 95 % 1018,5 hPa 0,0 mm 0,0 km/h (0 Bft) W-SW 237 ° 0 min 0,000 mm 0,0 UV-I 9 W/m² 11,1 °C 11,9 °C 0,0 km/h (0 Bft)
13.07.2017 06:50 11,9 °C 11,9 °C 95 % 1018,5 hPa 0,0 mm 0,0 km/h (0 Bft) W-SW 237 ° 0 min 0,000 mm 0,0 UV-I 9 W/m² 11,1 °C 11,9 °C 0,0 km/h (0 Bft)
13.07.2017 06:51 11,9 °C 11,9 °C 95 % 1018,5 hPa 0,0 mm 0,0 km/h (0 Bft) W-SW 237 ° 0 min 0,000 mm 0,0 UV-I 9 W/m² 11,1 °C 11,9 °C 0,0 km/h (0 Bft)
13.07.2017 06:52 11,9 °C 12,0 °C 95 % 1018,5 hPa 0,0 mm 0,0 km/h (0 Bft) W-SW 237 ° 0 min 0,000 mm 0,0 UV-I 9 W/m² 11,1 °C 11,9 °C 0,0 km/h (0 Bft)
13.07.2017 06:53 12,0 °C 12,0 °C 95 % 1018,5 hPa 0,0 mm 0,0 km/h (0 Bft) W-SW 237 ° 0 min 0,000 mm 0,0 UV-I 9 W/m² 11,2 °C 12,0 °C 0,0 km/h (0 Bft)
13.07.2017 06:54 11,9 °C 12,0 °C 95 % 1018,6 hPa 0,0 mm 0,0 km/h (0 Bft) W-SW 237 ° 0 min 0,000 mm 0,0 UV-I 11 W/m² 11,1 °C 11,9 °C 0,0 km/h (0 Bft)
13.07.2017 06:55 11,9 °C 12,0 °C 95 % 1018,6 hPa 0,0 mm 0,0 km/h (0 Bft) W-SW 237 ° 0 min 0,000 mm 0,0 UV-I 9 W/m² 11,1 °C 11,9 °C 0,0 km/h (0 Bft)
13.07.2017 06:56 11,9 °C 11,9 °C 95 % 1018,6 hPa 0,0 mm 0,0 km/h (0 Bft) W-SW 237 ° 0 min 0,000 mm 0,0 UV-I 9 W/m² 11,1 °C 11,9 °C 0,0 km/h (0 Bft)
13.07.2017 06:57 12,0 °C 12,0 °C 95 % 1018,6 hPa 0,0 mm 0,0 km/h (0 Bft) W-SW 237 ° 0 min 0,000 mm 0,0 UV-I 9 W/m² 11,2 °C 12,0 °C 0,0 km/h (0 Bft)
13.07.2017 06:58 12,0 °C 12,1 °C 95 % 1018,5 hPa 0,0 mm 0,0 km/h (0 Bft) W-SW 237 ° 0 min 0,000 mm 0,0 UV-I 11 W/m² 11,2 °C 12,0 °C 0,0 km/h (0 Bft)
13.07.2017 06:59 12,1 °C 12,1 °C 95 % 1018,5 hPa 0,0 mm 0,0 km/h (0 Bft) W-SW 237 ° 0 min 0,000 mm 0,0 UV-I 12 W/m² 11,3 °C 12,1 °C 0,0 km/h (0 Bft)
13.07.2017 07:00 12,1 °C 12,1 °C 95 % 1018,6 hPa 0,0 mm 0,0 km/h (0 Bft) W-SW 237 ° 0 min 0,000 mm 0,0 UV-I 12 W/m² 11,3 °C 12,1 °C 0,0 km/h (0 Bft)
13.07.2017 07:01 12,1 °C 12,1 °C 95 % 1018,6 hPa 0,0 mm 0,0 km/h (0 Bft) W-SW 237 ° 0 min 0,000 mm 0,0 UV-I 14 W/m² 11,3 °C 12,1 °C 0,0 km/h (0 Bft)
13.07.2017 07:02 12,1 °C 12,1 °C 95 % 1018,6 hPa 0,0 mm 0,0 km/h (0 Bft) W-SW 237 ° 0 min 0,000 mm 0,0 UV-I 12 W/m² 11,3 °C 12,1 °C 0,0 km/h (0 Bft)
13.07.2017 07:03 12,1 °C 12,1 °C 95 % 1018,6 hPa 0,0 mm 0,0 km/h (0 Bft) W-SW 237 ° 0 min 0,000 mm 0,0 UV-I 12 W/m² 11,3 °C 12,1 °C 0,0 km/h (0 Bft)
13.07.2017 07:04 12,1 °C 12,1 °C 95 % 1018,5 hPa 0,0 mm 0,0 km/h (0 Bft) W-SW 237 ° 0 min 0,000 mm 0,0 UV-I 11 W/m² 11,3 °C 12,1 °C 0,0 km/h (0 Bft)
13.07.2017 07:05 12,1 °C 12,1 °C 95 % 1018,6 hPa 0,0 mm 0,0 km/h (0 Bft) W-SW 237 ° 0 min 0,000 mm 0,0 UV-I 12 W/m² 11,3 °C 12,1 °C 0,0 km/h (0 Bft)
13.07.2017 07:06 12,0 °C 12,1 °C 95 % 1018,6 hPa 0,0 mm 0,0 km/h (0 Bft) W-SW 237 ° 0 min 0,000 mm 0,0 UV-I 12 W/m² 11,2 °C 12,0 °C 0,0 km/h (0 Bft)
13.07.2017 07:07 12,0 °C 12,1 °C 95 % 1018,6 hPa 0,0 mm 0,0 km/h (0 Bft) W-SW 237 ° 0 min 0,000 mm 0,0 UV-I 14 W/m² 11,2 °C 12,0 °C 0,0 km/h (0 Bft)
13.07.2017 07:08 12,0 °C 12,1 °C 95 % 1018,6 hPa 0,0 mm 0,0 km/h (0 Bft) W-SW 237 ° 0 min 0,000 mm 0,0 UV-I 14 W/m² 11,2 °C 12,0 °C 0,0 km/h (0 Bft)
13.07.2017 07:09 12,0 °C 12,0 °C 95 % 1018,6 hPa 0,0 mm 0,0 km/h (0 Bft) W-SW 237 ° 0 min 0,000 mm 0,0 UV-I 16 W/m² 11,2 °C 12,0 °C 0,0 km/h (0 Bft)
13.07.2017 07:10 12,1 °C 12,1 °C 95 % 1018,7 hPa 0,0 mm 0,0 km/h (0 Bft) W-SW 237 ° 0 min 0,000 mm 0,0 UV-I 16 W/m² 11,3 °C 12,1 °C 0,0 km/h (0 Bft)
13.07.2017 07:11 12,0 °C 12,1 °C 95 % 1018,7 hPa 0,0 mm 0,0 km/h (0 Bft) W-SW 237 ° 0 min 0,000 mm 0,0 UV-I 16 W/m² 11,2 °C 12,0 °C 0,0 km/h (0 Bft)
13.07.2017 07:12 12,0 °C 12,0 °C 95 % 1018,6 hPa 0,0 mm 0,0 km/h (0 Bft) W-SW 237 ° 0 min 0,000 mm 0,0 UV-I 16 W/m² 11,2 °C 12,0 °C 0,0 km/h (0 Bft)
13.07.2017 07:13 12,0 °C 12,0 °C 95 % 1018,6 hPa 0,0 mm 0,0 km/h (0 Bft) W-SW 237 ° 0 min 0,000 mm 0,0 UV-I 16 W/m² 11,2 °C 12,0 °C 0,0 km/h (0 Bft)
13.07.2017 07:14 11,9 °C 12,0 °C 95 % 1018,6 hPa 0,0 mm 0,0 km/h (0 Bft) W-SW 237 ° 0 min 0,000 mm 0,0 UV-I 16 W/m² 11,1 °C 11,9 °C 0,0 km/h (0 Bft)
13.07.2017 07:15 12,0 °C 12,0 °C 95 % 1018,6 hPa 0,0 mm 0,0 km/h (0 Bft) W-SW 237 ° 0 min 0,000 mm 0,0 UV-I 18 W/m² 11,2 °C 12,0 °C 0,0 km/h (0 Bft)
13.07.2017 07:16 12,0 °C 12,0 °C 95 % 1018,7 hPa 0,0 mm 0,0 km/h (0 Bft) W-SW 237 ° 0 min 0,000 mm 0,0 UV-I 16 W/m² 11,2 °C 12,0 °C 0,0 km/h (0 Bft)
13.07.2017 07:17 12,1 °C 12,1 °C 95 % 1018,7 hPa 0,0 mm 0,1 km/h (0 Bft) W-SW 237 ° 0 min 0,000 mm 0,0 UV-I 16 W/m² 11,3 °C 12,1 °C 1,6 km/h (1 Bft)
13.07.2017 07:18 12,0 °C 12,1 °C 95 % 1018,7 hPa 0,0 mm 0,0 km/h (0 Bft) W-SW 237 ° 0 min 0,000 mm 0,0 UV-I 14 W/m² 11,2 °C 12,0 °C 0,0 km/h (0 Bft)
13.07.2017 07:19 12,0 °C 12,0 °C 95 % 1018,7 hPa 0,0 mm 0,0 km/h (0 Bft) W-SW 237 ° 0 min 0,000 mm 0,0 UV-I 14 W/m² 11,2 °C 12,0 °C 0,0 km/h (0 Bft)
13.07.2017 07:20 12,0 °C 12,0 °C 95 % 1018,7 hPa 0,0 mm 0,0 km/h (0 Bft) W-SW 237 ° 0 min 0,000 mm 0,0 UV-I 14 W/m² 11,2 °C 12,0 °C 0,0 km/h (0 Bft)
13.07.2017 07:21 12,1 °C 12,1 °C 95 % 1018,7 hPa 0,0 mm 0,0 km/h (0 Bft) W-SW 237 ° 0 min 0,000 mm 0,0 UV-I 16 W/m² 11,3 °C 12,1 °C 0,0 km/h (0 Bft)
13.07.2017 07:22 12,1 °C 12,1 °C 95 % 1018,7 hPa 0,0 mm 0,0 km/h (0 Bft) W-SW 237 ° 0 min 0,000 mm 0,0 UV-I 16 W/m² 11,3 °C 12,1 °C 0,0 km/h (0 Bft)
13.07.2017 07:23 12,0 °C 12,1 °C 95 % 1018,7 hPa 0,0 mm 0,0 km/h (0 Bft) W-SW 237 ° 0 min 0,000 mm 0,0 UV-I 16 W/m² 11,2 °C 12,0 °C 0,0 km/h (0 Bft)
13.07.2017 07:24 12,0 °C 12,1 °C 94 % 1018,7 hPa 0,0 mm 0,0 km/h (0 Bft) W-SW 237 ° 0 min 0,000 mm 0,0 UV-I 18 W/m² 11,1 °C 12,0 °C 0,0 km/h (0 Bft)
13.07.2017 07:25 12,1 °C 12,1 °C 95 % 1018,7 hPa 0,0 mm 0,0 km/h (0 Bft) W-SW 237 ° 0 min 0,000 mm 0,0 UV-I 19 W/m² 11,3 °C 12,1 °C 0,0 km/h (0 Bft)
13.07.2017 07:26 12,1 °C 12,1 °C 95 % 1018,7 hPa 0,0 mm 0,0 km/h (0 Bft) W-SW 237 ° 0 min 0,000 mm 0,0 UV-I 23 W/m² 11,3 °C 12,1 °C 0,0 km/h (0 Bft)
13.07.2017 07:27 12,0 °C 12,1 °C 94 % 1018,7 hPa 0,0 mm 0,0 km/h (0 Bft) W-SW 237 ° 0 min 0,000 mm 0,0 UV-I 28 W/m² 11,1 °C 12,0 °C 0,0 km/h (0 Bft)
13.07.2017 07:28 12,0 °C 12,0 °C 94 % 1018,7 hPa 0,0 mm 0,0 km/h (0 Bft) W-SW 237 ° 0 min 0,000 mm 0,0 UV-I 33 W/m² 11,1 °C 12,0 °C 0,0 km/h (0 Bft)
13.07.2017 07:29 12,0 °C 12,0 °C 94 % 1018,7 hPa 0,0 mm 0,0 km/h (0 Bft) W-SW 237 ° 0 min 0,000 mm 0,0 UV-I 37 W/m² 11,1 °C 12,0 °C 0,0 km/h (0 Bft)
13.07.2017 07:30 12,0 °C 12,0 °C 94 % 1018,7 hPa 0,0 mm 0,0 km/h (0 Bft) W-SW 237 ° 0 min 0,000 mm 0,0 UV-I 39 W/m² 11,1 °C 12,0 °C 0,0 km/h (0 Bft)
13.07.2017 07:31 12,0 °C 12,0 °C 94 % 1018,7 hPa 0,0 mm 0,0 km/h (0 Bft) W-SW 237 ° 0 min 0,000 mm 0,0 UV-I 39 W/m² 11,1 °C 12,0 °C 0,0 km/h (0 Bft)
13.07.2017 07:32 12,0 °C 12,0 °C 95 % 1018,7 hPa 0,0 mm 0,0 km/h (0 Bft) W-SW 237 ° 0 min 0,000 mm 0,0 UV-I 30 W/m² 11,2 °C 12,0 °C 0,0 km/h (0 Bft)
13.07.2017 07:33 12,1 °C 12,1 °C 95 % 1018,7 hPa 0,0 mm 0,0 km/h (0 Bft) W-SW 237 ° 0 min 0,000 mm 0,0 UV-I 26 W/m² 11,3 °C 12,1 °C 0,0 km/h (0 Bft)
13.07.2017 07:34 12,1 °C 12,1 °C 95 % 1018,7 hPa 0,0 mm 0,0 km/h (0 Bft) W-SW 237 ° 0 min 0,000 mm 0,0 UV-I 28 W/m² 11,3 °C 12,1 °C 0,0 km/h (0 Bft)
13.07.2017 07:35 12,1 °C 12,1 °C 95 % 1018,7 hPa 0,0 mm 0,0 km/h (0 Bft) W-SW 237 ° 0 min 0,000 mm 0,0 UV-I 30 W/m² 11,3 °C 12,1 °C 0,0 km/h (0 Bft)
13.07.2017 07:36 12,1 °C 12,1 °C 95 % 1018,8 hPa 0,0 mm 0,0 km/h (0 Bft) W-SW 237 ° 0 min 0,000 mm 0,0 UV-I 35 W/m² 11,3 °C 12,1 °C 0,0 km/h (0 Bft)
13.07.2017 07:37 12,1 °C 12,1 °C 95 % 1018,8 hPa 0,0 mm 0,0 km/h (0 Bft) W-SW 237 ° 0 min 0,000 mm 0,0 UV-I 42 W/m² 11,3 °C 12,1 °C 0,0 km/h (0 Bft)
13.07.2017 07:38 12,2 °C 12,2 °C 95 % 1018,7 hPa 0,0 mm 0,0 km/h (0 Bft) W-SW 237 ° 0 min 0,000 mm 0,0 UV-I 40 W/m² 11,4 °C 12,2 °C 0,0 km/h (0 Bft)
13.07.2017 07:39 12,2 °C 12,2 °C 95 % 1018,7 hPa 0,0 mm 0,0 km/h (0 Bft) W-SW 237 ° 0 min 0,000 mm 0,0 UV-I 37 W/m² 11,4 °C 12,2 °C 0,0 km/h (0 Bft)
13.07.2017 07:40 12,2 °C 12,2 °C 95 % 1018,7 hPa 0,0 mm 0,0 km/h (0 Bft) W-SW 237 ° 0 min 0,000 mm 0,0 UV-I 37 W/m² 11,4 °C 12,2 °C 0,0 km/h (0 Bft)
13.07.2017 07:41 12,2 °C 12,2 °C 95 % 1018,7 hPa 0,0 mm 0,0 km/h (0 Bft) W-SW 237 ° 0 min 0,000 mm 0,0 UV-I 37 W/m² 11,4 °C 12,2 °C 0,0 km/h (0 Bft)
13.07.2017 07:42 12,2 °C 12,2 °C 95 % 1018,8 hPa 0,0 mm 0,0 km/h (0 Bft) W-SW 237 ° 0 min 0,000 mm 0,0 UV-I 39 W/m² 11,4 °C 12,2 °C 0,0 km/h (0 Bft)
13.07.2017 07:43 12,2 °C 12,2 °C 95 % 1018,7 hPa 0,0 mm 0,0 km/h (0 Bft) W-SW 237 ° 0 min 0,000 mm 0,0 UV-I 37 W/m² 11,4 °C 12,2 °C 0,0 km/h (0 Bft)
13.07.2017 07:44 12,2 °C 12,2 °C 95 % 1018,8 hPa 0,0 mm 0,0 km/h (0 Bft) W-SW 237 ° 0 min 0,000 mm 0,0 UV-I 32 W/m² 11,4 °C 12,2 °C 0,0 km/h (0 Bft)
13.07.2017 07:45 12,2 °C 12,2 °C 95 % 1018,8 hPa 0,0 mm 0,0 km/h (0 Bft) W-SW 237 ° 0 min 0,000 mm 0,0 UV-I 26 W/m² 11,4 °C 12,2 °C 0,0 km/h (0 Bft)
13.07.2017 07:46 12,2 °C 12,2 °C 95 % 1018,8 hPa 0,0 mm 0,0 km/h (0 Bft) W-SW 237 ° 0 min 0,000 mm 0,0 UV-I 25 W/m² 11,4 °C 12,2 °C 0,0 km/h (0 Bft)
13.07.2017 07:47 12,2 °C 12,2 °C 95 % 1018,8 hPa 0,0 mm 0,0 km/h (0 Bft) W-SW 237 ° 0 min 0,000 mm 0,0 UV-I 33 W/m² 11,4 °C 12,2 °C 0,0 km/h (0 Bft)
13.07.2017 07:48 12,2 °C 12,2 °C 95 % 1018,8 hPa 0,0 mm 0,0 km/h (0 Bft) W-SW 237 ° 0 min 0,000 mm 0,0 UV-I 40 W/m² 11,4 °C 12,2 °C 0,0 km/h (0 Bft)
13.07.2017 07:49 12,2 °C 12,2 °C 94 % 1018,7 hPa 0,0 mm 0,6 km/h (0 Bft) W-SW 237 ° 0 min 0,000 mm 0,0 UV-I 46 W/m² 11,3 °C 12,2 °C 1,6 km/h (1 Bft)
13.07.2017 07:50 12,2 °C 12,2 °C 94 % 1018,8 hPa 0,0 mm 1,6 km/h (1 Bft) W-SW 237 ° 0 min 0,000 mm 0,0 UV-I 47 W/m² 11,3 °C 12,2 °C 3,2 km/h (1 Bft)
13.07.2017 07:51 12,2 °C 12,2 °C 94 % 1018,8 hPa 0,0 mm 0,9 km/h (0 Bft) W-SW 237 ° 0 min 0,000 mm 0,0 UV-I 51 W/m² 11,3 °C 12,2 °C 1,6 km/h (1 Bft)
13.07.2017 07:52 12,2 °C 12,2 °C 94 % 1018,8 hPa 0,0 mm 0,0 km/h (0 Bft) W-SW 237 ° 0 min 0,000 mm 0,0 UV-I 58 W/m² 11,3 °C 12,2 °C 0,0 km/h (0 Bft)
13.07.2017 07:53 12,3 °C 12,3 °C 95 % 1018,8 hPa 0,0 mm 0,0 km/h (0 Bft) W-SW 237 ° 0 min 0,000 mm 0,0 UV-I 77 W/m² 11,5 °C 12,3 °C 0,0 km/h (0 Bft)
13.07.2017 07:54 12,3 °C 12,3 °C 94 % 1018,7 hPa 0,0 mm 0,0 km/h (0 Bft) W-SW 237 ° 0 min 0,000 mm 0,5 UV-I 90 W/m² 11,4 °C 12,3 °C 0,0 km/h (0 Bft)
13.07.2017 07:55 12,3 °C 12,3 °C 94 % 1018,8 hPa 0,0 mm 0,0 km/h (0 Bft) W-SW 237 ° 0 min 0,000 mm 0,5 UV-I 91 W/m² 11,4 °C 12,3 °C 0,0 km/h (0 Bft)
13.07.2017 07:56 12,3 °C 12,3 °C 94 % 1018,8 hPa 0,0 mm 0,0 km/h (0 Bft) W-SW 237 ° 0 min 0,000 mm 0,5 UV-I 81 W/m² 11,4 °C 12,3 °C 0,0 km/h (0 Bft)
13.07.2017 07:57 12,4 °C 12,4 °C 95 % 1018,7 hPa 0,0 mm 0,0 km/h (0 Bft) W-SW 237 ° 0 min 0,000 mm 0,0 UV-I 67 W/m² 11,6 °C 12,4 °C 0,0 km/h (0 Bft)
13.07.2017 07:58 12,4 °C 12,4 °C 95 % 1018,7 hPa 0,0 mm 0,0 km/h (0 Bft) W-SW 237 ° 0 min 0,000 mm 0,0 UV-I 56 W/m² 11,6 °C 12,4 °C 0,0 km/h (0 Bft)
13.07.2017 07:59 12,4 °C 12,4 °C 95 % 1018,7 hPa 0,0 mm 1,7 km/h (1 Bft) W-SW 237 ° 0 min 0,000 mm 0,0 UV-I 49 W/m² 11,6 °C 12,4 °C 3,2 km/h (1 Bft)
13.07.2017 08:00 12,4 °C 12,4 °C 95 % 1018,8 hPa 0,0 mm 1,8 km/h (1 Bft) W-SW 237 ° 0 min 0,000 mm 0,0 UV-I 47 W/m² 11,6 °C 12,4 °C 3,2 km/h (1 Bft)
13.07.2017 08:01 12,4 °C 12,4 °C 94 % 1018,7 hPa 0,0 mm 0,4 km/h (0 Bft) W-SW 237 ° 0 min 0,025 mm 0,0 UV-I 47 W/m² 11,5 °C 12,4 °C 1,6 km/h (1 Bft)
13.07.2017 08:02 12,4 °C 12,4 °C 94 % 1018,7 hPa 0,0 mm 0,0 km/h (0 Bft) W-SW 237 ° 0 min 0,000 mm 0,0 UV-I 49 W/m² 11,5 °C 12,4 °C 0,0 km/h (0 Bft)
13.07.2017 08:03 12,4 °C 12,4 °C 94 % 1018,7 hPa 0,0 mm 0,0 km/h (0 Bft) W-SW 237 ° 0 min 0,000 mm 0,0 UV-I 49 W/m² 11,5 °C 12,4 °C 0,0 km/h (0 Bft)
13.07.2017 08:04 12,4 °C 12,4 °C 94 % 1018,7 hPa 0,0 mm 0,0 km/h (0 Bft) W-SW 237 ° 0 min 0,000 mm 0,0 UV-I 46 W/m² 11,5 °C 12,4 °C 0,0 km/h (0 Bft)
13.07.2017 08:05 12,4 °C 12,4 °C 94 % 1018,7 hPa 0,0 mm 0,0 km/h (0 Bft) W-SW 237 ° 0 min 0,000 mm 0,0 UV-I 40 W/m² 11,5 °C 12,4 °C 0,0 km/h (0 Bft)
13.07.2017 08:06 12,4 °C 12,4 °C 94 % 1018,7 hPa 0,0 mm 0,0 km/h (0 Bft) W-SW 237 ° 0 min 0,000 mm 0,0 UV-I 46 W/m² 11,5 °C 12,4 °C 0,0 km/h (0 Bft)
13.07.2017 08:07 12,4 °C 12,4 °C 94 % 1018,7 hPa 0,0 mm 0,0 km/h (0 Bft) W-SW 237 ° 0 min 0,000 mm 0,0 UV-I 53 W/m² 11,5 °C 12,4 °C 0,0 km/h (0 Bft)
13.07.2017 08:08 12,4 °C 12,4 °C 94 % 1018,7 hPa 0,0 mm 0,0 km/h (0 Bft) W-SW 237 ° 0 min 0,000 mm 0,0 UV-I 54 W/m² 11,5 °C 12,4 °C 0,0 km/h (0 Bft)
13.07.2017 08:09 12,4 °C 12,4 °C 93 % 1018,7 hPa 0,0 mm 1,9 km/h (1 Bft) W-SW 237 ° 0 min 0,000 mm 0,0 UV-I 51 W/m² 11,3 °C 12,4 °C 3,2 km/h (1 Bft)
13.07.2017 08:10 12,4 °C 12,4 °C 93 % 1018,7 hPa 0,0 mm 0,5 km/h (0 Bft) W-SW 237 ° 0 min 0,000 mm 0,0 UV-I 46 W/m² 11,3 °C 12,4 °C 1,6 km/h (1 Bft)
13.07.2017 08:11 12,4 °C 12,4 °C 94 % 1018,8 hPa 0,0 mm 4,0 km/h (1 Bft) W-SW 238 ° 0 min 0,000 mm 0,0 UV-I 32 W/m² 11,5 °C 12,4 °C 4,8 km/h (1 Bft)
13.07.2017 08:12 12,4 °C 12,4 °C 94 % 1018,9 hPa 0,0 mm 3,4 km/h (1 Bft) W-SW 238 ° 0 min 0,000 mm 0,0 UV-I 32 W/m² 11,5 °C 12,4 °C 4,8 km/h (1 Bft)
13.07.2017 08:13 12,4 °C 12,4 °C 94 % 1018,9 hPa 0,0 mm 2,8 km/h (1 Bft) W-SW 238 ° 0 min 0,000 mm 0,0 UV-I 25 W/m² 11,5 °C 12,4 °C 4,8 km/h (1 Bft)
13.07.2017 08:14 12,4 °C 12,4 °C 93 % 1018,9 hPa 0,0 mm 1,1 km/h (1 Bft) W-SW 238 ° 0 min 0,000 mm 0,0 UV-I 25 W/m² 11,3 °C 12,4 °C 3,2 km/h (1 Bft)
13.07.2017 08:15 12,4 °C 12,4 °C 94 % 1018,9 hPa 0,0 mm 2,2 km/h (1 Bft) W-SW 238 ° 0 min 0,000 mm 0,0 UV-I 23 W/m² 11,5 °C 12,4 °C 3,2 km/h (1 Bft)
13.07.2017 08:16 12,4 °C 12,4 °C 94 % 1018,9 hPa 0,0 mm 1,7 km/h (1 Bft) W-SW 238 ° 0 min 0,000 mm 0,0 UV-I 21 W/m² 11,5 °C 12,4 °C 3,2 km/h (1 Bft)
13.07.2017 08:17 12,4 °C 12,4 °C 94 % 1019,0 hPa 0,0 mm 0,6 km/h (0 Bft) W-SW 238 ° 0 min 0,000 mm 0,0 UV-I 19 W/m² 11,5 °C 12,4 °C 1,6 km/h (1 Bft)
13.07.2017 08:18 12,4 °C 12,4 °C 94 % 1019,0 hPa 0,0 mm 0,0 km/h (0 Bft) W-SW 238 ° 0 min 0,000 mm 0,0 UV-I 21 W/m² 11,5 °C 12,4 °C 0,0 km/h (0 Bft)
13.07.2017 08:19 12,4 °C 12,4 °C 94 % 1018,9 hPa 0,0 mm 0,0 km/h (0 Bft) W-SW 238 ° 0 min 0,000 mm 0,0 UV-I 25 W/m² 11,5 °C 12,4 °C 0,0 km/h (0 Bft)
13.07.2017 08:20 12,4 °C 12,4 °C 94 % 1018,9 hPa 0,0 mm 0,3 km/h (0 Bft) W-SW 238 ° 0 min 0,000 mm 0,0 UV-I 26 W/m² 11,5 °C 12,4 °C 1,6 km/h (1 Bft)
13.07.2017 08:21 12,4 °C 12,4 °C 94 % 1018,9 hPa 0,0 mm 1,9 km/h (1 Bft) W-SW 238 ° 0 min 0,000 mm 0,0 UV-I 30 W/m² 11,5 °C 12,4 °C 3,2 km/h (1 Bft)
13.07.2017 08:22 12,4 °C 12,4 °C 94 % 1019,0 hPa 0,0 mm 1,3 km/h (1 Bft) W-SW 238 ° 0 min 0,000 mm 0,0 UV-I 33 W/m² 11,5 °C 12,4 °C 3,2 km/h (1 Bft)
13.07.2017 08:23 12,4 °C 12,4 °C 94 % 1019,0 hPa 0,0 mm 0,0 km/h (0 Bft) W-SW 238 ° 0 min 0,000 mm 0,0 UV-I 26 W/m² 11,5 °C 12,4 °C 0,0 km/h (0 Bft)
13.07.2017 08:24 12,4 °C 12,4 °C 94 % 1019,0 hPa 0,0 mm 1,1 km/h (1 Bft) W-SW 238 ° 0 min 0,000 mm 0,0 UV-I 23 W/m² 11,5 °C 12,4 °C 3,2 km/h (1 Bft)
13.07.2017 08:25 12,4 °C 12,4 °C 94 % 1019,0 hPa 0,0 mm 0,7 km/h (0 Bft) W-SW 238 ° 0 min 0,000 mm 0,0 UV-I 21 W/m² 11,5 °C 12,4 °C 1,6 km/h (1 Bft)
13.07.2017 08:26 12,4 °C 12,4 °C 94 % 1019,0 hPa 0,0 mm 0,5 km/h (0 Bft) W-SW 238 ° 0 min 0,000 mm 0,0 UV-I 19 W/m² 11,5 °C 12,4 °C 1,6 km/h (1 Bft)
13.07.2017 08:27 12,4 °C 12,4 °C 94 % 1019,1 hPa 0,0 mm 1,0 km/h (0 Bft) W-SW 238 ° 0 min 0,000 mm 0,0 UV-I 19 W/m² 11,5 °C 12,4 °C 1,6 km/h (1 Bft)
13.07.2017 08:28 12,3 °C 12,4 °C 94 % 1019,1 hPa 0,0 mm 2,5 km/h (1 Bft) W-SW 238 ° 0 min 0,000 mm 0,0 UV-I 19 W/m² 11,4 °C 12,3 °C 3,2 km/h (1 Bft)
13.07.2017 08:29 12,3 °C 12,3 °C 94 % 1019,1 hPa 0,0 mm 2,3 km/h (1 Bft) W 259 ° 0 min 0,000 mm 0,0 UV-I 19 W/m² 11,4 °C 12,3 °C 3,2 km/h (1 Bft)
13.07.2017 08:30 12,3 °C 12,3 °C 94 % 1019,1 hPa 0,0 mm 1,1 km/h (1 Bft) NW 312 ° 0 min 0,000 mm 0,0 UV-I 21 W/m² 11,4 °C 12,3 °C 3,2 km/h (1 Bft)
13.07.2017 08:31 12,3 °C 12,3 °C 94 % 1019,1 hPa 0,0 mm 3,7 km/h (1 Bft) NW 312 ° 0 min 0,000 mm 0,0 UV-I 23 W/m² 11,4 °C 12,3 °C 4,8 km/h (1 Bft)
13.07.2017 08:32 12,3 °C 12,3 °C 94 % 1019,1 hPa 0,0 mm 2,5 km/h (1 Bft) NW 312 ° 0 min 0,000 mm 0,0 UV-I 26 W/m² 11,4 °C 12,3 °C 4,8 km/h (1 Bft)
13.07.2017 08:33 12,3 °C 12,4 °C 94 % 1019,1 hPa 0,0 mm 0,3 km/h (0 Bft) NW 312 ° 0 min 0,000 mm 0,0 UV-I 28 W/m² 11,4 °C 12,3 °C 1,6 km/h (1 Bft)
13.07.2017 08:34 12,3 °C 12,4 °C 94 % 1019,1 hPa 0,0 mm 0,0 km/h (0 Bft) NW 312 ° 0 min 0,000 mm 0,0 UV-I 35 W/m² 11,4 °C 12,3 °C 0,0 km/h (0 Bft)
13.07.2017 08:35 12,3 °C 12,3 °C 94 % 1019,1 hPa 0,0 mm 0,0 km/h (0 Bft) NW 312 ° 0 min 0,000 mm 0,0 UV-I 39 W/m² 11,4 °C 12,3 °C 0,0 km/h (0 Bft)
13.07.2017 08:36 12,3 °C 12,4 °C 94 % 1019,1 hPa 0,0 mm 0,0 km/h (0 Bft) NW 312 ° 0 min 0,000 mm 0,0 UV-I 42 W/m² 11,4 °C 12,3 °C 0,0 km/h (0 Bft)
13.07.2017 08:37 12,3 °C 12,3 °C 94 % 1019,0 hPa 0,0 mm 0,5 km/h (0 Bft) NW 311 ° 0 min 0,000 mm 0,0 UV-I 44 W/m² 11,4 °C 12,3 °C 1,6 km/h (1 Bft)
13.07.2017 08:38 12,3 °C 12,3 °C 94 % 1019,0 hPa 0,0 mm 0,7 km/h (0 Bft) NW 311 ° 0 min 0,000 mm 0,0 UV-I 46 W/m² 11,4 °C 12,3 °C 1,6 km/h (1 Bft)
13.07.2017 08:39 12,3 °C 12,3 °C 94 % 1018,9 hPa 0,0 mm 0,0 km/h (0 Bft) NW 311 ° 0 min 0,000 mm 0,0 UV-I 46 W/m² 11,4 °C 12,3 °C 0,0 km/h (0 Bft)
13.07.2017 08:40 12,2 °C 12,3 °C 94 % 1019,0 hPa 0,0 mm 0,0 km/h (0 Bft) NW 311 ° 0 min 0,000 mm 0,0 UV-I 44 W/m² 11,3 °C 12,2 °C 0,0 km/h (0 Bft)
13.07.2017 08:41 12,2 °C 12,3 °C 94 % 1019,0 hPa 0,0 mm 0,0 km/h (0 Bft) NW 311 ° 0 min 0,000 mm 0,0 UV-I 44 W/m² 11,3 °C 12,2 °C 0,0 km/h (0 Bft)
13.07.2017 08:42 12,2 °C 12,2 °C 94 % 1019,0 hPa 0,0 mm 0,0 km/h (0 Bft) NW 311 ° 0 min 0,000 mm 0,0 UV-I 44 W/m² 11,3 °C 12,2 °C 0,0 km/h (0 Bft)
13.07.2017 08:43 12,2 °C 12,2 °C 94 % 1019,0 hPa 0,0 mm 0,0 km/h (0 Bft) NW 311 ° 0 min 0,000 mm 0,0 UV-I 42 W/m² 11,3 °C 12,2 °C 0,0 km/h (0 Bft)
13.07.2017 08:44 12,2 °C 12,2 °C 94 % 1019,1 hPa 0,0 mm 0,0 km/h (0 Bft) NW 311 ° 0 min 0,000 mm 0,0 UV-I 40 W/m² 11,3 °C 12,2 °C 0,0 km/h (0 Bft)
13.07.2017 08:45 12,3 °C 12,3 °C 94 % 1019,1 hPa 0,0 mm 0,0 km/h (0 Bft) NW 311 ° 0 min 0,000 mm 0,0 UV-I 39 W/m² 11,4 °C 12,3 °C 0,0 km/h (0 Bft)
13.07.2017 08:46 12,3 °C 12,3 °C 94 % 1019,1 hPa 0,0 mm 0,0 km/h (0 Bft) NW 311 ° 0 min 0,000 mm 0,0 UV-I 35 W/m² 11,4 °C 12,3 °C 0,0 km/h (0 Bft)
13.07.2017 08:47 12,2 °C 12,3 °C 94 % 1019,1 hPa 0,0 mm 0,0 km/h (0 Bft) NW 311 ° 0 min 0,000 mm 0,0 UV-I 37 W/m² 11,3 °C 12,2 °C 0,0 km/h (0 Bft)
13.07.2017 08:48 12,2 °C 12,2 °C 93 % 1019,1 hPa 0,0 mm 0,0 km/h (0 Bft) NW 311 ° 0 min 0,000 mm 0,0 UV-I 40 W/m² 11,1 °C 12,2 °C 0,0 km/h (0 Bft)
13.07.2017 08:49 12,2 °C 12,2 °C 93 % 1019,1 hPa 0,0 mm 0,0 km/h (0 Bft) NW 311 ° 0 min 0,000 mm 0,0 UV-I 47 W/m² 11,1 °C 12,2 °C 0,0 km/h (0 Bft)
13.07.2017 08:50 12,2 °C 12,2 °C 93 % 1019,1 hPa 0,0 mm 0,0 km/h (0 Bft) NW 311 ° 0 min 0,000 mm 0,0 UV-I 53 W/m² 11,1 °C 12,2 °C 0,0 km/h (0 Bft)
13.07.2017 08:51 12,2 °C 12,2 °C 93 % 1019,1 hPa 0,0 mm 0,0 km/h (0 Bft) NW 311 ° 0 min 0,000 mm 0,0 UV-I 56 W/m² 11,1 °C 12,2 °C 0,0 km/h (0 Bft)
13.07.2017 08:52 12,2 °C 12,2 °C 93 % 1019,1 hPa 0,0 mm 0,0 km/h (0 Bft) NW 311 ° 0 min 0,000 mm 0,0 UV-I 54 W/m² 11,1 °C 12,2 °C 0,0 km/h (0 Bft)
13.07.2017 08:53 12,3 °C 12,3 °C 94 % 1019,1 hPa 0,0 mm 0,0 km/h (0 Bft) NW 311 ° 0 min 0,000 mm 0,0 UV-I 53 W/m² 11,4 °C 12,3 °C 0,0 km/h (0 Bft)
13.07.2017 08:54 12,2 °C 12,3 °C 94 % 1019,1 hPa 0,0 mm 0,0 km/h (0 Bft) NW 311 ° 0 min 0,000 mm 0,0 UV-I 49 W/m² 11,3 °C 12,2 °C 0,0 km/h (0 Bft)
13.07.2017 08:55 12,2 °C 12,2 °C 93 % 1019,1 hPa 0,0 mm 0,0 km/h (0 Bft) NW 311 ° 0 min 0,000 mm 0,0 UV-I 47 W/m² 11,1 °C 12,2 °C 0,0 km/h (0 Bft)
13.07.2017 08:56 12,3 °C 12,3 °C 94 % 1019,1 hPa 0,0 mm 0,0 km/h (0 Bft) NW 311 ° 0 min 0,000 mm 0,0 UV-I 47 W/m² 11,4 °C 12,3 °C 0,0 km/h (0 Bft)
13.07.2017 08:57 12,3 °C 12,3 °C 94 % 1019,1 hPa 0,0 mm 0,0 km/h (0 Bft) NW 311 ° 0 min 0,000 mm 0,0 UV-I 49 W/m² 11,4 °C 12,3 °C 0,0 km/h (0 Bft)
13.07.2017 08:58 12,2 °C 12,3 °C 94 % 1019,1 hPa 0,0 mm 0,0 km/h (0 Bft) NW 311 ° 0 min 0,000 mm 0,0 UV-I 54 W/m² 11,3 °C 12,2 °C 0,0 km/h (0 Bft)
13.07.2017 08:59 12,2 °C 12,3 °C 93 % 1019,1 hPa 0,0 mm 0,0 km/h (0 Bft) NW 311 ° 0 min 0,000 mm 0,5 UV-I 62 W/m² 11,1 °C 12,2 °C 0,0 km/h (0 Bft)
13.07.2017 09:00 12,2 °C 12,3 °C 93 % 1019,0 hPa 0,0 mm 0,0 km/h (0 Bft) NW 311 ° 0 min 0,000 mm 0,6 UV-I 70 W/m² 11,1 °C 12,2 °C 0,0 km/h (0 Bft)
13.07.2017 09:01 12,3 °C 12,3 °C 93 % 1019,1 hPa 0,0 mm 0,0 km/h (0 Bft) NW 311 ° 0 min 0,026 mm 0,6 UV-I 79 W/m² 11,2 °C 12,3 °C 0,0 km/h (0 Bft)
13.07.2017 09:02 12,3 °C 12,3 °C 93 % 1019,1 hPa 0,0 mm 0,6 km/h (0 Bft) NW 311 ° 0 min 0,000 mm 0,7 UV-I 86 W/m² 11,2 °C 12,3 °C 1,6 km/h (1 Bft)
13.07.2017 09:03 12,3 °C 12,3 °C 93 % 1019,1 hPa 0,0 mm 0,3 km/h (0 Bft) NW 311 ° 0 min 0,000 mm 0,7 UV-I 91 W/m² 11,2 °C 12,3 °C 1,6 km/h (1 Bft)
13.07.2017 09:04 12,4 °C 12,4 °C 93 % 1019,0 hPa 0,0 mm 0,0 km/h (0 Bft) NW 311 ° 0 min 0,000 mm 0,7 UV-I 98 W/m² 11,3 °C 12,4 °C 0,0 km/h (0 Bft)
13.07.2017 09:05 12,4 °C 12,4 °C 93 % 1019,1 hPa 0,0 mm 0,0 km/h (0 Bft) NW 311 ° 0 min 0,000 mm 0,7 UV-I 97 W/m² 11,3 °C 12,4 °C 0,0 km/h (0 Bft)
13.07.2017 09:06 12,4 °C 12,4 °C 93 % 1019,1 hPa 0,0 mm 0,6 km/h (0 Bft) NW 311 ° 0 min 0,000 mm 0,7 UV-I 93 W/m² 11,3 °C 12,4 °C 3,2 km/h (1 Bft)
13.07.2017 09:07 12,4 °C 12,4 °C 93 % 1019,1 hPa 0,0 mm 1,5 km/h (1 Bft) NW 311 ° 0 min 0,000 mm 0,7 UV-I 93 W/m² 11,3 °C 12,4 °C 3,2 km/h (1 Bft)
13.07.2017 09:08 12,4 °C 12,5 °C 93 % 1019,1 hPa 0,0 mm 0,2 km/h (0 Bft) NW 311 ° 0 min 0,000 mm 0,7 UV-I 93 W/m² 11,3 °C 12,4 °C 1,6 km/h (1 Bft)
13.07.2017 09:09 12,5 °C 12,5 °C 93 % 1019,1 hPa 0,0 mm 0,0 km/h (0 Bft) NW 311 ° 0 min 0,000 mm 0,8 UV-I 93 W/m² 11,4 °C 12,5 °C 0,0 km/h (0 Bft)
13.07.2017 09:10 12,4 °C 12,5 °C 92 % 1019,1 hPa 0,0 mm 0,0 km/h (0 Bft) NW 311 ° 0 min 0,000 mm 0,8 UV-I 100 W/m² 11,1 °C 12,4 °C 0,0 km/h (0 Bft)
13.07.2017 09:11 12,4 °C 12,4 °C 92 % 1019,1 hPa 0,0 mm 0,9 km/h (0 Bft) NW 311 ° 0 min 0,000 mm 0,9 UV-I 104 W/m² 11,1 °C 12,4 °C 1,6 km/h (1 Bft)
13.07.2017 09:12 12,5 °C 12,5 °C 93 % 1019,1 hPa 0,0 mm 0,3 km/h (0 Bft) NW 311 ° 0 min 0,000 mm 0,9 UV-I 102 W/m² 11,4 °C 12,5 °C 1,6 km/h (1 Bft)
13.07.2017 09:13 12,6 °C 12,6 °C 93 % 1019,1 hPa 0,0 mm 0,0 km/h (0 Bft) NW 311 ° 0 min 0,000 mm 0,9 UV-I 102 W/m² 11,5 °C 12,6 °C 0,0 km/h (0 Bft)
13.07.2017 09:14 12,5 °C 12,6 °C 92 % 1019,1 hPa 0,0 mm 0,0 km/h (0 Bft) NW 311 ° 0 min 0,000 mm 1,0 UV-I 109 W/m² 11,2 °C 12,5 °C 0,0 km/h (0 Bft)
13.07.2017 09:15 12,5 °C 12,6 °C 92 % 1019,1 hPa 0,0 mm 0,0 km/h (0 Bft) NW 311 ° 0 min 0,000 mm 1,1 UV-I 121 W/m² 11,2 °C 12,5 °C 0,0 km/h (0 Bft)
13.07.2017 09:16 12,4 °C 12,5 °C 91 % 1019,1 hPa 0,0 mm 0,0 km/h (0 Bft) NW 311 ° 0 min 0,000 mm 1,2 UV-I 162 W/m² 11,0 °C 12,4 °C 0,0 km/h (0 Bft)
13.07.2017 09:17 12,5 °C 12,5 °C 91 % 1019,1 hPa 0,0 mm 0,0 km/h (0 Bft) NW 311 ° 0 min 0,000 mm 1,3 UV-I 163 W/m² 11,1 °C 12,5 °C 0,0 km/h (0 Bft)
13.07.2017 09:18 12,5 °C 12,5 °C 91 % 1019,1 hPa 0,0 mm 0,0 km/h (0 Bft) NW 311 ° 0 min 0,000 mm 1,3 UV-I 156 W/m² 11,1 °C 12,5 °C 0,0 km/h (0 Bft)
13.07.2017 09:19 12,5 °C 12,6 °C 91 % 1019,1 hPa 0,0 mm 0,0 km/h (0 Bft) NW 311 ° 0 min 0,000 mm 1,4 UV-I 156 W/m² 11,1 °C 12,5 °C 0,0 km/h (0 Bft)
13.07.2017 09:20 12,6 °C 12,6 °C 91 % 1019,1 hPa 0,0 mm 0,0 km/h (0 Bft) NW 311 ° 0 min 0,000 mm 1,5 UV-I 174 W/m² 11,2 °C 12,6 °C 0,0 km/h (0 Bft)
13.07.2017 09:21 12,6 °C 12,6 °C 91 % 1019,1 hPa 0,0 mm 0,0 km/h (0 Bft) NW 311 ° 0 min 0,000 mm 1,8 UV-I 236 W/m² 11,2 °C 12,6 °C 0,0 km/h (0 Bft)
13.07.2017 09:22 12,7 °C 12,7 °C 91 % 1019,1 hPa 0,0 mm 0,0 km/h (0 Bft) NW 311 ° 1 min 0,000 mm 2,4 UV-I 376 W/m² 11,3 °C 12,7 °C 0,0 km/h (0 Bft)
13.07.2017 09:23 12,7 °C 12,7 °C 91 % 1019,1 hPa 0,0 mm 0,0 km/h (0 Bft) NW 311 ° 1 min 0,000 mm 2,2 UV-I 346 W/m² 11,3 °C 12,7 °C 0,0 km/h (0 Bft)
13.07.2017 09:24 12,8 °C 12,8 °C 91 % 1019,1 hPa 0,0 mm 0,0 km/h (0 Bft) NW 311 ° 1 min 0,000 mm 2,1 UV-I 299 W/m² 11,4 °C 12,8 °C 0,0 km/h (0 Bft)
13.07.2017 09:25 12,9 °C 12,9 °C 91 % 1019,1 hPa 0,0 mm 0,0 km/h (0 Bft) NW 311 ° 1 min 0,000 mm 2,3 UV-I 338 W/m² 11,5 °C 12,9 °C 0,0 km/h (0 Bft)
13.07.2017 09:26 13,0 °C 13,0 °C 91 % 1019,1 hPa 0,0 mm 0,0 km/h (0 Bft) NW 311 ° 1 min 0,000 mm 3,1 UV-I 338 W/m² 11,6 °C 13,0 °C 0,0 km/h (0 Bft)
13.07.2017 09:27 13,2 °C 13,2 °C 92 % 1019,1 hPa 0,0 mm 1,1 km/h (1 Bft) NW 319 ° 1 min 0,000 mm 2,2 UV-I 306 W/m² 11,9 °C 13,2 °C 3,2 km/h (1 Bft)
13.07.2017 09:28 13,2 °C 13,2 °C 92 % 1019,0 hPa 0,0 mm 3,4 km/h (1 Bft) NW 320 ° 1 min 0,000 mm 2,2 UV-I 329 W/m² 11,9 °C 13,2 °C 4,8 km/h (1 Bft)
13.07.2017 09:29 13,2 °C 13,2 °C 90 % 1019,0 hPa 0,0 mm 3,6 km/h (1 Bft) N 360 ° 1 min 0,000 mm 2,3 UV-I 350 W/m² 11,6 °C 13,2 °C 4,8 km/h (1 Bft)
13.07.2017 09:30 13,2 °C 13,2 °C 90 % 1019,0 hPa 0,0 mm 3,4 km/h (1 Bft) N 5 ° 1 min 0,000 mm 2,4 UV-I 373 W/m² 11,6 °C 13,2 °C 4,8 km/h (1 Bft)
13.07.2017 09:31 13,2 °C 13,2 °C 90 % 1019,0 hPa 0,0 mm 1,2 km/h (1 Bft) N 5 ° 1 min 0,000 mm 2,3 UV-I 364 W/m² 11,6 °C 13,2 °C 3,2 km/h (1 Bft)
13.07.2017 09:32 13,1 °C 13,2 °C 90 % 1019,0 hPa 0,0 mm 1,6 km/h (1 Bft) N 5 ° 1 min 0,000 mm 2,2 UV-I 339 W/m² 11,5 °C 13,1 °C 3,2 km/h (1 Bft)
13.07.2017 09:33 13,2 °C 13,2 °C 91 % 1019,0 hPa 0,0 mm 3,0 km/h (1 Bft) N 5 ° 1 min 0,000 mm 2,2 UV-I 304 W/m² 11,8 °C 13,2 °C 4,8 km/h (1 Bft)
13.07.2017 09:34 13,2 °C 13,2 °C 91 % 1018,9 hPa 0,0 mm 2,4 km/h (1 Bft) N-NO 15 ° 1 min 0,000 mm 2,2 UV-I 295 W/m² 11,8 °C 13,2 °C 4,8 km/h (1 Bft)
13.07.2017 09:35 13,3 °C 13,3 °C 91 % 1018,9 hPa 0,0 mm 3,7 km/h (1 Bft) N-NO 16 ° 1 min 0,000 mm 2,2 UV-I 301 W/m² 11,9 °C 13,3 °C 6,4 km/h (2 Bft)
13.07.2017 09:36 13,3 °C 13,3 °C 91 % 1018,9 hPa 0,0 mm 4,7 km/h (1 Bft) N 355 ° 1 min 0,000 mm 2,3 UV-I 334 W/m² 11,9 °C 13,3 °C 6,4 km/h (2 Bft)
13.07.2017 09:37 13,4 °C 13,4 °C 92 % 1018,9 hPa 0,0 mm 4,1 km/h (1 Bft) N-NO 24 ° 1 min 0,000 mm 2,2 UV-I 320 W/m² 12,1 °C 13,4 °C 6,4 km/h (2 Bft)
13.07.2017 09:38 13,4 °C 13,4 °C 91 % 1018,9 hPa 0,0 mm 4,2 km/h (1 Bft) N 360 ° 0 min 0,000 mm 1,9 UV-I 229 W/m² 12,0 °C 13,4 °C 6,4 km/h (2 Bft)
13.07.2017 09:39 13,4 °C 13,4 °C 90 % 1018,9 hPa 0,0 mm 4,1 km/h (1 Bft) NO 47 ° 0 min 0,000 mm 1,8 UV-I 218 W/m² 11,8 °C 13,4 °C 4,8 km/h (1 Bft)
13.07.2017 09:40 13,4 °C 13,4 °C 91 % 1018,9 hPa 0,0 mm 1,6 km/h (1 Bft) NO 46 ° 0 min 0,000 mm 1,8 UV-I 230 W/m² 12,0 °C 13,4 °C 3,2 km/h (1 Bft)
13.07.2017 09:41 13,4 °C 13,4 °C 90 % 1018,9 hPa 0,0 mm 4,6 km/h (1 Bft) O-NO 62 ° 0 min 0,000 mm 1,8 UV-I 248 W/m² 11,8 °C 13,4 °C 6,4 km/h (2 Bft)
13.07.2017 09:42 13,3 °C 13,4 °C 89 % 1018,9 hPa 0,0 mm 3,0 km/h (1 Bft) O-NO 62 ° 0 min 0,000 mm 1,8 UV-I 248 W/m² 11,5 °C 13,3 °C 4,8 km/h (1 Bft)
13.07.2017 09:43 13,3 °C 13,3 °C 90 % 1018,9 hPa 0,0 mm 2,4 km/h (1 Bft) O-NO 62 ° 0 min 0,000 mm 1,7 UV-I 250 W/m² 11,7 °C 13,3 °C 4,8 km/h (1 Bft)
13.07.2017 09:44 13,3 °C 13,3 °C 90 % 1018,9 hPa 0,0 mm 0,8 km/h (0 Bft) O-NO 62 ° 0 min 0,000 mm 1,5 UV-I 216 W/m² 11,7 °C 13,3 °C 3,2 km/h (1 Bft)
13.07.2017 09:45 13,3 °C 13,3 °C 91 % 1019,0 hPa 0,0 mm 2,3 km/h (1 Bft) O-NO 62 ° 0 min 0,000 mm 1,5 UV-I 199 W/m² 11,9 °C 13,3 °C 3,2 km/h (1 Bft)
13.07.2017 09:46 13,3 °C 13,3 °C 91 % 1019,0 hPa 0,0 mm 1,0 km/h (0 Bft) O-NO 62 ° 0 min 0,000 mm 1,3 UV-I 188 W/m² 11,9 °C 13,3 °C 3,2 km/h (1 Bft)
13.07.2017 09:47 13,3 °C 13,3 °C 91 % 1018,9 hPa 0,0 mm 1,3 km/h (1 Bft) O-NO 62 ° 0 min 0,000 mm 1,2 UV-I 171 W/m² 11,9 °C 13,3 °C 3,2 km/h (1 Bft)
13.07.2017 09:48 13,3 °C 13,3 °C 91 % 1019,0 hPa 0,0 mm 1,0 km/h (0 Bft) O-NO 62 ° 0 min 0,000 mm 1,1 UV-I 156 W/m² 11,9 °C 13,3 °C 3,2 km/h (1 Bft)
13.07.2017 09:49 13,3 °C 13,3 °C 91 % 1018,9 hPa 0,0 mm 1,9 km/h (1 Bft) O-NO 62 ° 0 min 0,000 mm 1,0 UV-I 153 W/m² 11,9 °C 13,3 °C 3,2 km/h (1 Bft)
13.07.2017 09:50 13,3 °C 13,3 °C 90 % 1019,1 hPa 0,0 mm 0,7 km/h (0 Bft) O-NO 62 ° 0 min 0,000 mm 1,0 UV-I 156 W/m² 11,7 °C 13,3 °C 1,6 km/h (1 Bft)
13.07.2017 09:51 13,3 °C 13,3 °C 90 % 1019,0 hPa 0,0 mm 2,3 km/h (1 Bft) O-NO 62 ° 0 min 0,000 mm 1,0 UV-I 149 W/m² 11,7 °C 13,3 °C 3,2 km/h (1 Bft)
13.07.2017 09:52 13,3 °C 13,3 °C 91 % 1019,0 hPa 0,0 mm 1,1 km/h (1 Bft) O-NO 62 ° 0 min 0,000 mm 0,9 UV-I 146 W/m² 11,9 °C 13,3 °C 3,2 km/h (1 Bft)
13.07.2017 09:53 13,3 °C 13,3 °C 91 % 1019,1 hPa 0,0 mm 3,2 km/h (1 Bft) O-NO 69 ° 0 min 0,000 mm 0,9 UV-I 146 W/m² 11,9 °C 13,3 °C 4,8 km/h (1 Bft)
13.07.2017 09:54 13,3 °C 13,3 °C 90 % 1019,1 hPa 0,0 mm 0,7 km/h (0 Bft) O-NO 69 ° 0 min 0,000 mm 0,9 UV-I 141 W/m² 11,7 °C 13,3 °C 1,6 km/h (1 Bft)
13.07.2017 09:55 13,3 °C 13,3 °C 90 % 1019,0 hPa 0,0 mm 1,4 km/h (1 Bft) O-NO 68 ° 0 min 0,000 mm 0,9 UV-I 137 W/m² 11,7 °C 13,3 °C 4,8 km/h (1 Bft)
13.07.2017 09:56 13,3 °C 13,3 °C 91 % 1019,0 hPa 0,0 mm 4,1 km/h (1 Bft) O-NO 68 ° 0 min 0,000 mm 0,9 UV-I 148 W/m² 11,9 °C 13,3 °C 6,4 km/h (2 Bft)
13.07.2017 09:57 13,3 °C 13,3 °C 90 % 1019,0 hPa 0,0 mm 3,1 km/h (1 Bft) O-NO 57 ° 0 min 0,000 mm 1,0 UV-I 151 W/m² 11,7 °C 13,3 °C 4,8 km/h (1 Bft)
13.07.2017 09:58 13,3 °C 13,3 °C 90 % 1019,0 hPa 0,0 mm 3,4 km/h (1 Bft) O-NO 57 ° 0 min 0,000 mm 1,0 UV-I 151 W/m² 11,7 °C 13,3 °C 6,4 km/h (2 Bft)
13.07.2017 09:59 13,2 °C 13,3 °C 89 % 1019,0 hPa 0,0 mm 1,3 km/h (1 Bft) NO 34 ° 0 min 0,000 mm 1,0 UV-I 155 W/m² 11,4 °C 13,2 °C 3,2 km/h (1 Bft)
13.07.2017 10:00 13,3 °C 13,3 °C 91 % 1019,1 hPa 0,0 mm 1,9 km/h (1 Bft) N-NO 32 ° 0 min 0,101 mm 1,1 UV-I 162 W/m² 11,9 °C 13,3 °C 3,2 km/h (1 Bft)
13.07.2017 10:01 13,3 °C 13,3 °C 91 % 1019,0 hPa 0,0 mm 3,0 km/h (1 Bft) N-NO 32 ° 0 min 0,000 mm 1,2 UV-I 172 W/m² 11,9 °C 13,3 °C 4,8 km/h (1 Bft)
13.07.2017 10:02 13,3 °C 13,3 °C 90 % 1019,1 hPa 0,0 mm 2,1 km/h (1 Bft) N-NO 32 ° 0 min 0,000 mm 1,3 UV-I 200 W/m² 11,7 °C 13,3 °C 3,2 km/h (1 Bft)
13.07.2017 10:03 13,4 °C 13,4 °C 90 % 1019,0 hPa 0,0 mm 2,7 km/h (1 Bft) N-NO 32 ° 0 min 0,000 mm 1,3 UV-I 207 W/m² 11,8 °C 13,4 °C 3,2 km/h (1 Bft)
13.07.2017 10:04 13,4 °C 13,4 °C 90 % 1019,0 hPa 0,0 mm 3,1 km/h (1 Bft) N-NO 32 ° 0 min 0,000 mm 1,5 UV-I 214 W/m² 11,8 °C 13,4 °C 4,8 km/h (1 Bft)
13.07.2017 10:05 13,4 °C 13,4 °C 90 % 1019,0 hPa 0,0 mm 2,5 km/h (1 Bft) NO 44 ° 0 min 0,000 mm 1,6 UV-I 223 W/m² 11,8 °C 13,4 °C 3,2 km/h (1 Bft)
13.07.2017 10:06 13,4 °C 13,4 °C 89 % 1019,0 hPa 0,0 mm 2,4 km/h (1 Bft) NO 44 ° 0 min 0,000 mm 1,7 UV-I 237 W/m² 11,6 °C 13,4 °C 3,2 km/h (1 Bft)
13.07.2017 10:07 13,4 °C 13,4 °C 90 % 1019,0 hPa 0,0 mm 3,6 km/h (1 Bft) N-NW 346 ° 0 min 0,000 mm 1,7 UV-I 246 W/m² 11,8 °C 13,4 °C 4,8 km/h (1 Bft)
13.07.2017 10:08 13,5 °C 13,5 °C 90 % 1019,0 hPa 0,0 mm 3,2 km/h (1 Bft) N-NO 26 ° 0 min 0,000 mm 1,8 UV-I 255 W/m² 11,9 °C 13,5 °C 4,8 km/h (1 Bft)
13.07.2017 10:09 13,6 °C 13,6 °C 91 % 1019,0 hPa 0,0 mm 1,2 km/h (1 Bft) N-NO 26 ° 0 min 0,000 mm 1,8 UV-I 237 W/m² 12,2 °C 13,6 °C 1,6 km/h (1 Bft)
13.07.2017 10:10 13,6 °C 13,6 °C 91 % 1019,0 hPa 0,0 mm 3,0 km/h (1 Bft) N-NO 26 ° 0 min 0,000 mm 1,9 UV-I 227 W/m² 12,2 °C 13,6 °C 3,2 km/h (1 Bft)
13.07.2017 10:11 13,6 °C 13,7 °C 90 % 1019,0 hPa 0,0 mm 2,6 km/h (1 Bft) N-NO 26 ° 0 min 0,000 mm 2,0 UV-I 244 W/m² 12,0 °C 13,6 °C 4,8 km/h (1 Bft)
13.07.2017 10:12 13,6 °C 13,7 °C 89 % 1019,0 hPa 0,0 mm 0,2 km/h (0 Bft) N-NO 26 ° 0 min 0,000 mm 2,2 UV-I 279 W/m² 11,8 °C 13,6 °C 1,6 km/h (1 Bft)
13.07.2017 10:13 13,7 °C 13,7 °C 90 % 1019,1 hPa 0,0 mm 0,1 km/h (0 Bft) N-NO 26 ° 0 min 0,000 mm 2,2 UV-I 288 W/m² 12,1 °C 13,7 °C 1,6 km/h (1 Bft)
13.07.2017 10:14 13,7 °C 13,7 °C 90 % 1019,0 hPa 0,0 mm 2,1 km/h (1 Bft) O-NO 66 ° 1 min 0,000 mm 2,3 UV-I 345 W/m² 12,1 °C 13,7 °C 4,8 km/h (1 Bft)
13.07.2017 10:15 13,6 °C 13,7 °C 88 % 1019,1 hPa 0,0 mm 2,7 km/h (1 Bft) O-NO 66 ° 1 min 0,000 mm 2,6 UV-I 367 W/m² 11,6 °C 13,6 °C 4,8 km/h (1 Bft)
13.07.2017 10:16 13,6 °C 13,6 °C 89 % 1019,0 hPa 0,0 mm 3,1 km/h (1 Bft) O-NO 66 ° 1 min 0,000 mm 3,0 UV-I 452 W/m² 11,8 °C 13,6 °C 4,8 km/h (1 Bft)
13.07.2017 10:17 13,6 °C 13,7 °C 89 % 1019,0 hPa 0,0 mm 1,3 km/h (1 Bft) O-NO 66 ° 1 min 0,000 mm 3,4 UV-I 524 W/m² 11,8 °C 13,6 °C 3,2 km/h (1 Bft)
13.07.2017 10:18 13,8 °C 13,8 °C 91 % 1019,0 hPa 0,0 mm 3,2 km/h (1 Bft) O-NO 66 ° 1 min 0,000 mm 3,6 UV-I 564 W/m² 12,4 °C 13,8 °C 4,8 km/h (1 Bft)
13.07.2017 10:19 13,8 °C 13,8 °C 89 % 1019,0 hPa 0,0 mm 3,7 km/h (1 Bft) O-NO 74 ° 1 min 0,000 mm 3,6 UV-I 559 W/m² 12,0 °C 13,8 °C 4,8 km/h (1 Bft)
13.07.2017 10:20 13,8 °C 13,8 °C 89 % 1019,0 hPa 0,0 mm 4,5 km/h (1 Bft) O-NO 74 ° 1 min 0,000 mm 3,5 UV-I 580 W/m² 12,0 °C 13,8 °C 6,4 km/h (2 Bft)
13.07.2017 10:21 13,8 °C 13,8 °C 89 % 1019,0 hPa 0,0 mm 1,4 km/h (1 Bft) O-NO 75 ° 1 min 0,000 mm 3,7 UV-I 596 W/m² 12,0 °C 13,8 °C 3,2 km/h (1 Bft)
13.07.2017 10:22 13,8 °C 13,8 °C 88 % 1019,1 hPa 0,0 mm 5,0 km/h (1 Bft) O-NO 71 ° 1 min 0,000 mm 4,3 UV-I 596 W/m² 11,8 °C 13,8 °C 6,4 km/h (2 Bft)
13.07.2017 10:23 13,9 °C 13,9 °C 89 % 1019,1 hPa 0,0 mm 1,9 km/h (1 Bft) O-NO 71 ° 1 min 0,000 mm 3,0 UV-I 596 W/m² 12,1 °C 13,9 °C 3,2 km/h (1 Bft)
13.07.2017 10:24 13,9 °C 13,9 °C 88 % 1019,1 hPa 0,0 mm 0,0 km/h (0 Bft) O-NO 71 ° 1 min 0,000 mm 2,3 UV-I 596 W/m² 11,9 °C 13,9 °C 0,0 km/h (0 Bft)
13.07.2017 10:25 13,9 °C 13,9 °C 87 % 1019,1 hPa 0,0 mm 0,1 km/h (0 Bft) O-NO 71 ° 0 min 0,000 mm 2,1 UV-I 271 W/m² 11,8 °C 13,9 °C 1,6 km/h (1 Bft)
13.07.2017 10:26 13,9 °C 13,9 °C 87 % 1019,1 hPa 0,0 mm 3,6 km/h (1 Bft) O-NO 62 ° 0 min 0,000 mm 2,0 UV-I 253 W/m² 11,8 °C 13,9 °C 6,4 km/h (2 Bft)
13.07.2017 10:27 13,8 °C 13,9 °C 87 % 1019,1 hPa 0,0 mm 1,7 km/h (1 Bft) O-NO 61 ° 0 min 0,000 mm 1,9 UV-I 236 W/m² 11,7 °C 13,8 °C 3,2 km/h (1 Bft)
13.07.2017 10:28 13,8 °C 13,8 °C 88 % 1019,1 hPa 0,0 mm 3,1 km/h (1 Bft) O-NO 61 ° 0 min 0,000 mm 1,8 UV-I 223 W/m² 11,8 °C 13,8 °C 3,2 km/h (1 Bft)
13.07.2017 10:29 13,8 °C 13,8 °C 88 % 1019,1 hPa 0,0 mm 1,3 km/h (1 Bft) O-NO 61 ° 0 min 0,000 mm 1,8 UV-I 214 W/m² 11,8 °C 13,8 °C 3,2 km/h (1 Bft)
13.07.2017 10:30 13,8 °C 13,8 °C 89 % 1019,1 hPa 0,0 mm 2,9 km/h (1 Bft) NO 49 ° 0 min 0,000 mm 1,8 UV-I 216 W/m² 12,0 °C 13,8 °C 4,8 km/h (1 Bft)
13.07.2017 10:31 13,9 °C 13,9 °C 89 % 1019,0 hPa 0,0 mm 3,0 km/h (1 Bft) NO 48 ° 0 min 0,000 mm 1,9 UV-I 236 W/m² 12,1 °C 13,9 °C 4,8 km/h (1 Bft)
13.07.2017 10:32 13,9 °C 13,9 °C 90 % 1019,0 hPa 0,0 mm 1,3 km/h (1 Bft) NO 48 ° 0 min 0,000 mm 1,9 UV-I 232 W/m² 12,3 °C 13,9 °C 3,2 km/h (1 Bft)
13.07.2017 10:33 13,9 °C 13,9 °C 88 % 1019,0 hPa 0,0 mm 2,7 km/h (1 Bft) NO 44 ° 0 min 0,000 mm 2,0 UV-I 244 W/m² 11,9 °C 13,9 °C 3,2 km/h (1 Bft)
13.07.2017 10:34 14,1 °C 14,1 °C 90 % 1019,1 hPa 0,0 mm 2,9 km/h (1 Bft) N-NO 26 ° 0 min 0,000 mm 2,1 UV-I 258 W/m² 12,5 °C 14,1 °C 4,8 km/h (1 Bft)
13.07.2017 10:35 14,1 °C 14,1 °C 89 % 1019,0 hPa 0,0 mm 1,0 km/h (0 Bft) N-NO 26 ° 0 min 0,000 mm 2,0 UV-I 251 W/m² 12,3 °C 14,1 °C 1,6 km/h (1 Bft)
13.07.2017 10:36 14,1 °C 14,1 °C 89 % 1019,0 hPa 0,0 mm 1,5 km/h (1 Bft) N-NO 26 ° 0 min 0,000 mm 2,0 UV-I 237 W/m² 12,3 °C 14,1 °C 3,2 km/h (1 Bft)
13.07.2017 10:37 14,1 °C 14,1 °C 89 % 1019,0 hPa 0,0 mm 1,9 km/h (1 Bft) N-NO 26 ° 0 min 0,000 mm 1,9 UV-I 207 W/m² 12,3 °C 14,1 °C 3,2 km/h (1 Bft)
13.07.2017 10:38 14,1 °C 14,1 °C 89 % 1019,0 hPa 0,0 mm 1,5 km/h (1 Bft) N-NO 26 ° 0 min 0,000 mm 1,9 UV-I 214 W/m² 12,3 °C 14,1 °C 3,2 km/h (1 Bft)
13.07.2017 10:39 14,1 °C 14,1 °C 88 % 1019,0 hPa 0,0 mm 2,6 km/h (1 Bft) N-NO 26 ° 0 min 0,000 mm 2,0 UV-I 230 W/m² 12,1 °C 14,1 °C 4,8 km/h (1 Bft)
13.07.2017 10:40 14,1 °C 14,1 °C 88 % 1019,0 hPa 0,0 mm 1,2 km/h (1 Bft) N-NO 26 ° 0 min 0,000 mm 1,9 UV-I 221 W/m² 12,1 °C 14,1 °C 3,2 km/h (1 Bft)
13.07.2017 10:41 14,1 °C 14,1 °C 86 % 1019,0 hPa 0,0 mm 0,0 km/h (0 Bft) N-NO 26 ° 0 min 0,000 mm 1,8 UV-I 200 W/m² 11,8 °C 14,1 °C 0,0 km/h (0 Bft)
13.07.2017 10:42 13,9 °C 14,1 °C 86 % 1019,0 hPa 0,0 mm 0,0 km/h (0 Bft) N-NO 26 ° 0 min 0,000 mm 1,9 UV-I 202 W/m² 11,6 °C 13,9 °C 0,0 km/h (0 Bft)
13.07.2017 10:43 14,0 °C 14,0 °C 89 % 1019,0 hPa 0,0 mm 0,0 km/h (0 Bft) N-NO 26 ° 0 min 0,000 mm 2,0 UV-I 257 W/m² 12,2 °C 14,0 °C 0,0 km/h (0 Bft)
13.07.2017 10:44 14,0 °C 14,1 °C 89 % 1019,0 hPa 0,0 mm 0,4 km/h (0 Bft) N-NO 26 ° 0 min 0,000 mm 2,3 UV-I 285 W/m² 12,2 °C 14,0 °C 1,6 km/h (1 Bft)
13.07.2017 10:45 14,0 °C 14,0 °C 87 % 1019,0 hPa 0,0 mm 1,7 km/h (1 Bft) N-NO 26 ° 0 min 0,000 mm 2,3 UV-I 285 W/m² 11,9 °C 14,0 °C 3,2 km/h (1 Bft)
13.07.2017 10:46 14,1 °C 14,1 °C 88 % 1019,0 hPa 0,0 mm 0,1 km/h (0 Bft) N-NO 26 ° 0 min 0,000 mm 2,2 UV-I 276 W/m² 12,1 °C 14,1 °C 1,6 km/h (1 Bft)
13.07.2017 10:47 14,1 °C 14,1 °C 86 % 1019,0 hPa 0,0 mm 0,0 km/h (0 Bft) N-NO 26 ° 0 min 0,000 mm 2,2 UV-I 265 W/m² 11,8 °C 14,1 °C 0,0 km/h (0 Bft)
13.07.2017 10:48 14,1 °C 14,1 °C 86 % 1019,0 hPa 0,0 mm 1,3 km/h (1 Bft) N-NO 26 ° 0 min 0,000 mm 2,1 UV-I 255 W/m² 11,8 °C 14,1 °C 3,2 km/h (1 Bft)
13.07.2017 10:49 14,1 °C 14,1 °C 88 % 1019,0 hPa 0,0 mm 1,5 km/h (1 Bft) O-NO 58 ° 0 min 0,000 mm 2,1 UV-I 248 W/m² 12,1 °C 14,1 °C 3,2 km/h (1 Bft)
13.07.2017 10:50 14,1 °C 14,1 °C 88 % 1019,0 hPa 0,0 mm 2,7 km/h (1 Bft) O-NO 69 ° 0 min 0,000 mm 2,1 UV-I 251 W/m² 12,1 °C 14,1 °C 4,8 km/h (1 Bft)
13.07.2017 10:51 14,1 °C 14,2 °C 88 % 1019,0 hPa 0,0 mm 0,5 km/h (0 Bft) O-NO 69 ° 0 min 0,000 mm 2,1 UV-I 258 W/m² 12,1 °C 14,1 °C 3,2 km/h (1 Bft)
13.07.2017 10:52 14,1 °C 14,1 °C 88 % 1019,0 hPa 0,0 mm 0,5 km/h (0 Bft) O-NO 69 ° 0 min 0,000 mm 2,1 UV-I 257 W/m² 12,1 °C 14,1 °C 3,2 km/h (1 Bft)
13.07.2017 10:53 14,2 °C 14,2 °C 89 % 1019,0 hPa 0,0 mm 2,7 km/h (1 Bft) O-NO 69 ° 0 min 0,000 mm 2,1 UV-I 251 W/m² 12,4 °C 14,2 °C 3,2 km/h (1 Bft)
13.07.2017 10:54 14,2 °C 14,2 °C 89 % 1019,0 hPa 0,0 mm 0,3 km/h (0 Bft) O-NO 69 ° 0 min 0,000 mm 2,1 UV-I 251 W/m² 12,4 °C 14,2 °C 3,2 km/h (1 Bft)
13.07.2017 10:55 14,1 °C 14,2 °C 90 % 1019,0 hPa 0,0 mm 3,8 km/h (1 Bft) O 89 ° 0 min 0,000 mm 2,1 UV-I 274 W/m² 12,5 °C 14,1 °C 4,8 km/h (1 Bft)
13.07.2017 10:56 14,1 °C 14,1 °C 89 % 1019,0 hPa 0,0 mm 5,0 km/h (1 Bft) O 91 ° 1 min 0,000 mm 2,3 UV-I 292 W/m² 12,3 °C 14,1 °C 6,4 km/h (2 Bft)
13.07.2017 10:57 14,1 °C 14,1 °C 89 % 1019,0 hPa 0,0 mm 2,7 km/h (1 Bft) O 91 ° 1 min 0,000 mm 2,3 UV-I 292 W/m² 12,3 °C 14,1 °C 6,4 km/h (2 Bft)
13.07.2017 10:58 14,1 °C 14,1 °C 90 % 1019,0 hPa 0,0 mm 0,9 km/h (0 Bft) O 91 ° 1 min 0,000 mm 2,4 UV-I 322 W/m² 12,5 °C 14,1 °C 3,2 km/h (1 Bft)
13.07.2017 10:59 14,1 °C 14,1 °C 90 % 1019,0 hPa 0,0 mm 0,7 km/h (0 Bft) O 90 ° 1 min 0,000 mm 2,4 UV-I 320 W/m² 12,5 °C 14,1 °C 3,2 km/h (1 Bft)
13.07.2017 11:00 14,2 °C 14,2 °C 90 % 1019,0 hPa 0,0 mm 2,0 km/h (1 Bft) O 90 ° 1 min 0,153 mm 2,4 UV-I 301 W/m² 12,6 °C 14,2 °C 3,2 km/h (1 Bft)
13.07.2017 11:01 14,2 °C 14,2 °C 89 % 1019,0 hPa 0,0 mm 1,9 km/h (1 Bft) SO 137 ° 1 min 0,000 mm 3,1 UV-I 325 W/m² 12,4 °C 14,2 °C 4,8 km/h (1 Bft)
13.07.2017 11:02 14,2 °C 14,2 °C 89 % 1018,9 hPa 0,0 mm 1,1 km/h (1 Bft) SO 137 ° 1 min 0,000 mm 2,8 UV-I 329 W/m² 12,4 °C 14,2 °C 3,2 km/h (1 Bft)
13.07.2017 11:03 14,3 °C 14,3 °C 89 % 1019,0 hPa 0,0 mm 2,3 km/h (1 Bft) N-NO 27 ° 1 min 0,000 mm 2,9 UV-I 339 W/m² 12,5 °C 14,3 °C 3,2 km/h (1 Bft)
13.07.2017 11:04 14,4 °C 14,4 °C 89 % 1018,9 hPa 0,0 mm 2,4 km/h (1 Bft) N-NO 27 ° 1 min 0,000 mm 3,0 UV-I 345 W/m² 12,6 °C 14,4 °C 3,2 km/h (1 Bft)
13.07.2017 11:05 14,6 °C 14,6 °C 89 % 1019,0 hPa 0,0 mm 2,6 km/h (1 Bft) N-NO 27 ° 1 min 0,000 mm 3,1 UV-I 381 W/m² 12,8 °C 14,6 °C 3,2 km/h (1 Bft)
13.07.2017 11:06 14,4 °C 14,6 °C 87 % 1019,0 hPa 0,0 mm 4,0 km/h (1 Bft) O-NO 66 ° 1 min 0,000 mm 3,1 UV-I 345 W/m² 12,3 °C 14,4 °C 4,8 km/h (1 Bft)
13.07.2017 11:07 14,4 °C 14,5 °C 87 % 1019,0 hPa 0,0 mm 3,8 km/h (1 Bft) O-NO 71 ° 1 min 0,000 mm 3,4 UV-I 374 W/m² 12,3 °C 14,4 °C 4,8 km/h (1 Bft)
13.07.2017 11:08 14,3 °C 14,4 °C 86 % 1018,9 hPa 0,0 mm 2,3 km/h (1 Bft) O-NO 71 ° 1 min 0,000 mm 3,6 UV-I 403 W/m² 12,0 °C 14,3 °C 3,2 km/h (1 Bft)
13.07.2017 11:09 14,4 °C 14,4 °C 87 % 1018,9 hPa 0,0 mm 2,4 km/h (1 Bft) O-NO 71 ° 1 min 0,000 mm 4,1 UV-I 403 W/m² 12,3 °C 14,4 °C 3,2 km/h (1 Bft)
13.07.2017 11:10 14,5 °C 14,5 °C 86 % 1018,9 hPa 0,0 mm 2,5 km/h (1 Bft) O-NO 71 ° 1 min 0,000 mm 4,7 UV-I 403 W/m² 12,2 °C 14,5 °C 3,2 km/h (1 Bft)
13.07.2017 11:11 14,4 °C 14,5 °C 85 % 1018,8 hPa 0,0 mm 0,0 km/h (0 Bft) O-NO 71 ° 1 min 0,000 mm 3,9 UV-I 403 W/m² 11,9 °C 14,4 °C 0,0 km/h (0 Bft)
13.07.2017 11:12 14,4 °C 14,4 °C 85 % 1018,9 hPa 0,0 mm 0,0 km/h (0 Bft) O-NO 71 ° 1 min 0,000 mm 6,4 UV-I 559 W/m² 11,9 °C 14,4 °C 0,0 km/h (0 Bft)
13.07.2017 11:13 14,6 °C 14,6 °C 86 % 1018,8 hPa 0,0 mm 0,0 km/h (0 Bft) O-NO 71 ° 1 min 0,000 mm 4,2 UV-I 631 W/m² 12,3 °C 14,6 °C 0,0 km/h (0 Bft)
13.07.2017 11:14 14,8 °C 14,8 °C 88 % 1018,8 hPa 0,0 mm 0,0 km/h (0 Bft) O-NO 71 ° 1 min 0,000 mm 4,2 UV-I 478 W/m² 12,8 °C 14,8 °C 0,0 km/h (0 Bft)
13.07.2017 11:15 14,9 °C 14,9 °C 87 % 1018,8 hPa 0,0 mm 3,4 km/h (1 Bft) O-NO 71 ° 1 min 0,000 mm 4,1 UV-I 476 W/m² 12,8 °C 14,9 °C 6,4 km/h (2 Bft)
13.07.2017 11:16 14,9 °C 14,9 °C 85 % 1018,8 hPa 0,0 mm 4,5 km/h (1 Bft) O-NO 71 ° 1 min 0,000 mm 4,1 UV-I 475 W/m² 12,4 °C 14,9 °C 4,8 km/h (1 Bft)
13.07.2017 11:17 14,8 °C 14,9 °C 84 % 1018,8 hPa 0,0 mm 2,5 km/h (1 Bft) O-NO 71 ° 1 min 0,000 mm 4,3 UV-I 475 W/m² 12,1 °C 14,8 °C 4,8 km/h (1 Bft)
13.07.2017 11:18 14,8 °C 14,8 °C 83 % 1018,8 hPa 0,0 mm 1,2 km/h (1 Bft) O-NO 71 ° 1 min 0,000 mm 4,6 UV-I 475 W/m² 11,9 °C 14,8 °C 1,6 km/h (1 Bft)
13.07.2017 11:19 14,8 °C 14,8 °C 85 % 1018,8 hPa 0,0 mm 0,2 km/h (0 Bft) O-NO 71 ° 1 min 0,000 mm 5,1 UV-I 1048 W/m² 12,3 °C 14,8 °C 1,6 km/h (1 Bft)
13.07.2017 11:20 14,9 °C 14,9 °C 85 % 1018,8 hPa 0,0 mm 2,1 km/h (1 Bft) O-NO 71 ° 1 min 0,000 mm 4,6 UV-I 1048 W/m² 12,4 °C 14,9 °C 3,2 km/h (1 Bft)
13.07.2017 11:21 15,1 °C 15,1 °C 85 % 1018,7 hPa 0,0 mm 2,7 km/h (1 Bft) O-NO 71 ° 1 min 0,000 mm 4,6 UV-I 631 W/m² 12,6 °C 15,1 °C 3,2 km/h (1 Bft)
13.07.2017 11:22 15,1 °C 15,1 °C 83 % 1018,8 hPa 0,0 mm 2,1 km/h (1 Bft) O-NO 71 ° 1 min 0,000 mm 6,8 UV-I 631 W/m² 12,2 °C 15,1 °C 4,8 km/h (1 Bft)
13.07.2017 11:23 15,2 °C 15,2 °C 85 % 1018,8 hPa 0,0 mm 0,0 km/h (0 Bft) O-NO 71 ° 1 min 0,000 mm 5,4 UV-I 631 W/m² 12,7 °C 15,2 °C 0,0 km/h (0 Bft)
13.07.2017 11:24 15,2 °C 15,2 °C 86 % 1018,8 hPa 0,0 mm 0,0 km/h (0 Bft) O-NO 71 ° 1 min 0,000 mm 4,2 UV-I 631 W/m² 12,9 °C 15,2 °C 0,0 km/h (0 Bft)
13.07.2017 11:25 15,3 °C 15,3 °C 86 % 1018,8 hPa 0,0 mm 1,3 km/h (1 Bft) O-NO 68 ° 1 min 0,000 mm 4,6 UV-I 436 W/m² 13,0 °C 15,3 °C 4,8 km/h (1 Bft)
13.07.2017 11:26 15,3 °C 15,3 °C 85 % 1018,8 hPa 0,0 mm 5,2 km/h (1 Bft) N-NO 19 ° 1 min 0,000 mm 6,4 UV-I 436 W/m² 12,8 °C 15,3 °C 8,0 km/h (2 Bft)
13.07.2017 11:27 15,3 °C 15,3 °C 84 % 1018,8 hPa 0,0 mm 4,4 km/h (1 Bft) N-NO 19 ° 1 min 0,000 mm 4,4 UV-I 436 W/m² 12,6 °C 15,3 °C 6,4 km/h (2 Bft)
13.07.2017 11:28 15,3 °C 15,3 °C 84 % 1018,8 hPa 0,0 mm 5,7 km/h (1 Bft) N-NO 14 ° 1 min 0,000 mm 6,4 UV-I 436 W/m² 12,6 °C 15,3 °C 6,4 km/h (2 Bft)
13.07.2017 11:29 15,3 °C 15,3 °C 82 % 1018,8 hPa 0,0 mm 4,2 km/h (1 Bft) N-NO 14 ° 1 min 0,000 mm 4,3 UV-I 436 W/m² 12,2 °C 15,3 °C 4,8 km/h (1 Bft)
13.07.2017 11:30 15,4 °C 15,4 °C 82 % 1018,8 hPa 0,0 mm 2,4 km/h (1 Bft) N-NO 12 ° 1 min 0,000 mm 6,4 UV-I 571 W/m² 12,3 °C 15,4 °C 4,8 km/h (1 Bft)
13.07.2017 11:31 15,3 °C 15,4 °C 81 % 1018,8 hPa 0,0 mm 2,9 km/h (1 Bft) N-NO 12 ° 1 min 0,000 mm 5,5 UV-I 571 W/m² 12,1 °C 15,3 °C 4,8 km/h (1 Bft)
13.07.2017 11:32 15,3 °C 15,3 °C 82 % 1018,8 hPa 0,0 mm 5,1 km/h (1 Bft) N 5 ° 1 min 0,000 mm 7,2 UV-I 571 W/m² 12,2 °C 15,3 °C 6,4 km/h (2 Bft)
13.07.2017 11:33 15,4 °C 15,4 °C 83 % 1018,8 hPa 0,0 mm 4,2 km/h (1 Bft) N 5 ° 1 min 0,000 mm 4,4 UV-I 571 W/m² 12,5 °C 15,4 °C 4,8 km/h (1 Bft)
13.07.2017 11:34 15,5 °C 15,5 °C 83 % 1018,8 hPa 0,0 mm 4,1 km/h (1 Bft) N 5 ° 1 min 0,000 mm 4,1 UV-I 413 W/m² 12,6 °C 15,5 °C 4,8 km/h (1 Bft)
13.07.2017 11:35 15,6 °C 15,6 °C 83 % 1018,8 hPa 0,0 mm 4,4 km/h (1 Bft) N-NO 30 ° 1 min 0,000 mm 4,4 UV-I 462 W/m² 12,7 °C 15,6 °C 4,8 km/h (1 Bft)
13.07.2017 11:36 15,6 °C 15,6 °C 81 % 1018,8 hPa 0,0 mm 3,2 km/h (1 Bft) N 10 ° 1 min 0,000 mm 4,8 UV-I 504 W/m² 12,3 °C 15,6 °C 6,4 km/h (2 Bft)
13.07.2017 11:37 15,6 °C 15,6 °C 82 % 1018,9 hPa 0,0 mm 0,1 km/h (0 Bft) N 10 ° 1 min 0,000 mm 4,7 UV-I 504 W/m² 12,5 °C 15,6 °C 1,6 km/h (1 Bft)
13.07.2017 11:38 15,7 °C 15,7 °C 82 % 1018,9 hPa 0,0 mm 0,0 km/h (0 Bft) N 10 ° 1 min 0,000 mm 4,9 UV-I 619 W/m² 12,6 °C 15,7 °C 0,0 km/h (0 Bft)
13.07.2017 11:39 15,7 °C 15,7 °C 84 % 1018,9 hPa 0,0 mm 0,0 km/h (0 Bft) N 10 ° 1 min 0,000 mm 5,0 UV-I 619 W/m² 13,0 °C 15,7 °C 0,0 km/h (0 Bft)
13.07.2017 11:40 15,7 °C 15,7 °C 82 % 1018,9 hPa 0,0 mm 1,0 km/h (0 Bft) O-NO 57 ° 1 min 0,000 mm 4,4 UV-I 619 W/m² 12,6 °C 15,7 °C 1,6 km/h (1 Bft)
13.07.2017 11:41 15,7 °C 15,7 °C 79 % 1018,9 hPa 0,0 mm 2,3 km/h (1 Bft) O-SO 114 ° 1 min 0,000 mm 3,7 UV-I 462 W/m² 12,1 °C 15,7 °C 4,8 km/h (1 Bft)
13.07.2017 11:42 15,6 °C 15,7 °C 80 % 1018,9 hPa 0,0 mm 2,2 km/h (1 Bft) O-SO 115 ° 1 min 0,000 mm 3,4 UV-I 396 W/m² 12,2 °C 15,6 °C 3,2 km/h (1 Bft)
13.07.2017 11:43 15,6 °C 15,6 °C 82 % 1018,9 hPa 0,0 mm 1,6 km/h (1 Bft) O-SO 115 ° 1 min 0,000 mm 3,4 UV-I 406 W/m² 12,5 °C 15,6 °C 3,2 km/h (1 Bft)
13.07.2017 11:44 15,6 °C 15,6 °C 80 % 1018,9 hPa 0,0 mm 3,4 km/h (1 Bft) SO 132 ° 1 min 0,000 mm 3,6 UV-I 425 W/m² 12,2 °C 15,6 °C 6,4 km/h (2 Bft)
13.07.2017 11:45 15,4 °C 15,6 °C 80 % 1018,8 hPa 0,0 mm 4,8 km/h (1 Bft) SO 132 ° 1 min 0,000 mm 3,7 UV-I 476 W/m² 12,0 °C 15,4 °C 6,4 km/h (2 Bft)
13.07.2017 11:46 15,4 °C 15,4 °C 79 % 1018,9 hPa 0,0 mm 0,9 km/h (0 Bft) SO 132 ° 1 min 0,000 mm 3,3 UV-I 434 W/m² 11,8 °C 15,4 °C 3,2 km/h (1 Bft)
13.07.2017 11:47 15,3 °C 15,4 °C 80 % 1018,9 hPa 0,0 mm 1,3 km/h (1 Bft) SO 132 ° 1 min 0,000 mm 3,0 UV-I 380 W/m² 11,9 °C 15,3 °C 3,2 km/h (1 Bft)
13.07.2017 11:48 15,4 °C 15,4 °C 83 % 1018,9 hPa 0,0 mm 2,2 km/h (1 Bft) SO 132 ° 1 min 0,000 mm 2,8 UV-I 339 W/m² 12,5 °C 15,4 °C 3,2 km/h (1 Bft)
13.07.2017 11:49 15,5 °C 15,5 °C 84 % 1018,8 hPa 0,0 mm 2,6 km/h (1 Bft) SO 132 ° 1 min 0,000 mm 2,9 UV-I 338 W/m² 12,8 °C 15,5 °C 3,2 km/h (1 Bft)
13.07.2017 11:50 15,5 °C 15,5 °C 80 % 1018,8 hPa 0,0 mm 3,2 km/h (1 Bft) O-SO 105 ° 1 min 0,000 mm 3,2 UV-I 373 W/m² 12,1 °C 15,5 °C 4,8 km/h (1 Bft)
13.07.2017 11:51 15,4 °C 15,5 °C 81 % 1018,8 hPa 0,0 mm 4,6 km/h (1 Bft) N-NO 21 ° 1 min 0,000 mm 3,1 UV-I 373 W/m² 12,2 °C 15,4 °C 8,0 km/h (2 Bft)
13.07.2017 11:52 15,4 °C 15,4 °C 82 % 1018,8 hPa 0,0 mm 5,8 km/h (2 Bft) N-NO 15 ° 1 min 0,000 mm 2,8 UV-I 336 W/m² 12,3 °C 15,4 °C 6,4 km/h (2 Bft)
13.07.2017 11:53 15,6 °C 15,6 °C 82 % 1018,9 hPa 0,0 mm 2,7 km/h (1 Bft) N-NO 12 ° 1 min 0,000 mm 2,6 UV-I 304 W/m² 12,5 °C 15,6 °C 4,8 km/h (1 Bft)
13.07.2017 11:54 15,7 °C 15,7 °C 82 % 1018,9 hPa 0,0 mm 2,3 km/h (1 Bft) N-NW 348 ° 0 min 0,000 mm 2,4 UV-I 257 W/m² 12,6 °C 15,7 °C 3,2 km/h (1 Bft)
13.07.2017 11:55 15,7 °C 15,7 °C 82 % 1018,9 hPa 0,0 mm 0,8 km/h (0 Bft) N 355 ° 0 min 0,000 mm 2,4 UV-I 246 W/m² 12,6 °C 15,7 °C 3,2 km/h (1 Bft)
13.07.2017 11:56 15,6 °C 15,7 °C 80 % 1018,8 hPa 0,0 mm 0,0 km/h (0 Bft) N 355 ° 0 min 0,000 mm 2,5 UV-I 258 W/m² 12,2 °C 15,6 °C 0,0 km/h (0 Bft)
13.07.2017 11:57 15,6 °C 15,6 °C 81 % 1018,8 hPa 0,0 mm 1,9 km/h (1 Bft) N-NO 16 ° 0 min 0,000 mm 2,6 UV-I 269 W/m² 12,3 °C 15,6 °C 3,2 km/h (1 Bft)
13.07.2017 11:58 15,6 °C 15,6 °C 82 % 1018,8 hPa 0,0 mm 2,9 km/h (1 Bft) NO 46 ° 0 min 0,000 mm 2,6 UV-I 262 W/m² 12,5 °C 15,6 °C 4,8 km/h (1 Bft)
13.07.2017 11:59 15,5 °C 15,6 °C 83 % 1018,9 hPa 0,0 mm 3,0 km/h (1 Bft) NO 46 ° 0 min 0,000 mm 2,5 UV-I 234 W/m² 12,6 °C 15,5 °C 4,8 km/h (1 Bft)
13.07.2017 12:00 15,4 °C 15,5 °C 81 % 1018,8 hPa 0,0 mm 2,1 km/h (1 Bft) NO 46 ° 0 min 0,254 mm 2,5 UV-I 218 W/m² 12,2 °C 15,4 °C 4,8 km/h (1 Bft)
13.07.2017 12:01 15,3 °C 15,4 °C 80 % 1018,9 hPa 0,0 mm 1,0 km/h (0 Bft) NO 46 ° 0 min 0,000 mm 2,4 UV-I 204 W/m² 11,9 °C 15,3 °C 1,6 km/h (1 Bft)
13.07.2017 12:02 15,3 °C 15,3 °C 81 % 1018,8 hPa 0,0 mm 0,0 km/h (0 Bft) NO 46 ° 0 min 0,000 mm 2,5 UV-I 200 W/m² 12,1 °C 15,3 °C 0,0 km/h (0 Bft)
13.07.2017 12:03 15,2 °C 15,3 °C 84 % 1018,9 hPa 0,0 mm 0,3 km/h (0 Bft) NO 46 ° 0 min 0,000 mm 2,5 UV-I 204 W/m² 12,5 °C 15,2 °C 1,6 km/h (1 Bft)
13.07.2017 12:04 15,2 °C 15,2 °C 83 % 1018,9 hPa 0,0 mm 0,0 km/h (0 Bft) NO 46 ° 0 min 0,000 mm 2,5 UV-I 197 W/m² 12,3 °C 15,2 °C 0,0 km/h (0 Bft)
13.07.2017 12:05 15,2 °C 15,2 °C 85 % 1018,9 hPa 0,0 mm 0,0 km/h (0 Bft) NO 46 ° 0 min 0,000 mm 2,6 UV-I 192 W/m² 12,7 °C 15,2 °C 0,0 km/h (0 Bft)
13.07.2017 12:06 15,2 °C 15,2 °C 85 % 1018,9 hPa 0,0 mm 0,0 km/h (0 Bft) NO 46 ° 0 min 0,000 mm 3,0 UV-I 216 W/m² 12,7 °C 15,2 °C 0,0 km/h (0 Bft)
13.07.2017 12:07 15,1 °C 15,2 °C 85 % 1018,8 hPa 0,0 mm 0,0 km/h (0 Bft) NO 46 ° 0 min 0,000 mm 3,2 UV-I 264 W/m² 12,6 °C 15,1 °C 0,0 km/h (0 Bft)
13.07.2017 12:08 15,1 °C 15,1 °C 86 % 1018,9 hPa 0,0 mm 0,0 km/h (0 Bft) NO 46 ° 1 min 0,000 mm 3,2 UV-I 294 W/m² 12,8 °C 15,1 °C 0,0 km/h (0 Bft)
13.07.2017 12:09 15,1 °C 15,1 °C 88 % 1018,8 hPa 0,0 mm 0,0 km/h (0 Bft) NO 46 ° 1 min 0,000 mm 4,0 UV-I 294 W/m² 13,1 °C 15,1 °C 0,0 km/h (0 Bft)
13.07.2017 12:10 15,1 °C 15,1 °C 85 % 1018,9 hPa 0,0 mm 1,1 km/h (1 Bft) NO 46 ° 1 min 0,000 mm 3,5 UV-I 373 W/m² 12,6 °C 15,1 °C 3,2 km/h (1 Bft)
13.07.2017 12:11 15,2 °C 15,2 °C 85 % 1018,9 hPa 0,0 mm 0,4 km/h (0 Bft) NO 46 ° 0 min 0,000 mm 3,2 UV-I 281 W/m² 12,7 °C 15,2 °C 1,6 km/h (1 Bft)
13.07.2017 12:12 15,2 °C 15,3 °C 87 % 1018,9 hPa 0,0 mm 0,0 km/h (0 Bft) NO 46 ° 0 min 0,000 mm 3,1 UV-I 278 W/m² 13,0 °C 15,2 °C 0,0 km/h (0 Bft)
13.07.2017 12:13 15,2 °C 15,3 °C 86 % 1018,9 hPa 0,0 mm 0,6 km/h (0 Bft) NO 46 ° 0 min 0,000 mm 3,1 UV-I 279 W/m² 12,9 °C 15,2 °C 1,6 km/h (1 Bft)
13.07.2017 12:14 15,2 °C 15,2 °C 84 % 1018,9 hPa 0,0 mm 1,2 km/h (1 Bft) NO 46 ° 0 min 0,000 mm 3,1 UV-I 285 W/m² 12,5 °C 15,2 °C 3,2 km/h (1 Bft)
13.07.2017 12:15 15,2 °C 15,2 °C 83 % 1018,9 hPa 0,0 mm 0,2 km/h (0 Bft) NO 46 ° 1 min 0,000 mm 3,2 UV-I 290 W/m² 12,3 °C 15,2 °C 1,6 km/h (1 Bft)
13.07.2017 12:16 15,3 °C 15,3 °C 85 % 1018,9 hPa 0,0 mm 1,2 km/h (1 Bft) NO 46 ° 1 min 0,000 mm 3,4 UV-I 308 W/m² 12,8 °C 15,3 °C 3,2 km/h (1 Bft)
13.07.2017 12:17 15,4 °C 15,4 °C 86 % 1018,9 hPa 0,0 mm 0,8 km/h (0 Bft) NO 47 ° 1 min 0,000 mm 3,6 UV-I 359 W/m² 13,1 °C 15,4 °C 3,2 km/h (1 Bft)
13.07.2017 12:18 15,4 °C 15,4 °C 80 % 1018,9 hPa 0,0 mm 3,2 km/h (1 Bft) SO 130 ° 1 min 0,000 mm 5,8 UV-I 359 W/m² 12,0 °C 15,4 °C 4,8 km/h (1 Bft)
13.07.2017 12:19 15,5 °C 15,5 °C 78 % 1018,9 hPa 0,0 mm 0,4 km/h (0 Bft) SO 130 ° 1 min 0,000 mm 3,9 UV-I 359 W/m² 11,7 °C 15,5 °C 1,6 km/h (1 Bft)
13.07.2017 12:20 15,6 °C 15,6 °C 82 % 1018,8 hPa 0,0 mm 0,0 km/h (0 Bft) SO 130 ° 1 min 0,000 mm 7,8 UV-I 359 W/m² 12,5 °C 15,6 °C 0,0 km/h (0 Bft)
13.07.2017 12:21 15,8 °C 15,8 °C 86 % 1018,9 hPa 0,0 mm 1,0 km/h (0 Bft) SO 130 ° 1 min 0,000 mm 7,8 UV-I 1143 W/m² 13,5 °C 15,8 °C 3,2 km/h (1 Bft)
13.07.2017 12:22 15,9 °C 15,9 °C 82 % 1018,9 hPa 0,0 mm 1,3 km/h (1 Bft) SO 130 ° 1 min 0,000 mm 7,9 UV-I 1141 W/m² 12,8 °C 15,9 °C 3,2 km/h (1 Bft)
13.07.2017 12:23 16,1 °C 16,1 °C 85 % 1018,9 hPa 0,0 mm 2,7 km/h (1 Bft) SO 131 ° 1 min 0,000 mm 6,7 UV-I 1132 W/m² 13,6 °C 16,1 °C 4,8 km/h (1 Bft)
13.07.2017 12:24 16,3 °C 16,3 °C 82 % 1018,8 hPa 0,0 mm 1,0 km/h (0 Bft) S-SO 160 ° 1 min 0,000 mm 7,9 UV-I 1213 W/m² 13,2 °C 16,3 °C 3,2 km/h (1 Bft)
13.07.2017 12:25 16,4 °C 16,4 °C 81 % 1018,8 hPa 0,0 mm 1,3 km/h (1 Bft) S-SO 160 ° 1 min 0,000 mm 7,7 UV-I 1215 W/m² 13,1 °C 16,4 °C 3,2 km/h (1 Bft)
13.07.2017 12:26 16,6 °C 16,6 °C 83 % 1018,9 hPa 0,0 mm 0,5 km/h (0 Bft) O-NO 61 ° 1 min 0,000 mm 7,3 UV-I 1179 W/m² 13,7 °C 16,6 °C 4,8 km/h (1 Bft)
13.07.2017 12:27 16,8 °C 16,8 °C 79 % 1018,8 hPa 0,0 mm 2,7 km/h (1 Bft) N 5 ° 1 min 0,000 mm 5,4 UV-I 1179 W/m² 13,1 °C 16,8 °C 4,8 km/h (1 Bft)
13.07.2017 12:28 16,9 °C 16,9 °C 79 % 1018,8 hPa 0,0 mm 2,0 km/h (1 Bft) N 5 ° 1 min 0,000 mm 3,6 UV-I 1179 W/m² 13,2 °C 16,9 °C 3,2 km/h (1 Bft)
13.07.2017 12:29 16,8 °C 16,9 °C 78 % 1018,8 hPa 0,0 mm 5,1 km/h (1 Bft) W-NW 296 ° 1 min 0,000 mm 7,5 UV-I 1179 W/m² 12,9 °C 16,8 °C 6,4 km/h (2 Bft)
13.07.2017 12:30 16,8 °C 16,8 °C 79 % 1018,8 hPa 0,0 mm 5,5 km/h (1 Bft) NW 309 ° 1 min 0,000 mm 3,6 UV-I 399 W/m² 13,1 °C 16,8 °C 8,0 km/h (2 Bft)
13.07.2017 12:31 16,8 °C 16,8 °C 79 % 1018,8 hPa 0,0 mm 4,5 km/h (1 Bft) NW 309 ° 1 min 0,000 mm 3,5 UV-I 439 W/m² 13,1 °C 16,8 °C 6,4 km/h (2 Bft)
13.07.2017 12:32 16,8 °C 16,8 °C 77 % 1018,8 hPa 0,0 mm 5,0 km/h (1 Bft) W-NW 290 ° 1 min 0,000 mm 3,3 UV-I 359 W/m² 12,7 °C 16,8 °C 6,4 km/h (2 Bft)
13.07.2017 12:33 16,7 °C 16,8 °C 77 % 1018,7 hPa 0,0 mm 3,3 km/h (1 Bft) W 263 ° 1 min 0,000 mm 3,1 UV-I 343 W/m² 12,6 °C 16,7 °C 4,8 km/h (1 Bft)
13.07.2017 12:34 16,6 °C 16,7 °C 76 % 1018,7 hPa 0,0 mm 4,5 km/h (1 Bft) S-SW 198 ° 1 min 0,000 mm 3,1 UV-I 325 W/m² 12,3 °C 16,6 °C 6,4 km/h (2 Bft)
13.07.2017 12:35 16,4 °C 16,6 °C 75 % 1018,8 hPa 0,0 mm 3,5 km/h (1 Bft) S-SW 198 ° 1 min 0,000 mm 3,1 UV-I 336 W/m² 12,0 °C 16,4 °C 6,4 km/h (2 Bft)
13.07.2017 12:36 16,3 °C 16,4 °C 76 % 1018,7 hPa 0,0 mm 1,2 km/h (1 Bft) S-SW 198 ° 1 min 0,000 mm 3,1 UV-I 329 W/m² 12,1 °C 16,3 °C 3,2 km/h (1 Bft)
13.07.2017 12:37 16,3 °C 16,3 °C 79 % 1018,7 hPa 0,0 mm 0,0 km/h (0 Bft) S-SW 198 ° 1 min 0,000 mm 3,1 UV-I 318 W/m² 12,6 °C 16,3 °C 0,0 km/h (0 Bft)
13.07.2017 12:38 16,4 °C 16,4 °C 81 % 1018,7 hPa 0,0 mm 0,8 km/h (0 Bft) NW 320 ° 1 min 0,000 mm 3,4 UV-I 329 W/m² 13,1 °C 16,4 °C 6,4 km/h (2 Bft)
13.07.2017 12:39 16,4 °C 16,5 °C 78 % 1018,7 hPa 0,0 mm 4,5 km/h (1 Bft) NW 320 ° 1 min 0,000 mm 4,8 UV-I 329 W/m² 12,6 °C 16,4 °C 6,4 km/h (2 Bft)
13.07.2017 12:40 16,6 °C 16,6 °C 81 % 1018,7 hPa 0,0 mm 2,6 km/h (1 Bft) NW 317 ° 1 min 0,000 mm 4,8 UV-I 329 W/m² 13,3 °C 16,6 °C 4,8 km/h (1 Bft)
13.07.2017 12:41 16,8 °C 16,8 °C 78 % 1018,7 hPa 0,0 mm 3,2 km/h (1 Bft) N-NW 329 ° 1 min 0,000 mm 5,1 UV-I 420 W/m² 12,9 °C 16,8 °C 4,8 km/h (1 Bft)
13.07.2017 12:42 16,8 °C 16,8 °C 77 % 1018,7 hPa 0,0 mm 2,3 km/h (1 Bft) N 355 ° 1 min 0,000 mm 5,5 UV-I 461 W/m² 12,7 °C 16,8 °C 3,2 km/h (1 Bft)
13.07.2017 12:43 16,9 °C 16,9 °C 81 % 1018,7 hPa 0,0 mm 3,1 km/h (1 Bft) N 355 ° 1 min 0,000 mm 3,8 UV-I 376 W/m² 13,6 °C 16,9 °C 4,8 km/h (1 Bft)
13.07.2017 12:44 16,9 °C 16,9 °C 78 % 1018,7 hPa 0,0 mm 2,9 km/h (1 Bft) NW 313 ° 1 min 0,000 mm 3,9 UV-I 329 W/m² 13,0 °C 16,9 °C 8,0 km/h (2 Bft)
13.07.2017 12:45 16,9 °C 16,9 °C 77 % 1018,7 hPa 0,0 mm 5,3 km/h (1 Bft) N 360 ° 1 min 0,000 mm 4,2 UV-I 329 W/m² 12,8 °C 16,9 °C 8,0 km/h (2 Bft)
13.07.2017 12:46 16,9 °C 16,9 °C 77 % 1018,7 hPa 0,0 mm 5,5 km/h (1 Bft) N 355 ° 1 min 0,000 mm 5,1 UV-I 329 W/m² 12,8 °C 16,9 °C 6,4 km/h (2 Bft)
13.07.2017 12:47 16,9 °C 16,9 °C 81 % 1018,7 hPa 0,0 mm 4,0 km/h (1 Bft) NW 319 ° 1 min 0,000 mm 4,5 UV-I 362 W/m² 13,6 °C 16,9 °C 6,4 km/h (2 Bft)
13.07.2017 12:48 16,8 °C 16,9 °C 76 % 1018,7 hPa 0,0 mm 2,3 km/h (1 Bft) NW 319 ° 1 min 0,000 mm 4,1 UV-I 362 W/m² 12,5 °C 16,8 °C 4,8 km/h (1 Bft)
13.07.2017 12:49 16,8 °C 16,8 °C 75 % 1018,7 hPa 0,0 mm 1,7 km/h (1 Bft) N-NW 333 ° 1 min 0,000 mm 4,1 UV-I 362 W/m² 12,3 °C 16,8 °C 3,2 km/h (1 Bft)
13.07.2017 12:50 16,7 °C 16,8 °C 79 % 1018,7 hPa 0,0 mm 0,9 km/h (0 Bft) N-NW 333 ° 1 min 0,000 mm 4,1 UV-I 362 W/m² 13,0 °C 16,7 °C 1,6 km/h (1 Bft)
13.07.2017 12:51 16,8 °C 16,8 °C 81 % 1018,7 hPa 0,0 mm 3,0 km/h (1 Bft) N 350 ° 1 min 0,000 mm 4,1 UV-I 362 W/m² 13,5 °C 16,8 °C 6,4 km/h (2 Bft)
13.07.2017 12:52 16,8 °C 16,9 °C 78 % 1018,7 hPa 0,0 mm 5,4 km/h (1 Bft) N-NO 17 ° 1 min 0,000 mm 4,4 UV-I 367 W/m² 12,9 °C 16,8 °C 6,4 km/h (2 Bft)
13.07.2017 12:53 16,8 °C 16,8 °C 76 % 1018,7 hPa 0,0 mm 4,7 km/h (1 Bft) N 355 ° 1 min 0,000 mm 4,7 UV-I 397 W/m² 12,5 °C 16,8 °C 8,0 km/h (2 Bft)
13.07.2017 12:54 16,7 °C 16,8 °C 77 % 1018,6 hPa 0,0 mm 3,3 km/h (1 Bft) N 355 ° 1 min 0,000 mm 6,3 UV-I 397 W/m² 12,6 °C 16,7 °C 4,8 km/h (1 Bft)
13.07.2017 12:55 16,7 °C 16,7 °C 77 % 1018,6 hPa 0,0 mm 2,7 km/h (1 Bft) N 355 ° 1 min 0,000 mm 5,7 UV-I 397 W/m² 12,6 °C 16,7 °C 4,8 km/h (1 Bft)
13.07.2017 12:56 16,8 °C 16,8 °C 78 % 1018,6 hPa 0,0 mm 2,2 km/h (1 Bft) N 355 ° 1 min 0,000 mm 4,0 UV-I 397 W/m² 12,9 °C 16,8 °C 4,8 km/h (1 Bft)
13.07.2017 12:57 16,8 °C 16,8 °C 76 % 1018,5 hPa 0,0 mm 3,7 km/h (1 Bft) N 360 ° 0 min 0,000 mm 3,9 UV-I 281 W/m² 12,5 °C 16,8 °C 6,4 km/h (2 Bft)
13.07.2017 12:58 16,7 °C 16,8 °C 77 % 1018,6 hPa 0,0 mm 2,2 km/h (1 Bft) N 360 ° 0 min 0,000 mm 3,7 UV-I 232 W/m² 12,6 °C 16,7 °C 4,8 km/h (1 Bft)
13.07.2017 12:59 16,7 °C 16,8 °C 79 % 1018,5 hPa 0,0 mm 2,7 km/h (1 Bft) NO 38 ° 0 min 0,000 mm 5,9 UV-I 232 W/m² 13,0 °C 16,7 °C 4,8 km/h (1 Bft)
13.07.2017 13:00 16,7 °C 16,8 °C 77 % 1018,5 hPa 0,0 mm 3,8 km/h (1 Bft) NO 34 ° 0 min 0,000 mm 7,9 UV-I 232 W/m² 12,6 °C 16,7 °C 4,8 km/h (1 Bft)
13.07.2017 13:01 16,8 °C 16,8 °C 79 % 1018,4 hPa 0,0 mm 2,9 km/h (1 Bft) NO 34 ° 1 min 0,279 mm 7,8 UV-I 972 W/m² 13,1 °C 16,8 °C 4,8 km/h (1 Bft)
13.07.2017 13:02 17,0 °C 17,0 °C 75 % 1018,5 hPa 0,0 mm 1,7 km/h (1 Bft) NO 34 ° 1 min 0,000 mm 7,8 UV-I 963 W/m² 12,5 °C 17,0 °C 3,2 km/h (1 Bft)
13.07.2017 13:03 17,1 °C 17,1 °C 75 % 1018,5 hPa 0,0 mm 0,6 km/h (0 Bft) NO 34 ° 1 min 0,000 mm 7,8 UV-I 963 W/m² 12,6 °C 17,1 °C 1,6 km/h (1 Bft)
13.07.2017 13:04 17,2 °C 17,2 °C 79 % 1018,4 hPa 0,0 mm 1,0 km/h (0 Bft) N-NO 30 ° 1 min 0,000 mm 7,7 UV-I 956 W/m² 13,5 °C 17,2 °C 4,8 km/h (1 Bft)
13.07.2017 13:05 17,2 °C 17,2 °C 77 % 1018,5 hPa 0,0 mm 4,2 km/h (1 Bft) N-NO 28 ° 1 min 0,000 mm 7,8 UV-I 963 W/m² 13,1 °C 17,2 °C 6,4 km/h (2 Bft)
13.07.2017 13:06 17,1 °C 17,2 °C 73 % 1018,6 hPa 0,0 mm 1,9 km/h (1 Bft) N-NO 30 ° 1 min 0,000 mm 7,8 UV-I 969 W/m² 12,2 °C 17,1 °C 3,2 km/h (1 Bft)
13.07.2017 13:07 17,1 °C 17,1 °C 77 % 1018,4 hPa 0,0 mm 3,4 km/h (1 Bft) N-NO 30 ° 1 min 0,000 mm 7,8 UV-I 969 W/m² 13,0 °C 17,1 °C 4,8 km/h (1 Bft)
13.07.2017 13:08 17,0 °C 17,1 °C 77 % 1018,4 hPa 0,0 mm 3,7 km/h (1 Bft) NO 34 ° 0 min 0,000 mm 3,5 UV-I 264 W/m² 12,9 °C 17,0 °C 6,4 km/h (2 Bft)
13.07.2017 13:09 17,0 °C 17,1 °C 77 % 1018,4 hPa 0,0 mm 3,8 km/h (1 Bft) NO 48 ° 0 min 0,000 mm 3,5 UV-I 264 W/m² 12,9 °C 17,0 °C 6,4 km/h (2 Bft)
13.07.2017 13:10 17,0 °C 17,1 °C 75 % 1018,4 hPa 0,0 mm 1,9 km/h (1 Bft) NO 48 ° 0 min 0,000 mm 3,5 UV-I 264 W/m² 12,5 °C 17,0 °C 4,8 km/h (1 Bft)
13.07.2017 13:11 17,0 °C 17,0 °C 74 % 1018,4 hPa 0,0 mm 4,0 km/h (1 Bft) S 190 ° 0 min 0,000 mm 6,7 UV-I 264 W/m² 12,3 °C 17,0 °C 6,4 km/h (2 Bft)
13.07.2017 13:12 17,0 °C 17,0 °C 74 % 1018,4 hPa 0,0 mm 3,7 km/h (1 Bft) S 190 ° 0 min 0,000 mm 6,7 UV-I 264 W/m² 12,3 °C 17,0 °C 4,8 km/h (1 Bft)
13.07.2017 13:13 17,1 °C 17,1 °C 74 % 1018,5 hPa 0,0 mm 1,9 km/h (1 Bft) S 190 ° 1 min 0,000 mm 7,9 UV-I 1002 W/m² 12,4 °C 17,1 °C 3,2 km/h (1 Bft)
13.07.2017 13:14 17,1 °C 17,1 °C 73 % 1018,4 hPa 0,0 mm 0,8 km/h (0 Bft) S 190 ° 1 min 0,000 mm 8,0 UV-I 1004 W/m² 12,2 °C 17,1 °C 1,6 km/h (1 Bft)
13.07.2017 13:15 17,2 °C 17,2 °C 75 % 1018,4 hPa 0,0 mm 1,4 km/h (1 Bft) S 173 ° 1 min 0,000 mm 8,0 UV-I 1002 W/m² 12,7 °C 17,2 °C 3,2 km/h (1 Bft)
13.07.2017 13:16 17,3 °C 17,3 °C 76 % 1018,4 hPa 0,0 mm 1,6 km/h (1 Bft) S 173 ° 1 min 0,000 mm 8,1 UV-I 1021 W/m² 13,0 °C 17,3 °C 3,2 km/h (1 Bft)
13.07.2017 13:17 17,3 °C 17,3 °C 74 % 1018,4 hPa 0,0 mm 3,3 km/h (1 Bft) O 86 ° 1 min 0,000 mm 8,2 UV-I 1032 W/m² 12,6 °C 17,3 °C 9,7 km/h (2 Bft)
13.07.2017 13:18 17,3 °C 17,3 °C 80 % 1018,4 hPa 0,0 mm 8,9 km/h (2 Bft) O 96 ° 1 min 0,000 mm 8,2 UV-I 1044 W/m² 13,8 °C 17,3 °C 11,3 km/h (2 Bft)
13.07.2017 13:19 17,2 °C 17,3 °C 76 % 1018,4 hPa 0,0 mm 6,8 km/h (2 Bft) O-SO 107 ° 1 min 0,000 mm 8,0 UV-I 1042 W/m² 12,9 °C 17,2 °C 11,3 km/h (2 Bft)
13.07.2017 13:20 17,3 °C 17,3 °C 79 % 1018,3 hPa 0,0 mm 4,8 km/h (1 Bft) O 80 ° 1 min 0,000 mm 8,0 UV-I 1051 W/m² 13,6 °C 17,3 °C 9,7 km/h (2 Bft)
13.07.2017 13:21 17,5 °C 17,5 °C 78 % 1018,3 hPa 0,0 mm 3,9 km/h (1 Bft) O 81 ° 1 min 0,000 mm 6,7 UV-I 1051 W/m² 13,6 °C 17,5 °C 6,4 km/h (2 Bft)
13.07.2017 13:22 17,5 °C 17,6 °C 74 % 1018,3 hPa 0,0 mm 3,4 km/h (1 Bft) O 81 ° 1 min 0,000 mm 5,3 UV-I 1051 W/m² 12,8 °C 17,5 °C 4,8 km/h (1 Bft)
13.07.2017 13:23 17,4 °C 17,5 °C 75 % 1018,3 hPa 0,0 mm 2,4 km/h (1 Bft) SO 132 ° 1 min 0,000 mm 4,3 UV-I 1051 W/m² 12,9 °C 17,4 °C 4,8 km/h (1 Bft)
13.07.2017 13:24 17,3 °C 17,4 °C 74 % 1018,3 hPa 0,0 mm 2,9 km/h (1 Bft) SO 130 ° 1 min 0,000 mm 4,3 UV-I 345 W/m² 12,6 °C 17,3 °C 4,8 km/h (1 Bft)
13.07.2017 13:25 17,3 °C 17,3 °C 75 % 1018,2 hPa 0,0 mm 3,0 km/h (1 Bft) N-NO 23 ° 1 min 0,000 mm 4,5 UV-I 364 W/m² 12,8 °C 17,3 °C 4,8 km/h (1 Bft)
13.07.2017 13:26 17,3 °C 17,3 °C 77 % 1018,2 hPa 0,0 mm 6,4 km/h (2 Bft) N-NW 337 ° 1 min 0,000 mm 4,6 UV-I 364 W/m² 13,2 °C 17,3 °C 9,7 km/h (2 Bft)
13.07.2017 13:27 17,4 °C 17,4 °C 76 % 1018,2 hPa 0,0 mm 3,5 km/h (1 Bft) N-NW 341 ° 1 min 0,000 mm 4,3 UV-I 334 W/m² 13,1 °C 17,4 °C 4,8 km/h (1 Bft)
13.07.2017 13:28 17,6 °C 17,6 °C 74 % 1018,2 hPa 0,0 mm 5,7 km/h (1 Bft) N-NO 15 ° 1 min 0,000 mm 6,3 UV-I 334 W/m² 12,9 °C 17,6 °C 9,7 km/h (2 Bft)
13.07.2017 13:29 17,7 °C 17,7 °C 74 % 1018,2 hPa 0,0 mm 7,2 km/h (2 Bft) NO 40 ° 1 min 0,000 mm 8,2 UV-I 334 W/m² 13,0 °C 17,7 °C 9,7 km/h (2 Bft)
13.07.2017 13:30 17,7 °C 17,7 °C 73 % 1018,2 hPa 0,0 mm 5,7 km/h (1 Bft) O-NO 61 ° 1 min 0,000 mm 4,9 UV-I 334 W/m² 12,8 °C 17,7 °C 8,0 km/h (2 Bft)
13.07.2017 13:31 17,7 °C 17,7 °C 74 % 1018,2 hPa 0,0 mm 4,7 km/h (1 Bft) NO 36 ° 1 min 0,000 mm 7,0 UV-I 406 W/m² 13,0 °C 17,7 °C 8,0 km/h (2 Bft)
13.07.2017 13:32 17,7 °C 17,7 °C 74 % 1018,2 hPa 0,0 mm 8,2 km/h (2 Bft) N-NW 347 ° 1 min 0,000 mm 3,5 UV-I 406 W/m² 13,0 °C 17,7 °C 12,9 km/h (3 Bft)
13.07.2017 13:33 17,6 °C 17,7 °C 76 % 1018,2 hPa 0,0 mm 6,7 km/h (2 Bft) N-NW 340 ° 1 min 0,000 mm 3,3 UV-I 311 W/m² 13,3 °C 17,6 °C 9,7 km/h (2 Bft)
13.07.2017 13:34 17,6 °C 17,7 °C 77 % 1018,2 hPa 0,0 mm 6,1 km/h (2 Bft) NW 310 ° 0 min 0,000 mm 4,4 UV-I 269 W/m² 13,5 °C 17,6 °C 12,9 km/h (3 Bft)
13.07.2017 13:35 17,6 °C 17,6 °C 76 % 1018,2 hPa 0,0 mm 5,3 km/h (1 Bft) N-NW 333 ° 0 min 0,000 mm 3,6 UV-I 230 W/m² 13,3 °C 17,6 °C 8,0 km/h (2 Bft)
13.07.2017 13:36 17,4 °C 17,6 °C 78 % 1018,2 hPa 0,0 mm 3,0 km/h (1 Bft) N-NW 330 ° 0 min 0,000 mm 4,1 UV-I 258 W/m² 13,5 °C 17,4 °C 6,4 km/h (2 Bft)
13.07.2017 13:37 17,3 °C 17,4 °C 76 % 1018,2 hPa 0,0 mm 4,1 km/h (1 Bft) N 355 ° 0 min 0,000 mm 7,2 UV-I 258 W/m² 13,0 °C 17,3 °C 8,0 km/h (2 Bft)
13.07.2017 13:38 17,4 °C 17,4 °C 79 % 1018,2 hPa 0,0 mm 5,8 km/h (2 Bft) N-NW 346 ° 0 min 0,000 mm 7,5 UV-I 258 W/m² 13,7 °C 17,4 °C 8,0 km/h (2 Bft)
13.07.2017 13:39 17,7 °C 17,7 °C 81 % 1018,2 hPa 0,0 mm 4,8 km/h (1 Bft) N 5 ° 1 min 0,000 mm 7,6 UV-I 983 W/m² 14,4 °C 17,7 °C 6,4 km/h (2 Bft)
13.07.2017 13:40 17,8 °C 17,8 °C 78 % 1018,1 hPa 0,0 mm 6,6 km/h (2 Bft) NO 46 ° 1 min 0,000 mm 5,8 UV-I 983 W/m² 13,9 °C 17,8 °C 9,7 km/h (2 Bft)
13.07.2017 13:41 17,8 °C 17,9 °C 76 % 1018,2 hPa 0,0 mm 7,3 km/h (2 Bft) NO 50 ° 1 min 0,000 mm 7,3 UV-I 983 W/m² 13,5 °C 17,8 °C 9,7 km/h (2 Bft)
13.07.2017 13:42 17,7 °C 17,8 °C 77 % 1018,2 hPa 0,0 mm 4,8 km/h (1 Bft) N 355 ° 1 min 0,000 mm 7,3 UV-I 983 W/m² 13,6 °C 17,7 °C 6,4 km/h (2 Bft)
13.07.2017 13:43 17,6 °C 17,7 °C 76 % 1018,2 hPa 0,0 mm 6,2 km/h (2 Bft) NO 46 ° 1 min 0,000 mm 5,1 UV-I 983 W/m² 13,3 °C 17,6 °C 9,7 km/h (2 Bft)
13.07.2017 13:44 17,4 °C 17,6 °C 76 % 1018,1 hPa 0,0 mm 4,3 km/h (1 Bft) N-NO 32 ° 1 min 0,000 mm 4,5 UV-I 983 W/m² 13,1 °C 17,4 °C 4,8 km/h (1 Bft)
13.07.2017 13:45 17,3 °C 17,4 °C 77 % 1018,1 hPa 0,0 mm 5,3 km/h (1 Bft) NO 54 ° 1 min 0,000 mm 7,4 UV-I 983 W/m² 13,2 °C 17,3 °C 9,7 km/h (2 Bft)
13.07.2017 13:46 17,3 °C 17,3 °C 74 % 1018,1 hPa 0,0 mm 3,8 km/h (1 Bft) O-NO 57 ° 1 min 0,000 mm 7,6 UV-I 983 W/m² 12,6 °C 17,3 °C 6,4 km/h (2 Bft)
13.07.2017 13:47 17,4 °C 17,4 °C 78 % 1018,1 hPa 0,0 mm 4,3 km/h (1 Bft) NO 53 ° 1 min 0,000 mm 7,6 UV-I 972 W/m² 13,5 °C 17,4 °C 6,4 km/h (2 Bft)
13.07.2017 13:48 17,5 °C 17,5 °C 79 % 1018,0 hPa 0,0 mm 4,0 km/h (1 Bft) NO 56 ° 1 min 0,000 mm 7,6 UV-I 960 W/m² 13,8 °C 17,5 °C 6,4 km/h (2 Bft)
13.07.2017 13:49 17,4 °C 17,5 °C 73 % 1018,0 hPa 0,0 mm 3,4 km/h (1 Bft) O 90 ° 1 min 0,000 mm 7,7 UV-I 963 W/m² 12,5 °C 17,4 °C 6,4 km/h (2 Bft)
13.07.2017 13:50 17,4 °C 17,4 °C 78 % 1018,0 hPa 0,0 mm 2,3 km/h (1 Bft) N-NO 26 ° 1 min 0,000 mm 7,8 UV-I 984 W/m² 13,5 °C 17,4 °C 4,8 km/h (1 Bft)
13.07.2017 13:51 17,6 °C 17,6 °C 76 % 1018,0 hPa 0,0 mm 3,1 km/h (1 Bft) N-NW 336 ° 1 min 0,000 mm 7,9 UV-I 1014 W/m² 13,3 °C 17,6 °C 4,8 km/h (1 Bft)
13.07.2017 13:52 17,9 °C 17,9 °C 80 % 1018,0 hPa 0,0 mm 5,2 km/h (1 Bft) N 349 ° 1 min 0,000 mm 4,3 UV-I 1014 W/m² 14,4 °C 17,9 °C 8,0 km/h (2 Bft)
13.07.2017 13:53 17,9 °C 17,9 °C 77 % 1018,0 hPa 0,0 mm 6,3 km/h (2 Bft) N-NO 15 ° 1 min 0,000 mm 4,3 UV-I 330 W/m² 13,8 °C 17,9 °C 8,0 km/h (2 Bft)
13.07.2017 13:54 17,9 °C 17,9 °C 74 % 1018,1 hPa 0,0 mm 5,9 km/h (2 Bft) N 349 ° 1 min 0,000 mm 5,5 UV-I 330 W/m² 13,2 °C 17,9 °C 11,3 km/h (2 Bft)
13.07.2017 13:55 17,9 °C 17,9 °C 75 % 1018,1 hPa 0,0 mm 5,5 km/h (1 Bft) N-NO 15 ° 1 min 0,000 mm 5,1 UV-I 533 W/m² 13,4 °C 17,9 °C 8,0 km/h (2 Bft)
13.07.2017 13:56 17,9 °C 17,9 °C 75 % 1018,0 hPa 0,0 mm 5,0 km/h (1 Bft) N-NO 15 ° 1 min 0,000 mm 3,4 UV-I 533 W/m² 13,4 °C 17,9 °C 8,0 km/h (2 Bft)
13.07.2017 13:57 17,7 °C 17,9 °C 73 % 1018,0 hPa 0,0 mm 5,6 km/h (1 Bft) O 89 ° 0 min 0,000 mm 3,3 UV-I 186 W/m² 12,8 °C 17,7 °C 8,0 km/h (2 Bft)
13.07.2017 13:58 17,5 °C 17,7 °C 74 % 1018,0 hPa 0,0 mm 2,8 km/h (1 Bft) O 94 ° 0 min 0,000 mm 3,1 UV-I 186 W/m² 12,8 °C 17,5 °C 4,8 km/h (1 Bft)
13.07.2017 13:59 17,3 °C 17,5 °C 74 % 1018,0 hPa 0,0 mm 1,2 km/h (1 Bft) O 94 ° 0 min 0,000 mm 3,2 UV-I 200 W/m² 12,6 °C 17,3 °C 3,2 km/h (1 Bft)
13.07.2017 14:00 17,1 °C 17,3 °C 76 % 1018,0 hPa 0,0 mm 3,0 km/h (1 Bft) O-SO 104 ° 0 min 0,000 mm 3,2 UV-I 179 W/m² 12,8 °C 17,1 °C 4,8 km/h (1 Bft)
13.07.2017 14:01 16,9 °C 17,1 °C 77 % 1018,0 hPa 0,0 mm 3,1 km/h (1 Bft) O-SO 117 ° 0 min 0,356 mm 2,9 UV-I 163 W/m² 12,8 °C 16,9 °C 4,8 km/h (1 Bft)
13.07.2017 14:02 16,8 °C 16,9 °C 77 % 1018,0 hPa 0,0 mm 1,2 km/h (1 Bft) O-SO 117 ° 0 min 0,000 mm 2,9 UV-I 169 W/m² 12,7 °C 16,8 °C 3,2 km/h (1 Bft)
13.07.2017 14:03 16,8 °C 16,8 °C 78 % 1018,0 hPa 0,0 mm 3,4 km/h (1 Bft) O-NO 61 ° 0 min 0,000 mm 2,8 UV-I 176 W/m² 12,9 °C 16,8 °C 6,4 km/h (2 Bft)
13.07.2017 14:04 16,8 °C 16,8 °C 77 % 1018,0 hPa 0,0 mm 1,4 km/h (1 Bft) O-NO 61 ° 0 min 0,000 mm 3,0 UV-I 193 W/m² 12,7 °C 16,8 °C 3,2 km/h (1 Bft)
13.07.2017 14:05 16,8 °C 16,8 °C 78 % 1018,1 hPa 0,0 mm 1,1 km/h (1 Bft) O-NO 61 ° 0 min 0,000 mm 3,2 UV-I 225 W/m² 12,9 °C 16,8 °C 1,6 km/h (1 Bft)
13.07.2017 14:06 16,8 °C 16,8 °C 78 % 1018,1 hPa 0,0 mm 0,0 km/h (0 Bft) O-NO 61 ° 0 min 0,000 mm 3,4 UV-I 255 W/m² 12,9 °C 16,8 °C 0,0 km/h (0 Bft)
13.07.2017 14:07 16,8 °C 16,8 °C 80 % 1018,0 hPa 0,0 mm 0,5 km/h (0 Bft) O-NO 61 ° 1 min 0,000 mm 4,3 UV-I 318 W/m² 13,3 °C 16,8 °C 1,6 km/h (1 Bft)
13.07.2017 14:08 16,9 °C 16,9 °C 79 % 1018,0 hPa 0,0 mm 0,4 km/h (0 Bft) O-NO 65 ° 1 min 0,000 mm 7,7 UV-I 318 W/m² 13,2 °C 16,9 °C 1,6 km/h (1 Bft)
13.07.2017 14:09 17,2 °C 17,2 °C 80 % 1018,0 hPa 0,0 mm 2,9 km/h (1 Bft) S 171 ° 1 min 0,000 mm 3,9 UV-I 432 W/m² 13,7 °C 17,2 °C 6,4 km/h (2 Bft)
13.07.2017 14:10 17,3 °C 17,3 °C 77 % 1017,9 hPa 0,0 mm 0,9 km/h (0 Bft) S 171 ° 1 min 0,000 mm 5,3 UV-I 432 W/m² 13,2 °C 17,3 °C 3,2 km/h (1 Bft)
13.07.2017 14:11 17,4 °C 17,4 °C 78 % 1017,9 hPa 0,0 mm 3,2 km/h (1 Bft) S-SO 153 ° 1 min 0,000 mm 6,0 UV-I 432 W/m² 13,5 °C 17,4 °C 4,8 km/h (1 Bft)
13.07.2017 14:12 17,4 °C 17,4 °C 77 % 1017,9 hPa 0,0 mm 5,8 km/h (2 Bft) NO 49 ° 1 min 0,000 mm 4,7 UV-I 432 W/m² 13,3 °C 17,4 °C 8,0 km/h (2 Bft)
13.07.2017 14:13 17,5 °C 17,5 °C 81 % 1017,9 hPa 0,0 mm 4,8 km/h (1 Bft) O-NO 64 ° 1 min 0,000 mm 3,3 UV-I 432 W/m² 14,2 °C 17,5 °C 8,0 km/h (2 Bft)
13.07.2017 14:14 17,6 °C 17,6 °C 77 % 1017,9 hPa 0,0 mm 3,3 km/h (1 Bft) O-SO 103 ° 1 min 0,000 mm 3,4 UV-I 323 W/m² 13,5 °C 17,6 °C 6,4 km/h (2 Bft)
13.07.2017 14:15 17,5 °C 17,6 °C 74 % 1017,8 hPa 0,0 mm 3,7 km/h (1 Bft) O 98 ° 1 min 0,000 mm 3,3 UV-I 332 W/m² 12,8 °C 17,5 °C 6,4 km/h (2 Bft)
13.07.2017 14:16 17,4 °C 17,5 °C 74 % 1017,8 hPa 0,0 mm 0,5 km/h (0 Bft) O 98 ° 1 min 0,000 mm 3,1 UV-I 290 W/m² 12,7 °C 17,4 °C 1,6 km/h (1 Bft)
13.07.2017 14:17 17,4 °C 17,4 °C 73 % 1017,8 hPa 0,0 mm 2,4 km/h (1 Bft) S 169 ° 0 min 0,000 mm 2,9 UV-I 272 W/m² 12,5 °C 17,4 °C 6,4 km/h (2 Bft)
13.07.2017 14:18 17,4 °C 17,4 °C 75 % 1017,8 hPa 0,0 mm 3,4 km/h (1 Bft) S 170 ° 0 min 0,000 mm 2,9 UV-I 264 W/m² 12,9 °C 17,4 °C 6,4 km/h (2 Bft)
13.07.2017 14:19 17,4 °C 17,4 °C 75 % 1017,8 hPa 0,0 mm 3,8 km/h (1 Bft) S-SO 157 ° 0 min 0,000 mm 3,1 UV-I 288 W/m² 12,9 °C 17,4 °C 4,8 km/h (1 Bft)
13.07.2017 14:20 17,4 °C 17,4 °C 74 % 1017,8 hPa 0,0 mm 3,1 km/h (1 Bft) SW 222 ° 0 min 0,000 mm 3,1 UV-I 288 W/m² 12,7 °C 17,4 °C 4,8 km/h (1 Bft)
13.07.2017 14:21 17,4 °C 17,4 °C 76 % 1017,8 hPa 0,0 mm 2,1 km/h (1 Bft) W-SW 252 ° 0 min 0,000 mm 3,1 UV-I 288 W/m² 13,1 °C 17,4 °C 4,8 km/h (1 Bft)
13.07.2017 14:22 17,6 °C 17,6 °C 79 % 1017,8 hPa 0,0 mm 0,5 km/h (0 Bft) SW 224 ° 0 min 0,000 mm 3,8 UV-I 288 W/m² 13,9 °C 17,6 °C 3,2 km/h (1 Bft)
13.07.2017 14:23 17,6 °C 17,6 °C 75 % 1017,8 hPa 0,0 mm 0,2 km/h (0 Bft) N-NO 28 ° 1 min 0,000 mm 3,5 UV-I 364 W/m² 13,1 °C 17,6 °C 3,2 km/h (1 Bft)
13.07.2017 14:24 17,6 °C 17,7 °C 74 % 1017,8 hPa 0,0 mm 6,2 km/h (2 Bft) O 101 ° 1 min 0,000 mm 2,3 UV-I 364 W/m² 12,9 °C 17,6 °C 9,7 km/h (2 Bft)
13.07.2017 14:25 17,6 °C 17,7 °C 75 % 1017,8 hPa 0,0 mm 4,4 km/h (1 Bft) O 100 ° 0 min 0,000 mm 2,2 UV-I 216 W/m² 13,1 °C 17,6 °C 6,4 km/h (2 Bft)
13.07.2017 14:26 17,6 °C 17,6 °C 76 % 1017,9 hPa 0,0 mm 4,7 km/h (1 Bft) N-NO 13 ° 0 min 0,000 mm 2,2 UV-I 209 W/m² 13,3 °C 17,6 °C 6,4 km/h (2 Bft)
13.07.2017 14:27 17,7 °C 17,7 °C 75 % 1017,8 hPa 0,0 mm 3,8 km/h (1 Bft) O-NO 57 ° 0 min 0,000 mm 2,2 UV-I 209 W/m² 13,2 °C 17,7 °C 4,8 km/h (1 Bft)
13.07.2017 14:28 17,7 °C 17,7 °C 75 % 1017,9 hPa 0,0 mm 5,0 km/h (1 Bft) O-NO 59 ° 0 min 0,000 mm 2,3 UV-I 213 W/m² 13,2 °C 17,7 °C 6,4 km/h (2 Bft)
13.07.2017 14:29 17,7 °C 17,7 °C 73 % 1017,8 hPa 0,0 mm 4,6 km/h (1 Bft) O-NO 66 ° 0 min 0,000 mm 2,3 UV-I 214 W/m² 12,8 °C 17,7 °C 6,4 km/h (2 Bft)
13.07.2017 14:30 17,6 °C 17,7 °C 74 % 1017,9 hPa 0,0 mm 6,1 km/h (2 Bft) NO 42 ° 0 min 0,000 mm 2,4 UV-I 216 W/m² 12,9 °C 17,6 °C 6,4 km/h (2 Bft)
13.07.2017 14:31 17,6 °C 17,6 °C 74 % 1017,8 hPa 0,0 mm 5,6 km/h (1 Bft) NO 38 ° 0 min 0,000 mm 2,6 UV-I 229 W/m² 12,9 °C 17,6 °C 8,0 km/h (2 Bft)
13.07.2017 14:32 17,5 °C 17,6 °C 74 % 1017,8 hPa 0,0 mm 2,9 km/h (1 Bft) NO 41 ° 0 min 0,000 mm 2,7 UV-I 267 W/m² 12,8 °C 17,5 °C 4,8 km/h (1 Bft)
13.07.2017 14:33 17,6 °C 17,6 °C 76 % 1017,8 hPa 0,0 mm 4,6 km/h (1 Bft) O 82 ° 0 min 0,000 mm 3,0 UV-I 272 W/m² 13,3 °C 17,6 °C 4,8 km/h (1 Bft)
13.07.2017 14:34 17,6 °C 17,6 °C 76 % 1017,8 hPa 0,0 mm 10,2 km/h (2 Bft) SO 128 ° 1 min 0,000 mm 3,6 UV-I 325 W/m² 13,3 °C 17,6 °C 16,1 km/h (3 Bft)
13.07.2017 14:35 17,5 °C 17,6 °C 77 % 1017,8 hPa 0,0 mm 8,8 km/h (2 Bft) O 90 ° 1 min 0,000 mm 3,8 UV-I 378 W/m² 13,4 °C 17,5 °C 12,9 km/h (3 Bft)
13.07.2017 14:36 17,5 °C 17,5 °C 77 % 1017,8 hPa 0,0 mm 7,3 km/h (2 Bft) O 84 ° 1 min 0,000 mm 3,8 UV-I 378 W/m² 13,4 °C 17,5 °C 11,3 km/h (2 Bft)
13.07.2017 14:37 17,5 °C 17,5 °C 77 % 1017,8 hPa 0,0 mm 9,0 km/h (2 Bft) O-NO 58 ° 1 min 0,000 mm 5,6 UV-I 378 W/m² 13,4 °C 17,5 °C 12,9 km/h (3 Bft)
13.07.2017 14:38 17,5 °C 17,5 °C 77 % 1017,8 hPa 0,0 mm 5,5 km/h (1 Bft) O-NO 67 ° 1 min 0,000 mm 3,9 UV-I 378 W/m² 13,4 °C 17,5 °C 8,0 km/h (2 Bft)
13.07.2017 14:39 17,6 °C 17,6 °C 77 % 1017,8 hPa 0,0 mm 7,9 km/h (2 Bft) O 94 ° 1 min 0,000 mm 6,6 UV-I 378 W/m² 13,5 °C 17,6 °C 11,3 km/h (2 Bft)
13.07.2017 14:40 17,6 °C 17,6 °C 76 % 1017,8 hPa 0,0 mm 4,6 km/h (1 Bft) NO 51 ° 1 min 0,000 mm 7,2 UV-I 378 W/m² 13,3 °C 17,6 °C 6,4 km/h (2 Bft)
13.07.2017 14:41 17,7 °C 17,7 °C 78 % 1017,8 hPa 0,0 mm 8,4 km/h (2 Bft) O-NO 76 ° 1 min 0,000 mm 7,1 UV-I 1007 W/m² 13,8 °C 17,7 °C 12,9 km/h (3 Bft)
13.07.2017 14:42 17,8 °C 17,8 °C 77 % 1017,7 hPa 0,0 mm 5,4 km/h (1 Bft) O 80 ° 1 min 0,000 mm 7,1 UV-I 998 W/m² 13,7 °C 17,8 °C 8,0 km/h (2 Bft)
13.07.2017 14:43 17,9 °C 17,9 °C 78 % 1017,8 hPa 0,0 mm 7,8 km/h (2 Bft) O 99 ° 1 min 0,000 mm 7,0 UV-I 984 W/m² 14,0 °C 17,9 °C 12,9 km/h (3 Bft)
13.07.2017 14:44 17,9 °C 18,0 °C 77 % 1017,8 hPa 0,0 mm 4,1 km/h (1 Bft) O 87 ° 1 min 0,000 mm 6,9 UV-I 988 W/m² 13,8 °C 17,9 °C 9,7 km/h (2 Bft)
13.07.2017 14:45 18,1 °C 18,1 °C 77 % 1017,7 hPa 0,0 mm 4,6 km/h (1 Bft) N-NW 341 ° 1 min 0,000 mm 6,7 UV-I 1005 W/m² 14,0 °C 18,1 °C 8,0 km/h (2 Bft)
13.07.2017 14:46 18,3 °C 18,3 °C 78 % 1017,7 hPa 0,0 mm 8,0 km/h (2 Bft) O-NO 64 ° 1 min 0,000 mm 6,8 UV-I 1034 W/m² 14,4 °C 18,3 °C 14,5 km/h (3 Bft)
13.07.2017 14:47 18,4 °C 18,4 °C 77 % 1017,7 hPa 0,0 mm 8,0 km/h (2 Bft) O-NO 61 ° 1 min 0,000 mm 6,8 UV-I 1060 W/m² 14,3 °C 18,4 °C 11,3 km/h (2 Bft)
13.07.2017 14:48 18,4 °C 18,4 °C 74 % 1017,8 hPa 0,0 mm 9,1 km/h (2 Bft) NO 51 ° 1 min 0,000 mm 6,8 UV-I 1062 W/m² 13,7 °C 18,4 °C 16,1 km/h (3 Bft)
13.07.2017 14:49 18,4 °C 18,4 °C 77 % 1017,7 hPa 0,0 mm 8,2 km/h (2 Bft) O 85 ° 1 min 0,000 mm 6,7 UV-I 984 W/m² 14,3 °C 18,4 °C 11,3 km/h (2 Bft)
13.07.2017 14:50 18,4 °C 18,4 °C 75 % 1017,8 hPa 0,0 mm 6,1 km/h (2 Bft) O-NO 77 ° 1 min 0,000 mm 6,9 UV-I 984 W/m² 13,9 °C 18,4 °C 11,3 km/h (2 Bft)
13.07.2017 14:51 18,3 °C 18,4 °C 72 % 1017,7 hPa 0,0 mm 9,1 km/h (2 Bft) NO 46 ° 1 min 0,000 mm 7,3 UV-I 984 W/m² 13,2 °C 18,3 °C 14,5 km/h (3 Bft)
13.07.2017 14:52 18,4 °C 18,4 °C 74 % 1017,7 hPa 0,0 mm 5,4 km/h (1 Bft) N 5 ° 1 min 0,000 mm 7,2 UV-I 1107 W/m² 13,7 °C 18,4 °C 8,0 km/h (2 Bft)
13.07.2017 14:53 18,5 °C 18,5 °C 76 % 1017,6 hPa 0,0 mm 5,9 km/h (2 Bft) NO 35 ° 1 min 0,000 mm 4,2 UV-I 1107 W/m² 14,2 °C 18,5 °C 8,0 km/h (2 Bft)
13.07.2017 14:54 18,6 °C 18,6 °C 73 % 1017,7 hPa 0,0 mm 5,5 km/h (1 Bft) O-NO 71 ° 1 min 0,000 mm 4,2 UV-I 1107 W/m² 13,7 °C 18,6 °C 8,0 km/h (2 Bft)
13.07.2017 14:55 18,4 °C 18,6 °C 72 % 1017,7 hPa 0,0 mm 6,4 km/h (2 Bft) O 80 ° 0 min 0,000 mm 3,1 UV-I 265 W/m² 13,3 °C 18,4 °C 11,3 km/h (2 Bft)
13.07.2017 14:56 18,2 °C 18,4 °C 72 % 1017,7 hPa 0,0 mm 8,9 km/h (2 Bft) O 88 ° 0 min 0,000 mm 2,7 UV-I 250 W/m² 13,1 °C 18,2 °C 12,9 km/h (3 Bft)
13.07.2017 14:57 18,1 °C 18,2 °C 73 % 1017,7 hPa 0,0 mm 6,8 km/h (2 Bft) O 88 ° 0 min 0,000 mm 2,6 UV-I 229 W/m² 13,2 °C 18,1 °C 12,9 km/h (3 Bft)
13.07.2017 14:58 17,9 °C 18,1 °C 71 % 1017,7 hPa 0,0 mm 4,8 km/h (1 Bft) N-NO 22 ° 0 min 0,000 mm 2,6 UV-I 216 W/m² 12,6 °C 17,9 °C 6,4 km/h (2 Bft)
13.07.2017 14:59 17,8 °C 17,9 °C 74 % 1017,7 hPa 0,0 mm 4,2 km/h (1 Bft) O 93 ° 0 min 0,000 mm 2,6 UV-I 214 W/m² 13,1 °C 17,8 °C 6,4 km/h (2 Bft)
13.07.2017 15:00 17,7 °C 17,8 °C 74 % 1017,7 hPa 0,0 mm 5,2 km/h (1 Bft) O-NO 65 ° 0 min 0,000 mm 2,6 UV-I 216 W/m² 13,0 °C 17,7 °C 11,3 km/h (2 Bft)
13.07.2017 15:01 17,6 °C 17,7 °C 74 % 1017,6 hPa 0,0 mm 4,2 km/h (1 Bft) O 90 ° 0 min 0,279 mm 2,7 UV-I 221 W/m² 12,9 °C 17,6 °C 8,0 km/h (2 Bft)
13.07.2017 15:02 17,6 °C 17,7 °C 73 % 1017,6 hPa 0,0 mm 2,3 km/h (1 Bft) O 82 ° 0 min 0,000 mm 2,6 UV-I 221 W/m² 12,7 °C 17,6 °C 4,8 km/h (1 Bft)
13.07.2017 15:03 17,6 °C 17,6 °C 73 % 1017,6 hPa 0,0 mm 1,6 km/h (1 Bft) O 82 ° 0 min 0,000 mm 2,5 UV-I 207 W/m² 12,7 °C 17,6 °C 3,2 km/h (1 Bft)
13.07.2017 15:04 17,6 °C 17,6 °C 74 % 1017,7 hPa 0,0 mm 1,8 km/h (1 Bft) O 82 ° 0 min 0,000 mm 2,5 UV-I 214 W/m² 12,9 °C 17,6 °C 4,8 km/h (1 Bft)
13.07.2017 15:05 17,6 °C 17,6 °C 74 % 1017,6 hPa 0,0 mm 3,4 km/h (1 Bft) O-NO 73 ° 0 min 0,000 mm 2,5 UV-I 218 W/m² 12,9 °C 17,6 °C 4,8 km/h (1 Bft)
13.07.2017 15:06 17,6 °C 17,6 °C 73 % 1017,6 hPa 0,0 mm 3,0 km/h (1 Bft) O-NO 73 ° 0 min 0,000 mm 2,5 UV-I 220 W/m² 12,7 °C 17,6 °C 4,8 km/h (1 Bft)
13.07.2017 15:07 17,6 °C 17,6 °C 72 % 1017,6 hPa 0,0 mm 3,8 km/h (1 Bft) O 84 ° 0 min 0,000 mm 2,5 UV-I 221 W/m² 12,5 °C 17,6 °C 9,7 km/h (2 Bft)
13.07.2017 15:08 17,6 °C 17,6 °C 74 % 1017,6 hPa 0,0 mm 3,4 km/h (1 Bft) NO 46 ° 0 min 0,000 mm 2,6 UV-I 221 W/m² 12,9 °C 17,6 °C 4,8 km/h (1 Bft)
13.07.2017 15:09 17,6 °C 17,6 °C 75 % 1017,6 hPa 0,0 mm 4,5 km/h (1 Bft) NO 49 ° 0 min 0,000 mm 2,8 UV-I 241 W/m² 13,1 °C 17,6 °C 6,4 km/h (2 Bft)
13.07.2017 15:10 17,6 °C 17,6 °C 74 % 1017,6 hPa 0,0 mm 3,8 km/h (1 Bft) O-NO 76 ° 1 min 0,000 mm 3,0 UV-I 311 W/m² 12,9 °C 17,6 °C 4,8 km/h (1 Bft)
13.07.2017 15:11 17,7 °C 17,7 °C 74 % 1017,6 hPa 0,0 mm 3,2 km/h (1 Bft) O 85 ° 0 min 0,000 mm 2,8 UV-I 229 W/m² 13,0 °C 17,7 °C 4,8 km/h (1 Bft)
13.07.2017 15:12 17,6 °C 17,7 °C 75 % 1017,6 hPa 0,0 mm 2,8 km/h (1 Bft) O 83 ° 0 min 0,000 mm 2,8 UV-I 239 W/m² 13,1 °C 17,6 °C 4,8 km/h (1 Bft)
13.07.2017 15:13 17,7 °C 17,7 °C 76 % 1017,6 hPa 0,0 mm 2,2 km/h (1 Bft) O-NO 75 ° 0 min 0,000 mm 3,1 UV-I 265 W/m² 13,4 °C 17,7 °C 4,8 km/h (1 Bft)
13.07.2017 15:14 17,6 °C 17,7 °C 73 % 1017,6 hPa 0,0 mm 1,7 km/h (1 Bft) O-NO 75 ° 0 min 0,000 mm 5,4 UV-I 265 W/m² 12,7 °C 17,6 °C 3,2 km/h (1 Bft)
13.07.2017 15:15 17,7 °C 17,7 °C 73 % 1017,5 hPa 0,0 mm 3,1 km/h (1 Bft) NO 44 ° 1 min 0,000 mm 3,3 UV-I 404 W/m² 12,8 °C 17,7 °C 6,4 km/h (2 Bft)
13.07.2017 15:16 17,7 °C 17,7 °C 72 % 1017,5 hPa 0,0 mm 4,8 km/h (1 Bft) N-NO 31 ° 1 min 0,000 mm 3,6 UV-I 341 W/m² 12,6 °C 17,7 °C 6,4 km/h (2 Bft)
13.07.2017 15:17 17,8 °C 17,8 °C 74 % 1017,5 hPa 0,0 mm 3,9 km/h (1 Bft) N-NO 29 ° 1 min 0,000 mm 6,2 UV-I 385 W/m² 13,1 °C 17,8 °C 4,8 km/h (1 Bft)
13.07.2017 15:18 18,0 °C 18,0 °C 71 % 1017,5 hPa 0,0 mm 4,8 km/h (1 Bft) O-NO 59 ° 1 min 0,000 mm 5,8 UV-I 385 W/m² 12,7 °C 18,0 °C 6,4 km/h (2 Bft)
13.07.2017 15:19 18,2 °C 18,2 °C 72 % 1017,5 hPa 0,0 mm 5,0 km/h (1 Bft) NO 54 ° 1 min 0,000 mm 6,3 UV-I 1020 W/m² 13,1 °C 18,2 °C 6,4 km/h (2 Bft)
13.07.2017 15:20 18,3 °C 18,3 °C 71 % 1017,5 hPa 0,0 mm 1,9 km/h (1 Bft) NO 54 ° 1 min 0,000 mm 4,6 UV-I 1020 W/m² 12,9 °C 18,3 °C 3,2 km/h (1 Bft)
13.07.2017 15:21 18,4 °C 18,4 °C 70 % 1017,5 hPa 0,0 mm 2,9 km/h (1 Bft) N-NO 14 ° 1 min 0,000 mm 3,1 UV-I 1020 W/m² 12,8 °C 18,4 °C 4,8 km/h (1 Bft)
13.07.2017 15:22 18,3 °C 18,4 °C 73 % 1017,5 hPa 0,0 mm 2,8 km/h (1 Bft) N-NO 13 ° 1 min 0,000 mm 2,6 UV-I 1020 W/m² 13,4 °C 18,3 °C 4,8 km/h (1 Bft)
13.07.2017 15:23 18,3 °C 18,3 °C 73 % 1017,5 hPa 0,0 mm 1,2 km/h (1 Bft) N-NO 14 ° 0 min 0,000 mm 3,0 UV-I 287 W/m² 13,4 °C 18,3 °C 3,2 km/h (1 Bft)
13.07.2017 15:24 18,2 °C 18,3 °C 72 % 1017,5 hPa 0,0 mm 4,1 km/h (1 Bft) O-SO 102 ° 1 min 0,000 mm 2,6 UV-I 410 W/m² 13,1 °C 18,2 °C 6,4 km/h (2 Bft)
13.07.2017 15:25 18,2 °C 18,3 °C 73 % 1017,6 hPa 0,0 mm 4,7 km/h (1 Bft) O-NO 63 ° 1 min 0,000 mm 2,5 UV-I 410 W/m² 13,3 °C 18,2 °C 6,4 km/h (2 Bft)
13.07.2017 15:26 18,2 °C 18,2 °C 75 % 1017,5 hPa 0,0 mm 3,9 km/h (1 Bft) SO 144 ° 1 min 0,000 mm 2,7 UV-I 410 W/m² 13,7 °C 18,2 °C 6,4 km/h (2 Bft)
13.07.2017 15:27 18,1 °C 18,2 °C 72 % 1017,5 hPa 0,0 mm 3,8 km/h (1 Bft) SO 145 ° 1 min 0,000 mm 3,0 UV-I 350 W/m² 13,0 °C 18,1 °C 6,4 km/h (2 Bft)
13.07.2017 15:28 18,1 °C 18,1 °C 74 % 1017,5 hPa 0,0 mm 1,5 km/h (1 Bft) O-SO 104 ° 1 min 0,000 mm 3,4 UV-I 429 W/m² 13,4 °C 18,1 °C 3,2 km/h (1 Bft)
13.07.2017 15:29 18,1 °C 18,1 °C 73 % 1017,5 hPa 0,0 mm 4,5 km/h (1 Bft) NO 38 ° 1 min 0,000 mm 3,5 UV-I 429 W/m² 13,2 °C 18,1 °C 9,7 km/h (2 Bft)
13.07.2017 15:30 18,1 °C 18,1 °C 70 % 1017,4 hPa 0,0 mm 4,8 km/h (1 Bft) NO 39 ° 1 min 0,000 mm 3,5 UV-I 404 W/m² 12,5 °C 18,1 °C 8,0 km/h (2 Bft)
13.07.2017 15:31 18,2 °C 18,2 °C 70 % 1017,4 hPa 0,0 mm 3,7 km/h (1 Bft) NO 39 ° 1 min 0,000 mm 3,3 UV-I 404 W/m² 12,6 °C 18,2 °C 6,4 km/h (2 Bft)
13.07.2017 15:32 18,3 °C 18,3 °C 70 % 1017,4 hPa 0,0 mm 3,3 km/h (1 Bft) O-NO 61 ° 1 min 0,000 mm 3,1 UV-I 316 W/m² 12,7 °C 18,3 °C 4,8 km/h (1 Bft)
13.07.2017 15:33 18,3 °C 18,3 °C 71 % 1017,3 hPa 0,0 mm 3,4 km/h (1 Bft) O-NO 61 ° 0 min 0,000 mm 2,8 UV-I 272 W/m² 12,9 °C 18,3 °C 4,8 km/h (1 Bft)
13.07.2017 15:34 18,3 °C 18,3 °C 71 % 1017,4 hPa 0,0 mm 2,2 km/h (1 Bft) N-NO 28 ° 0 min 0,000 mm 2,7 UV-I 250 W/m² 12,9 °C 18,3 °C 8,0 km/h (2 Bft)
13.07.2017 15:35 18,3 °C 18,3 °C 72 % 1017,4 hPa 0,0 mm 5,6 km/h (1 Bft) O 94 ° 0 min 0,000 mm 2,7 UV-I 236 W/m² 13,2 °C 18,3 °C 8,0 km/h (2 Bft)
13.07.2017 15:36 18,3 °C 18,3 °C 71 % 1017,4 hPa 0,0 mm 3,2 km/h (1 Bft) O 95 ° 0 min 0,000 mm 2,7 UV-I 255 W/m² 12,9 °C 18,3 °C 4,8 km/h (1 Bft)
13.07.2017 15:37 18,2 °C 18,3 °C 72 % 1017,4 hPa 0,0 mm 2,0 km/h (1 Bft) NO 56 ° 0 min 0,000 mm 2,8 UV-I 264 W/m² 13,1 °C 18,2 °C 4,8 km/h (1 Bft)
13.07.2017 15:38 18,3 °C 18,3 °C 74 % 1017,4 hPa 0,0 mm 7,8 km/h (2 Bft) O-NO 65 ° 0 min 0,000 mm 2,8 UV-I 265 W/m² 13,6 °C 18,3 °C 12,9 km/h (3 Bft)
13.07.2017 15:39 18,2 °C 18,3 °C 72 % 1017,5 hPa 0,0 mm 6,5 km/h (2 Bft) NO 40 ° 0 min 0,000 mm 2,8 UV-I 269 W/m² 13,1 °C 18,2 °C 9,7 km/h (2 Bft)
13.07.2017 15:40 18,2 °C 18,2 °C 72 % 1017,5 hPa 0,0 mm 5,8 km/h (2 Bft) NO 40 ° 0 min 0,000 mm 2,9 UV-I 274 W/m² 13,1 °C 18,2 °C 11,3 km/h (2 Bft)
13.07.2017 15:41 18,1 °C 18,2 °C 72 % 1017,4 hPa 0,0 mm 5,5 km/h (1 Bft) NO 34 ° 0 min 0,000 mm 3,1 UV-I 274 W/m² 13,0 °C 18,1 °C 8,0 km/h (2 Bft)
13.07.2017 15:42 18,2 °C 18,2 °C 71 % 1017,4 hPa 0,0 mm 5,4 km/h (1 Bft) O 91 ° 0 min 0,000 mm 5,1 UV-I 274 W/m² 12,9 °C 18,2 °C 6,4 km/h (2 Bft)
13.07.2017 15:43 18,2 °C 18,2 °C 72 % 1017,4 hPa 0,0 mm 7,2 km/h (2 Bft) O-SO 105 ° 1 min 0,000 mm 5,8 UV-I 963 W/m² 13,1 °C 18,2 °C 12,9 km/h (3 Bft)
13.07.2017 15:44 18,3 °C 18,3 °C 72 % 1017,4 hPa 0,0 mm 4,8 km/h (1 Bft) O 90 ° 1 min 0,000 mm 5,5 UV-I 963 W/m² 13,2 °C 18,3 °C 11,3 km/h (2 Bft)
13.07.2017 15:45 18,3 °C 18,3 °C 76 % 1017,3 hPa 0,0 mm 2,3 km/h (1 Bft) NO 51 ° 1 min 0,000 mm 3,7 UV-I 963 W/m² 14,0 °C 18,3 °C 4,8 km/h (1 Bft)
13.07.2017 15:46 18,6 °C 18,6 °C 72 % 1017,3 hPa 0,0 mm 6,9 km/h (2 Bft) O 90 ° 1 min 0,000 mm 3,6 UV-I 963 W/m² 13,4 °C 18,6 °C 9,7 km/h (2 Bft)
13.07.2017 15:47 18,7 °C 18,7 °C 75 % 1017,3 hPa 0,0 mm 4,6 km/h (1 Bft) O-NO 68 ° 1 min 0,000 mm 5,9 UV-I 963 W/m² 14,2 °C 18,7 °C 6,4 km/h (2 Bft)
13.07.2017 15:48 18,7 °C 18,8 °C 72 % 1017,3 hPa 0,0 mm 4,9 km/h (1 Bft) O 99 ° 1 min 0,000 mm 5,9 UV-I 914 W/m² 13,5 °C 18,7 °C 9,7 km/h (2 Bft)
13.07.2017 15:49 18,7 °C 18,8 °C 70 % 1017,3 hPa 0,0 mm 5,0 km/h (1 Bft) NO 53 ° 1 min 0,000 mm 5,8 UV-I 900 W/m² 13,1 °C 18,7 °C 9,7 km/h (2 Bft)
13.07.2017 15:50 18,9 °C 18,9 °C 74 % 1017,3 hPa 0,0 mm 4,9 km/h (1 Bft) O 82 ° 1 min 0,000 mm 4,2 UV-I 902 W/m² 14,2 °C 18,9 °C 8,0 km/h (2 Bft)
13.07.2017 15:51 19,0 °C 19,0 °C 72 % 1017,3 hPa 0,0 mm 7,7 km/h (2 Bft) N 355 ° 1 min 0,000 mm 5,2 UV-I 875 W/m² 13,8 °C 19,0 °C 14,5 km/h (3 Bft)
13.07.2017 15:52 19,1 °C 19,1 °C 69 % 1017,3 hPa 0,0 mm 4,0 km/h (1 Bft) N-NO 22 ° 1 min 0,000 mm 3,1 UV-I 875 W/m² 13,3 °C 19,1 °C 6,4 km/h (2 Bft)
13.07.2017 15:53 19,1 °C 19,1 °C 71 % 1017,3 hPa 0,0 mm 2,5 km/h (1 Bft) O-NO 59 ° 0 min 0,000 mm 3,2 UV-I 279 W/m² 13,7 °C 19,1 °C 4,8 km/h (1 Bft)
13.07.2017 15:54 18,9 °C 19,1 °C 67 % 1017,3 hPa 0,0 mm 2,6 km/h (1 Bft) N-NO 30 ° 1 min 0,000 mm 3,3 UV-I 378 W/m² 12,6 °C 18,9 °C 4,8 km/h (1 Bft)
13.07.2017 15:55 18,9 °C 18,9 °C 70 % 1017,3 hPa 0,0 mm 4,7 km/h (1 Bft) N 349 ° 1 min 0,000 mm 5,6 UV-I 378 W/m² 13,3 °C 18,9 °C 4,8 km/h (1 Bft)
13.07.2017 15:56 19,1 °C 19,1 °C 69 % 1017,2 hPa 0,0 mm 5,4 km/h (1 Bft) N-NO 14 ° 1 min 0,000 mm 5,5 UV-I 907 W/m² 13,3 °C 19,1 °C 8,0 km/h (2 Bft)
13.07.2017 15:57 19,2 °C 19,2 °C 69 % 1017,2 hPa 0,0 mm 4,7 km/h (1 Bft) O-NO 74 ° 1 min 0,000 mm 5,3 UV-I 877 W/m² 13,4 °C 19,2 °C 8,0 km/h (2 Bft)
13.07.2017 15:58 19,2 °C 19,2 °C 68 % 1017,3 hPa 0,0 mm 4,4 km/h (1 Bft) O-NO 69 ° 1 min 0,000 mm 3,7 UV-I 877 W/m² 13,1 °C 19,2 °C 6,4 km/h (2 Bft)
13.07.2017 15:59 19,1 °C 19,2 °C 67 % 1017,3 hPa 0,0 mm 5,3 km/h (1 Bft) O-NO 76 ° 1 min 0,000 mm 3,3 UV-I 877 W/m² 12,8 °C 19,1 °C 9,7 km/h (2 Bft)
13.07.2017 16:00 18,9 °C 19,1 °C 69 % 1017,2 hPa 0,0 mm 5,8 km/h (2 Bft) O-NO 74 ° 0 min 0,000 mm 2,5 UV-I 188 W/m² 13,1 °C 18,9 °C 8,0 km/h (2 Bft)
13.07.2017 16:01 18,8 °C 18,9 °C 70 % 1017,3 hPa 0,0 mm 5,7 km/h (1 Bft) O-NO 65 ° 0 min 0,280 mm 2,3 UV-I 181 W/m² 13,2 °C 18,8 °C 11,3 km/h (2 Bft)
13.07.2017 16:02 18,7 °C 18,8 °C 69 % 1017,2 hPa 0,0 mm 6,8 km/h (2 Bft) N 5 ° 0 min 0,000 mm 2,4 UV-I 197 W/m² 12,9 °C 18,7 °C 9,7 km/h (2 Bft)
13.07.2017 16:03 18,6 °C 18,7 °C 70 % 1017,3 hPa 0,0 mm 3,9 km/h (1 Bft) NO 55 ° 0 min 0,000 mm 2,6 UV-I 244 W/m² 13,0 °C 18,6 °C 6,4 km/h (2 Bft)
13.07.2017 16:04 18,6 °C 18,6 °C 69 % 1017,3 hPa 0,0 mm 6,4 km/h (2 Bft) O-NO 69 ° 1 min 0,000 mm 2,7 UV-I 334 W/m² 12,8 °C 18,6 °C 11,3 km/h (2 Bft)
13.07.2017 16:05 18,4 °C 18,6 °C 71 % 1017,2 hPa 0,0 mm 6,3 km/h (2 Bft) O 81 ° 1 min 0,000 mm 2,7 UV-I 292 W/m² 13,0 °C 18,4 °C 12,9 km/h (3 Bft)
13.07.2017 16:06 18,4 °C 18,4 °C 70 % 1017,2 hPa 0,0 mm 6,9 km/h (2 Bft) O-NO 64 ° 0 min 0,000 mm 2,6 UV-I 276 W/m² 12,8 °C 18,4 °C 9,7 km/h (2 Bft)
13.07.2017 16:07 18,3 °C 18,4 °C 70 % 1017,3 hPa 0,0 mm 3,0 km/h (1 Bft) O 79 ° 0 min 0,000 mm 2,5 UV-I 262 W/m² 12,7 °C 18,3 °C 6,4 km/h (2 Bft)
13.07.2017 16:08 18,3 °C 18,3 °C 70 % 1017,2 hPa 0,0 mm 1,3 km/h (1 Bft) N-NO 26 ° 0 min 0,000 mm 2,3 UV-I 248 W/m² 12,7 °C 18,3 °C 3,2 km/h (1 Bft)
13.07.2017 16:09 18,3 °C 18,3 °C 71 % 1017,2 hPa 0,0 mm 4,9 km/h (1 Bft) O-NO 67 ° 0 min 0,000 mm 2,2 UV-I 227 W/m² 12,9 °C 18,3 °C 6,4 km/h (2 Bft)
13.07.2017 16:10 18,3 °C 18,3 °C 72 % 1017,3 hPa 0,0 mm 5,6 km/h (1 Bft) NO 51 ° 0 min 0,000 mm 2,1 UV-I 218 W/m² 13,2 °C 18,3 °C 6,4 km/h (2 Bft)
13.07.2017 16:11 18,3 °C 18,3 °C 71 % 1017,2 hPa 0,0 mm 4,6 km/h (1 Bft) O-SO 111 ° 0 min 0,000 mm 2,0 UV-I 206 W/m² 12,9 °C 18,3 °C 6,4 km/h (2 Bft)
13.07.2017 16:12 18,3 °C 18,3 °C 71 % 1017,2 hPa 0,0 mm 4,6 km/h (1 Bft) O 94 ° 0 min 0,000 mm 1,8 UV-I 202 W/m² 12,9 °C 18,3 °C 9,7 km/h (2 Bft)
13.07.2017 16:13 18,2 °C 18,3 °C 72 % 1017,2 hPa 0,0 mm 4,8 km/h (1 Bft) O-NO 67 ° 0 min 0,000 mm 1,8 UV-I 204 W/m² 13,1 °C 18,2 °C 6,4 km/h (2 Bft)
13.07.2017 16:14 18,2 °C 18,2 °C 72 % 1017,2 hPa 0,0 mm 4,8 km/h (1 Bft) O 84 ° 0 min 0,000 mm 1,8 UV-I 206 W/m² 13,1 °C 18,2 °C 6,4 km/h (2 Bft)
13.07.2017 16:15 18,1 °C 18,2 °C 71 % 1017,2 hPa 0,0 mm 7,3 km/h (2 Bft) SO 135 ° 0 min 0,000 mm 1,8 UV-I 202 W/m² 12,8 °C 18,1 °C 9,7 km/h (2 Bft)
13.07.2017 16:16 18,1 °C 18,1 °C 71 % 1017,3 hPa 0,0 mm 2,0 km/h (1 Bft) O 92 ° 0 min 0,000 mm 1,7 UV-I 197 W/m² 12,8 °C 18,1 °C 6,4 km/h (2 Bft)
13.07.2017 16:17 18,1 °C 18,1 °C 73 % 1017,3 hPa 0,0 mm 2,5 km/h (1 Bft) O-NO 73 ° 0 min 0,000 mm 1,6 UV-I 195 W/m² 13,2 °C 18,1 °C 4,8 km/h (1 Bft)
13.07.2017 16:18 18,1 °C 18,1 °C 74 % 1017,3 hPa 0,0 mm 4,8 km/h (1 Bft) O-NO 66 ° 0 min 0,000 mm 1,6 UV-I 197 W/m² 13,4 °C 18,1 °C 6,4 km/h (2 Bft)
13.07.2017 16:19 18,1 °C 18,1 °C 73 % 1017,3 hPa 0,0 mm 3,4 km/h (1 Bft) O-NO 70 ° 0 min 0,000 mm 1,7 UV-I 211 W/m² 13,2 °C 18,1 °C 4,8 km/h (1 Bft)
13.07.2017 16:20 18,2 °C 18,2 °C 75 % 1017,3 hPa 0,0 mm 2,5 km/h (1 Bft) O-NO 66 ° 0 min 0,000 mm 1,8 UV-I 232 W/m² 13,7 °C 18,2 °C 4,8 km/h (1 Bft)
13.07.2017 16:21 18,2 °C 18,2 °C 75 % 1017,3 hPa 0,0 mm 3,8 km/h (1 Bft) O-NO 67 ° 0 min 0,000 mm 2,1 UV-I 251 W/m² 13,7 °C 18,2 °C 6,4 km/h (2 Bft)
13.07.2017 16:22 18,2 °C 18,2 °C 73 % 1017,3 hPa 0,0 mm 1,7 km/h (1 Bft) O-NO 62 ° 0 min 0,000 mm 2,2 UV-I 264 W/m² 13,3 °C 18,2 °C 3,2 km/h (1 Bft)
13.07.2017 16:23 18,2 °C 18,2 °C 72 % 1017,2 hPa 0,0 mm 0,3 km/h (0 Bft) O-SO 113 ° 0 min 0,000 mm 2,4 UV-I 287 W/m² 13,1 °C 18,2 °C 1,6 km/h (1 Bft)
13.07.2017 16:24 18,2 °C 18,2 °C 72 % 1017,2 hPa 0,0 mm 2,3 km/h (1 Bft) O 94 ° 1 min 0,000 mm 2,7 UV-I 323 W/m² 13,1 °C 18,2 °C 6,4 km/h (2 Bft)
13.07.2017 16:25 18,2 °C 18,2 °C 72 % 1017,2 hPa 0,0 mm 3,8 km/h (1 Bft) O-SO 115 ° 1 min 0,000 mm 2,8 UV-I 325 W/m² 13,1 °C 18,2 °C 6,4 km/h (2 Bft)
13.07.2017 16:26 18,3 °C 18,3 °C 74 % 1017,2 hPa 0,0 mm 3,0 km/h (1 Bft) O-SO 108 ° 1 min 0,000 mm 2,8 UV-I 322 W/m² 13,6 °C 18,3 °C 4,8 km/h (1 Bft)
13.07.2017 16:27 18,3 °C 18,3 °C 74 % 1017,2 hPa 0,0 mm 2,3 km/h (1 Bft) O 82 ° 1 min 0,000 mm 3,0 UV-I 332 W/m² 13,6 °C 18,3 °C 3,2 km/h (1 Bft)
13.07.2017 16:28 18,3 °C 18,3 °C 72 % 1017,2 hPa 0,0 mm 3,6 km/h (1 Bft) O-NO 57 ° 1 min 0,000 mm 3,0 UV-I 341 W/m² 13,2 °C 18,3 °C 9,7 km/h (2 Bft)
13.07.2017 16:29 18,4 °C 18,4 °C 70 % 1017,3 hPa 0,0 mm 4,5 km/h (1 Bft) O-NO 62 ° 1 min 0,000 mm 3,1 UV-I 338 W/m² 12,8 °C 18,4 °C 6,4 km/h (2 Bft)
13.07.2017 16:30 18,6 °C 18,6 °C 74 % 1017,2 hPa 0,0 mm 7,9 km/h (2 Bft) O 83 ° 1 min 0,000 mm 3,1 UV-I 330 W/m² 13,9 °C 18,6 °C 12,9 km/h (3 Bft)
13.07.2017 16:31 18,6 °C 18,6 °C 70 % 1017,2 hPa 0,0 mm 5,3 km/h (1 Bft) O-NO 68 ° 1 min 0,000 mm 3,1 UV-I 315 W/m² 13,0 °C 18,6 °C 8,0 km/h (2 Bft)
13.07.2017 16:32 18,5 °C 18,6 °C 70 % 1017,1 hPa 0,0 mm 2,0 km/h (1 Bft) O-NO 60 ° 1 min 0,000 mm 3,1 UV-I 299 W/m² 12,9 °C 18,5 °C 4,8 km/h (1 Bft)
13.07.2017 16:33 18,6 °C 18,6 °C 72 % 1017,1 hPa 0,0 mm 1,5 km/h (1 Bft) NO 51 ° 0 min 0,000 mm 3,0 UV-I 278 W/m² 13,4 °C 18,6 °C 8,0 km/h (2 Bft)
13.07.2017 16:34 18,7 °C 18,7 °C 69 % 1017,2 hPa 0,0 mm 5,8 km/h (2 Bft) SO 130 ° 0 min 0,000 mm 2,9 UV-I 264 W/m² 12,9 °C 18,7 °C 8,0 km/h (2 Bft)
13.07.2017 16:35 18,7 °C 18,7 °C 69 % 1017,1 hPa 0,0 mm 4,5 km/h (1 Bft) O 94 ° 0 min 0,000 mm 2,9 UV-I 255 W/m² 12,9 °C 18,7 °C 8,0 km/h (2 Bft)
13.07.2017 16:36 18,7 °C 18,8 °C 69 % 1017,1 hPa 0,0 mm 5,7 km/h (1 Bft) NO 49 ° 0 min 0,000 mm 2,8 UV-I 255 W/m² 12,9 °C 18,7 °C 8,0 km/h (2 Bft)
13.07.2017 16:37 18,8 °C 18,8 °C 68 % 1017,0 hPa 0,0 mm 7,1 km/h (2 Bft) NO 34 ° 0 min 0,000 mm 2,8 UV-I 255 W/m² 12,8 °C 18,8 °C 9,7 km/h (2 Bft)
13.07.2017 16:38 18,8 °C 18,8 °C 68 % 1017,1 hPa 0,0 mm 7,5 km/h (2 Bft) N-NO 28 ° 0 min 0,000 mm 2,7 UV-I 258 W/m² 12,8 °C 18,8 °C 9,7 km/h (2 Bft)
13.07.2017 16:39 18,8 °C 18,8 °C 68 % 1017,1 hPa 0,0 mm 4,0 km/h (1 Bft) O-NO 77 ° 0 min 0,000 mm 2,7 UV-I 262 W/m² 12,8 °C 18,8 °C 8,0 km/h (2 Bft)
13.07.2017 16:40 18,7 °C 18,8 °C 68 % 1017,1 hPa 0,0 mm 0,5 km/h (0 Bft) O-NO 77 ° 0 min 0,000 mm 2,5 UV-I 251 W/m² 12,7 °C 18,7 °C 1,6 km/h (1 Bft)
13.07.2017 16:41 18,6 °C 18,7 °C 68 % 1017,0 hPa 0,0 mm 2,1 km/h (1 Bft) O-NO 65 ° 0 min 0,000 mm 2,4 UV-I 250 W/m² 12,6 °C 18,6 °C 4,8 km/h (1 Bft)
13.07.2017 16:42 18,6 °C 18,6 °C 71 % 1017,0 hPa 0,0 mm 2,1 km/h (1 Bft) NO 47 ° 0 min 0,000 mm 2,2 UV-I 237 W/m² 13,2 °C 18,6 °C 4,8 km/h (1 Bft)
13.07.2017 16:43 18,6 °C 18,7 °C 68 % 1017,0 hPa 0,0 mm 2,9 km/h (1 Bft) O-NO 61 ° 0 min 0,000 mm 2,1 UV-I 225 W/m² 12,6 °C 18,6 °C 6,4 km/h (2 Bft)
13.07.2017 16:44 18,6 °C 18,6 °C 70 % 1017,0 hPa 0,0 mm 0,8 km/h (0 Bft) O-NO 61 ° 0 min 0,000 mm 2,1 UV-I 225 W/m² 13,0 °C 18,6 °C 1,6 km/h (1 Bft)
13.07.2017 16:45 18,7 °C 18,7 °C 73 % 1017,0 hPa 0,0 mm 6,2 km/h (2 Bft) N-NO 33 ° 0 min 0,000 mm 2,0 UV-I 221 W/m² 13,8 °C 18,7 °C 8,0 km/h (2 Bft)
13.07.2017 16:46 18,8 °C 18,8 °C 71 % 1017,1 hPa 0,0 mm 4,3 km/h (1 Bft) O-NO 60 ° 0 min 0,000 mm 1,9 UV-I 204 W/m² 13,4 °C 18,8 °C 6,4 km/h (2 Bft)
13.07.2017 16:47 18,8 °C 18,8 °C 68 % 1017,0 hPa 0,0 mm 1,5 km/h (1 Bft) O-NO 60 ° 0 min 0,000 mm 1,6 UV-I 193 W/m² 12,8 °C 18,8 °C 3,2 km/h (1 Bft)
13.07.2017 16:48 18,7 °C 18,8 °C 69 % 1017,0 hPa 0,0 mm 1,7 km/h (1 Bft) O 85 ° 0 min 0,000 mm 1,5 UV-I 181 W/m² 12,9 °C 18,7 °C 3,2 km/h (1 Bft)
13.07.2017 16:49 18,6 °C 18,7 °C 70 % 1017,0 hPa 0,0 mm 2,6 km/h (1 Bft) SO 141 ° 0 min 0,000 mm 1,4 UV-I 171 W/m² 13,0 °C 18,6 °C 4,8 km/h (1 Bft)
13.07.2017 16:50 18,4 °C 18,6 °C 68 % 1017,0 hPa 0,0 mm 4,0 km/h (1 Bft) S-SW 198 ° 0 min 0,000 mm 1,3 UV-I 163 W/m² 12,4 °C 18,4 °C 6,4 km/h (2 Bft)
13.07.2017 16:51 18,3 °C 18,4 °C 68 % 1017,0 hPa 0,0 mm 0,9 km/h (0 Bft) S-SW 198 ° 0 min 0,000 mm 1,2 UV-I 155 W/m² 12,3 °C 18,3 °C 4,8 km/h (1 Bft)
13.07.2017 16:52 18,3 °C 18,3 °C 70 % 1017,0 hPa 0,0 mm 1,4 km/h (1 Bft) O 86 ° 0 min 0,000 mm 1,2 UV-I 142 W/m² 12,7 °C 18,3 °C 4,8 km/h (1 Bft)
13.07.2017 16:53 18,2 °C 18,3 °C 71 % 1017,0 hPa 0,0 mm 3,8 km/h (1 Bft) NO 46 ° 0 min 0,000 mm 1,1 UV-I 141 W/m² 12,9 °C 18,2 °C 4,8 km/h (1 Bft)
13.07.2017 16:54 18,3 °C 18,3 °C 70 % 1017,0 hPa 0,0 mm 4,5 km/h (1 Bft) N 5 ° 0 min 0,000 mm 1,1 UV-I 139 W/m² 12,7 °C 18,3 °C 6,4 km/h (2 Bft)
13.07.2017 16:55 18,3 °C 18,3 °C 70 % 1017,0 hPa 0,0 mm 3,3 km/h (1 Bft) N 360 ° 0 min 0,000 mm 1,1 UV-I 139 W/m² 12,7 °C 18,3 °C 4,8 km/h (1 Bft)
13.07.2017 16:56 18,3 °C 18,3 °C 71 % 1017,0 hPa 0,0 mm 2,4 km/h (1 Bft) N 355 ° 0 min 0,000 mm 1,1 UV-I 141 W/m² 12,9 °C 18,3 °C 3,2 km/h (1 Bft)
13.07.2017 16:57 18,3 °C 18,3 °C 71 % 1017,0 hPa 0,0 mm 3,0 km/h (1 Bft) N 9 ° 0 min 0,000 mm 1,0 UV-I 141 W/m² 12,9 °C 18,3 °C 6,4 km/h (2 Bft)
13.07.2017 16:58 18,3 °C 18,3 °C 71 % 1017,0 hPa 0,0 mm 5,0 km/h (1 Bft) N 5 ° 0 min 0,000 mm 1,0 UV-I 139 W/m² 12,9 °C 18,3 °C 6,4 km/h (2 Bft)
13.07.2017 16:59 18,3 °C 18,3 °C 72 % 1017,0 hPa 0,0 mm 3,4 km/h (1 Bft) N 9 ° 0 min 0,000 mm 1,1 UV-I 141 W/m² 13,2 °C 18,3 °C 6,4 km/h (2 Bft)
13.07.2017 17:00 18,3 °C 18,3 °C 72 % 1017,0 hPa 0,0 mm 3,4 km/h (1 Bft) N 360 ° 0 min 0,000 mm 1,1 UV-I 141 W/m² 13,2 °C 18,3 °C 6,4 km/h (2 Bft)
13.07.2017 17:01 18,3 °C 18,3 °C 72 % 1017,0 hPa 0,0 mm 5,6 km/h (1 Bft) N-NW 341 ° 0 min 0,152 mm 1,1 UV-I 146 W/m² 13,2 °C 18,3 °C 8,0 km/h (2 Bft)
13.07.2017 17:02 18,3 °C 18,3 °C 71 % 1017,0 hPa 0,0 mm 3,3 km/h (1 Bft) N 5 ° 0 min 0,000 mm 1,2 UV-I 148 W/m² 12,9 °C 18,3 °C 4,8 km/h (1 Bft)
13.07.2017 17:03 18,3 °C 18,3 °C 73 % 1017,1 hPa 0,0 mm 2,5 km/h (1 Bft) N 11 ° 0 min 0,000 mm 1,2 UV-I 149 W/m² 13,4 °C 18,3 °C 3,2 km/h (1 Bft)
13.07.2017 17:04 18,3 °C 18,3 °C 72 % 1017,0 hPa 0,0 mm 3,6 km/h (1 Bft) N-NW 332 ° 0 min 0,000 mm 1,2 UV-I 163 W/m² 13,2 °C 18,3 °C 6,4 km/h (2 Bft)
13.07.2017 17:05 18,3 °C 18,3 °C 73 % 1017,0 hPa 0,0 mm 3,6 km/h (1 Bft) N 10 ° 0 min 0,000 mm 1,3 UV-I 171 W/m² 13,4 °C 18,3 °C 6,4 km/h (2 Bft)
13.07.2017 17:06 18,3 °C 18,3 °C 72 % 1017,0 hPa 0,0 mm 2,3 km/h (1 Bft) N 5 ° 0 min 0,000 mm 1,4 UV-I 183 W/m² 13,2 °C 18,3 °C 4,8 km/h (1 Bft)
13.07.2017 17:07 18,3 °C 18,3 °C 70 % 1017,0 hPa 0,0 mm 6,1 km/h (2 Bft) N-NW 342 ° 0 min 0,000 mm 1,5 UV-I 197 W/m² 12,7 °C 18,3 °C 8,0 km/h (2 Bft)
13.07.2017 17:08 18,3 °C 18,3 °C 71 % 1017,0 hPa 0,0 mm 5,2 km/h (1 Bft) NO 53 ° 0 min 0,000 mm 1,6 UV-I 199 W/m² 12,9 °C 18,3 °C 8,0 km/h (2 Bft)
13.07.2017 17:09 18,3 °C 18,3 °C 69 % 1017,0 hPa 0,0 mm 5,8 km/h (2 Bft) N 11 ° 0 min 0,000 mm 1,6 UV-I 190 W/m² 12,5 °C 18,3 °C 6,4 km/h (2 Bft)
13.07.2017 17:10 18,3 °C 18,3 °C 71 % 1017,0 hPa 0,0 mm 3,1 km/h (1 Bft) N 9 ° 0 min 0,000 mm 1,6 UV-I 188 W/m² 12,9 °C 18,3 °C 4,8 km/h (1 Bft)
13.07.2017 17:11 18,4 °C 18,4 °C 72 % 1017,0 hPa 0,0 mm 3,3 km/h (1 Bft) N 355 ° 0 min 0,000 mm 1,7 UV-I 207 W/m² 13,3 °C 18,4 °C 4,8 km/h (1 Bft)
13.07.2017 17:12 18,4 °C 18,4 °C 69 % 1017,0 hPa 0,0 mm 4,0 km/h (1 Bft) N-NO 18 ° 0 min 0,000 mm 1,8 UV-I 230 W/m² 12,6 °C 18,4 °C 6,4 km/h (2 Bft)
13.07.2017 17:13 18,4 °C 18,4 °C 71 % 1016,9 hPa 0,0 mm 3,2 km/h (1 Bft) O-NO 71 ° 0 min 0,000 mm 1,9 UV-I 248 W/m² 13,0 °C 18,4 °C 4,8 km/h (1 Bft)
13.07.2017 17:14 18,5 °C 18,5 °C 70 % 1016,9 hPa 0,0 mm 2,5 km/h (1 Bft) O 90 ° 0 min 0,000 mm 2,0 UV-I 260 W/m² 12,9 °C 18,5 °C 4,8 km/h (1 Bft)
13.07.2017 17:15 18,6 °C 18,6 °C 71 % 1016,9 hPa 0,0 mm 2,6 km/h (1 Bft) N-NO 33 ° 0 min 0,000 mm 2,1 UV-I 274 W/m² 13,2 °C 18,6 °C 4,8 km/h (1 Bft)
13.07.2017 17:16 18,7 °C 18,7 °C 71 % 1016,9 hPa 0,0 mm 5,9 km/h (2 Bft) O 79 ° 0 min 0,000 mm 2,1 UV-I 274 W/m² 13,3 °C 18,7 °C 8,0 km/h (2 Bft)
13.07.2017 17:17 18,7 °C 18,7 °C 70 % 1016,9 hPa 0,0 mm 7,1 km/h (2 Bft) O-NO 74 ° 0 min 0,000 mm 2,1 UV-I 267 W/m² 13,1 °C 18,7 °C 11,3 km/h (2 Bft)
13.07.2017 17:18 18,7 °C 18,7 °C 70 % 1016,9 hPa 0,0 mm 6,4 km/h (2 Bft) O 101 ° 0 min 0,000 mm 2,1 UV-I 255 W/m² 13,1 °C 18,7 °C 12,9 km/h (3 Bft)
13.07.2017 17:19 18,7 °C 18,7 °C 68 % 1016,8 hPa 0,0 mm 3,5 km/h (1 Bft) N-NO 13 ° 0 min 0,000 mm 2,1 UV-I 246 W/m² 12,7 °C 18,7 °C 6,4 km/h (2 Bft)
13.07.2017 17:20 18,7 °C 18,7 °C 71 % 1016,9 hPa 0,0 mm 8,7 km/h (2 Bft) N 351 ° 0 min 0,000 mm 2,0 UV-I 229 W/m² 13,3 °C 18,7 °C 12,9 km/h (3 Bft)
13.07.2017 17:21 18,8 °C 18,8 °C 69 % 1016,8 hPa 0,0 mm 6,4 km/h (2 Bft) NO 38 ° 0 min 0,000 mm 1,9 UV-I 206 W/m² 13,0 °C 18,8 °C 9,7 km/h (2 Bft)
13.07.2017 17:22 18,8 °C 18,8 °C 69 % 1016,9 hPa 0,0 mm 4,8 km/h (1 Bft) O-NO 66 ° 0 min 0,000 mm 1,9 UV-I 206 W/m² 13,0 °C 18,8 °C 6,4 km/h (2 Bft)
13.07.2017 17:23 18,8 °C 18,8 °C 68 % 1016,8 hPa 0,0 mm 5,6 km/h (1 Bft) O-NO 62 ° 0 min 0,000 mm 1,9 UV-I 206 W/m² 12,8 °C 18,8 °C 9,7 km/h (2 Bft)
13.07.2017 17:24 18,8 °C 18,8 °C 68 % 1016,8 hPa 0,0 mm 5,5 km/h (1 Bft) O 86 ° 0 min 0,000 mm 1,9 UV-I 213 W/m² 12,8 °C 18,8 °C 9,7 km/h (2 Bft)
13.07.2017 17:25 18,7 °C 18,8 °C 68 % 1016,8 hPa 0,0 mm 3,2 km/h (1 Bft) O-NO 64 ° 0 min 0,000 mm 2,0 UV-I 223 W/m² 12,7 °C 18,7 °C 4,8 km/h (1 Bft)
13.07.2017 17:26 18,6 °C 18,7 °C 67 % 1016,8 hPa 0,0 mm 8,2 km/h (2 Bft) O-NO 68 ° 0 min 0,000 mm 2,0 UV-I 234 W/m² 12,3 °C 18,6 °C 12,9 km/h (3 Bft)
13.07.2017 17:27 18,6 °C 18,6 °C 69 % 1016,8 hPa 0,0 mm 4,7 km/h (1 Bft) SO 146 ° 0 min 0,000 mm 2,0 UV-I 230 W/m² 12,8 °C 18,6 °C 9,7 km/h (2 Bft)
13.07.2017 17:28 18,4 °C 18,6 °C 68 % 1016,7 hPa 0,0 mm 4,8 km/h (1 Bft) O-NO 59 ° 0 min 0,000 mm 1,9 UV-I 225 W/m² 12,4 °C 18,4 °C 8,0 km/h (2 Bft)
13.07.2017 17:29 18,4 °C 18,4 °C 69 % 1016,8 hPa 0,0 mm 4,8 km/h (1 Bft) NO 53 ° 0 min 0,000 mm 1,7 UV-I 211 W/m² 12,6 °C 18,4 °C 9,7 km/h (2 Bft)
13.07.2017 17:30 18,5 °C 18,5 °C 69 % 1016,8 hPa 0,0 mm 2,4 km/h (1 Bft) O 84 ° 0 min 0,000 mm 1,6 UV-I 199 W/m² 12,7 °C 18,5 °C 4,8 km/h (1 Bft)
13.07.2017 17:31 18,5 °C 18,5 °C 69 % 1016,8 hPa 0,0 mm 2,1 km/h (1 Bft) O 87 ° 0 min 0,000 mm 1,5 UV-I 188 W/m² 12,7 °C 18,5 °C 4,8 km/h (1 Bft)
13.07.2017 17:32 18,5 °C 18,5 °C 69 % 1016,8 hPa 0,0 mm 4,4 km/h (1 Bft) O-NO 68 ° 0 min 0,000 mm 1,5 UV-I 185 W/m² 12,7 °C 18,5 °C 8,0 km/h (2 Bft)
13.07.2017 17:33 18,4 °C 18,5 °C 71 % 1016,8 hPa 0,0 mm 5,6 km/h (1 Bft) O-NO 75 ° 0 min 0,000 mm 1,4 UV-I 185 W/m² 13,0 °C 18,4 °C 6,4 km/h (2 Bft)
13.07.2017 17:34 18,4 °C 18,4 °C 67 % 1016,8 hPa 0,0 mm 1,8 km/h (1 Bft) O-NO 75 ° 0 min 0,000 mm 1,4 UV-I 179 W/m² 12,2 °C 18,4 °C 4,8 km/h (1 Bft)
13.07.2017 17:35 18,3 °C 18,4 °C 69 % 1016,8 hPa 0,0 mm 2,7 km/h (1 Bft) O-NO 75 ° 0 min 0,000 mm 1,3 UV-I 172 W/m² 12,5 °C 18,3 °C 6,4 km/h (2 Bft)
13.07.2017 17:36 18,3 °C 18,3 °C 69 % 1016,8 hPa 0,0 mm 4,8 km/h (1 Bft) O 82 ° 0 min 0,000 mm 1,3 UV-I 163 W/m² 12,5 °C 18,3 °C 9,7 km/h (2 Bft)
13.07.2017 17:37 18,2 °C 18,3 °C 67 % 1016,8 hPa 0,0 mm 5,0 km/h (1 Bft) N-NO 24 ° 0 min 0,000 mm 1,2 UV-I 156 W/m² 12,0 °C 18,2 °C 8,0 km/h (2 Bft)
13.07.2017 17:38 18,3 °C 18,3 °C 69 % 1016,8 hPa 0,0 mm 4,6 km/h (1 Bft) O-SO 115 ° 0 min 0,000 mm 1,2 UV-I 151 W/m² 12,5 °C 18,3 °C 6,4 km/h (2 Bft)
13.07.2017 17:39 18,2 °C 18,3 °C 68 % 1016,8 hPa 0,0 mm 3,0 km/h (1 Bft) NO 51 ° 0 min 0,000 mm 1,2 UV-I 148 W/m² 12,2 °C 18,2 °C 4,8 km/h (1 Bft)
13.07.2017 17:40 18,2 °C 18,2 °C 68 % 1016,8 hPa 0,0 mm 3,8 km/h (1 Bft) S 187 ° 0 min 0,000 mm 1,2 UV-I 146 W/m² 12,2 °C 18,2 °C 6,4 km/h (2 Bft)
13.07.2017 17:41 18,1 °C 18,2 °C 70 % 1016,8 hPa 0,0 mm 2,1 km/h (1 Bft) S 187 ° 0 min 0,000 mm 1,2 UV-I 144 W/m² 12,5 °C 18,1 °C 6,4 km/h (2 Bft)
13.07.2017 17:42 18,1 °C 18,1 °C 69 % 1016,8 hPa 0,0 mm 1,2 km/h (1 Bft) O-SO 112 ° 0 min 0,000 mm 1,2 UV-I 144 W/m² 12,3 °C 18,1 °C 3,2 km/h (1 Bft)
13.07.2017 17:43 18,1 °C 18,1 °C 70 % 1016,8 hPa 0,0 mm 1,2 km/h (1 Bft) O-SO 112 ° 0 min 0,000 mm 1,2 UV-I 139 W/m² 12,5 °C 18,1 °C 1,6 km/h (1 Bft)
13.07.2017 17:44 18,1 °C 18,1 °C 74 % 1016,7 hPa 0,0 mm 0,7 km/h (0 Bft) O-SO 112 ° 0 min 0,000 mm 1,2 UV-I 139 W/m² 13,4 °C 18,1 °C 1,6 km/h (1 Bft)
13.07.2017 17:45 18,0 °C 18,1 °C 72 % 1016,8 hPa 0,0 mm 1,1 km/h (1 Bft) O-SO 113 ° 0 min 0,000 mm 1,2 UV-I 148 W/m² 12,9 °C 18,0 °C 3,2 km/h (1 Bft)
13.07.2017 17:46 18,0 °C 18,0 °C 72 % 1016,7 hPa 0,0 mm 0,6 km/h (0 Bft) O-SO 112 ° 0 min 0,000 mm 1,3 UV-I 155 W/m² 12,9 °C 18,0 °C 1,6 km/h (1 Bft)
13.07.2017 17:48 18,0 °C 18,0 °C 72 % 1016,7 hPa 0,0 mm 1,6 km/h (1 Bft) O-SO 112 ° 0 min 0,000 mm 1,3 UV-I 155 W/m² 12,9 °C 18,0 °C 1,6 km/h (1 Bft)
13.07.2017 17:49 17,9 °C 17,9 °C 73 % 1016,8 hPa 0,0 mm 1,6 km/h (1 Bft) O 90 ° 0 min 0,000 mm 1,3 UV-I 163 W/m² 13,0 °C 17,9 °C 3,2 km/h (1 Bft)
13.07.2017 17:50 17,9 °C 17,9 °C 75 % 1016,8 hPa 0,0 mm 1,6 km/h (1 Bft) O 90 ° 0 min 0,000 mm 1,3 UV-I 165 W/m² 13,4 °C 17,9 °C 3,2 km/h (1 Bft)
13.07.2017 17:51 17,9 °C 17,9 °C 72 % 1016,7 hPa 0,0 mm 1,6 km/h (1 Bft) O 90 ° 0 min 0,000 mm 1,3 UV-I 165 W/m² 12,8 °C 17,9 °C 3,2 km/h (1 Bft)
13.07.2017 17:52 17,9 °C 17,9 °C 74 % 1016,7 hPa 0,0 mm 0,0 km/h (0 Bft) O 90 ° 0 min 0,000 mm 1,3 UV-I 167 W/m² 13,2 °C 17,9 °C 3,2 km/h (1 Bft)
13.07.2017 17:53 17,9 °C 17,9 °C 70 % 1016,7 hPa 0,0 mm 1,6 km/h (1 Bft) N-NW 337 ° 0 min 0,000 mm 1,3 UV-I 169 W/m² 12,3 °C 17,9 °C 4,8 km/h (1 Bft)
13.07.2017 17:54 18,0 °C 18,0 °C 72 % 1016,7 hPa 0,0 mm 3,2 km/h (1 Bft) NO 45 ° 0 min 0,000 mm 1,3 UV-I 169 W/m² 12,9 °C 18,0 °C 8,0 km/h (2 Bft)
13.07.2017 17:55 18,1 °C 18,1 °C 70 % 1016,7 hPa 0,0 mm 4,8 km/h (1 Bft) O 90 ° 0 min 0,000 mm 1,3 UV-I 163 W/m² 12,5 °C 18,1 °C 9,7 km/h (2 Bft)
13.07.2017 17:56 18,1 °C 18,1 °C 71 % 1016,7 hPa 0,0 mm 1,6 km/h (1 Bft) O 90 ° 0 min 0,000 mm 1,3 UV-I 156 W/m² 12,8 °C 18,1 °C 3,2 km/h (1 Bft)
13.07.2017 17:57 18,1 °C 18,1 °C 69 % 1016,7 hPa 0,0 mm 3,2 km/h (1 Bft) NO 45 ° 0 min 0,000 mm 1,2 UV-I 155 W/m² 12,3 °C 18,1 °C 4,8 km/h (1 Bft)
13.07.2017 17:58 18,2 °C 18,2 °C 71 % 1016,7 hPa 0,0 mm 1,6 km/h (1 Bft) NO 45 ° 0 min 0,000 mm 1,2 UV-I 158 W/m² 12,9 °C 18,2 °C 4,8 km/h (1 Bft)
13.07.2017 18:00 18,2 °C 18,2 °C 70 % 1016,7 hPa 0,0 mm 0,0 km/h (0 Bft) NO 36 ° 0 min 0,000 mm 1,2 UV-I 158 W/m² 12,6 °C 18,2 °C 0,0 km/h (0 Bft)
13.07.2017 18:01 18,2 °C 18,2 °C 74 % 1016,7 hPa 0,0 mm 0,0 km/h (0 Bft) NO 36 ° 0 min 0,127 mm 1,2 UV-I 160 W/m² 13,5 °C 18,2 °C 0,0 km/h (0 Bft)
13.07.2017 18:02 18,1 °C 18,2 °C 72 % 1016,7 hPa 0,0 mm 0,2 km/h (0 Bft) NO 36 ° 0 min 0,000 mm 1,2 UV-I 165 W/m² 13,0 °C 18,1 °C 1,6 km/h (1 Bft)
13.07.2017 18:03 18,0 °C 18,1 °C 70 % 1016,7 hPa 0,0 mm 0,6 km/h (0 Bft) NO 36 ° 0 min 0,000 mm 1,2 UV-I 174 W/m² 12,4 °C 18,0 °C 1,6 km/h (1 Bft)
13.07.2017 18:04 18,0 °C 18,1 °C 70 % 1016,7 hPa 0,0 mm 2,0 km/h (1 Bft) NO 36 ° 0 min 0,000 mm 1,3 UV-I 193 W/m² 12,4 °C 18,0 °C 3,2 km/h (1 Bft)
13.07.2017 18:05 17,9 °C 18,1 °C 74 % 1016,7 hPa 0,0 mm 3,4 km/h (1 Bft) O 90 ° 0 min 0,000 mm 1,4 UV-I 211 W/m² 13,2 °C 17,9 °C 6,4 km/h (2 Bft)
13.07.2017 18:06 18,1 °C 18,1 °C 75 % 1016,7 hPa 0,0 mm 2,7 km/h (1 Bft) O-NO 63 ° 0 min 0,000 mm 1,5 UV-I 218 W/m² 13,6 °C 18,1 °C 6,4 km/h (2 Bft)
13.07.2017 18:07 18,1 °C 18,1 °C 70 % 1016,7 hPa 0,0 mm 4,1 km/h (1 Bft) NO 55 ° 0 min 0,000 mm 1,5 UV-I 213 W/m² 12,5 °C 18,1 °C 6,4 km/h (2 Bft)
13.07.2017 18:08 18,2 °C 18,2 °C 70 % 1016,6 hPa 0,0 mm 4,6 km/h (1 Bft) NO 38 ° 0 min 0,000 mm 1,5 UV-I 209 W/m² 12,6 °C 18,2 °C 8,0 km/h (2 Bft)
13.07.2017 18:09 18,3 °C 18,3 °C 69 % 1016,7 hPa 0,0 mm 2,1 km/h (1 Bft) NO 38 ° 0 min 0,000 mm 1,5 UV-I 213 W/m² 12,5 °C 18,3 °C 4,8 km/h (1 Bft)
13.07.2017 18:10 18,3 °C 18,3 °C 68 % 1016,6 hPa 0,0 mm 5,1 km/h (1 Bft) NO 56 ° 0 min 0,000 mm 1,5 UV-I 218 W/m² 12,3 °C 18,3 °C 8,0 km/h (2 Bft)
13.07.2017 18:11 18,4 °C 18,4 °C 69 % 1016,6 hPa 0,0 mm 3,2 km/h (1 Bft) O-NO 61 ° 0 min 0,000 mm 1,6 UV-I 221 W/m² 12,6 °C 18,4 °C 4,8 km/h (1 Bft)
13.07.2017 18:12 18,4 °C 18,4 °C 67 % 1016,6 hPa 0,0 mm 2,2 km/h (1 Bft) O-NO 61 ° 0 min 0,000 mm 1,6 UV-I 214 W/m² 12,2 °C 18,4 °C 4,8 km/h (1 Bft)
13.07.2017 18:13 18,4 °C 18,4 °C 67 % 1016,6 hPa 0,0 mm 2,2 km/h (1 Bft) O-NO 60 ° 0 min 0,000 mm 1,6 UV-I 206 W/m² 12,2 °C 18,4 °C 3,2 km/h (1 Bft)
13.07.2017 18:14 18,5 °C 18,5 °C 71 % 1016,5 hPa 0,0 mm 2,7 km/h (1 Bft) O-NO 60 ° 0 min 0,000 mm 1,6 UV-I 185 W/m² 13,1 °C 18,5 °C 3,2 km/h (1 Bft)
13.07.2017 18:15 18,5 °C 18,5 °C 70 % 1016,5 hPa 0,0 mm 4,5 km/h (1 Bft) O-NO 78 ° 0 min 0,000 mm 1,5 UV-I 172 W/m² 12,9 °C 18,5 °C 11,3 km/h (2 Bft)
13.07.2017 18:16 18,5 °C 18,5 °C 68 % 1016,5 hPa 0,0 mm 6,1 km/h (2 Bft) O-NO 58 ° 0 min 0,000 mm 1,5 UV-I 174 W/m² 12,5 °C 18,5 °C 8,0 km/h (2 Bft)
13.07.2017 18:17 18,4 °C 18,5 °C 68 % 1016,5 hPa 0,0 mm 4,8 km/h (1 Bft) O-NO 60 ° 0 min 0,000 mm 1,5 UV-I 171 W/m² 12,4 °C 18,4 °C 6,4 km/h (2 Bft)
13.07.2017 18:18 18,5 °C 18,5 °C 69 % 1016,5 hPa 0,0 mm 4,8 km/h (1 Bft) O-NO 64 ° 0 min 0,000 mm 1,5 UV-I 171 W/m² 12,7 °C 18,5 °C 8,0 km/h (2 Bft)
13.07.2017 18:19 18,5 °C 18,5 °C 67 % 1016,5 hPa 0,0 mm 3,8 km/h (1 Bft) O-NO 69 ° 0 min 0,000 mm 1,5 UV-I 171 W/m² 12,3 °C 18,5 °C 6,4 km/h (2 Bft)
13.07.2017 18:20 18,4 °C 18,5 °C 66 % 1016,5 hPa 0,0 mm 1,9 km/h (1 Bft) O-NO 61 ° 0 min 0,000 mm 1,5 UV-I 155 W/m² 11,9 °C 18,4 °C 4,8 km/h (1 Bft)
13.07.2017 18:21 18,4 °C 18,4 °C 68 % 1016,5 hPa 0,0 mm 3,4 km/h (1 Bft) O-NO 64 ° 0 min 0,000 mm 1,5 UV-I 144 W/m² 12,4 °C 18,4 °C 4,8 km/h (1 Bft)
13.07.2017 18:22 18,4 °C 18,4 °C 67 % 1016,5 hPa 0,0 mm 0,5 km/h (0 Bft) O-NO 64 ° 0 min 0,000 mm 1,4 UV-I 134 W/m² 12,2 °C 18,4 °C 1,6 km/h (1 Bft)
13.07.2017 18:23 18,4 °C 18,4 °C 67 % 1016,5 hPa 0,0 mm 2,2 km/h (1 Bft) O-NO 64 ° 0 min 0,000 mm 1,4 UV-I 118 W/m² 12,2 °C 18,4 °C 4,8 km/h (1 Bft)
13.07.2017 18:24 18,4 °C 18,4 °C 67 % 1016,5 hPa 0,0 mm 2,5 km/h (1 Bft) N 9 ° 0 min 0,000 mm 1,4 UV-I 118 W/m² 12,2 °C 18,4 °C 4,8 km/h (1 Bft)
13.07.2017 18:25 18,4 °C 18,4 °C 69 % 1016,6 hPa 0,0 mm 3,8 km/h (1 Bft) NO 52 ° 0 min 0,000 mm 1,3 UV-I 102 W/m² 12,6 °C 18,4 °C 4,8 km/h (1 Bft)
13.07.2017 18:26 18,5 °C 18,5 °C 70 % 1016,5 hPa 0,0 mm 2,8 km/h (1 Bft) O-NO 57 ° 0 min 0,000 mm 1,3 UV-I 100 W/m² 12,9 °C 18,5 °C 4,8 km/h (1 Bft)
13.07.2017 18:27 18,5 °C 18,5 °C 70 % 1016,5 hPa 0,0 mm 1,6 km/h (1 Bft) O-NO 57 ° 0 min 0,000 mm 1,3 UV-I 90 W/m² 12,9 °C 18,5 °C 3,2 km/h (1 Bft)
13.07.2017 18:28 18,4 °C 18,5 °C 70 % 1016,5 hPa 0,0 mm 2,3 km/h (1 Bft) NO 38 ° 0 min 0,000 mm 1,2 UV-I 83 W/m² 12,8 °C 18,4 °C 4,8 km/h (1 Bft)
13.07.2017 18:29 18,3 °C 18,4 °C 69 % 1016,5 hPa 0,0 mm 1,7 km/h (1 Bft) NO 38 ° 0 min 0,000 mm 1,2 UV-I 79 W/m² 12,5 °C 18,3 °C 3,2 km/h (1 Bft)
13.07.2017 18:30 18,3 °C 18,3 °C 70 % 1016,5 hPa 0,0 mm 0,4 km/h (0 Bft) NO 38 ° 0 min 0,000 mm 1,2 UV-I 77 W/m² 12,7 °C 18,3 °C 1,6 km/h (1 Bft)
13.07.2017 18:31 18,2 °C 18,3 °C 69 % 1016,5 hPa 0,0 mm 2,0 km/h (1 Bft) O-SO 122 ° 0 min 0,000 mm 1,1 UV-I 76 W/m² 12,4 °C 18,2 °C 4,8 km/h (1 Bft)
13.07.2017 18:32 18,1 °C 18,2 °C 68 % 1016,5 hPa 0,0 mm 1,6 km/h (1 Bft) O-SO 122 ° 0 min 0,000 mm 1,1 UV-I 79 W/m² 12,1 °C 18,1 °C 3,2 km/h (1 Bft)
13.07.2017 18:33 18,0 °C 18,1 °C 72 % 1016,5 hPa 0,0 mm 1,2 km/h (1 Bft) O-SO 122 ° 0 min 0,000 mm 1,1 UV-I 81 W/m² 12,9 °C 18,0 °C 3,2 km/h (1 Bft)
13.07.2017 18:34 17,8 °C 18,0 °C 72 % 1016,5 hPa 0,0 mm 2,1 km/h (1 Bft) O-SO 122 ° 0 min 0,000 mm 1,1 UV-I 84 W/m² 12,7 °C 17,8 °C 3,2 km/h (1 Bft)
13.07.2017 18:35 17,8 °C 17,8 °C 71 % 1016,5 hPa 0,0 mm 0,4 km/h (0 Bft) O-SO 122 ° 0 min 0,000 mm 1,0 UV-I 88 W/m² 12,5 °C 17,8 °C 3,2 km/h (1 Bft)
13.07.2017 18:36 17,7 °C 17,8 °C 71 % 1016,5 hPa 0,0 mm 0,7 km/h (0 Bft) O-SO 122 ° 0 min 0,000 mm 1,0 UV-I 93 W/m² 12,4 °C 17,7 °C 1,6 km/h (1 Bft)
13.07.2017 18:37 17,7 °C 17,7 °C 71 % 1016,5 hPa 0,0 mm 0,7 km/h (0 Bft) O-SO 122 ° 0 min 0,000 mm 1,0 UV-I 97 W/m² 12,4 °C 17,7 °C 1,6 km/h (1 Bft)
13.07.2017 18:38 17,7 °C 17,7 °C 72 % 1016,5 hPa 0,0 mm 0,1 km/h (0 Bft) O-SO 122 ° 0 min 0,000 mm 1,0 UV-I 104 W/m² 12,6 °C 17,7 °C 1,6 km/h (1 Bft)
13.07.2017 18:39 17,7 °C 17,7 °C 69 % 1016,6 hPa 0,0 mm 0,0 km/h (0 Bft) O-SO 122 ° 0 min 0,000 mm 1,0 UV-I 107 W/m² 11,9 °C 17,7 °C 0,0 km/h (0 Bft)
13.07.2017 18:40 17,7 °C 17,7 °C 69 % 1016,5 hPa 0,0 mm 0,3 km/h (0 Bft) O-SO 122 ° 0 min 0,000 mm 0,9 UV-I 113 W/m² 11,9 °C 17,7 °C 1,6 km/h (1 Bft)
13.07.2017 18:41 17,6 °C 17,7 °C 76 % 1016,5 hPa 0,0 mm 0,4 km/h (0 Bft) O-SO 122 ° 0 min 0,000 mm 0,9 UV-I 120 W/m² 13,3 °C 17,6 °C 1,6 km/h (1 Bft)
13.07.2017 18:42 17,4 °C 17,6 °C 74 % 1016,5 hPa 0,0 mm 0,2 km/h (0 Bft) O-SO 122 ° 0 min 0,000 mm 0,9 UV-I 125 W/m² 12,7 °C 17,4 °C 1,6 km/h (1 Bft)
13.07.2017 18:43 17,3 °C 17,4 °C 75 % 1016,5 hPa 0,0 mm 0,0 km/h (0 Bft) O-SO 122 ° 0 min 0,000 mm 0,9 UV-I 121 W/m² 12,8 °C 17,3 °C 0,0 km/h (0 Bft)
13.07.2017 18:44 17,4 °C 17,4 °C 74 % 1016,5 hPa 0,0 mm 0,1 km/h (0 Bft) O-SO 122 ° 0 min 0,000 mm 0,9 UV-I 118 W/m² 12,7 °C 17,4 °C 1,6 km/h (1 Bft)
13.07.2017 18:45 17,4 °C 17,4 °C 77 % 1016,5 hPa 0,0 mm 1,5 km/h (1 Bft) O-SO 122 ° 0 min 0,000 mm 0,9 UV-I 116 W/m² 13,3 °C 17,4 °C 3,2 km/h (1 Bft)
13.07.2017 18:46 17,4 °C 17,4 °C 77 % 1016,5 hPa 0,0 mm 0,0 km/h (0 Bft) O-SO 122 ° 0 min 0,000 mm 0,8 UV-I 111 W/m² 13,3 °C 17,4 °C 0,0 km/h (0 Bft)
13.07.2017 18:47 17,4 °C 17,4 °C 77 % 1016,5 hPa 0,0 mm 1,5 km/h (1 Bft) O-NO 63 ° 0 min 0,000 mm 0,8 UV-I 107 W/m² 13,3 °C 17,4 °C 4,8 km/h (1 Bft)
13.07.2017 18:48 17,5 °C 17,5 °C 75 % 1016,5 hPa 0,0 mm 0,1 km/h (0 Bft) O-NO 63 ° 0 min 0,000 mm 0,8 UV-I 100 W/m² 13,0 °C 17,5 °C 1,6 km/h (1 Bft)
13.07.2017 18:49 17,5 °C 17,5 °C 74 % 1016,5 hPa 0,0 mm 0,0 km/h (0 Bft) O-NO 63 ° 0 min 0,000 mm 0,8 UV-I 97 W/m² 12,8 °C 17,5 °C 0,0 km/h (0 Bft)
13.07.2017 18:50 17,6 °C 17,6 °C 75 % 1016,5 hPa 0,0 mm 0,0 km/h (0 Bft) O-NO 63 ° 0 min 0,000 mm 0,8 UV-I 97 W/m² 13,1 °C 17,6 °C 0,0 km/h (0 Bft)
13.07.2017 18:51 17,6 °C 17,6 °C 76 % 1016,5 hPa 0,0 mm 1,5 km/h (1 Bft) O-NO 63 ° 0 min 0,000 mm 0,8 UV-I 95 W/m² 13,3 °C 17,6 °C 3,2 km/h (1 Bft)
13.07.2017 18:52 17,6 °C 17,6 °C 74 % 1016,5 hPa 0,0 mm 0,0 km/h (0 Bft) O-NO 63 ° 0 min 0,000 mm 0,8 UV-I 97 W/m² 12,9 °C 17,6 °C 0,0 km/h (0 Bft)
13.07.2017 18:53 17,6 °C 17,6 °C 76 % 1016,5 hPa 0,0 mm 0,5 km/h (0 Bft) O-NO 63 ° 0 min 0,000 mm 0,8 UV-I 98 W/m² 13,3 °C 17,6 °C 3,2 km/h (1 Bft)
13.07.2017 18:54 17,6 °C 17,6 °C 73 % 1016,5 hPa 0,0 mm 4,1 km/h (1 Bft) O-NO 71 ° 0 min 0,000 mm 0,8 UV-I 100 W/m² 12,7 °C 17,6 °C 4,8 km/h (1 Bft)
13.07.2017 18:55 17,6 °C 17,6 °C 72 % 1016,5 hPa 0,0 mm 2,6 km/h (1 Bft) O-NO 71 ° 0 min 0,000 mm 0,8 UV-I 102 W/m² 12,5 °C 17,6 °C 4,8 km/h (1 Bft)
13.07.2017 18:56 17,6 °C 17,6 °C 73 % 1016,5 hPa 0,0 mm 1,4 km/h (1 Bft) O-NO 71 ° 0 min 0,000 mm 0,7 UV-I 104 W/m² 12,7 °C 17,6 °C 3,2 km/h (1 Bft)
13.07.2017 18:57 17,7 °C 17,7 °C 73 % 1016,5 hPa 0,0 mm 0,3 km/h (0 Bft) O-NO 71 ° 0 min 0,000 mm 0,7 UV-I 105 W/m² 12,8 °C 17,7 °C 1,6 km/h (1 Bft)
13.07.2017 18:58 17,7 °C 17,7 °C 74 % 1016,5 hPa 0,0 mm 0,0 km/h (0 Bft) O-NO 71 ° 0 min 0,000 mm 0,7 UV-I 111 W/m² 13,0 °C 17,7 °C 0,0 km/h (0 Bft)
13.07.2017 18:59 17,6 °C 17,7 °C 76 % 1016,5 hPa 0,0 mm 1,1 km/h (1 Bft) O-NO 71 ° 0 min 0,000 mm 0,7 UV-I 113 W/m² 13,3 °C 17,6 °C 1,6 km/h (1 Bft)
13.07.2017 19:00 17,6 °C 17,6 °C 73 % 1016,5 hPa 0,0 mm 0,2 km/h (0 Bft) O-NO 71 ° 0 min 0,076 mm 0,7 UV-I 114 W/m² 12,7 °C 17,6 °C 1,6 km/h (1 Bft)
13.07.2017 19:01 17,7 °C 17,7 °C 73 % 1016,5 hPa 0,0 mm 0,7 km/h (0 Bft) O-NO 71 ° 0 min 0,000 mm 0,7 UV-I 113 W/m² 12,8 °C 17,7 °C 1,6 km/h (1 Bft)
13.07.2017 19:02 17,7 °C 17,7 °C 75 % 1016,5 hPa 0,0 mm 0,9 km/h (0 Bft) O-NO 71 ° 0 min 0,000 mm 0,7 UV-I 113 W/m² 13,2 °C 17,7 °C 1,6 km/h (1 Bft)
13.07.2017 19:03 17,7 °C 17,7 °C 76 % 1016,5 hPa 0,0 mm 0,1 km/h (0 Bft) O-NO 71 ° 0 min 0,000 mm 0,7 UV-I 134 W/m² 13,4 °C 17,7 °C 1,6 km/h (1 Bft)
13.07.2017 19:04 17,7 °C 17,7 °C 75 % 1016,5 hPa 0,0 mm 0,3 km/h (0 Bft) O-NO 71 ° 0 min 0,000 mm 0,7 UV-I 116 W/m² 13,2 °C 17,7 °C 1,6 km/h (1 Bft)
13.07.2017 19:05 17,7 °C 17,7 °C 73 % 1016,5 hPa 0,0 mm 0,0 km/h (0 Bft) O-NO 71 ° 0 min 0,000 mm 0,7 UV-I 116 W/m² 12,8 °C 17,7 °C 0,0 km/h (0 Bft)
13.07.2017 19:06 17,7 °C 17,7 °C 72 % 1016,5 hPa 0,0 mm 0,0 km/h (0 Bft) O-NO 71 ° 0 min 0,000 mm 0,7 UV-I 114 W/m² 12,6 °C 17,7 °C 0,0 km/h (0 Bft)
13.07.2017 19:07 17,7 °C 17,7 °C 72 % 1016,5 hPa 0,0 mm 0,0 km/h (0 Bft) O-NO 71 ° 0 min 0,000 mm 0,7 UV-I 114 W/m² 12,6 °C 17,7 °C 0,0 km/h (0 Bft)
13.07.2017 19:08 17,7 °C 17,8 °C 74 % 1016,5 hPa 0,0 mm 0,0 km/h (0 Bft) O-NO 71 ° 0 min 0,000 mm 0,7 UV-I 113 W/m² 13,0 °C 17,7 °C 0,0 km/h (0 Bft)
13.07.2017 19:09 17,8 °C 17,8 °C 74 % 1016,5 hPa 0,0 mm 1,4 km/h (1 Bft) O-NO 71 ° 0 min 0,000 mm 0,7 UV-I 111 W/m² 13,1 °C 17,8 °C 3,2 km/h (1 Bft)
13.07.2017 19:10 17,8 °C 17,8 °C 74 % 1016,5 hPa 0,0 mm 0,0 km/h (0 Bft) O-NO 71 ° 0 min 0,000 mm 0,7 UV-I 109 W/m² 13,1 °C 17,8 °C 0,0 km/h (0 Bft)
13.07.2017 19:11 17,8 °C 17,8 °C 74 % 1016,5 hPa 0,0 mm 0,0 km/h (0 Bft) O-NO 71 ° 0 min 0,000 mm 0,7 UV-I 111 W/m² 13,1 °C 17,8 °C 0,0 km/h (0 Bft)
13.07.2017 19:12 17,8 °C 17,8 °C 75 % 1016,4 hPa 0,0 mm 0,0 km/h (0 Bft) O-NO 71 ° 0 min 0,000 mm 0,7 UV-I 116 W/m² 13,3 °C 17,8 °C 0,0 km/h (0 Bft)
13.07.2017 19:14 17,8 °C 17,8 °C 75 % 1016,4 hPa 0,0 mm 0,0 km/h (0 Bft) O-NO 71 ° 0 min 0,000 mm 0,7 UV-I 114 W/m² 13,3 °C 17,8 °C 0,0 km/h (0 Bft)
13.07.2017 19:15 17,8 °C 17,8 °C 77 % 1016,4 hPa 0,0 mm 0,0 km/h (0 Bft) O-NO 71 ° 0 min 0,000 mm 0,7 UV-I 111 W/m² 13,7 °C 17,8 °C 0,0 km/h (0 Bft)
13.07.2017 19:16 17,7 °C 17,8 °C 77 % 1016,4 hPa 0,0 mm 0,0 km/h (0 Bft) O-NO 71 ° 0 min 0,000 mm 0,7 UV-I 111 W/m² 13,6 °C 17,7 °C 0,0 km/h (0 Bft)
13.07.2017 19:17 17,8 °C 17,8 °C 78 % 1016,4 hPa 0,0 mm 0,0 km/h (0 Bft) O-NO 71 ° 0 min 0,000 mm 0,7 UV-I 107 W/m² 13,9 °C 17,8 °C 0,0 km/h (0 Bft)
13.07.2017 19:18 17,7 °C 17,8 °C 79 % 1016,4 hPa 0,0 mm 0,0 km/h (0 Bft) O-NO 71 ° 0 min 0,000 mm 0,7 UV-I 102 W/m² 14,0 °C 17,7 °C 0,0 km/h (0 Bft)
13.07.2017 19:19 17,7 °C 17,8 °C 79 % 1016,4 hPa 0,0 mm 0,0 km/h (0 Bft) O-NO 71 ° 0 min 0,000 mm 0,7 UV-I 100 W/m² 14,0 °C 17,7 °C 0,0 km/h (0 Bft)
13.07.2017 19:20 17,7 °C 17,7 °C 78 % 1016,4 hPa 0,0 mm 0,0 km/h (0 Bft) O-NO 71 ° 0 min 0,000 mm 0,7 UV-I 185 W/m² 13,8 °C 17,7 °C 0,0 km/h (0 Bft)
13.07.2017 19:21 17,6 °C 17,7 °C 78 % 1016,4 hPa 0,0 mm 0,0 km/h (0 Bft) O-NO 71 ° 0 min 0,000 mm 0,7 UV-I 200 W/m² 13,7 °C 17,6 °C 0,0 km/h (0 Bft)
13.07.2017 19:22 17,6 °C 17,6 °C 76 % 1016,4 hPa 0,0 mm 0,0 km/h (0 Bft) O-NO 71 ° 0 min 0,000 mm 0,6 UV-I 139 W/m² 13,3 °C 17,6 °C 0,0 km/h (0 Bft)
13.07.2017 19:24 17,7 °C 17,7 °C 75 % 1016,3 hPa 0,0 mm 0,1 km/h (0 Bft) O-NO 71 ° 0 min 0,000 mm 0,7 UV-I 95 W/m² 13,2 °C 17,7 °C 1,6 km/h (1 Bft)
13.07.2017 19:25 17,7 °C 17,7 °C 76 % 1016,3 hPa 0,0 mm 0,5 km/h (0 Bft) O-NO 71 ° 0 min 0,000 mm 0,7 UV-I 91 W/m² 13,4 °C 17,7 °C 1,6 km/h (1 Bft)
13.07.2017 19:26 17,7 °C 17,7 °C 75 % 1016,3 hPa 0,0 mm 0,0 km/h (0 Bft) O-NO 71 ° 0 min 0,000 mm 0,7 UV-I 88 W/m² 13,2 °C 17,7 °C 0,0 km/h (0 Bft)
13.07.2017 19:27 17,7 °C 17,8 °C 77 % 1016,3 hPa 0,0 mm 0,0 km/h (0 Bft) O-NO 71 ° 0 min 0,000 mm 0,6 UV-I 83 W/m² 13,6 °C 17,7 °C 0,0 km/h (0 Bft)
13.07.2017 19:29 17,7 °C 17,7 °C 77 % 1016,3 hPa 0,0 mm 0,0 km/h (0 Bft) O-NO 71 ° 0 min 0,000 mm 0,6 UV-I 74 W/m² 13,6 °C 17,7 °C 0,0 km/h (0 Bft)
13.07.2017 19:30 17,7 °C 17,7 °C 80 % 1016,3 hPa 0,0 mm 0,0 km/h (0 Bft) O-NO 71 ° 0 min 0,000 mm 0,6 UV-I 67 W/m² 14,2 °C 17,7 °C 0,0 km/h (0 Bft)
13.07.2017 19:31 17,6 °C 17,7 °C 80 % 1016,3 hPa 0,0 mm 0,4 km/h (0 Bft) O-NO 71 ° 0 min 0,000 mm 0,6 UV-I 62 W/m² 14,1 °C 17,6 °C 3,2 km/h (1 Bft)
13.07.2017 19:32 17,5 °C 17,6 °C 81 % 1016,3 hPa 0,0 mm 0,5 km/h (0 Bft) O-NO 71 ° 0 min 0,000 mm 0,6 UV-I 56 W/m² 14,2 °C 17,5 °C 1,6 km/h (1 Bft)
13.07.2017 19:33 17,4 °C 17,5 °C 79 % 1016,3 hPa 0,0 mm 0,0 km/h (0 Bft) O-NO 71 ° 0 min 0,000 mm 0,0 UV-I 54 W/m² 13,7 °C 17,4 °C 0,0 km/h (0 Bft)
13.07.2017 19:34 17,3 °C 17,4 °C 79 % 1016,4 hPa 0,0 mm 0,0 km/h (0 Bft) O-NO 71 ° 0 min 0,000 mm 0,0 UV-I 54 W/m² 13,6 °C 17,3 °C 0,0 km/h (0 Bft)
13.07.2017 19:35 17,3 °C 17,3 °C 77 % 1016,4 hPa 0,0 mm 0,1 km/h (0 Bft) O-NO 71 ° 0 min 0,000 mm 0,5 UV-I 60 W/m² 13,2 °C 17,3 °C 1,6 km/h (1 Bft)
13.07.2017 19:36 17,3 °C 17,3 °C 77 % 1016,4 hPa 0,0 mm 0,3 km/h (0 Bft) O-NO 71 ° 0 min 0,000 mm 0,5 UV-I 58 W/m² 13,2 °C 17,3 °C 1,6 km/h (1 Bft)
13.07.2017 19:37 17,3 °C 17,3 °C 78 % 1016,4 hPa 0,0 mm 0,0 km/h (0 Bft) O-NO 71 ° 0 min 0,000 mm 0,0 UV-I 54 W/m² 13,4 °C 17,3 °C 0,0 km/h (0 Bft)
13.07.2017 19:38 17,2 °C 17,3 °C 80 % 1016,4 hPa 0,0 mm 0,2 km/h (0 Bft) O-NO 71 ° 0 min 0,000 mm 0,0 UV-I 53 W/m² 13,7 °C 17,2 °C 1,6 km/h (1 Bft)
13.07.2017 19:39 17,2 °C 17,3 °C 78 % 1016,4 hPa 0,0 mm 0,0 km/h (0 Bft) O-NO 71 ° 0 min 0,000 mm 0,0 UV-I 53 W/m² 13,3 °C 17,2 °C 0,0 km/h (0 Bft)
13.07.2017 19:40 17,2 °C 17,2 °C 77 % 1016,4 hPa 0,0 mm 0,0 km/h (0 Bft) O-NO 71 ° 0 min 0,000 mm 0,0 UV-I 51 W/m² 13,1 °C 17,2 °C 0,0 km/h (0 Bft)
13.07.2017 19:41 17,2 °C 17,2 °C 79 % 1016,4 hPa 0,0 mm 0,0 km/h (0 Bft) O-NO 71 ° 0 min 0,000 mm 0,0 UV-I 49 W/m² 13,5 °C 17,2 °C 0,0 km/h (0 Bft)
13.07.2017 19:42 17,1 °C 17,2 °C 78 % 1016,5 hPa 0,0 mm 0,0 km/h (0 Bft) O-NO 71 ° 0 min 0,000 mm 0,0 UV-I 47 W/m² 13,2 °C 17,1 °C 0,0 km/h (0 Bft)
13.07.2017 19:43 17,1 °C 17,1 °C 79 % 1016,5 hPa 0,0 mm 0,0 km/h (0 Bft) O-NO 71 ° 0 min 0,000 mm 0,0 UV-I 49 W/m² 13,4 °C 17,1 °C 0,0 km/h (0 Bft)
13.07.2017 19:44 17,1 °C 17,1 °C 77 % 1016,4 hPa 0,0 mm 0,0 km/h (0 Bft) O-NO 71 ° 0 min 0,000 mm 0,0 UV-I 49 W/m² 13,0 °C 17,1 °C 0,0 km/h (0 Bft)
13.07.2017 19:45 17,1 °C 17,1 °C 77 % 1016,4 hPa 0,0 mm 0,0 km/h (0 Bft) O-NO 71 ° 0 min 0,000 mm 0,0 UV-I 47 W/m² 13,0 °C 17,1 °C 0,0 km/h (0 Bft)
13.07.2017 19:46 17,1 °C 17,1 °C 75 % 1016,5 hPa 0,0 mm 0,0 km/h (0 Bft) O-NO 71 ° 0 min 0,000 mm 0,0 UV-I 47 W/m² 12,6 °C 17,1 °C 0,0 km/h (0 Bft)
13.07.2017 19:47 17,1 °C 17,2 °C 77 % 1016,5 hPa 0,0 mm 0,0 km/h (0 Bft) O-NO 71 ° 0 min 0,000 mm 0,0 UV-I 47 W/m² 13,0 °C 17,1 °C 0,0 km/h (0 Bft)
13.07.2017 19:48 17,1 °C 17,2 °C 79 % 1016,5 hPa 0,0 mm 0,0 km/h (0 Bft) O-NO 71 ° 0 min 0,000 mm 0,0 UV-I 47 W/m² 13,4 °C 17,1 °C 0,0 km/h (0 Bft)
13.07.2017 19:49 17,1 °C 17,1 °C 76 % 1016,5 hPa 0,0 mm 0,0 km/h (0 Bft) O-NO 71 ° 0 min 0,000 mm 0,0 UV-I 46 W/m² 12,8 °C 17,1 °C 0,0 km/h (0 Bft)
13.07.2017 19:50 17,1 °C 17,1 °C 76 % 1016,5 hPa 0,0 mm 0,0 km/h (0 Bft) O-NO 71 ° 0 min 0,000 mm 0,0 UV-I 46 W/m² 12,8 °C 17,1 °C 0,0 km/h (0 Bft)
13.07.2017 19:51 17,1 °C 17,1 °C 78 % 1016,5 hPa 0,0 mm 0,0 km/h (0 Bft) O-NO 71 ° 0 min 0,000 mm 0,0 UV-I 42 W/m² 13,2 °C 17,1 °C 0,0 km/h (0 Bft)
13.07.2017 19:52 17,0 °C 17,1 °C 78 % 1016,6 hPa 0,0 mm 0,0 km/h (0 Bft) O-NO 71 ° 0 min 0,000 mm 0,0 UV-I 40 W/m² 13,1 °C 17,0 °C 0,0 km/h (0 Bft)
13.07.2017 19:53 17,0 °C 17,1 °C 76 % 1016,5 hPa 0,0 mm 0,0 km/h (0 Bft) O-NO 71 ° 0 min 0,000 mm 0,0 UV-I 37 W/m² 12,7 °C 17,0 °C 0,0 km/h (0 Bft)
13.07.2017 19:54 17,0 °C 17,0 °C 77 % 1016,5 hPa 0,0 mm 0,0 km/h (0 Bft) O-NO 71 ° 0 min 0,000 mm 0,0 UV-I 33 W/m² 12,9 °C 17,0 °C 0,0 km/h (0 Bft)
13.07.2017 19:55 17,0 °C 17,0 °C 78 % 1016,5 hPa 0,0 mm 0,0 km/h (0 Bft) O-NO 71 ° 0 min 0,000 mm 0,0 UV-I 32 W/m² 13,1 °C 17,0 °C 0,0 km/h (0 Bft)
13.07.2017 19:56 17,0 °C 17,0 °C 78 % 1016,6 hPa 0,0 mm 0,0 km/h (0 Bft) O-NO 71 ° 0 min 0,000 mm 0,0 UV-I 30 W/m² 13,1 °C 17,0 °C 0,0 km/h (0 Bft)
13.07.2017 19:57 16,9 °C 17,0 °C 79 % 1016,6 hPa 0,0 mm 0,0 km/h (0 Bft) O-NO 71 ° 0 min 0,000 mm 0,0 UV-I 30 W/m² 13,2 °C 16,9 °C 0,0 km/h (0 Bft)
13.07.2017 19:58 16,9 °C 16,9 °C 80 % 1016,6 hPa 0,0 mm 0,0 km/h (0 Bft) O-NO 71 ° 0 min 0,000 mm 0,0 UV-I 28 W/m² 13,4 °C 16,9 °C 0,0 km/h (0 Bft)
13.07.2017 19:59 16,8 °C 16,9 °C 80 % 1016,6 hPa 0,0 mm 0,0 km/h (0 Bft) O-NO 71 ° 0 min 0,000 mm 0,0 UV-I 26 W/m² 13,3 °C 16,8 °C 0,0 km/h (0 Bft)
13.07.2017 20:00 16,8 °C 16,8 °C 78 % 1016,6 hPa 0,0 mm 0,0 km/h (0 Bft) O-NO 71 ° 0 min 0,000 mm 0,0 UV-I 25 W/m² 12,9 °C 16,8 °C 0,0 km/h (0 Bft)
13.07.2017 20:01 16,8 °C 16,8 °C 78 % 1016,6 hPa 0,0 mm 0,0 km/h (0 Bft) O-NO 71 ° 0 min 0,051 mm 0,0 UV-I 25 W/m² 12,9 °C 16,8 °C 0,0 km/h (0 Bft)
13.07.2017 20:02 16,7 °C 16,8 °C 80 % 1016,6 hPa 0,0 mm 0,0 km/h (0 Bft) O-NO 71 ° 0 min 0,000 mm 0,0 UV-I 23 W/m² 13,2 °C 16,7 °C 0,0 km/h (0 Bft)
13.07.2017 20:03 16,7 °C 16,7 °C 82 % 1016,7 hPa 0,0 mm 0,0 km/h (0 Bft) O-NO 71 ° 0 min 0,000 mm 0,0 UV-I 23 W/m² 13,6 °C 16,7 °C 0,0 km/h (0 Bft)
13.07.2017 20:04 16,6 °C 16,7 °C 81 % 1016,6 hPa 0,0 mm 0,0 km/h (0 Bft) O-NO 71 ° 0 min 0,000 mm 0,0 UV-I 23 W/m² 13,3 °C 16,6 °C 0,0 km/h (0 Bft)
13.07.2017 20:05 16,6 °C 16,6 °C 79 % 1016,6 hPa 0,0 mm 0,0 km/h (0 Bft) O-NO 71 ° 0 min 0,000 mm 0,0 UV-I 23 W/m² 12,9 °C 16,6 °C 0,0 km/h (0 Bft)
13.07.2017 20:06 16,6 °C 16,6 °C 80 % 1016,6 hPa 0,0 mm 0,0 km/h (0 Bft) O-NO 71 ° 0 min 0,000 mm 0,0 UV-I 25 W/m² 13,1 °C 16,6 °C 0,0 km/h (0 Bft)
13.07.2017 20:07 16,6 °C 16,6 °C 81 % 1016,7 hPa 0,0 mm 0,0 km/h (0 Bft) O-NO 71 ° 0 min 0,000 mm 0,0 UV-I 25 W/m² 13,3 °C 16,6 °C 0,0 km/h (0 Bft)
13.07.2017 20:08 16,6 °C 16,6 °C 82 % 1016,6 hPa 0,0 mm 0,0 km/h (0 Bft) O-NO 71 ° 0 min 0,000 mm 0,0 UV-I 25 W/m² 13,5 °C 16,6 °C 0,0 km/h (0 Bft)
13.07.2017 20:09 16,5 °C 16,6 °C 81 % 1016,6 hPa 0,0 mm 0,0 km/h (0 Bft) O-NO 71 ° 0 min 0,000 mm 0,0 UV-I 26 W/m² 13,2 °C 16,5 °C 0,0 km/h (0 Bft)
13.07.2017 20:10 16,5 °C 16,6 °C 83 % 1016,6 hPa 0,0 mm 0,0 km/h (0 Bft) O-NO 71 ° 0 min 0,000 mm 0,0 UV-I 26 W/m² 13,6 °C 16,5 °C 0,0 km/h (0 Bft)
13.07.2017 20:11 16,4 °C 16,5 °C 82 % 1016,6 hPa 0,0 mm 0,0 km/h (0 Bft) O-NO 71 ° 0 min 0,000 mm 0,0 UV-I 26 W/m² 13,3 °C 16,4 °C 0,0 km/h (0 Bft)
13.07.2017 20:12 16,4 °C 16,4 °C 81 % 1016,6 hPa 0,0 mm 0,0 km/h (0 Bft) O-NO 71 ° 0 min 0,000 mm 0,0 UV-I 25 W/m² 13,1 °C 16,4 °C 0,0 km/h (0 Bft)
13.07.2017 20:13 16,4 °C 16,4 °C 79 % 1016,6 hPa 0,0 mm 0,0 km/h (0 Bft) O-NO 71 ° 0 min 0,000 mm 0,0 UV-I 25 W/m² 12,7 °C 16,4 °C 0,0 km/h (0 Bft)
13.07.2017 20:14 16,4 °C 16,4 °C 79 % 1016,6 hPa 0,0 mm 0,0 km/h (0 Bft) O-NO 71 ° 0 min 0,000 mm 0,0 UV-I 25 W/m² 12,7 °C 16,4 °C 0,0 km/h (0 Bft)
13.07.2017 20:15 16,4 °C 16,4 °C 78 % 1016,6 hPa 0,0 mm 0,0 km/h (0 Bft) O-NO 71 ° 0 min 0,000 mm 0,0 UV-I 25 W/m² 12,6 °C 16,4 °C 0,0 km/h (0 Bft)
13.07.2017 20:16 16,5 °C 16,5 °C 77 % 1016,6 hPa 0,0 mm 0,0 km/h (0 Bft) O-NO 71 ° 0 min 0,000 mm 0,0 UV-I 26 W/m² 12,5 °C 16,5 °C 0,0 km/h (0 Bft)
13.07.2017 20:17 16,6 °C 16,6 °C 76 % 1016,6 hPa 0,0 mm 0,0 km/h (0 Bft) O-NO 71 ° 0 min 0,000 mm 0,0 UV-I 26 W/m² 12,3 °C 16,6 °C 0,0 km/h (0 Bft)
13.07.2017 20:18 16,6 °C 16,6 °C 77 % 1016,5 hPa 0,0 mm 0,0 km/h (0 Bft) O-NO 71 ° 0 min 0,000 mm 0,0 UV-I 28 W/m² 12,5 °C 16,6 °C 0,0 km/h (0 Bft)
13.07.2017 20:19 16,6 °C 16,6 °C 78 % 1016,5 hPa 0,0 mm 0,0 km/h (0 Bft) O-NO 71 ° 0 min 0,000 mm 0,0 UV-I 32 W/m² 12,7 °C 16,6 °C 0,0 km/h (0 Bft)
13.07.2017 20:20 16,6 °C 16,6 °C 76 % 1016,5 hPa 0,0 mm 0,0 km/h (0 Bft) O-NO 71 ° 0 min 0,000 mm 0,0 UV-I 37 W/m² 12,3 °C 16,6 °C 0,0 km/h (0 Bft)
13.07.2017 20:21 16,6 °C 16,6 °C 78 % 1016,5 hPa 0,0 mm 0,0 km/h (0 Bft) O-NO 71 ° 0 min 0,000 mm 0,0 UV-I 42 W/m² 12,7 °C 16,6 °C 0,0 km/h (0 Bft)
13.07.2017 20:22 16,6 °C 16,7 °C 79 % 1016,5 hPa 0,0 mm 0,0 km/h (0 Bft) O-NO 71 ° 0 min 0,000 mm 0,0 UV-I 42 W/m² 12,9 °C 16,6 °C 0,0 km/h (0 Bft)
13.07.2017 20:23 16,6 °C 16,6 °C 79 % 1016,5 hPa 0,0 mm 0,0 km/h (0 Bft) O-NO 71 ° 0 min 0,000 mm 0,0 UV-I 49 W/m² 12,9 °C 16,6 °C 0,0 km/h (0 Bft)
13.07.2017 20:24 16,6 °C 16,6 °C 78 % 1016,6 hPa 0,0 mm 0,0 km/h (0 Bft) O-NO 71 ° 0 min 0,000 mm 0,0 UV-I 51 W/m² 12,7 °C 16,6 °C 0,0 km/h (0 Bft)
13.07.2017 20:25 16,6 °C 16,6 °C 77 % 1016,5 hPa 0,0 mm 0,0 km/h (0 Bft) O-NO 71 ° 0 min 0,000 mm 0,0 UV-I 56 W/m² 12,5 °C 16,6 °C 0,0 km/h (0 Bft)
13.07.2017 20:26 16,7 °C 16,7 °C 77 % 1016,5 hPa 0,0 mm 0,0 km/h (0 Bft) O-NO 71 ° 0 min 0,000 mm 0,0 UV-I 56 W/m² 12,6 °C 16,7 °C 0,0 km/h (0 Bft)
13.07.2017 20:27 16,7 °C 16,7 °C 76 % 1016,5 hPa 0,0 mm 0,0 km/h (0 Bft) O-NO 71 ° 0 min 0,000 mm 0,0 UV-I 51 W/m² 12,4 °C 16,7 °C 0,0 km/h (0 Bft)
13.07.2017 20:28 16,7 °C 16,7 °C 78 % 1016,5 hPa 0,0 mm 1,4 km/h (1 Bft) O-NO 71 ° 0 min 0,000 mm 0,0 UV-I 42 W/m² 12,8 °C 16,7 °C 3,2 km/h (1 Bft)
13.07.2017 20:29 16,7 °C 16,7 °C 78 % 1016,5 hPa 0,0 mm 1,8 km/h (1 Bft) O-NO 71 ° 0 min 0,000 mm 0,0 UV-I 30 W/m² 12,8 °C 16,7 °C 3,2 km/h (1 Bft)
13.07.2017 20:30 16,6 °C 16,7 °C 76 % 1016,5 hPa 0,0 mm 3,0 km/h (1 Bft) O 93 ° 0 min 0,000 mm 0,0 UV-I 26 W/m² 12,3 °C 16,6 °C 3,2 km/h (1 Bft)
13.07.2017 20:31 16,6 °C 16,6 °C 77 % 1016,5 hPa 0,0 mm 1,3 km/h (1 Bft) O 93 ° 0 min 0,000 mm 0,0 UV-I 25 W/m² 12,5 °C 16,6 °C 3,2 km/h (1 Bft)
13.07.2017 20:32 16,6 °C 16,6 °C 75 % 1016,5 hPa 0,0 mm 2,1 km/h (1 Bft) O 93 ° 0 min 0,000 mm 0,0 UV-I 23 W/m² 12,1 °C 16,6 °C 3,2 km/h (1 Bft)
13.07.2017 20:33 16,6 °C 16,6 °C 76 % 1016,5 hPa 0,0 mm 2,1 km/h (1 Bft) O 93 ° 0 min 0,000 mm 0,0 UV-I 23 W/m² 12,3 °C 16,6 °C 3,2 km/h (1 Bft)
13.07.2017 20:34 16,6 °C 16,6 °C 76 % 1016,6 hPa 0,0 mm 1,6 km/h (1 Bft) O 93 ° 0 min 0,000 mm 0,0 UV-I 23 W/m² 12,3 °C 16,6 °C 3,2 km/h (1 Bft)
13.07.2017 20:35 16,6 °C 16,6 °C 78 % 1016,6 hPa 0,0 mm 1,4 km/h (1 Bft) O 93 ° 0 min 0,000 mm 0,0 UV-I 23 W/m² 12,7 °C 16,6 °C 3,2 km/h (1 Bft)
13.07.2017 20:36 16,4 °C 16,6 °C 79 % 1016,5 hPa 0,0 mm 1,7 km/h (1 Bft) O 93 ° 0 min 0,000 mm 0,0 UV-I 23 W/m² 12,7 °C 16,4 °C 3,2 km/h (1 Bft)
13.07.2017 20:37 16,4 °C 16,4 °C 79 % 1016,6 hPa 0,0 mm 2,0 km/h (1 Bft) O 93 ° 0 min 0,000 mm 0,0 UV-I 21 W/m² 12,7 °C 16,4 °C 3,2 km/h (1 Bft)
13.07.2017 20:38 16,4 °C 16,4 °C 80 % 1016,6 hPa 0,0 mm 1,4 km/h (1 Bft) O 93 ° 0 min 0,000 mm 0,0 UV-I 21 W/m² 12,9 °C 16,4 °C 3,2 km/h (1 Bft)
13.07.2017 20:39 16,3 °C 16,4 °C 81 % 1016,6 hPa 0,0 mm 0,7 km/h (0 Bft) O 93 ° 0 min 0,000 mm 0,0 UV-I 19 W/m² 13,0 °C 16,3 °C 1,6 km/h (1 Bft)
13.07.2017 20:40 16,3 °C 16,3 °C 80 % 1016,5 hPa 0,0 mm 0,0 km/h (0 Bft) O 93 ° 0 min 0,000 mm 0,0 UV-I 18 W/m² 12,8 °C 16,3 °C 0,0 km/h (0 Bft)
13.07.2017 20:41 16,2 °C 16,3 °C 81 % 1016,6 hPa 0,0 mm 0,0 km/h (0 Bft) O 93 ° 0 min 0,000 mm 0,0 UV-I 16 W/m² 12,9 °C 16,2 °C 0,0 km/h (0 Bft)
13.07.2017 20:42 16,1 °C 16,2 °C 82 % 1016,6 hPa 0,0 mm 0,0 km/h (0 Bft) O 93 ° 0 min 0,000 mm 0,0 UV-I 16 W/m² 13,0 °C 16,1 °C 0,0 km/h (0 Bft)
13.07.2017 20:43 16,1 °C 16,1 °C 81 % 1016,6 hPa 0,0 mm 0,0 km/h (0 Bft) O 93 ° 0 min 0,000 mm 0,0 UV-I 16 W/m² 12,8 °C 16,1 °C 0,0 km/h (0 Bft)
13.07.2017 20:44 16,0 °C 16,1 °C 80 % 1016,6 hPa 0,0 mm 0,0 km/h (0 Bft) O 93 ° 0 min 0,000 mm 0,0 UV-I 14 W/m² 12,5 °C 16,0 °C 0,0 km/h (0 Bft)
13.07.2017 20:45 15,9 °C 16,0 °C 80 % 1016,6 hPa 0,0 mm 0,0 km/h (0 Bft) O 93 ° 0 min 0,000 mm 0,0 UV-I 14 W/m² 12,5 °C 15,9 °C 0,0 km/h (0 Bft)
13.07.2017 20:46 15,9 °C 16,0 °C 81 % 1016,5 hPa 0,0 mm 0,0 km/h (0 Bft) O 93 ° 0 min 0,000 mm 0,0 UV-I 14 W/m² 12,6 °C 15,9 °C 0,0 km/h (0 Bft)
13.07.2017 20:47 15,9 °C 15,9 °C 81 % 1016,5 hPa 0,0 mm 0,0 km/h (0 Bft) O 93 ° 0 min 0,000 mm 0,0 UV-I 14 W/m² 12,6 °C 15,9 °C 0,0 km/h (0 Bft)
13.07.2017 20:48 15,8 °C 15,9 °C 81 % 1016,5 hPa 0,0 mm 0,0 km/h (0 Bft) O 93 ° 0 min 0,000 mm 0,0 UV-I 14 W/m² 12,5 °C 15,8 °C 0,0 km/h (0 Bft)
13.07.2017 20:49 15,7 °C 15,8 °C 81 % 1016,5 hPa 0,0 mm 0,0 km/h (0 Bft) O 93 ° 0 min 0,000 mm 0,0 UV-I 14 W/m² 12,4 °C 15,7 °C 0,0 km/h (0 Bft)
13.07.2017 20:50 15,7 °C 15,7 °C 82 % 1016,5 hPa 0,0 mm 0,0 km/h (0 Bft) O 93 ° 0 min 0,000 mm 0,0 UV-I 14 W/m² 12,6 °C 15,7 °C 0,0 km/h (0 Bft)
13.07.2017 20:51 15,6 °C 15,7 °C 82 % 1016,5 hPa 0,0 mm 0,0 km/h (0 Bft) O 93 ° 0 min 0,000 mm 0,0 UV-I 14 W/m² 12,5 °C 15,6 °C 0,0 km/h (0 Bft)
13.07.2017 20:52 15,6 °C 15,7 °C 82 % 1016,5 hPa 0,0 mm 0,0 km/h (0 Bft) O 93 ° 0 min 0,000 mm 0,0 UV-I 14 W/m² 12,5 °C 15,6 °C 0,0 km/h (0 Bft)
13.07.2017 20:53 15,5 °C 15,6 °C 82 % 1016,5 hPa 0,0 mm 0,0 km/h (0 Bft) O 93 ° 0 min 0,000 mm 0,0 UV-I 12 W/m² 12,4 °C 15,5 °C 0,0 km/h (0 Bft)
13.07.2017 20:54 15,4 °C 15,5 °C 83 % 1016,5 hPa 0,0 mm 0,0 km/h (0 Bft) O 93 ° 0 min 0,000 mm 0,0 UV-I 12 W/m² 12,5 °C 15,4 °C 0,0 km/h (0 Bft)
13.07.2017 20:55 15,4 °C 15,4 °C 83 % 1016,5 hPa 0,0 mm 0,0 km/h (0 Bft) O 93 ° 0 min 0,000 mm 0,0 UV-I 11 W/m² 12,5 °C 15,4 °C 0,0 km/h (0 Bft)
13.07.2017 20:56 15,3 °C 15,4 °C 84 % 1016,6 hPa 0,0 mm 0,0 km/h (0 Bft) O 93 ° 0 min 0,000 mm 0,0 UV-I 11 W/m² 12,6 °C 15,3 °C 0,0 km/h (0 Bft)
13.07.2017 20:57 15,2 °C 15,3 °C 84 % 1016,5 hPa 0,0 mm 0,0 km/h (0 Bft) O 93 ° 0 min 0,000 mm 0,0 UV-I 11 W/m² 12,5 °C 15,2 °C 0,0 km/h (0 Bft)
13.07.2017 20:58 15,1 °C 15,2 °C 85 % 1016,6 hPa 0,0 mm 0,0 km/h (0 Bft) O 93 ° 0 min 0,000 mm 0,0 UV-I 9 W/m² 12,6 °C 15,1 °C 0,0 km/h (0 Bft)
13.07.2017 20:59 14,9 °C 15,1 °C 85 % 1016,6 hPa 0,0 mm 0,0 km/h (0 Bft) O 93 ° 0 min 0,000 mm 0,0 UV-I 7 W/m² 12,4 °C 14,9 °C 0,0 km/h (0 Bft)
13.07.2017 21:00 14,8 °C 14,9 °C 85 % 1016,5 hPa 0,0 mm 0,0 km/h (0 Bft) O 93 ° 0 min 0,000 mm 0,0 UV-I 7 W/m² 12,3 °C 14,8 °C 0,0 km/h (0 Bft)
13.07.2017 21:01 14,8 °C 14,8 °C 85 % 1016,5 hPa 0,0 mm 0,0 km/h (0 Bft) O 93 ° 0 min 0,025 mm 0,0 UV-I 7 W/m² 12,3 °C 14,8 °C 0,0 km/h (0 Bft)
13.07.2017 21:02 14,7 °C 14,8 °C 85 % 1016,6 hPa 0,0 mm 0,0 km/h (0 Bft) O 93 ° 0 min 0,000 mm 0,0 UV-I 5 W/m² 12,2 °C 14,7 °C 0,0 km/h (0 Bft)
13.07.2017 21:03 14,7 °C 14,7 °C 85 % 1016,6 hPa 0,0 mm 0,0 km/h (0 Bft) O 93 ° 0 min 0,000 mm 0,0 UV-I 5 W/m² 12,2 °C 14,7 °C 0,0 km/h (0 Bft)
13.07.2017 21:04 14,8 °C 14,8 °C 85 % 1016,6 hPa 0,0 mm 0,6 km/h (0 Bft) O 93 ° 0 min 0,000 mm 0,0 UV-I 5 W/m² 12,3 °C 14,8 °C 1,6 km/h (1 Bft)
13.07.2017 21:05 14,8 °C 14,8 °C 85 % 1016,6 hPa 0,0 mm 0,0 km/h (0 Bft) O 93 ° 0 min 0,000 mm 0,0 UV-I 0 W/m² 12,3 °C 14,8 °C 0,0 km/h (0 Bft)
13.07.2017 21:06 14,8 °C 14,8 °C 85 % 1016,6 hPa 0,0 mm 0,0 km/h (0 Bft) O 93 ° 0 min 0,000 mm 0,0 UV-I 0 W/m² 12,3 °C 14,8 °C 0,0 km/h (0 Bft)
13.07.2017 21:07 14,8 °C 14,8 °C 84 % 1016,6 hPa 0,0 mm 0,0 km/h (0 Bft) O 93 ° 0 min 0,000 mm 0,0 UV-I 0 W/m² 12,1 °C 14,8 °C 0,0 km/h (0 Bft)
13.07.2017 21:08 14,7 °C 14,8 °C 84 % 1016,6 hPa 0,0 mm 0,0 km/h (0 Bft) O 93 ° 0 min 0,000 mm 0,0 UV-I 0 W/m² 12,0 °C 14,7 °C 0,0 km/h (0 Bft)
13.07.2017 21:09 14,7 °C 14,7 °C 85 % 1016,6 hPa 0,0 mm 0,0 km/h (0 Bft) O 93 ° 0 min 0,000 mm 0,0 UV-I 0 W/m² 12,2 °C 14,7 °C 0,0 km/h (0 Bft)
13.07.2017 21:10 14,7 °C 14,7 °C 85 % 1016,7 hPa 0,0 mm 1,4 km/h (1 Bft) O 93 ° 0 min 0,000 mm 0,0 UV-I 0 W/m² 12,2 °C 14,7 °C 3,2 km/h (1 Bft)
13.07.2017 21:11 14,6 °C 14,7 °C 86 % 1016,6 hPa 0,0 mm 2,9 km/h (1 Bft) O 93 ° 0 min 0,000 mm 0,0 UV-I 0 W/m² 12,3 °C 14,6 °C 3,2 km/h (1 Bft)
13.07.2017 21:12 14,6 °C 14,6 °C 86 % 1016,6 hPa 0,0 mm 2,1 km/h (1 Bft) O 93 ° 0 min 0,000 mm 0,0 UV-I 0 W/m² 12,3 °C 14,6 °C 3,2 km/h (1 Bft)
13.07.2017 21:13 14,6 °C 14,6 °C 86 % 1016,7 hPa 0,0 mm 1,2 km/h (1 Bft) O 93 ° 0 min 0,000 mm 0,0 UV-I 0 W/m² 12,3 °C 14,6 °C 3,2 km/h (1 Bft)
13.07.2017 21:14 14,6 °C 14,6 °C 86 % 1016,7 hPa 0,0 mm 1,8 km/h (1 Bft) O 93 ° 0 min 0,000 mm 0,0 UV-I 0 W/m² 12,3 °C 14,6 °C 3,2 km/h (1 Bft)
13.07.2017 21:15 14,7 °C 14,7 °C 86 % 1016,7 hPa 0,0 mm 2,6 km/h (1 Bft) O 93 ° 0 min 0,000 mm 0,0 UV-I 0 W/m² 12,4 °C 14,7 °C 3,2 km/h (1 Bft)
13.07.2017 21:16 14,6 °C 14,7 °C 86 % 1016,7 hPa 0,0 mm 3,4 km/h (1 Bft) O 93 ° 0 min 0,000 mm 0,0 UV-I 0 W/m² 12,3 °C 14,6 °C 4,8 km/h (1 Bft)
13.07.2017 21:17 14,7 °C 14,7 °C 87 % 1016,7 hPa 0,0 mm 3,6 km/h (1 Bft) O 98 ° 0 min 0,000 mm 0,0 UV-I 0 W/m² 12,6 °C 14,7 °C 4,8 km/h (1 Bft)
13.07.2017 21:18 14,6 °C 14,7 °C 87 % 1016,8 hPa 0,0 mm 3,0 km/h (1 Bft) O 98 ° 0 min 0,000 mm 0,0 UV-I 0 W/m² 12,5 °C 14,6 °C 4,8 km/h (1 Bft)
13.07.2017 21:19 14,7 °C 14,7 °C 87 % 1016,8 hPa 0,0 mm 3,8 km/h (1 Bft) O-SO 113 ° 0 min 0,000 mm 0,0 UV-I 0 W/m² 12,6 °C 14,7 °C 4,8 km/h (1 Bft)
13.07.2017 21:20 14,7 °C 14,7 °C 87 % 1016,8 hPa 0,0 mm 3,6 km/h (1 Bft) O-SO 113 ° 0 min 0,000 mm 0,0 UV-I 0 W/m² 12,6 °C 14,7 °C 4,8 km/h (1 Bft)
13.07.2017 21:21 14,7 °C 14,7 °C 87 % 1016,8 hPa 0,0 mm 2,9 km/h (1 Bft) O-SO 113 ° 0 min 0,000 mm 0,0 UV-I 0 W/m² 12,6 °C 14,7 °C 4,8 km/h (1 Bft)
13.07.2017 21:22 14,7 °C 14,7 °C 87 % 1016,8 hPa 0,0 mm 1,1 km/h (1 Bft) O-SO 113 ° 0 min 0,000 mm 0,0 UV-I 0 W/m² 12,6 °C 14,7 °C 3,2 km/h (1 Bft)
13.07.2017 21:23 14,7 °C 14,7 °C 88 % 1016,8 hPa 0,0 mm 0,0 km/h (0 Bft) O-SO 113 ° 0 min 0,000 mm 0,0 UV-I 0 W/m² 12,7 °C 14,7 °C 0,0 km/h (0 Bft)
13.07.2017 21:24 14,7 °C 14,8 °C 87 % 1016,8 hPa 0,0 mm 0,0 km/h (0 Bft) O-SO 113 ° 0 min 0,000 mm 0,0 UV-I 0 W/m² 12,6 °C 14,7 °C 0,0 km/h (0 Bft)
13.07.2017 21:25 14,7 °C 14,8 °C 87 % 1016,8 hPa 0,0 mm 0,0 km/h (0 Bft) O-SO 113 ° 0 min 0,000 mm 0,0 UV-I 0 W/m² 12,6 °C 14,7 °C 0,0 km/h (0 Bft)
13.07.2017 21:26 14,7 °C 14,7 °C 87 % 1016,8 hPa 0,0 mm 0,0 km/h (0 Bft) O-SO 113 ° 0 min 0,000 mm 0,0 UV-I 0 W/m² 12,6 °C 14,7 °C 0,0 km/h (0 Bft)
13.07.2017 21:27 14,7 °C 14,7 °C 88 % 1016,8 hPa 0,0 mm 0,1 km/h (0 Bft) O-SO 113 ° 0 min 0,000 mm 0,0 UV-I 0 W/m² 12,7 °C 14,7 °C 1,6 km/h (1 Bft)
13.07.2017 21:28 14,7 °C 14,7 °C 88 % 1016,8 hPa 0,0 mm 1,8 km/h (1 Bft) O-SO 113 ° 0 min 0,000 mm 0,0 UV-I 0 W/m² 12,7 °C 14,7 °C 3,2 km/h (1 Bft)
13.07.2017 21:29 14,7 °C 14,7 °C 88 % 1016,8 hPa 0,0 mm 1,9 km/h (1 Bft) O-SO 113 ° 0 min 0,000 mm 0,0 UV-I 0 W/m² 12,7 °C 14,7 °C 3,2 km/h (1 Bft)
13.07.2017 21:30 14,7 °C 14,7 °C 88 % 1016,8 hPa 0,0 mm 0,9 km/h (0 Bft) O-SO 113 ° 0 min 0,000 mm 0,0 UV-I 0 W/m² 12,7 °C 14,7 °C 1,6 km/h (1 Bft)
13.07.2017 21:31 14,7 °C 14,7 °C 88 % 1016,8 hPa 0,0 mm 0,0 km/h (0 Bft) O-SO 113 ° 0 min 0,000 mm 0,0 UV-I 0 W/m² 12,7 °C 14,7 °C 0,0 km/h (0 Bft)
13.07.2017 21:32 14,7 °C 14,7 °C 88 % 1016,8 hPa 0,0 mm 0,0 km/h (0 Bft) O-SO 113 ° 0 min 0,000 mm 0,0 UV-I 0 W/m² 12,7 °C 14,7 °C 0,0 km/h (0 Bft)
13.07.2017 21:33 14,7 °C 14,7 °C 88 % 1016,8 hPa 0,0 mm 1,7 km/h (1 Bft) O-SO 113 ° 0 min 0,000 mm 0,0 UV-I 0 W/m² 12,7 °C 14,7 °C 3,2 km/h (1 Bft)
13.07.2017 21:34 14,7 °C 14,7 °C 87 % 1016,8 hPa 0,0 mm 3,9 km/h (1 Bft) SO 130 ° 0 min 0,000 mm 0,0 UV-I 0 W/m² 12,6 °C 14,7 °C 4,8 km/h (1 Bft)
13.07.2017 21:35 14,7 °C 14,7 °C 87 % 1016,8 hPa 0,0 mm 5,1 km/h (1 Bft) S-SO 155 ° 0 min 0,000 mm 0,0 UV-I 0 W/m² 12,6 °C 14,7 °C 6,4 km/h (2 Bft)
13.07.2017 21:36 14,7 °C 14,7 °C 87 % 1016,8 hPa 0,0 mm 6,0 km/h (2 Bft) S-SO 155 ° 0 min 0,000 mm 0,0 UV-I 0 W/m² 12,6 °C 14,7 °C 6,4 km/h (2 Bft)
13.07.2017 21:37 14,8 °C 14,8 °C 86 % 1016,8 hPa 0,0 mm 6,4 km/h (2 Bft) S-SO 156 ° 0 min 0,000 mm 0,0 UV-I 0 W/m² 12,5 °C 14,8 °C 8,0 km/h (2 Bft)
13.07.2017 21:38 14,8 °C 14,8 °C 87 % 1016,8 hPa 0,0 mm 6,9 km/h (2 Bft) S-SO 156 ° 0 min 0,000 mm 0,0 UV-I 0 W/m² 12,7 °C 14,8 °C 8,0 km/h (2 Bft)
13.07.2017 21:39 14,8 °C 14,8 °C 87 % 1016,8 hPa 0,0 mm 6,7 km/h (2 Bft) S-SO 156 ° 0 min 0,000 mm 0,0 UV-I 0 W/m² 12,7 °C 14,8 °C 8,0 km/h (2 Bft)
13.07.2017 21:40 14,8 °C 14,8 °C 87 % 1016,7 hPa 0,0 mm 6,9 km/h (2 Bft) S-SO 156 ° 0 min 0,000 mm 0,0 UV-I 0 W/m² 12,7 °C 14,8 °C 8,0 km/h (2 Bft)
13.07.2017 21:41 14,8 °C 14,8 °C 87 % 1016,8 hPa 0,0 mm 5,6 km/h (1 Bft) S-SO 156 ° 0 min 0,000 mm 0,0 UV-I 0 W/m² 12,7 °C 14,8 °C 8,0 km/h (2 Bft)
13.07.2017 21:42 14,8 °C 14,8 °C 87 % 1016,7 hPa 0,0 mm 4,0 km/h (1 Bft) S-SO 156 ° 0 min 0,000 mm 0,0 UV-I 0 W/m² 12,7 °C 14,8 °C 4,8 km/h (1 Bft)
13.07.2017 21:43 14,8 °C 14,8 °C 87 % 1016,8 hPa 0,0 mm 2,7 km/h (1 Bft) S-SO 156 ° 0 min 0,000 mm 0,0 UV-I 0 W/m² 12,7 °C 14,8 °C 4,8 km/h (1 Bft)
13.07.2017 21:44 14,8 °C 14,8 °C 87 % 1016,8 hPa 0,0 mm 1,1 km/h (1 Bft) S-SO 156 ° 0 min 0,000 mm 0,0 UV-I 0 W/m² 12,7 °C 14,8 °C 3,2 km/h (1 Bft)
13.07.2017 21:45 14,7 °C 14,8 °C 87 % 1016,8 hPa 0,0 mm 0,0 km/h (0 Bft) S-SO 156 ° 0 min 0,000 mm 0,0 UV-I 0 W/m² 12,6 °C 14,7 °C 0,0 km/h (0 Bft)
13.07.2017 21:46 14,7 °C 14,7 °C 86 % 1016,8 hPa 0,0 mm 0,0 km/h (0 Bft) S-SO 156 ° 0 min 0,000 mm 0,0 UV-I 0 W/m² 12,4 °C 14,7 °C 0,0 km/h (0 Bft)
13.07.2017 21:47 14,7 °C 14,7 °C 87 % 1016,8 hPa 0,0 mm 0,0 km/h (0 Bft) S-SO 156 ° 0 min 0,000 mm 0,0 UV-I 0 W/m² 12,6 °C 14,7 °C 0,0 km/h (0 Bft)
13.07.2017 21:48 14,7 °C 14,7 °C 87 % 1016,9 hPa 0,0 mm 0,0 km/h (0 Bft) S-SO 156 ° 0 min 0,000 mm 0,0 UV-I 0 W/m² 12,6 °C 14,7 °C 0,0 km/h (0 Bft)
13.07.2017 21:49 14,7 °C 14,7 °C 88 % 1016,9 hPa 0,0 mm 0,0 km/h (0 Bft) S-SO 156 ° 0 min 0,000 mm 0,0 UV-I 0 W/m² 12,7 °C 14,7 °C 0,0 km/h (0 Bft)
13.07.2017 21:50 14,6 °C 14,7 °C 88 % 1016,8 hPa 0,0 mm 0,0 km/h (0 Bft) S-SO 156 ° 0 min 0,000 mm 0,0 UV-I 0 W/m² 12,6 °C 14,6 °C 0,0 km/h (0 Bft)
13.07.2017 21:51 14,6 °C 14,6 °C 88 % 1016,9 hPa 0,0 mm 0,0 km/h (0 Bft) S-SO 156 ° 0 min 0,000 mm 0,0 UV-I 0 W/m² 12,6 °C 14,6 °C 0,0 km/h (0 Bft)
13.07.2017 21:52 14,4 °C 14,6 °C 88 % 1016,8 hPa 0,0 mm 0,0 km/h (0 Bft) S-SO 156 ° 0 min 0,000 mm 0,0 UV-I 0 W/m² 12,4 °C 14,4 °C 0,0 km/h (0 Bft)
13.07.2017 21:53 14,4 °C 14,4 °C 88 % 1016,8 hPa 0,0 mm 0,0 km/h (0 Bft) S-SO 156 ° 0 min 0,000 mm 0,0 UV-I 0 W/m² 12,4 °C 14,4 °C 0,0 km/h (0 Bft)
13.07.2017 21:54 14,4 °C 14,4 °C 87 % 1016,9 hPa 0,0 mm 0,0 km/h (0 Bft) S-SO 156 ° 0 min 0,000 mm 0,0 UV-I 0 W/m² 12,3 °C 14,4 °C 0,0 km/h (0 Bft)
13.07.2017 21:55 14,4 °C 14,4 °C 87 % 1016,9 hPa 0,0 mm 1,0 km/h (0 Bft) S-SO 156 ° 0 min 0,000 mm 0,0 UV-I 0 W/m² 12,3 °C 14,4 °C 3,2 km/h (1 Bft)
13.07.2017 21:56 14,4 °C 14,4 °C 87 % 1016,9 hPa 0,0 mm 0,1 km/h (0 Bft) S-SO 156 ° 0 min 0,000 mm 0,0 UV-I 0 W/m² 12,3 °C 14,4 °C 1,6 km/h (1 Bft)
13.07.2017 21:57 14,4 °C 14,4 °C 87 % 1016,9 hPa 0,0 mm 0,0 km/h (0 Bft) S-SO 156 ° 0 min 0,000 mm 0,0 UV-I 0 W/m² 12,3 °C 14,4 °C 0,0 km/h (0 Bft)
13.07.2017 21:58 14,3 °C 14,4 °C 88 % 1016,9 hPa 0,0 mm 0,3 km/h (0 Bft) S-SO 156 ° 0 min 0,000 mm 0,0 UV-I 0 W/m² 12,3 °C 14,3 °C 1,6 km/h (1 Bft)
13.07.2017 21:59 14,3 °C 14,3 °C 88 % 1016,9 hPa 0,0 mm 0,4 km/h (0 Bft) S-SO 156 ° 0 min 0,000 mm 0,0 UV-I 0 W/m² 12,3 °C 14,3 °C 1,6 km/h (1 Bft)
13.07.2017 22:00 14,2 °C 14,3 °C 87 % 1016,8 hPa 0,0 mm 0,5 km/h (0 Bft) S-SO 156 ° 0 min 0,000 mm 0,0 UV-I 0 W/m² 12,1 °C 14,2 °C 1,6 km/h (1 Bft)
13.07.2017 22:01 14,2 °C 14,3 °C 87 % 1016,8 hPa 0,0 mm 1,9 km/h (1 Bft) S-SO 156 ° 0 min 0,000 mm 0,0 UV-I 0 W/m² 12,1 °C 14,2 °C 3,2 km/h (1 Bft)
13.07.2017 22:02 14,2 °C 14,3 °C 87 % 1016,8 hPa 0,0 mm 0,1 km/h (0 Bft) S-SO 156 ° 0 min 0,000 mm 0,0 UV-I 0 W/m² 12,1 °C 14,2 °C 1,6 km/h (1 Bft)
13.07.2017 22:03 14,2 °C 14,3 °C 87 % 1016,8 hPa 0,0 mm 0,0 km/h (0 Bft) S-SO 156 ° 0 min 0,000 mm 0,0 UV-I 0 W/m² 12,1 °C 14,2 °C 0,0 km/h (0 Bft)
13.07.2017 22:04 14,2 °C 14,2 °C 87 % 1016,8 hPa 0,0 mm 0,0 km/h (0 Bft) S-SO 156 ° 0 min 0,000 mm 0,0 UV-I 0 W/m² 12,1 °C 14,2 °C 0,0 km/h (0 Bft)
13.07.2017 22:05 14,2 °C 14,2 °C 87 % 1016,8 hPa 0,0 mm 0,0 km/h (0 Bft) S-SO 156 ° 0 min 0,000 mm 0,0 UV-I 0 W/m² 12,1 °C 14,2 °C 0,0 km/h (0 Bft)
13.07.2017 22:06 14,1 °C 14,2 °C 87 % 1016,8 hPa 0,0 mm 0,0 km/h (0 Bft) S-SO 156 ° 0 min 0,000 mm 0,0 UV-I 0 W/m² 12,0 °C 14,1 °C 0,0 km/h (0 Bft)
13.07.2017 22:07 14,1 °C 14,1 °C 87 % 1016,7 hPa 0,0 mm 0,0 km/h (0 Bft) S-SO 156 ° 0 min 0,000 mm 0,0 UV-I 0 W/m² 12,0 °C 14,1 °C 0,0 km/h (0 Bft)
13.07.2017 22:08 14,0 °C 14,1 °C 87 % 1016,8 hPa 0,0 mm 0,0 km/h (0 Bft) S-SO 156 ° 0 min 0,000 mm 0,0 UV-I 0 W/m² 11,9 °C 14,0 °C 0,0 km/h (0 Bft)
13.07.2017 22:09 13,9 °C 14,0 °C 87 % 1016,8 hPa 0,0 mm 0,0 km/h (0 Bft) S-SO 156 ° 0 min 0,000 mm 0,0 UV-I 0 W/m² 11,8 °C 13,9 °C 0,0 km/h (0 Bft)
13.07.2017 22:10 13,9 °C 13,9 °C 87 % 1016,8 hPa 0,0 mm 0,0 km/h (0 Bft) S-SO 156 ° 0 min 0,000 mm 0,0 UV-I 0 W/m² 11,8 °C 13,9 °C 0,0 km/h (0 Bft)
13.07.2017 22:11 13,9 °C 13,9 °C 87 % 1016,8 hPa 0,0 mm 0,0 km/h (0 Bft) S-SO 156 ° 0 min 0,000 mm 0,0 UV-I 0 W/m² 11,8 °C 13,9 °C 0,0 km/h (0 Bft)
13.07.2017 22:12 13,9 °C 13,9 °C 87 % 1016,8 hPa 0,0 mm 0,0 km/h (0 Bft) S-SO 156 ° 0 min 0,000 mm 0,0 UV-I 0 W/m² 11,8 °C 13,9 °C 0,0 km/h (0 Bft)
13.07.2017 22:13 13,9 °C 13,9 °C 88 % 1016,7 hPa 0,0 mm 0,0 km/h (0 Bft) S-SO 156 ° 0 min 0,000 mm 0,0 UV-I 0 W/m² 11,9 °C 13,9 °C 0,0 km/h (0 Bft)
13.07.2017 22:14 13,9 °C 13,9 °C 87 % 1016,7 hPa 0,0 mm 0,0 km/h (0 Bft) S-SO 156 ° 0 min 0,000 mm 0,0 UV-I 0 W/m² 11,8 °C 13,9 °C 0,0 km/h (0 Bft)
13.07.2017 22:15 13,8 °C 13,9 °C 88 % 1016,7 hPa 0,0 mm 0,0 km/h (0 Bft) S-SO 156 ° 0 min 0,000 mm 0,0 UV-I 0 W/m² 11,8 °C 13,8 °C 0,0 km/h (0 Bft)
13.07.2017 22:16 13,9 °C 13,9 °C 88 % 1016,7 hPa 0,0 mm 0,0 km/h (0 Bft) S-SO 156 ° 0 min 0,000 mm 0,0 UV-I 0 W/m² 11,9 °C 13,9 °C 0,0 km/h (0 Bft)
13.07.2017 22:17 13,9 °C 13,9 °C 87 % 1016,7 hPa 0,0 mm 0,0 km/h (0 Bft) S-SO 156 ° 0 min 0,000 mm 0,0 UV-I 0 W/m² 11,8 °C 13,9 °C 0,0 km/h (0 Bft)
13.07.2017 22:18 14,0 °C 14,0 °C 87 % 1016,6 hPa 0,0 mm 0,0 km/h (0 Bft) S-SO 156 ° 0 min 0,000 mm 0,0 UV-I 0 W/m² 11,9 °C 14,0 °C 0,0 km/h (0 Bft)
13.07.2017 22:19 14,0 °C 14,1 °C 87 % 1016,6 hPa 0,0 mm 0,0 km/h (0 Bft) S-SO 156 ° 0 min 0,000 mm 0,0 UV-I 0 W/m² 11,9 °C 14,0 °C 0,0 km/h (0 Bft)
13.07.2017 22:20 14,1 °C 14,1 °C 87 % 1016,7 hPa 0,0 mm 0,0 km/h (0 Bft) S-SO 156 ° 0 min 0,000 mm 0,0 UV-I 0 W/m² 12,0 °C 14,1 °C 0,0 km/h (0 Bft)
13.07.2017 22:21 14,1 °C 14,1 °C 86 % 1016,7 hPa 0,0 mm 0,7 km/h (0 Bft) S-SO 156 ° 0 min 0,000 mm 0,0 UV-I 0 W/m² 11,8 °C 14,1 °C 1,6 km/h (1 Bft)
13.07.2017 22:22 14,1 °C 14,1 °C 86 % 1016,6 hPa 0,0 mm 0,3 km/h (0 Bft) S-SO 156 ° 0 min 0,000 mm 0,0 UV-I 0 W/m² 11,8 °C 14,1 °C 1,6 km/h (1 Bft)
13.07.2017 22:23 14,1 °C 14,1 °C 85 % 1016,7 hPa 0,0 mm 1,0 km/h (0 Bft) S-SO 156 ° 0 min 0,000 mm 0,0 UV-I 0 W/m² 11,6 °C 14,1 °C 3,2 km/h (1 Bft)
13.07.2017 22:24 14,1 °C 14,1 °C 86 % 1016,7 hPa 0,0 mm 0,0 km/h (0 Bft) S-SO 156 ° 0 min 0,000 mm 0,0 UV-I 0 W/m² 11,8 °C 14,1 °C 0,0 km/h (0 Bft)
13.07.2017 22:25 14,1 °C 14,1 °C 85 % 1016,6 hPa 0,0 mm 0,0 km/h (0 Bft) S-SO 156 ° 0 min 0,000 mm 0,0 UV-I 0 W/m² 11,6 °C 14,1 °C 0,0 km/h (0 Bft)
13.07.2017 22:26 14,0 °C 14,1 °C 86 % 1016,6 hPa 0,0 mm 0,0 km/h (0 Bft) S-SO 156 ° 0 min 0,000 mm 0,0 UV-I 0 W/m² 11,7 °C 14,0 °C 0,0 km/h (0 Bft)
13.07.2017 22:27 13,9 °C 14,0 °C 86 % 1016,6 hPa 0,0 mm 0,0 km/h (0 Bft) S-SO 156 ° 0 min 0,000 mm 0,0 UV-I 0 W/m² 11,6 °C 13,9 °C 0,0 km/h (0 Bft)
13.07.2017 22:28 13,8 °C 13,9 °C 86 % 1016,6 hPa 0,0 mm 0,0 km/h (0 Bft) S-SO 156 ° 0 min 0,000 mm 0,0 UV-I 0 W/m² 11,5 °C 13,8 °C 0,0 km/h (0 Bft)
13.07.2017 22:29 13,8 °C 13,8 °C 86 % 1016,7 hPa 0,0 mm 0,0 km/h (0 Bft) S-SO 156 ° 0 min 0,000 mm 0,0 UV-I 0 W/m² 11,5 °C 13,8 °C 0,0 km/h (0 Bft)
13.07.2017 22:30 13,8 °C 13,8 °C 86 % 1016,7 hPa 0,0 mm 0,0 km/h (0 Bft) S-SO 156 ° 0 min 0,000 mm 0,0 UV-I 0 W/m² 11,5 °C 13,8 °C 0,0 km/h (0 Bft)
13.07.2017 22:31 13,9 °C 13,9 °C 86 % 1016,7 hPa 0,0 mm 0,0 km/h (0 Bft) S-SO 156 ° 0 min 0,000 mm 0,0 UV-I 0 W/m² 11,6 °C 13,9 °C 0,0 km/h (0 Bft)
13.07.2017 22:32 13,9 °C 13,9 °C 87 % 1016,7 hPa 0,0 mm 0,0 km/h (0 Bft) S-SO 156 ° 0 min 0,000 mm 0,0 UV-I 0 W/m² 11,8 °C 13,9 °C 0,0 km/h (0 Bft)
13.07.2017 22:33 13,8 °C 13,9 °C 87 % 1016,7 hPa 0,0 mm 0,0 km/h (0 Bft) S-SO 156 ° 0 min 0,000 mm 0,0 UV-I 0 W/m² 11,7 °C 13,8 °C 0,0 km/h (0 Bft)
13.07.2017 22:34 13,8 °C 13,8 °C 87 % 1016,7 hPa 0,0 mm 0,0 km/h (0 Bft) S-SO 156 ° 0 min 0,000 mm 0,0 UV-I 0 W/m² 11,7 °C 13,8 °C 0,0 km/h (0 Bft)
13.07.2017 22:35 13,8 °C 13,8 °C 87 % 1016,7 hPa 0,0 mm 0,0 km/h (0 Bft) S-SO 156 ° 0 min 0,000 mm 0,0 UV-I 0 W/m² 11,7 °C 13,8 °C 0,0 km/h (0 Bft)
13.07.2017 22:36 13,8 °C 13,8 °C 87 % 1016,7 hPa 0,0 mm 0,0 km/h (0 Bft) S-SO 156 ° 0 min 0,000 mm 0,0 UV-I 0 W/m² 11,7 °C 13,8 °C 0,0 km/h (0 Bft)
13.07.2017 22:37 13,7 °C 13,8 °C 87 % 1016,7 hPa 0,0 mm 0,0 km/h (0 Bft) S-SO 156 ° 0 min 0,000 mm 0,0 UV-I 0 W/m² 11,6 °C 13,7 °C 0,0 km/h (0 Bft)
13.07.2017 22:38 13,7 °C 13,8 °C 88 % 1016,7 hPa 0,0 mm 0,0 km/h (0 Bft) S-SO 156 ° 0 min 0,000 mm 0,0 UV-I 0 W/m² 11,7 °C 13,7 °C 0,0 km/h (0 Bft)
13.07.2017 22:39 13,7 °C 13,7 °C 88 % 1016,7 hPa 0,0 mm 0,0 km/h (0 Bft) S-SO 156 ° 0 min 0,000 mm 0,0 UV-I 0 W/m² 11,7 °C 13,7 °C 0,0 km/h (0 Bft)
13.07.2017 22:40 13,7 °C 13,7 °C 88 % 1016,7 hPa 0,0 mm 0,0 km/h (0 Bft) S-SO 156 ° 0 min 0,000 mm 0,0 UV-I 0 W/m² 11,7 °C 13,7 °C 0,0 km/h (0 Bft)
13.07.2017 22:41 13,7 °C 13,7 °C 88 % 1016,7 hPa 0,0 mm 0,0 km/h (0 Bft) S-SO 156 ° 0 min 0,000 mm 0,0 UV-I 0 W/m² 11,7 °C 13,7 °C 0,0 km/h (0 Bft)
13.07.2017 22:42 13,7 °C 13,7 °C 88 % 1016,7 hPa 0,0 mm 0,0 km/h (0 Bft) S-SO 156 ° 0 min 0,000 mm 0,0 UV-I 0 W/m² 11,7 °C 13,7 °C 0,0 km/h (0 Bft)
13.07.2017 22:43 13,7 °C 13,7 °C 88 % 1016,7 hPa 0,0 mm 0,0 km/h (0 Bft) S-SO 156 ° 0 min 0,000 mm 0,0 UV-I 0 W/m² 11,7 °C 13,7 °C 0,0 km/h (0 Bft)
13.07.2017 22:44 13,6 °C 13,7 °C 88 % 1016,7 hPa 0,0 mm 0,0 km/h (0 Bft) S-SO 156 ° 0 min 0,000 mm 0,0 UV-I 0 W/m² 11,6 °C 13,6 °C 0,0 km/h (0 Bft)
13.07.2017 22:45 13,7 °C 13,7 °C 89 % 1016,7 hPa 0,0 mm 0,0 km/h (0 Bft) S-SO 156 ° 0 min 0,000 mm 0,0 UV-I 0 W/m² 11,9 °C 13,7 °C 0,0 km/h (0 Bft)
13.07.2017 22:46 13,7 °C 13,7 °C 89 % 1016,7 hPa 0,0 mm 0,0 km/h (0 Bft) S-SO 156 ° 0 min 0,000 mm 0,0 UV-I 0 W/m² 11,9 °C 13,7 °C 0,0 km/h (0 Bft)
13.07.2017 22:47 13,7 °C 13,7 °C 89 % 1016,7 hPa 0,0 mm 0,0 km/h (0 Bft) S-SO 156 ° 0 min 0,000 mm 0,0 UV-I 0 W/m² 11,9 °C 13,7 °C 0,0 km/h (0 Bft)
13.07.2017 22:48 13,7 °C 13,7 °C 89 % 1016,6 hPa 0,0 mm 0,0 km/h (0 Bft) S-SO 156 ° 0 min 0,000 mm 0,0 UV-I 0 W/m² 11,9 °C 13,7 °C 0,0 km/h (0 Bft)
13.07.2017 22:49 13,8 °C 13,8 °C 89 % 1016,6 hPa 0,0 mm 0,0 km/h (0 Bft) S-SO 156 ° 0 min 0,000 mm 0,0 UV-I 0 W/m² 12,0 °C 13,8 °C 0,0 km/h (0 Bft)
13.07.2017 22:50 13,8 °C 13,8 °C 89 % 1016,5 hPa 0,0 mm 0,0 km/h (0 Bft) S-SO 156 ° 0 min 0,000 mm 0,0 UV-I 0 W/m² 12,0 °C 13,8 °C 0,0 km/h (0 Bft)
13.07.2017 22:51 13,8 °C 13,8 °C 89 % 1016,5 hPa 0,0 mm 0,0 km/h (0 Bft) S-SO 156 ° 0 min 0,000 mm 0,0 UV-I 0 W/m² 12,0 °C 13,8 °C 0,0 km/h (0 Bft)
13.07.2017 22:52 13,8 °C 13,8 °C 89 % 1016,5 hPa 0,0 mm 0,0 km/h (0 Bft) S-SO 156 ° 0 min 0,000 mm 0,0 UV-I 0 W/m² 12,0 °C 13,8 °C 0,0 km/h (0 Bft)
13.07.2017 22:53 13,8 °C 13,8 °C 89 % 1016,4 hPa 0,0 mm 0,0 km/h (0 Bft) S-SO 156 ° 0 min 0,000 mm 0,0 UV-I 0 W/m² 12,0 °C 13,8 °C 0,0 km/h (0 Bft)
13.07.2017 22:54 13,8 °C 13,8 °C 89 % 1016,5 hPa 0,0 mm 0,0 km/h (0 Bft) S-SO 156 ° 0 min 0,000 mm 0,0 UV-I 0 W/m² 12,0 °C 13,8 °C 0,0 km/h (0 Bft)
13.07.2017 22:55 13,8 °C 13,8 °C 89 % 1016,4 hPa 0,0 mm 0,0 km/h (0 Bft) S-SO 156 ° 0 min 0,000 mm 0,0 UV-I 0 W/m² 12,0 °C 13,8 °C 0,0 km/h (0 Bft)
13.07.2017 22:56 13,8 °C 13,8 °C 89 % 1016,5 hPa 0,0 mm 0,0 km/h (0 Bft) S-SO 156 ° 0 min 0,000 mm 0,0 UV-I 0 W/m² 12,0 °C 13,8 °C 0,0 km/h (0 Bft)
13.07.2017 22:57 13,9 °C 13,9 °C 89 % 1016,4 hPa 0,0 mm 0,0 km/h (0 Bft) S-SO 156 ° 0 min 0,000 mm 0,0 UV-I 0 W/m² 12,1 °C 13,9 °C 0,0 km/h (0 Bft)
13.07.2017 22:58 13,9 °C 13,9 °C 89 % 1016,5 hPa 0,0 mm 0,0 km/h (0 Bft) S-SO 156 ° 0 min 0,000 mm 0,0 UV-I 0 W/m² 12,1 °C 13,9 °C 0,0 km/h (0 Bft)
13.07.2017 22:59 13,9 °C 13,9 °C 89 % 1016,5 hPa 0,0 mm 0,0 km/h (0 Bft) S-SO 156 ° 0 min 0,000 mm 0,0 UV-I 0 W/m² 12,1 °C 13,9 °C 0,0 km/h (0 Bft)
13.07.2017 23:00 13,9 °C 13,9 °C 89 % 1016,5 hPa 0,0 mm 0,0 km/h (0 Bft) S-SO 156 ° 0 min 0,000 mm 0,0 UV-I 0 W/m² 12,1 °C 13,9 °C 0,0 km/h (0 Bft)
13.07.2017 23:01 13,9 °C 13,9 °C 89 % 1016,5 hPa 0,0 mm 0,0 km/h (0 Bft) S-SO 156 ° 0 min 0,000 mm 0,0 UV-I 0 W/m² 12,1 °C 13,9 °C 0,0 km/h (0 Bft)
13.07.2017 23:02 13,9 °C 13,9 °C 88 % 1016,5 hPa 0,0 mm 0,0 km/h (0 Bft) S-SO 156 ° 0 min 0,000 mm 0,0 UV-I 0 W/m² 11,9 °C 13,9 °C 0,0 km/h (0 Bft)
13.07.2017 23:03 13,9 °C 13,9 °C 88 % 1016,5 hPa 0,0 mm 0,0 km/h (0 Bft) S-SO 156 ° 0 min 0,000 mm 0,0 UV-I 0 W/m² 11,9 °C 13,9 °C 0,0 km/h (0 Bft)
13.07.2017 23:04 13,8 °C 13,9 °C 88 % 1016,5 hPa 0,0 mm 0,0 km/h (0 Bft) S-SO 156 ° 0 min 0,000 mm 0,0 UV-I 0 W/m² 11,8 °C 13,8 °C 0,0 km/h (0 Bft)
13.07.2017 23:05 13,8 °C 13,8 °C 89 % 1016,5 hPa 0,0 mm 0,0 km/h (0 Bft) S-SO 156 ° 0 min 0,000 mm 0,0 UV-I 0 W/m² 12,0 °C 13,8 °C 0,0 km/h (0 Bft)
13.07.2017 23:06 13,8 °C 13,8 °C 89 % 1016,4 hPa 0,0 mm 0,0 km/h (0 Bft) S-SO 156 ° 0 min 0,000 mm 0,0 UV-I 0 W/m² 12,0 °C 13,8 °C 0,0 km/h (0 Bft)
13.07.2017 23:07 13,7 °C 13,8 °C 89 % 1016,4 hPa 0,0 mm 0,0 km/h (0 Bft) S-SO 156 ° 0 min 0,000 mm 0,0 UV-I 0 W/m² 11,9 °C 13,7 °C 0,0 km/h (0 Bft)
13.07.2017 23:08 13,7 °C 13,7 °C 89 % 1016,4 hPa 0,0 mm 0,0 km/h (0 Bft) S-SO 156 ° 0 min 0,000 mm 0,0 UV-I 0 W/m² 11,9 °C 13,7 °C 0,0 km/h (0 Bft)
13.07.2017 23:09 13,7 °C 13,7 °C 89 % 1016,5 hPa 0,0 mm 0,0 km/h (0 Bft) S-SO 156 ° 0 min 0,000 mm 0,0 UV-I 0 W/m² 11,9 °C 13,7 °C 0,0 km/h (0 Bft)
13.07.2017 23:10 13,6 °C 13,7 °C 89 % 1016,5 hPa 0,0 mm 0,0 km/h (0 Bft) S-SO 156 ° 0 min 0,000 mm 0,0 UV-I 0 W/m² 11,8 °C 13,6 °C 0,0 km/h (0 Bft)
13.07.2017 23:11 13,6 °C 13,6 °C 89 % 1016,5 hPa 0,0 mm 0,0 km/h (0 Bft) S-SO 156 ° 0 min 0,000 mm 0,0 UV-I 0 W/m² 11,8 °C 13,6 °C 0,0 km/h (0 Bft)
13.07.2017 23:12 13,6 °C 13,6 °C 89 % 1016,5 hPa 0,0 mm 0,0 km/h (0 Bft) S-SO 156 ° 0 min 0,000 mm 0,0 UV-I 0 W/m² 11,8 °C 13,6 °C 0,0 km/h (0 Bft)
13.07.2017 23:13 13,6 °C 13,6 °C 90 % 1016,5 hPa 0,0 mm 0,0 km/h (0 Bft) S-SO 156 ° 0 min 0,000 mm 0,0 UV-I 0 W/m² 12,0 °C 13,6 °C 0,0 km/h (0 Bft)
13.07.2017 23:14 13,5 °C 13,6 °C 90 % 1016,5 hPa 0,0 mm 0,0 km/h (0 Bft) S-SO 156 ° 0 min 0,000 mm 0,0 UV-I 0 W/m² 11,9 °C 13,5 °C 0,0 km/h (0 Bft)
13.07.2017 23:15 13,4 °C 13,5 °C 90 % 1016,5 hPa 0,0 mm 0,0 km/h (0 Bft) S-SO 156 ° 0 min 0,000 mm 0,0 UV-I 0 W/m² 11,8 °C 13,4 °C 0,0 km/h (0 Bft)
13.07.2017 23:16 13,4 °C 13,5 °C 90 % 1016,5 hPa 0,0 mm 0,0 km/h (0 Bft) S-SO 156 ° 0 min 0,000 mm 0,0 UV-I 0 W/m² 11,8 °C 13,4 °C 0,0 km/h (0 Bft)
13.07.2017 23:17 13,4 °C 13,4 °C 90 % 1016,5 hPa 0,0 mm 0,0 km/h (0 Bft) S-SO 156 ° 0 min 0,000 mm 0,0 UV-I 0 W/m² 11,8 °C 13,4 °C 0,0 km/h (0 Bft)
13.07.2017 23:18 13,4 °C 13,5 °C 90 % 1016,5 hPa 0,0 mm 0,0 km/h (0 Bft) S-SO 156 ° 0 min 0,000 mm 0,0 UV-I 0 W/m² 11,8 °C 13,4 °C 0,0 km/h (0 Bft)
13.07.2017 23:19 13,5 °C 13,5 °C 90 % 1016,4 hPa 0,0 mm 0,0 km/h (0 Bft) S-SO 156 ° 0 min 0,000 mm 0,0 UV-I 0 W/m² 11,9 °C 13,5 °C 0,0 km/h (0 Bft)
13.07.2017 23:20 13,6 °C 13,6 °C 89 % 1016,4 hPa 0,0 mm 0,0 km/h (0 Bft) S-SO 156 ° 0 min 0,000 mm 0,0 UV-I 0 W/m² 11,8 °C 13,6 °C 0,0 km/h (0 Bft)
13.07.2017 23:21 13,6 °C 13,6 °C 89 % 1016,4 hPa 0,0 mm 0,0 km/h (0 Bft) S-SO 156 ° 0 min 0,000 mm 0,0 UV-I 0 W/m² 11,8 °C 13,6 °C 0,0 km/h (0 Bft)
13.07.2017 23:22 13,6 °C 13,6 °C 89 % 1016,4 hPa 0,0 mm 0,0 km/h (0 Bft) S-SO 156 ° 0 min 0,000 mm 0,0 UV-I 0 W/m² 11,8 °C 13,6 °C 0,0 km/h (0 Bft)
13.07.2017 23:23 13,6 °C 13,6 °C 89 % 1016,4 hPa 0,0 mm 0,0 km/h (0 Bft) S-SO 156 ° 0 min 0,000 mm 0,0 UV-I 0 W/m² 11,8 °C 13,6 °C 0,0 km/h (0 Bft)
13.07.2017 23:24 13,5 °C 13,6 °C 90 % 1016,4 hPa 0,0 mm 0,0 km/h (0 Bft) S-SO 156 ° 0 min 0,000 mm 0,0 UV-I 0 W/m² 11,9 °C 13,5 °C 0,0 km/h (0 Bft)
13.07.2017 23:25 13,5 °C 13,5 °C 90 % 1016,4 hPa 0,0 mm 0,0 km/h (0 Bft) S-SO 156 ° 0 min 0,000 mm 0,0 UV-I 0 W/m² 11,9 °C 13,5 °C 0,0 km/h (0 Bft)
13.07.2017 23:26 13,4 °C 13,5 °C 90 % 1016,4 hPa 0,0 mm 0,0 km/h (0 Bft) S-SO 156 ° 0 min 0,000 mm 0,0 UV-I 0 W/m² 11,8 °C 13,4 °C 0,0 km/h (0 Bft)
13.07.2017 23:27 13,4 °C 13,5 °C 90 % 1016,4 hPa 0,0 mm 0,0 km/h (0 Bft) S-SO 156 ° 0 min 0,000 mm 0,0 UV-I 0 W/m² 11,8 °C 13,4 °C 0,0 km/h (0 Bft)
13.07.2017 23:28 13,4 °C 13,4 °C 90 % 1016,4 hPa 0,0 mm 0,0 km/h (0 Bft) S-SO 156 ° 0 min 0,000 mm 0,0 UV-I 0 W/m² 11,8 °C 13,4 °C 0,0 km/h (0 Bft)
13.07.2017 23:29 13,4 °C 13,4 °C 90 % 1016,4 hPa 0,0 mm 0,0 km/h (0 Bft) S-SO 156 ° 0 min 0,000 mm 0,0 UV-I 0 W/m² 11,8 °C 13,4 °C 0,0 km/h (0 Bft)
13.07.2017 23:30 13,4 °C 13,4 °C 90 % 1016,4 hPa 0,0 mm 0,0 km/h (0 Bft) S-SO 156 ° 0 min 0,000 mm 0,0 UV-I 0 W/m² 11,8 °C 13,4 °C 0,0 km/h (0 Bft)
13.07.2017 23:31 13,4 °C 13,4 °C 90 % 1016,4 hPa 0,0 mm 0,0 km/h (0 Bft) S-SO 156 ° 0 min 0,000 mm 0,0 UV-I 0 W/m² 11,8 °C 13,4 °C 0,0 km/h (0 Bft)
13.07.2017 23:32 13,4 °C 13,4 °C 90 % 1016,4 hPa 0,0 mm 0,0 km/h (0 Bft) S-SO 156 ° 0 min 0,000 mm 0,0 UV-I 0 W/m² 11,8 °C 13,4 °C 0,0 km/h (0 Bft)
13.07.2017 23:33 13,4 °C 13,4 °C 90 % 1016,4 hPa 0,0 mm 0,0 km/h (0 Bft) S-SO 156 ° 0 min 0,000 mm 0,0 UV-I 0 W/m² 11,8 °C 13,4 °C 0,0 km/h (0 Bft)
13.07.2017 23:34 13,4 °C 13,4 °C 91 % 1016,3 hPa 0,0 mm 0,0 km/h (0 Bft) S-SO 156 ° 0 min 0,000 mm 0,0 UV-I 0 W/m² 12,0 °C 13,4 °C 0,0 km/h (0 Bft)
13.07.2017 23:35 13,4 °C 13,4 °C 91 % 1016,3 hPa 0,0 mm 0,0 km/h (0 Bft) S-SO 156 ° 0 min 0,000 mm 0,0 UV-I 0 W/m² 12,0 °C 13,4 °C 0,0 km/h (0 Bft)
13.07.2017 23:36 13,4 °C 13,4 °C 90 % 1016,3 hPa 0,0 mm 0,0 km/h (0 Bft) S-SO 156 ° 0 min 0,000 mm 0,0 UV-I 0 W/m² 11,8 °C 13,4 °C 0,0 km/h (0 Bft)
13.07.2017 23:37 13,4 °C 13,4 °C 90 % 1016,3 hPa 0,0 mm 0,0 km/h (0 Bft) S-SO 156 ° 0 min 0,000 mm 0,0 UV-I 0 W/m² 11,8 °C 13,4 °C 0,0 km/h (0 Bft)
13.07.2017 23:38 13,3 °C 13,4 °C 91 % 1016,3 hPa 0,0 mm 0,0 km/h (0 Bft) S-SO 156 ° 0 min 0,000 mm 0,0 UV-I 0 W/m² 11,9 °C 13,3 °C 0,0 km/h (0 Bft)
13.07.2017 23:39 13,3 °C 13,3 °C 91 % 1016,3 hPa 0,0 mm 0,0 km/h (0 Bft) S-SO 156 ° 0 min 0,000 mm 0,0 UV-I 0 W/m² 11,9 °C 13,3 °C 0,0 km/h (0 Bft)
13.07.2017 23:40 13,3 °C 13,3 °C 91 % 1016,3 hPa 0,0 mm 0,0 km/h (0 Bft) S-SO 156 ° 0 min 0,000 mm 0,0 UV-I 0 W/m² 11,9 °C 13,3 °C 0,0 km/h (0 Bft)
13.07.2017 23:41 13,2 °C 13,3 °C 91 % 1016,3 hPa 0,0 mm 0,0 km/h (0 Bft) S-SO 156 ° 0 min 0,000 mm 0,0 UV-I 0 W/m² 11,8 °C 13,2 °C 0,0 km/h (0 Bft)
13.07.2017 23:42 13,2 °C 13,2 °C 91 % 1016,3 hPa 0,0 mm 0,0 km/h (0 Bft) S-SO 156 ° 0 min 0,000 mm 0,0 UV-I 0 W/m² 11,8 °C 13,2 °C 0,0 km/h (0 Bft)
13.07.2017 23:43 13,2 °C 13,2 °C 91 % 1016,2 hPa 0,0 mm 0,0 km/h (0 Bft) S-SO 156 ° 0 min 0,000 mm 0,0 UV-I 0 W/m² 11,8 °C 13,2 °C 0,0 km/h (0 Bft)
13.07.2017 23:44 13,1 °C 13,2 °C 91 % 1016,3 hPa 0,0 mm 0,0 km/h (0 Bft) S-SO 156 ° 0 min 0,000 mm 0,0 UV-I 0 W/m² 11,7 °C 13,1 °C 0,0 km/h (0 Bft)
13.07.2017 23:45 13,1 °C 13,1 °C 91 % 1016,3 hPa 0,0 mm 0,0 km/h (0 Bft) S-SO 156 ° 0 min 0,000 mm 0,0 UV-I 0 W/m² 11,7 °C 13,1 °C 0,0 km/h (0 Bft)
13.07.2017 23:46 13,0 °C 13,1 °C 91 % 1016,3 hPa 0,0 mm 0,0 km/h (0 Bft) S-SO 156 ° 0 min 0,000 mm 0,0 UV-I 0 W/m² 11,6 °C 13,0 °C 0,0 km/h (0 Bft)
13.07.2017 23:47 13,0 °C 13,1 °C 91 % 1016,3 hPa 0,0 mm 0,0 km/h (0 Bft) S-SO 156 ° 0 min 0,000 mm 0,0 UV-I 0 W/m² 11,6 °C 13,0 °C 0,0 km/h (0 Bft)
13.07.2017 23:48 12,9 °C 13,0 °C 91 % 1016,2 hPa 0,0 mm 0,0 km/h (0 Bft) S-SO 156 ° 0 min 0,000 mm 0,0 UV-I 0 W/m² 11,5 °C 12,9 °C 0,0 km/h (0 Bft)
13.07.2017 23:49 12,9 °C 13,0 °C 91 % 1016,3 hPa 0,0 mm 0,0 km/h (0 Bft) S-SO 156 ° 0 min 0,000 mm 0,0 UV-I 0 W/m² 11,5 °C 12,9 °C 0,0 km/h (0 Bft)
13.07.2017 23:50 12,8 °C 12,9 °C 91 % 1016,3 hPa 0,0 mm 0,0 km/h (0 Bft) S-SO 156 ° 0 min 0,000 mm 0,0 UV-I 0 W/m² 11,4 °C 12,8 °C 0,0 km/h (0 Bft)
13.07.2017 23:51 12,8 °C 12,8 °C 91 % 1016,3 hPa 0,0 mm 0,0 km/h (0 Bft) S-SO 156 ° 0 min 0,000 mm 0,0 UV-I 0 W/m² 11,4 °C 12,8 °C 0,0 km/h (0 Bft)
13.07.2017 23:52 12,8 °C 12,8 °C 91 % 1016,3 hPa 0,0 mm 0,0 km/h (0 Bft) S-SO 156 ° 0 min 0,000 mm 0,0 UV-I 0 W/m² 11,4 °C 12,8 °C 0,0 km/h (0 Bft)
13.07.2017 23:53 12,8 °C 12,8 °C 91 % 1016,3 hPa 0,0 mm 0,0 km/h (0 Bft) S-SO 156 ° 0 min 0,000 mm 0,0 UV-I 0 W/m² 11,4 °C 12,8 °C 0,0 km/h (0 Bft)
13.07.2017 23:54 12,8 °C 12,8 °C 92 % 1016,3 hPa 0,0 mm 0,0 km/h (0 Bft) S-SO 156 ° 0 min 0,000 mm 0,0 UV-I 0 W/m² 11,5 °C 12,8 °C 0,0 km/h (0 Bft)
13.07.2017 23:55 12,8 °C 12,8 °C 92 % 1016,3 hPa 0,0 mm 0,0 km/h (0 Bft) S-SO 156 ° 0 min 0,000 mm 0,0 UV-I 0 W/m² 11,5 °C 12,8 °C 0,0 km/h (0 Bft)
13.07.2017 23:56 12,8 °C 12,8 °C 92 % 1016,3 hPa 0,0 mm 0,0 km/h (0 Bft) S-SO 156 ° 0 min 0,000 mm 0,0 UV-I 0 W/m² 11,5 °C 12,8 °C 0,0 km/h (0 Bft)
13.07.2017 23:57 12,8 °C 12,8 °C 92 % 1016,3 hPa 0,0 mm 0,0 km/h (0 Bft) S-SO 156 ° 0 min 0,000 mm 0,0 UV-I 0 W/m² 11,5 °C 12,8 °C 0,0 km/h (0 Bft)
13.07.2017 23:58 12,8 °C 12,8 °C 92 % 1016,3 hPa 0,0 mm 0,0 km/h (0 Bft) S-SO 156 ° 0 min 0,000 mm 0,0 UV-I 0 W/m² 11,5 °C 12,8 °C 0,0 km/h (0 Bft)
13.07.2017 23:59 12,8 °C 12,8 °C 92 % 1016,3 hPa 0,0 mm 0,0 km/h (0 Bft) S-SO 156 ° 0 min 0,000 mm 0,0 UV-I 0 W/m² 11,5 °C 12,8 °C 0,0 km/h (0 Bft)
_ Min-Zeit 06:28 06:28 18:20 00:17 - 23:59 - - - - - - 06:24 06:28 23:59
Minimum _ 11,7 °C 11,7 °C 66 % 1015,9 hPa - 0,0 km/h (0 Bft) - - - - - - 10,8 °C 11,7 °C 0,0 km/h (0 Bft)
_ Max-Zeit 15:58 15:59 08:00 10:34 06:20 00:58 - - 16:32 14:01 13:29 12:25 13:52 15:58 00:40
Maximum _ 19,2 °C 19,2 °C 95 % 1019,1 hPa 0,2 mm 13,9 km/h
NW (3 Bft)
- - 1 min 0,356 mm 8,2 UV-I 1215 W/m² 14,4 °C 19,2 °C 24,1 km/h
W-SW (4 Bft)
Durchschnitt _ 14,8 °C 14,8 °C 85 % 1017,6 hPa #5,2 mm 1,8 km/h (1 Bft) O-NO - #4:14 h #2,184 mm 2,9 UV-I 156 W/m² 12,2 °C 14,8 °C 3,1 km/h (1 Bft)